<?xml version="1.0" encoding="UTF-8" standalone="no" ?>
<gpx xmlns="http://www.topografix.com/GPX/1/1" xmlns:xsi="http://www.w3.org/2001/XMLSchema-instance" xsi:schemaLocation="http://www.topografix.com/GPX/1/1 http://www.topografix.com/GPX/1/1/gpx.xsd" version="1.1" creator="VisuGPX - https://www.visugpx.com">
  <metadata>
    <name>013SG74-8054971</name>
    <desc><![CDATA[
01]]></desc>
  </metadata>
  <trk>
    <name><![CDATA[013SG74-8054971]]></name>
    <trkseg>
      <trkpt lat="46.69913" lon="-1.93375">
        <ele>5</ele>
        <time>2018-01-12T21:08:07Z</time>
      </trkpt>
      <trkpt lat="46.69914" lon="-1.93375">
        <ele>5</ele>
        <time>2018-01-12T21:09:07Z</time>
      </trkpt>
      <trkpt lat="46.69915" lon="-1.93376">
        <ele>5</ele>
        <time>2018-01-12T21:10:07Z</time>
      </trkpt>
      <trkpt lat="46.69915" lon="-1.93377">
        <ele>4</ele>
        <time>2018-01-12T21:11:07Z</time>
      </trkpt>
      <trkpt lat="46.69916" lon="-1.93379">
        <ele>4</ele>
        <time>2018-01-12T21:12:07Z</time>
      </trkpt>
      <trkpt lat="46.69916" lon="-1.93382">
        <ele>4</ele>
        <time>2018-01-12T21:13:07Z</time>
      </trkpt>
      <trkpt lat="46.69915" lon="-1.93383">
        <ele>4</ele>
        <time>2018-01-12T21:14:07Z</time>
      </trkpt>
      <trkpt lat="46.69915" lon="-1.93384">
        <ele>4</ele>
        <time>2018-01-12T21:15:07Z</time>
      </trkpt>
      <trkpt lat="46.69913" lon="-1.93385">
        <ele>4</ele>
        <time>2018-01-12T21:16:07Z</time>
      </trkpt>
      <trkpt lat="46.69912" lon="-1.93386">
        <ele>4</ele>
        <time>2018-01-12T21:17:07Z</time>
      </trkpt>
      <trkpt lat="46.69911" lon="-1.93386">
        <ele>4</ele>
        <time>2018-01-12T21:18:07Z</time>
      </trkpt>
      <trkpt lat="46.69909" lon="-1.93385">
        <ele>4</ele>
        <time>2018-01-12T21:19:07Z</time>
      </trkpt>
      <trkpt lat="46.69908" lon="-1.93383">
        <ele>4</ele>
        <time>2018-01-12T21:20:07Z</time>
      </trkpt>
      <trkpt lat="46.69908" lon="-1.93383">
        <ele>4</ele>
        <time>2018-01-12T21:21:07Z</time>
      </trkpt>
      <trkpt lat="46.69901" lon="-1.93383">
        <ele>5</ele>
        <time>2018-01-12T21:22:07Z</time>
      </trkpt>
      <trkpt lat="46.69898" lon="-1.93383">
        <ele>5</ele>
        <time>2018-01-12T21:23:07Z</time>
      </trkpt>
      <trkpt lat="46.69892" lon="-1.93385">
        <ele>5</ele>
        <time>2018-01-12T21:24:07Z</time>
      </trkpt>
      <trkpt lat="46.69824" lon="-1.93411">
        <ele>5</ele>
        <time>2018-01-12T21:25:07Z</time>
      </trkpt>
      <trkpt lat="46.69806" lon="-1.93419">
        <ele>5</ele>
        <time>2018-01-12T21:26:07Z</time>
      </trkpt>
      <trkpt lat="46.69798" lon="-1.93421">
        <ele>5</ele>
        <time>2018-01-12T21:27:07Z</time>
      </trkpt>
      <trkpt lat="46.69797" lon="-1.93421">
        <ele>5</ele>
        <time>2018-01-12T21:28:07Z</time>
      </trkpt>
      <trkpt lat="46.69793" lon="-1.9342">
        <ele>5</ele>
        <time>2018-01-12T21:29:07Z</time>
      </trkpt>
      <trkpt lat="46.69793" lon="-1.93421">
        <ele>5</ele>
        <time>2018-01-12T21:30:07Z</time>
      </trkpt>
      <trkpt lat="46.69793" lon="-1.93422">
        <ele>5</ele>
        <time>2018-01-12T21:31:07Z</time>
      </trkpt>
      <trkpt lat="46.69793" lon="-1.93423">
        <ele>5</ele>
        <time>2018-01-12T21:32:07Z</time>
      </trkpt>
      <trkpt lat="46.69793" lon="-1.93424">
        <ele>5</ele>
        <time>2018-01-12T21:33:07Z</time>
      </trkpt>
      <trkpt lat="46.69792" lon="-1.93425">
        <ele>5</ele>
        <time>2018-01-12T21:34:07Z</time>
      </trkpt>
      <trkpt lat="46.69792" lon="-1.93426">
        <ele>5</ele>
        <time>2018-01-12T21:35:07Z</time>
      </trkpt>
      <trkpt lat="46.69791" lon="-1.93426">
        <ele>5</ele>
        <time>2018-01-12T21:36:07Z</time>
      </trkpt>
      <trkpt lat="46.69791" lon="-1.93427">
        <ele>5</ele>
        <time>2018-01-12T21:37:07Z</time>
      </trkpt>
      <trkpt lat="46.6979" lon="-1.93427">
        <ele>5</ele>
        <time>2018-01-12T21:38:07Z</time>
      </trkpt>
      <trkpt lat="46.6979" lon="-1.93428">
        <ele>5</ele>
        <time>2018-01-12T21:39:07Z</time>
      </trkpt>
      <trkpt lat="46.69789" lon="-1.93428">
        <ele>5</ele>
        <time>2018-01-12T21:40:07Z</time>
      </trkpt>
      <trkpt lat="46.69788" lon="-1.93428">
        <ele>5</ele>
        <time>2018-01-12T21:41:07Z</time>
      </trkpt>
      <trkpt lat="46.69788" lon="-1.93427">
        <ele>5</ele>
        <time>2018-01-12T21:42:07Z</time>
      </trkpt>
      <trkpt lat="46.69787" lon="-1.93427">
        <ele>5</ele>
        <time>2018-01-12T21:43:07Z</time>
      </trkpt>
      <trkpt lat="46.69787" lon="-1.93426">
        <ele>5</ele>
        <time>2018-01-12T21:44:07Z</time>
      </trkpt>
      <trkpt lat="46.69786" lon="-1.93426">
        <ele>5</ele>
        <time>2018-01-12T21:45:07Z</time>
      </trkpt>
      <trkpt lat="46.69786" lon="-1.93425">
        <ele>5</ele>
        <time>2018-01-12T21:46:07Z</time>
      </trkpt>
      <trkpt lat="46.69786" lon="-1.93424">
        <ele>5</ele>
        <time>2018-01-12T21:47:07Z</time>
      </trkpt>
      <trkpt lat="46.69785" lon="-1.93424">
        <ele>5</ele>
        <time>2018-01-12T21:48:07Z</time>
      </trkpt>
      <trkpt lat="46.69785" lon="-1.93423">
        <ele>5</ele>
        <time>2018-01-12T21:49:07Z</time>
      </trkpt>
      <trkpt lat="46.69785" lon="-1.93422">
        <ele>5</ele>
        <time>2018-01-12T21:50:07Z</time>
      </trkpt>
      <trkpt lat="46.69779" lon="-1.9342">
        <ele>5</ele>
        <time>2018-01-12T21:51:07Z</time>
      </trkpt>
      <trkpt lat="46.69776" lon="-1.9342">
        <ele>5</ele>
        <time>2018-01-12T21:52:07Z</time>
      </trkpt>
      <trkpt lat="46.69772" lon="-1.9342">
        <ele>5</ele>
        <time>2018-01-12T21:53:07Z</time>
      </trkpt>
      <trkpt lat="46.69762" lon="-1.93423">
        <ele>5</ele>
        <time>2018-01-12T21:54:07Z</time>
      </trkpt>
      <trkpt lat="46.69759" lon="-1.93424">
        <ele>5</ele>
        <time>2018-01-12T21:55:07Z</time>
      </trkpt>
      <trkpt lat="46.69721" lon="-1.93434">
        <ele>5</ele>
        <time>2018-01-12T21:56:07Z</time>
      </trkpt>
      <trkpt lat="46.69714" lon="-1.93435">
        <ele>5</ele>
        <time>2018-01-12T21:57:07Z</time>
      </trkpt>
      <trkpt lat="46.69697" lon="-1.93436">
        <ele>5</ele>
        <time>2018-01-12T21:58:07Z</time>
      </trkpt>
      <trkpt lat="46.69685" lon="-1.93435">
        <ele>5</ele>
        <time>2018-01-12T21:59:07Z</time>
      </trkpt>
      <trkpt lat="46.69633" lon="-1.93423">
        <ele>5</ele>
        <time>2018-01-12T22:00:07Z</time>
      </trkpt>
      <trkpt lat="46.69633" lon="-1.93423">
        <ele>5</ele>
        <time>2018-01-12T22:01:07Z</time>
      </trkpt>
      <trkpt lat="46.69633" lon="-1.93424">
        <ele>4</ele>
        <time>2018-01-12T22:02:07Z</time>
      </trkpt>
      <trkpt lat="46.69633" lon="-1.93425">
        <ele>4</ele>
        <time>2018-01-12T22:03:07Z</time>
      </trkpt>
      <trkpt lat="46.69633" lon="-1.93426">
        <ele>4</ele>
        <time>2018-01-12T22:04:07Z</time>
      </trkpt>
      <trkpt lat="46.69633" lon="-1.93427">
        <ele>4</ele>
        <time>2018-01-12T22:05:07Z</time>
      </trkpt>
      <trkpt lat="46.69633" lon="-1.93428">
        <ele>4</ele>
        <time>2018-01-12T22:06:07Z</time>
      </trkpt>
      <trkpt lat="46.69633" lon="-1.93429">
        <ele>4</ele>
        <time>2018-01-12T22:07:07Z</time>
      </trkpt>
      <trkpt lat="46.69633" lon="-1.9343">
        <ele>4</ele>
        <time>2018-01-12T22:08:07Z</time>
      </trkpt>
      <trkpt lat="46.69632" lon="-1.9343">
        <ele>4</ele>
        <time>2018-01-12T22:09:07Z</time>
      </trkpt>
      <trkpt lat="46.69632" lon="-1.93431">
        <ele>4</ele>
        <time>2018-01-12T22:10:07Z</time>
      </trkpt>
      <trkpt lat="46.69632" lon="-1.93432">
        <ele>4</ele>
        <time>2018-01-12T22:11:07Z</time>
      </trkpt>
      <trkpt lat="46.69631" lon="-1.93432">
        <ele>4</ele>
        <time>2018-01-12T22:12:07Z</time>
      </trkpt>
      <trkpt lat="46.69631" lon="-1.93433">
        <ele>4</ele>
        <time>2018-01-12T22:13:07Z</time>
      </trkpt>
      <trkpt lat="46.69631" lon="-1.93434">
        <ele>4</ele>
        <time>2018-01-12T22:14:07Z</time>
      </trkpt>
      <trkpt lat="46.6963" lon="-1.93434">
        <ele>4</ele>
        <time>2018-01-12T22:15:07Z</time>
      </trkpt>
      <trkpt lat="46.6963" lon="-1.93435">
        <ele>4</ele>
        <time>2018-01-12T22:16:07Z</time>
      </trkpt>
      <trkpt lat="46.69629" lon="-1.93435">
        <ele>4</ele>
        <time>2018-01-12T22:17:07Z</time>
      </trkpt>
      <trkpt lat="46.69629" lon="-1.93436">
        <ele>4</ele>
        <time>2018-01-12T22:18:07Z</time>
      </trkpt>
      <trkpt lat="46.69628" lon="-1.93436">
        <ele>4</ele>
        <time>2018-01-12T22:19:07Z</time>
      </trkpt>
      <trkpt lat="46.69627" lon="-1.93436">
        <ele>4</ele>
        <time>2018-01-12T22:20:07Z</time>
      </trkpt>
      <trkpt lat="46.69627" lon="-1.93437">
        <ele>4</ele>
        <time>2018-01-12T22:21:07Z</time>
      </trkpt>
      <trkpt lat="46.69626" lon="-1.93437">
        <ele>4</ele>
        <time>2018-01-12T22:22:07Z</time>
      </trkpt>
      <trkpt lat="46.69625" lon="-1.93437">
        <ele>4</ele>
        <time>2018-01-12T22:23:07Z</time>
      </trkpt>
      <trkpt lat="46.69624" lon="-1.93437">
        <ele>4</ele>
        <time>2018-01-12T22:24:07Z</time>
      </trkpt>
      <trkpt lat="46.69623" lon="-1.93437">
        <ele>4</ele>
        <time>2018-01-12T22:25:07Z</time>
      </trkpt>
      <trkpt lat="46.69622" lon="-1.93436">
        <ele>4</ele>
        <time>2018-01-12T22:26:07Z</time>
      </trkpt>
      <trkpt lat="46.69619" lon="-1.93445">
        <ele>4</ele>
        <time>2018-01-12T22:27:07Z</time>
      </trkpt>
      <trkpt lat="46.69613" lon="-1.93483">
        <ele>4</ele>
        <time>2018-01-12T22:28:07Z</time>
      </trkpt>
      <trkpt lat="46.69606" lon="-1.93531">
        <ele>4</ele>
        <time>2018-01-12T22:29:07Z</time>
      </trkpt>
      <trkpt lat="46.69602" lon="-1.9355">
        <ele>4</ele>
        <time>2018-01-12T22:30:07Z</time>
      </trkpt>
      <trkpt lat="46.696" lon="-1.93576">
        <ele>4</ele>
        <time>2018-01-12T22:31:07Z</time>
      </trkpt>
      <trkpt lat="46.696" lon="-1.93576">
        <ele>4</ele>
        <time>2018-01-12T22:32:07Z</time>
      </trkpt>
      <trkpt lat="46.696" lon="-1.93577">
        <ele>4</ele>
        <time>2018-01-12T22:33:07Z</time>
      </trkpt>
      <trkpt lat="46.69601" lon="-1.93577">
        <ele>4</ele>
        <time>2018-01-12T22:34:07Z</time>
      </trkpt>
      <trkpt lat="46.69601" lon="-1.93578">
        <ele>4</ele>
        <time>2018-01-12T22:35:07Z</time>
      </trkpt>
      <trkpt lat="46.69602" lon="-1.93578">
        <ele>4</ele>
        <time>2018-01-12T22:36:07Z</time>
      </trkpt>
      <trkpt lat="46.69602" lon="-1.93579">
        <ele>4</ele>
        <time>2018-01-12T22:37:07Z</time>
      </trkpt>
      <trkpt lat="46.69603" lon="-1.93579">
        <ele>4</ele>
        <time>2018-01-12T22:38:07Z</time>
      </trkpt>
      <trkpt lat="46.69603" lon="-1.9358">
        <ele>4</ele>
        <time>2018-01-12T22:39:07Z</time>
      </trkpt>
      <trkpt lat="46.69603" lon="-1.93581">
        <ele>4</ele>
        <time>2018-01-12T22:40:07Z</time>
      </trkpt>
      <trkpt lat="46.69604" lon="-1.93581">
        <ele>4</ele>
        <time>2018-01-12T22:41:07Z</time>
      </trkpt>
      <trkpt lat="46.69604" lon="-1.93582">
        <ele>4</ele>
        <time>2018-01-12T22:42:07Z</time>
      </trkpt>
      <trkpt lat="46.69604" lon="-1.93583">
        <ele>4</ele>
        <time>2018-01-12T22:43:07Z</time>
      </trkpt>
      <trkpt lat="46.69604" lon="-1.93584">
        <ele>4</ele>
        <time>2018-01-12T22:44:07Z</time>
      </trkpt>
      <trkpt lat="46.69605" lon="-1.93585">
        <ele>4</ele>
        <time>2018-01-12T22:45:07Z</time>
      </trkpt>
      <trkpt lat="46.69605" lon="-1.93586">
        <ele>4</ele>
        <time>2018-01-12T22:46:07Z</time>
      </trkpt>
      <trkpt lat="46.69605" lon="-1.93587">
        <ele>4</ele>
        <time>2018-01-12T22:47:07Z</time>
      </trkpt>
      <trkpt lat="46.69605" lon="-1.93588">
        <ele>4</ele>
        <time>2018-01-12T22:48:07Z</time>
      </trkpt>
      <trkpt lat="46.69605" lon="-1.93589">
        <ele>4</ele>
        <time>2018-01-12T22:49:07Z</time>
      </trkpt>
      <trkpt lat="46.69604" lon="-1.93589">
        <ele>4</ele>
        <time>2018-01-12T22:50:07Z</time>
      </trkpt>
      <trkpt lat="46.69604" lon="-1.9359">
        <ele>4</ele>
        <time>2018-01-12T22:51:07Z</time>
      </trkpt>
      <trkpt lat="46.69604" lon="-1.93591">
        <ele>4</ele>
        <time>2018-01-12T22:52:07Z</time>
      </trkpt>
      <trkpt lat="46.69604" lon="-1.93592">
        <ele>4</ele>
        <time>2018-01-12T22:53:07Z</time>
      </trkpt>
      <trkpt lat="46.69604" lon="-1.93593">
        <ele>4</ele>
        <time>2018-01-12T22:54:07Z</time>
      </trkpt>
      <trkpt lat="46.69604" lon="-1.93594">
        <ele>4</ele>
        <time>2018-01-12T22:55:07Z</time>
      </trkpt>
      <trkpt lat="46.69604" lon="-1.93595">
        <ele>4</ele>
        <time>2018-01-12T22:56:07Z</time>
      </trkpt>
      <trkpt lat="46.69603" lon="-1.93595">
        <ele>4</ele>
        <time>2018-01-12T22:57:07Z</time>
      </trkpt>
      <trkpt lat="46.69603" lon="-1.93596">
        <ele>4</ele>
        <time>2018-01-12T22:58:07Z</time>
      </trkpt>
      <trkpt lat="46.69603" lon="-1.93597">
        <ele>4</ele>
        <time>2018-01-12T22:59:07Z</time>
      </trkpt>
      <trkpt lat="46.69602" lon="-1.93598">
        <ele>4</ele>
        <time>2018-01-12T23:00:07Z</time>
      </trkpt>
      <trkpt lat="46.69602" lon="-1.93599">
        <ele>4</ele>
        <time>2018-01-12T23:01:07Z</time>
      </trkpt>
      <trkpt lat="46.69601" lon="-1.93599">
        <ele>4</ele>
        <time>2018-01-12T23:02:07Z</time>
      </trkpt>
      <trkpt lat="46.69601" lon="-1.936">
        <ele>4</ele>
        <time>2018-01-12T23:03:07Z</time>
      </trkpt>
      <trkpt lat="46.696" lon="-1.936">
        <ele>4</ele>
        <time>2018-01-12T23:04:07Z</time>
      </trkpt>
      <trkpt lat="46.696" lon="-1.93601">
        <ele>4</ele>
        <time>2018-01-12T23:05:07Z</time>
      </trkpt>
      <trkpt lat="46.69599" lon="-1.93601">
        <ele>4</ele>
        <time>2018-01-12T23:06:07Z</time>
      </trkpt>
      <trkpt lat="46.69599" lon="-1.93602">
        <ele>4</ele>
        <time>2018-01-12T23:07:07Z</time>
      </trkpt>
      <trkpt lat="46.69598" lon="-1.93602">
        <ele>4</ele>
        <time>2018-01-12T23:08:07Z</time>
      </trkpt>
      <trkpt lat="46.69597" lon="-1.93602">
        <ele>4</ele>
        <time>2018-01-12T23:09:07Z</time>
      </trkpt>
      <trkpt lat="46.69596" lon="-1.93602">
        <ele>4</ele>
        <time>2018-01-12T23:10:07Z</time>
      </trkpt>
      <trkpt lat="46.69596" lon="-1.93603">
        <ele>4</ele>
        <time>2018-01-12T23:11:07Z</time>
      </trkpt>
      <trkpt lat="46.69595" lon="-1.93603">
        <ele>4</ele>
        <time>2018-01-12T23:12:07Z</time>
      </trkpt>
      <trkpt lat="46.69594" lon="-1.93602">
        <ele>4</ele>
        <time>2018-01-12T23:13:07Z</time>
      </trkpt>
      <trkpt lat="46.69593" lon="-1.93602">
        <ele>4</ele>
        <time>2018-01-12T23:14:07Z</time>
      </trkpt>
      <trkpt lat="46.69592" lon="-1.93602">
        <ele>4</ele>
        <time>2018-01-12T23:15:07Z</time>
      </trkpt>
      <trkpt lat="46.69592" lon="-1.93601">
        <ele>4</ele>
        <time>2018-01-12T23:16:07Z</time>
      </trkpt>
      <trkpt lat="46.69591" lon="-1.93601">
        <ele>4</ele>
        <time>2018-01-12T23:17:07Z</time>
      </trkpt>
      <trkpt lat="46.6959" lon="-1.936">
        <ele>4</ele>
        <time>2018-01-12T23:18:07Z</time>
      </trkpt>
      <trkpt lat="46.69589" lon="-1.936">
        <ele>4</ele>
        <time>2018-01-12T23:19:07Z</time>
      </trkpt>
      <trkpt lat="46.69589" lon="-1.93599">
        <ele>4</ele>
        <time>2018-01-12T23:20:07Z</time>
      </trkpt>
      <trkpt lat="46.69588" lon="-1.93598">
        <ele>4</ele>
        <time>2018-01-12T23:21:07Z</time>
      </trkpt>
      <trkpt lat="46.69588" lon="-1.93597">
        <ele>4</ele>
        <time>2018-01-12T23:22:07Z</time>
      </trkpt>
      <trkpt lat="46.69587" lon="-1.93597">
        <ele>4</ele>
        <time>2018-01-12T23:23:07Z</time>
      </trkpt>
      <trkpt lat="46.69587" lon="-1.93596">
        <ele>4</ele>
        <time>2018-01-12T23:24:07Z</time>
      </trkpt>
      <trkpt lat="46.69587" lon="-1.93595">
        <ele>4</ele>
        <time>2018-01-12T23:25:07Z</time>
      </trkpt>
      <trkpt lat="46.69586" lon="-1.93595">
        <ele>4</ele>
        <time>2018-01-12T23:26:07Z</time>
      </trkpt>
      <trkpt lat="46.69581" lon="-1.93596">
        <ele>4</ele>
        <time>2018-01-12T23:27:07Z</time>
      </trkpt>
      <trkpt lat="46.69575" lon="-1.93596">
        <ele>4</ele>
        <time>2018-01-12T23:28:07Z</time>
      </trkpt>
      <trkpt lat="46.69564" lon="-1.93594">
        <ele>4</ele>
        <time>2018-01-12T23:29:07Z</time>
      </trkpt>
      <trkpt lat="46.69561" lon="-1.93593">
        <ele>4</ele>
        <time>2018-01-12T23:30:07Z</time>
      </trkpt>
      <trkpt lat="46.69552" lon="-1.93588">
        <ele>4</ele>
        <time>2018-01-12T23:31:07Z</time>
      </trkpt>
      <trkpt lat="46.69542" lon="-1.93584">
        <ele>4</ele>
        <time>2018-01-12T23:32:07Z</time>
      </trkpt>
      <trkpt lat="46.6953" lon="-1.93579">
        <ele>3</ele>
        <time>2018-01-12T23:33:07Z</time>
      </trkpt>
      <trkpt lat="46.69519" lon="-1.93575">
        <ele>3</ele>
        <time>2018-01-12T23:34:07Z</time>
      </trkpt>
      <trkpt lat="46.69514" lon="-1.93574">
        <ele>3</ele>
        <time>2018-01-12T23:35:07Z</time>
      </trkpt>
      <trkpt lat="46.6951" lon="-1.93574">
        <ele>3</ele>
        <time>2018-01-12T23:36:07Z</time>
      </trkpt>
      <trkpt lat="46.69507" lon="-1.93574">
        <ele>3</ele>
        <time>2018-01-12T23:37:07Z</time>
      </trkpt>
      <trkpt lat="46.69498" lon="-1.93578">
        <ele>3</ele>
        <time>2018-01-12T23:38:07Z</time>
      </trkpt>
      <trkpt lat="46.69488" lon="-1.93581">
        <ele>3</ele>
        <time>2018-01-12T23:39:07Z</time>
      </trkpt>
      <trkpt lat="46.69478" lon="-1.93583">
        <ele>2</ele>
        <time>2018-01-12T23:40:07Z</time>
      </trkpt>
      <trkpt lat="46.69455" lon="-1.9359">
        <ele>2</ele>
        <time>2018-01-12T23:41:07Z</time>
      </trkpt>
      <trkpt lat="46.6944" lon="-1.93596">
        <ele>2</ele>
        <time>2018-01-12T23:42:07Z</time>
      </trkpt>
      <trkpt lat="46.69433" lon="-1.93601">
        <ele>2</ele>
        <time>2018-01-12T23:43:07Z</time>
      </trkpt>
      <trkpt lat="46.69428" lon="-1.93608">
        <ele>2</ele>
        <time>2018-01-12T23:44:07Z</time>
      </trkpt>
      <trkpt lat="46.69427" lon="-1.9361">
        <ele>2</ele>
        <time>2018-01-12T23:45:07Z</time>
      </trkpt>
      <trkpt lat="46.69427" lon="-1.93617">
        <ele>2</ele>
        <time>2018-01-12T23:46:07Z</time>
      </trkpt>
      <trkpt lat="46.69426" lon="-1.93624">
        <ele>2</ele>
        <time>2018-01-12T23:47:07Z</time>
      </trkpt>
      <trkpt lat="46.69426" lon="-1.93633">
        <ele>2</ele>
        <time>2018-01-12T23:48:07Z</time>
      </trkpt>
      <trkpt lat="46.69425" lon="-1.9364">
        <ele>2</ele>
        <time>2018-01-12T23:49:07Z</time>
      </trkpt>
      <trkpt lat="46.69426" lon="-1.93647">
        <ele>3</ele>
        <time>2018-01-12T23:50:07Z</time>
      </trkpt>
      <trkpt lat="46.69428" lon="-1.9366">
        <ele>3</ele>
        <time>2018-01-12T23:51:07Z</time>
      </trkpt>
      <trkpt lat="46.69436" lon="-1.93692">
        <ele>3</ele>
        <time>2018-01-12T23:52:07Z</time>
      </trkpt>
      <trkpt lat="46.69442" lon="-1.93715">
        <ele>3</ele>
        <time>2018-01-12T23:53:07Z</time>
      </trkpt>
      <trkpt lat="46.69446" lon="-1.93727">
        <ele>3</ele>
        <time>2018-01-12T23:54:07Z</time>
      </trkpt>
      <trkpt lat="46.69447" lon="-1.93732">
        <ele>3</ele>
        <time>2018-01-12T23:55:07Z</time>
      </trkpt>
      <trkpt lat="46.69449" lon="-1.93738">
        <ele>3</ele>
        <time>2018-01-12T23:56:07Z</time>
      </trkpt>
      <trkpt lat="46.69455" lon="-1.93753">
        <ele>3</ele>
        <time>2018-01-12T23:57:07Z</time>
      </trkpt>
      <trkpt lat="46.69455" lon="-1.93754">
        <ele>3</ele>
        <time>2018-01-12T23:58:07Z</time>
      </trkpt>
      <trkpt lat="46.69463" lon="-1.93773">
        <ele>3</ele>
        <time>2018-01-12T23:59:07Z</time>
      </trkpt>
      <trkpt lat="46.69466" lon="-1.93779">
        <ele>3</ele>
        <time>2018-01-13T00:00:07Z</time>
      </trkpt>
      <trkpt lat="46.69472" lon="-1.93792">
        <ele>3</ele>
        <time>2018-01-13T00:01:07Z</time>
      </trkpt>
      <trkpt lat="46.69493" lon="-1.93837">
        <ele>3</ele>
        <time>2018-01-13T00:02:07Z</time>
      </trkpt>
      <trkpt lat="46.69495" lon="-1.93843">
        <ele>3</ele>
        <time>2018-01-13T00:03:07Z</time>
      </trkpt>
      <trkpt lat="46.69505" lon="-1.93865">
        <ele>4</ele>
        <time>2018-01-13T00:04:07Z</time>
      </trkpt>
      <trkpt lat="46.69507" lon="-1.93869">
        <ele>4</ele>
        <time>2018-01-13T00:05:07Z</time>
      </trkpt>
      <trkpt lat="46.6951" lon="-1.93875">
        <ele>4</ele>
        <time>2018-01-13T00:06:07Z</time>
      </trkpt>
      <trkpt lat="46.69511" lon="-1.93878">
        <ele>4</ele>
        <time>2018-01-13T00:07:07Z</time>
      </trkpt>
      <trkpt lat="46.69522" lon="-1.93898">
        <ele>4</ele>
        <time>2018-01-13T00:08:07Z</time>
      </trkpt>
      <trkpt lat="46.69525" lon="-1.93905">
        <ele>4</ele>
        <time>2018-01-13T00:09:07Z</time>
      </trkpt>
      <trkpt lat="46.69529" lon="-1.93909">
        <ele>4</ele>
        <time>2018-01-13T00:10:07Z</time>
      </trkpt>
      <trkpt lat="46.69536" lon="-1.93928">
        <ele>4</ele>
        <time>2018-01-13T00:11:07Z</time>
      </trkpt>
      <trkpt lat="46.69547" lon="-1.93956">
        <ele>4</ele>
        <time>2018-01-13T00:12:07Z</time>
      </trkpt>
      <trkpt lat="46.69549" lon="-1.93962">
        <ele>4</ele>
        <time>2018-01-13T00:13:07Z</time>
      </trkpt>
      <trkpt lat="46.69554" lon="-1.93974">
        <ele>4</ele>
        <time>2018-01-13T00:14:07Z</time>
      </trkpt>
      <trkpt lat="46.69568" lon="-1.94001">
        <ele>4</ele>
        <time>2018-01-13T00:15:07Z</time>
      </trkpt>
      <trkpt lat="46.69581" lon="-1.94025">
        <ele>4</ele>
        <time>2018-01-13T00:16:07Z</time>
      </trkpt>
      <trkpt lat="46.69583" lon="-1.9403">
        <ele>4</ele>
        <time>2018-01-13T00:17:07Z</time>
      </trkpt>
      <trkpt lat="46.69587" lon="-1.94036">
        <ele>4</ele>
        <time>2018-01-13T00:18:07Z</time>
      </trkpt>
      <trkpt lat="46.6959" lon="-1.94041">
        <ele>3</ele>
        <time>2018-01-13T00:19:07Z</time>
      </trkpt>
      <trkpt lat="46.69593" lon="-1.94042">
        <ele>3</ele>
        <time>2018-01-13T00:20:07Z</time>
      </trkpt>
      <trkpt lat="46.69595" lon="-1.94042">
        <ele>3</ele>
        <time>2018-01-13T00:21:07Z</time>
      </trkpt>
      <trkpt lat="46.69598" lon="-1.94042">
        <ele>3</ele>
        <time>2018-01-13T00:22:07Z</time>
      </trkpt>
      <trkpt lat="46.69602" lon="-1.94042">
        <ele>3</ele>
        <time>2018-01-13T00:23:07Z</time>
      </trkpt>
      <trkpt lat="46.69606" lon="-1.94037">
        <ele>3</ele>
        <time>2018-01-13T00:24:07Z</time>
      </trkpt>
      <trkpt lat="46.69612" lon="-1.94035">
        <ele>3</ele>
        <time>2018-01-13T00:25:07Z</time>
      </trkpt>
      <trkpt lat="46.6962" lon="-1.9403">
        <ele>3</ele>
        <time>2018-01-13T00:26:07Z</time>
      </trkpt>
      <trkpt lat="46.69623" lon="-1.94029">
        <ele>3</ele>
        <time>2018-01-13T00:27:07Z</time>
      </trkpt>
      <trkpt lat="46.69627" lon="-1.94029">
        <ele>3</ele>
        <time>2018-01-13T00:28:07Z</time>
      </trkpt>
      <trkpt lat="46.69629" lon="-1.9403">
        <ele>3</ele>
        <time>2018-01-13T00:29:07Z</time>
      </trkpt>
      <trkpt lat="46.69632" lon="-1.94033">
        <ele>3</ele>
        <time>2018-01-13T00:30:07Z</time>
      </trkpt>
      <trkpt lat="46.69633" lon="-1.94034">
        <ele>3</ele>
        <time>2018-01-13T00:31:07Z</time>
      </trkpt>
      <trkpt lat="46.69634" lon="-1.94038">
        <ele>3</ele>
        <time>2018-01-13T00:32:07Z</time>
      </trkpt>
      <trkpt lat="46.69641" lon="-1.94064">
        <ele>3</ele>
        <time>2018-01-13T00:33:07Z</time>
      </trkpt>
      <trkpt lat="46.69647" lon="-1.94085">
        <ele>2</ele>
        <time>2018-01-13T00:34:07Z</time>
      </trkpt>
      <trkpt lat="46.6965" lon="-1.941">
        <ele>3</ele>
        <time>2018-01-13T00:35:07Z</time>
      </trkpt>
      <trkpt lat="46.69653" lon="-1.9411">
        <ele>3</ele>
        <time>2018-01-13T00:36:07Z</time>
      </trkpt>
      <trkpt lat="46.69658" lon="-1.94132">
        <ele>4</ele>
        <time>2018-01-13T00:37:07Z</time>
      </trkpt>
      <trkpt lat="46.6966" lon="-1.94143">
        <ele>4</ele>
        <time>2018-01-13T00:38:07Z</time>
      </trkpt>
      <trkpt lat="46.69675" lon="-1.94202">
        <ele>5</ele>
        <time>2018-01-13T00:39:07Z</time>
      </trkpt>
      <trkpt lat="46.69688" lon="-1.94251">
        <ele>4</ele>
        <time>2018-01-13T00:40:07Z</time>
      </trkpt>
      <trkpt lat="46.69696" lon="-1.94286">
        <ele>4</ele>
        <time>2018-01-13T00:41:07Z</time>
      </trkpt>
      <trkpt lat="46.697" lon="-1.94303">
        <ele>4</ele>
        <time>2018-01-13T00:42:07Z</time>
      </trkpt>
      <trkpt lat="46.69703" lon="-1.94314">
        <ele>4</ele>
        <time>2018-01-13T00:43:07Z</time>
      </trkpt>
      <trkpt lat="46.69709" lon="-1.94333">
        <ele>4</ele>
        <time>2018-01-13T00:44:07Z</time>
      </trkpt>
      <trkpt lat="46.69718" lon="-1.9436">
        <ele>4</ele>
        <time>2018-01-13T00:45:07Z</time>
      </trkpt>
      <trkpt lat="46.69727" lon="-1.94384">
        <ele>4</ele>
        <time>2018-01-13T00:46:07Z</time>
      </trkpt>
      <trkpt lat="46.69732" lon="-1.944">
        <ele>4</ele>
        <time>2018-01-13T00:47:07Z</time>
      </trkpt>
      <trkpt lat="46.69735" lon="-1.94411">
        <ele>3</ele>
        <time>2018-01-13T00:48:07Z</time>
      </trkpt>
      <trkpt lat="46.69745" lon="-1.9444">
        <ele>2</ele>
        <time>2018-01-13T00:49:07Z</time>
      </trkpt>
      <trkpt lat="46.69748" lon="-1.94448">
        <ele>2</ele>
        <time>2018-01-13T00:50:07Z</time>
      </trkpt>
      <trkpt lat="46.69753" lon="-1.94463">
        <ele>4</ele>
        <time>2018-01-13T00:51:07Z</time>
      </trkpt>
      <trkpt lat="46.69758" lon="-1.94477">
        <ele>4</ele>
        <time>2018-01-13T00:52:07Z</time>
      </trkpt>
      <trkpt lat="46.69765" lon="-1.94496">
        <ele>4</ele>
        <time>2018-01-13T00:53:07Z</time>
      </trkpt>
      <trkpt lat="46.6978" lon="-1.94548">
        <ele>3</ele>
        <time>2018-01-13T00:54:07Z</time>
      </trkpt>
      <trkpt lat="46.69799" lon="-1.94634">
        <ele>4</ele>
        <time>2018-01-13T00:55:07Z</time>
      </trkpt>
      <trkpt lat="46.69805" lon="-1.94657">
        <ele>4</ele>
        <time>2018-01-13T00:56:07Z</time>
      </trkpt>
      <trkpt lat="46.69809" lon="-1.94676">
        <ele>4</ele>
        <time>2018-01-13T00:57:07Z</time>
      </trkpt>
      <trkpt lat="46.69814" lon="-1.94695">
        <ele>4</ele>
        <time>2018-01-13T00:58:07Z</time>
      </trkpt>
      <trkpt lat="46.69819" lon="-1.94712">
        <ele>4</ele>
        <time>2018-01-13T00:59:07Z</time>
      </trkpt>
      <trkpt lat="46.69825" lon="-1.94732">
        <ele>5</ele>
        <time>2018-01-13T01:00:07Z</time>
      </trkpt>
      <trkpt lat="46.69826" lon="-1.94736">
        <ele>5</ele>
        <time>2018-01-13T01:01:07Z</time>
      </trkpt>
      <trkpt lat="46.69828" lon="-1.94745">
        <ele>5</ele>
        <time>2018-01-13T01:02:07Z</time>
      </trkpt>
      <trkpt lat="46.69828" lon="-1.94745">
        <ele>5</ele>
        <time>2018-01-13T01:03:07Z</time>
      </trkpt>
      <trkpt lat="46.69836" lon="-1.94769">
        <ele>5</ele>
        <time>2018-01-13T01:04:07Z</time>
      </trkpt>
      <trkpt lat="46.69848" lon="-1.94802">
        <ele>5</ele>
        <time>2018-01-13T01:05:07Z</time>
      </trkpt>
      <trkpt lat="46.6986" lon="-1.94828">
        <ele>5</ele>
        <time>2018-01-13T01:06:07Z</time>
      </trkpt>
      <trkpt lat="46.69867" lon="-1.94841">
        <ele>5</ele>
        <time>2018-01-13T01:07:07Z</time>
      </trkpt>
      <trkpt lat="46.69874" lon="-1.94856">
        <ele>6</ele>
        <time>2018-01-13T01:08:07Z</time>
      </trkpt>
      <trkpt lat="46.69896" lon="-1.94891">
        <ele>6</ele>
        <time>2018-01-13T01:09:07Z</time>
      </trkpt>
      <trkpt lat="46.69911" lon="-1.94912">
        <ele>7</ele>
        <time>2018-01-13T01:10:07Z</time>
      </trkpt>
      <trkpt lat="46.69918" lon="-1.94924">
        <ele>7</ele>
        <time>2018-01-13T01:11:07Z</time>
      </trkpt>
      <trkpt lat="46.69934" lon="-1.94944">
        <ele>8</ele>
        <time>2018-01-13T01:12:07Z</time>
      </trkpt>
      <trkpt lat="46.69949" lon="-1.94964">
        <ele>8</ele>
        <time>2018-01-13T01:13:07Z</time>
      </trkpt>
      <trkpt lat="46.69963" lon="-1.9498">
        <ele>8</ele>
        <time>2018-01-13T01:14:07Z</time>
      </trkpt>
      <trkpt lat="46.69981" lon="-1.94999">
        <ele>7</ele>
        <time>2018-01-13T01:15:07Z</time>
      </trkpt>
      <trkpt lat="46.69997" lon="-1.95014">
        <ele>7</ele>
        <time>2018-01-13T01:16:07Z</time>
      </trkpt>
      <trkpt lat="46.70007" lon="-1.95023">
        <ele>7</ele>
        <time>2018-01-13T01:17:07Z</time>
      </trkpt>
      <trkpt lat="46.70013" lon="-1.95027">
        <ele>7</ele>
        <time>2018-01-13T01:18:07Z</time>
      </trkpt>
      <trkpt lat="46.70019" lon="-1.9503">
        <ele>7</ele>
        <time>2018-01-13T01:19:07Z</time>
      </trkpt>
      <trkpt lat="46.70034" lon="-1.95036">
        <ele>7</ele>
        <time>2018-01-13T01:20:07Z</time>
      </trkpt>
      <trkpt lat="46.7005" lon="-1.95039">
        <ele>6</ele>
        <time>2018-01-13T01:21:07Z</time>
      </trkpt>
      <trkpt lat="46.70069" lon="-1.95044">
        <ele>6</ele>
        <time>2018-01-13T01:22:07Z</time>
      </trkpt>
      <trkpt lat="46.70103" lon="-1.9505">
        <ele>5</ele>
        <time>2018-01-13T01:23:07Z</time>
      </trkpt>
      <trkpt lat="46.70125" lon="-1.95054">
        <ele>5</ele>
        <time>2018-01-13T01:24:07Z</time>
      </trkpt>
      <trkpt lat="46.70148" lon="-1.95058">
        <ele>5</ele>
        <time>2018-01-13T01:25:07Z</time>
      </trkpt>
      <trkpt lat="46.70148" lon="-1.95058">
        <ele>5</ele>
        <time>2018-01-13T01:26:07Z</time>
      </trkpt>
      <trkpt lat="46.70148" lon="-1.95057">
        <ele>5</ele>
        <time>2018-01-13T01:27:07Z</time>
      </trkpt>
      <trkpt lat="46.70148" lon="-1.95056">
        <ele>5</ele>
        <time>2018-01-13T01:28:07Z</time>
      </trkpt>
      <trkpt lat="46.70148" lon="-1.95055">
        <ele>5</ele>
        <time>2018-01-13T01:29:07Z</time>
      </trkpt>
      <trkpt lat="46.70149" lon="-1.95055">
        <ele>5</ele>
        <time>2018-01-13T01:30:07Z</time>
      </trkpt>
      <trkpt lat="46.70149" lon="-1.95054">
        <ele>5</ele>
        <time>2018-01-13T01:31:07Z</time>
      </trkpt>
      <trkpt lat="46.70149" lon="-1.95053">
        <ele>5</ele>
        <time>2018-01-13T01:32:07Z</time>
      </trkpt>
      <trkpt lat="46.7015" lon="-1.95053">
        <ele>5</ele>
        <time>2018-01-13T01:33:07Z</time>
      </trkpt>
      <trkpt lat="46.7015" lon="-1.95052">
        <ele>5</ele>
        <time>2018-01-13T01:34:07Z</time>
      </trkpt>
      <trkpt lat="46.7015" lon="-1.95051">
        <ele>5</ele>
        <time>2018-01-13T01:35:07Z</time>
      </trkpt>
      <trkpt lat="46.70151" lon="-1.95051">
        <ele>4</ele>
        <time>2018-01-13T01:36:07Z</time>
      </trkpt>
      <trkpt lat="46.70151" lon="-1.9505">
        <ele>4</ele>
        <time>2018-01-13T01:37:07Z</time>
      </trkpt>
      <trkpt lat="46.70152" lon="-1.9505">
        <ele>4</ele>
        <time>2018-01-13T01:38:07Z</time>
      </trkpt>
      <trkpt lat="46.70153" lon="-1.9505">
        <ele>4</ele>
        <time>2018-01-13T01:39:07Z</time>
      </trkpt>
      <trkpt lat="46.70153" lon="-1.95049">
        <ele>4</ele>
        <time>2018-01-13T01:40:07Z</time>
      </trkpt>
      <trkpt lat="46.70154" lon="-1.95049">
        <ele>4</ele>
        <time>2018-01-13T01:41:07Z</time>
      </trkpt>
      <trkpt lat="46.70155" lon="-1.95049">
        <ele>4</ele>
        <time>2018-01-13T01:42:07Z</time>
      </trkpt>
      <trkpt lat="46.70156" lon="-1.95049">
        <ele>4</ele>
        <time>2018-01-13T01:43:07Z</time>
      </trkpt>
      <trkpt lat="46.70157" lon="-1.95049">
        <ele>4</ele>
        <time>2018-01-13T01:44:07Z</time>
      </trkpt>
      <trkpt lat="46.70157" lon="-1.9505">
        <ele>4</ele>
        <time>2018-01-13T01:45:07Z</time>
      </trkpt>
      <trkpt lat="46.70158" lon="-1.9505">
        <ele>4</ele>
        <time>2018-01-13T01:46:07Z</time>
      </trkpt>
      <trkpt lat="46.70159" lon="-1.95051">
        <ele>4</ele>
        <time>2018-01-13T01:47:07Z</time>
      </trkpt>
      <trkpt lat="46.7016" lon="-1.95052">
        <ele>4</ele>
        <time>2018-01-13T01:48:07Z</time>
      </trkpt>
      <trkpt lat="46.7016" lon="-1.95053">
        <ele>4</ele>
        <time>2018-01-13T01:49:07Z</time>
      </trkpt>
      <trkpt lat="46.70161" lon="-1.95053">
        <ele>4</ele>
        <time>2018-01-13T01:50:07Z</time>
      </trkpt>
      <trkpt lat="46.70161" lon="-1.95054">
        <ele>4</ele>
        <time>2018-01-13T01:51:07Z</time>
      </trkpt>
      <trkpt lat="46.70161" lon="-1.95055">
        <ele>4</ele>
        <time>2018-01-13T01:52:07Z</time>
      </trkpt>
      <trkpt lat="46.70161" lon="-1.95056">
        <ele>4</ele>
        <time>2018-01-13T01:53:07Z</time>
      </trkpt>
      <trkpt lat="46.70162" lon="-1.95056">
        <ele>4</ele>
        <time>2018-01-13T01:54:07Z</time>
      </trkpt>
      <trkpt lat="46.70162" lon="-1.95057">
        <ele>4</ele>
        <time>2018-01-13T01:55:07Z</time>
      </trkpt>
      <trkpt lat="46.70162" lon="-1.95058">
        <ele>4</ele>
        <time>2018-01-13T01:56:07Z</time>
      </trkpt>
      <trkpt lat="46.70162" lon="-1.95059">
        <ele>4</ele>
        <time>2018-01-13T01:57:07Z</time>
      </trkpt>
      <trkpt lat="46.70162" lon="-1.9506">
        <ele>5</ele>
        <time>2018-01-13T01:58:07Z</time>
      </trkpt>
      <trkpt lat="46.70162" lon="-1.95061">
        <ele>5</ele>
        <time>2018-01-13T01:59:07Z</time>
      </trkpt>
      <trkpt lat="46.70162" lon="-1.95062">
        <ele>5</ele>
        <time>2018-01-13T02:00:07Z</time>
      </trkpt>
      <trkpt lat="46.70161" lon="-1.95063">
        <ele>5</ele>
        <time>2018-01-13T02:01:07Z</time>
      </trkpt>
      <trkpt lat="46.70161" lon="-1.95064">
        <ele>5</ele>
        <time>2018-01-13T02:02:07Z</time>
      </trkpt>
      <trkpt lat="46.70161" lon="-1.95065">
        <ele>5</ele>
        <time>2018-01-13T02:03:07Z</time>
      </trkpt>
      <trkpt lat="46.7016" lon="-1.95066">
        <ele>5</ele>
        <time>2018-01-13T02:04:07Z</time>
      </trkpt>
      <trkpt lat="46.7016" lon="-1.95067">
        <ele>5</ele>
        <time>2018-01-13T02:05:07Z</time>
      </trkpt>
      <trkpt lat="46.70159" lon="-1.95067">
        <ele>5</ele>
        <time>2018-01-13T02:06:07Z</time>
      </trkpt>
      <trkpt lat="46.70159" lon="-1.95068">
        <ele>5</ele>
        <time>2018-01-13T02:07:07Z</time>
      </trkpt>
      <trkpt lat="46.70158" lon="-1.95068">
        <ele>5</ele>
        <time>2018-01-13T02:08:07Z</time>
      </trkpt>
      <trkpt lat="46.70158" lon="-1.95069">
        <ele>5</ele>
        <time>2018-01-13T02:09:07Z</time>
      </trkpt>
      <trkpt lat="46.70157" lon="-1.95069">
        <ele>5</ele>
        <time>2018-01-13T02:10:07Z</time>
      </trkpt>
      <trkpt lat="46.70156" lon="-1.95069">
        <ele>5</ele>
        <time>2018-01-13T02:11:07Z</time>
      </trkpt>
      <trkpt lat="46.70156" lon="-1.95089">
        <ele>5</ele>
        <time>2018-01-13T02:12:07Z</time>
      </trkpt>
      <trkpt lat="46.70157" lon="-1.95107">
        <ele>5</ele>
        <time>2018-01-13T02:13:07Z</time>
      </trkpt>
      <trkpt lat="46.70158" lon="-1.95126">
        <ele>6</ele>
        <time>2018-01-13T02:14:07Z</time>
      </trkpt>
      <trkpt lat="46.7016" lon="-1.95145">
        <ele>6</ele>
        <time>2018-01-13T02:15:07Z</time>
      </trkpt>
      <trkpt lat="46.70162" lon="-1.95161">
        <ele>6</ele>
        <time>2018-01-13T02:16:07Z</time>
      </trkpt>
      <trkpt lat="46.70166" lon="-1.95179">
        <ele>6</ele>
        <time>2018-01-13T02:17:07Z</time>
      </trkpt>
      <trkpt lat="46.70167" lon="-1.95198">
        <ele>6</ele>
        <time>2018-01-13T02:18:07Z</time>
      </trkpt>
      <trkpt lat="46.70168" lon="-1.95219">
        <ele>5</ele>
        <time>2018-01-13T02:19:07Z</time>
      </trkpt>
      <trkpt lat="46.70167" lon="-1.95226">
        <ele>5</ele>
        <time>2018-01-13T02:20:07Z</time>
      </trkpt>
      <trkpt lat="46.70167" lon="-1.95232">
        <ele>5</ele>
        <time>2018-01-13T02:21:07Z</time>
      </trkpt>
      <trkpt lat="46.70163" lon="-1.95279">
        <ele>6</ele>
        <time>2018-01-13T02:22:07Z</time>
      </trkpt>
      <trkpt lat="46.70147" lon="-1.95382">
        <ele>8</ele>
        <time>2018-01-13T02:23:07Z</time>
      </trkpt>
      <trkpt lat="46.70142" lon="-1.95447">
        <ele>9</ele>
        <time>2018-01-13T02:24:07Z</time>
      </trkpt>
      <trkpt lat="46.70143" lon="-1.95473">
        <ele>9</ele>
        <time>2018-01-13T02:25:07Z</time>
      </trkpt>
      <trkpt lat="46.70153" lon="-1.9555">
        <ele>10</ele>
        <time>2018-01-13T02:26:07Z</time>
      </trkpt>
      <trkpt lat="46.70163" lon="-1.9561">
        <ele>11</ele>
        <time>2018-01-13T02:27:07Z</time>
      </trkpt>
      <trkpt lat="46.70164" lon="-1.95618">
        <ele>11</ele>
        <time>2018-01-13T02:28:07Z</time>
      </trkpt>
      <trkpt lat="46.70165" lon="-1.95628">
        <ele>11</ele>
        <time>2018-01-13T02:29:07Z</time>
      </trkpt>
      <trkpt lat="46.70166" lon="-1.95633">
        <ele>11</ele>
        <time>2018-01-13T02:30:07Z</time>
      </trkpt>
      <trkpt lat="46.70166" lon="-1.95633">
        <ele>11</ele>
        <time>2018-01-13T02:31:07Z</time>
      </trkpt>
      <trkpt lat="46.70167" lon="-1.95633">
        <ele>11</ele>
        <time>2018-01-13T02:32:07Z</time>
      </trkpt>
      <trkpt lat="46.70168" lon="-1.95634">
        <ele>11</ele>
        <time>2018-01-13T02:33:07Z</time>
      </trkpt>
      <trkpt lat="46.70169" lon="-1.95634">
        <ele>11</ele>
        <time>2018-01-13T02:34:07Z</time>
      </trkpt>
      <trkpt lat="46.70169" lon="-1.95635">
        <ele>11</ele>
        <time>2018-01-13T02:35:07Z</time>
      </trkpt>
      <trkpt lat="46.7017" lon="-1.95636">
        <ele>11</ele>
        <time>2018-01-13T02:36:07Z</time>
      </trkpt>
      <trkpt lat="46.7017" lon="-1.95637">
        <ele>11</ele>
        <time>2018-01-13T02:37:07Z</time>
      </trkpt>
      <trkpt lat="46.7017" lon="-1.95638">
        <ele>11</ele>
        <time>2018-01-13T02:38:07Z</time>
      </trkpt>
      <trkpt lat="46.70171" lon="-1.95638">
        <ele>11</ele>
        <time>2018-01-13T02:39:07Z</time>
      </trkpt>
      <trkpt lat="46.70171" lon="-1.95639">
        <ele>11</ele>
        <time>2018-01-13T02:40:07Z</time>
      </trkpt>
      <trkpt lat="46.70171" lon="-1.9564">
        <ele>11</ele>
        <time>2018-01-13T02:41:07Z</time>
      </trkpt>
      <trkpt lat="46.70171" lon="-1.95641">
        <ele>11</ele>
        <time>2018-01-13T02:42:07Z</time>
      </trkpt>
      <trkpt lat="46.70171" lon="-1.95642">
        <ele>11</ele>
        <time>2018-01-13T02:43:07Z</time>
      </trkpt>
      <trkpt lat="46.70171" lon="-1.95643">
        <ele>11</ele>
        <time>2018-01-13T02:44:07Z</time>
      </trkpt>
      <trkpt lat="46.70171" lon="-1.95644">
        <ele>11</ele>
        <time>2018-01-13T02:45:07Z</time>
      </trkpt>
      <trkpt lat="46.70171" lon="-1.95645">
        <ele>11</ele>
        <time>2018-01-13T02:46:07Z</time>
      </trkpt>
      <trkpt lat="46.70171" lon="-1.95646">
        <ele>11</ele>
        <time>2018-01-13T02:47:07Z</time>
      </trkpt>
      <trkpt lat="46.70171" lon="-1.95647">
        <ele>12</ele>
        <time>2018-01-13T02:48:07Z</time>
      </trkpt>
      <trkpt lat="46.70171" lon="-1.95648">
        <ele>12</ele>
        <time>2018-01-13T02:49:07Z</time>
      </trkpt>
      <trkpt lat="46.7017" lon="-1.95648">
        <ele>12</ele>
        <time>2018-01-13T02:50:07Z</time>
      </trkpt>
      <trkpt lat="46.7017" lon="-1.95649">
        <ele>12</ele>
        <time>2018-01-13T02:51:07Z</time>
      </trkpt>
      <trkpt lat="46.70171" lon="-1.95652">
        <ele>12</ele>
        <time>2018-01-13T02:52:07Z</time>
      </trkpt>
      <trkpt lat="46.70173" lon="-1.95667">
        <ele>12</ele>
        <time>2018-01-13T02:53:07Z</time>
      </trkpt>
      <trkpt lat="46.70175" lon="-1.95682">
        <ele>12</ele>
        <time>2018-01-13T02:54:07Z</time>
      </trkpt>
      <trkpt lat="46.70176" lon="-1.95686">
        <ele>12</ele>
        <time>2018-01-13T02:55:07Z</time>
      </trkpt>
      <trkpt lat="46.70181" lon="-1.95706">
        <ele>12</ele>
        <time>2018-01-13T02:56:07Z</time>
      </trkpt>
      <trkpt lat="46.70187" lon="-1.95726">
        <ele>12</ele>
        <time>2018-01-13T02:57:07Z</time>
      </trkpt>
      <trkpt lat="46.70197" lon="-1.95753">
        <ele>13</ele>
        <time>2018-01-13T02:58:07Z</time>
      </trkpt>
      <trkpt lat="46.70208" lon="-1.95777">
        <ele>12</ele>
        <time>2018-01-13T02:59:07Z</time>
      </trkpt>
      <trkpt lat="46.70217" lon="-1.95794">
        <ele>12</ele>
        <time>2018-01-13T03:00:07Z</time>
      </trkpt>
      <trkpt lat="46.70228" lon="-1.95813">
        <ele>12</ele>
        <time>2018-01-13T03:01:07Z</time>
      </trkpt>
      <trkpt lat="46.70241" lon="-1.95834">
        <ele>12</ele>
        <time>2018-01-13T03:02:07Z</time>
      </trkpt>
      <trkpt lat="46.70256" lon="-1.95852">
        <ele>12</ele>
        <time>2018-01-13T03:03:07Z</time>
      </trkpt>
      <trkpt lat="46.70274" lon="-1.95872">
        <ele>13</ele>
        <time>2018-01-13T03:04:07Z</time>
      </trkpt>
      <trkpt lat="46.70296" lon="-1.95894">
        <ele>13</ele>
        <time>2018-01-13T03:05:07Z</time>
      </trkpt>
      <trkpt lat="46.70302" lon="-1.95899">
        <ele>13</ele>
        <time>2018-01-13T03:06:07Z</time>
      </trkpt>
      <trkpt lat="46.70313" lon="-1.9591">
        <ele>14</ele>
        <time>2018-01-13T03:07:07Z</time>
      </trkpt>
      <trkpt lat="46.70333" lon="-1.95927">
        <ele>14</ele>
        <time>2018-01-13T03:08:07Z</time>
      </trkpt>
      <trkpt lat="46.70345" lon="-1.95938">
        <ele>14</ele>
        <time>2018-01-13T03:09:07Z</time>
      </trkpt>
      <trkpt lat="46.70348" lon="-1.95935">
        <ele>14</ele>
        <time>2018-01-13T03:10:07Z</time>
      </trkpt>
      <trkpt lat="46.7035" lon="-1.95934">
        <ele>14</ele>
        <time>2018-01-13T03:11:07Z</time>
      </trkpt>
      <trkpt lat="46.70352" lon="-1.95934">
        <ele>14</ele>
        <time>2018-01-13T03:12:07Z</time>
      </trkpt>
      <trkpt lat="46.70355" lon="-1.95935">
        <ele>14</ele>
        <time>2018-01-13T03:13:07Z</time>
      </trkpt>
      <trkpt lat="46.70358" lon="-1.95938">
        <ele>15</ele>
        <time>2018-01-13T03:14:07Z</time>
      </trkpt>
      <trkpt lat="46.7036" lon="-1.95943">
        <ele>15</ele>
        <time>2018-01-13T03:15:07Z</time>
      </trkpt>
      <trkpt lat="46.7036" lon="-1.95948">
        <ele>15</ele>
        <time>2018-01-13T03:16:07Z</time>
      </trkpt>
      <trkpt lat="46.70369" lon="-1.95955">
        <ele>15</ele>
        <time>2018-01-13T03:17:07Z</time>
      </trkpt>
      <trkpt lat="46.70393" lon="-1.95972">
        <ele>15</ele>
        <time>2018-01-13T03:18:07Z</time>
      </trkpt>
      <trkpt lat="46.70419" lon="-1.95986">
        <ele>16</ele>
        <time>2018-01-13T03:19:07Z</time>
      </trkpt>
      <trkpt lat="46.70447" lon="-1.96003">
        <ele>16</ele>
        <time>2018-01-13T03:20:07Z</time>
      </trkpt>
      <trkpt lat="46.70475" lon="-1.96016">
        <ele>15</ele>
        <time>2018-01-13T03:21:07Z</time>
      </trkpt>
      <trkpt lat="46.70506" lon="-1.96029">
        <ele>15</ele>
        <time>2018-01-13T03:22:07Z</time>
      </trkpt>
      <trkpt lat="46.70533" lon="-1.96039">
        <ele>16</ele>
        <time>2018-01-13T03:23:07Z</time>
      </trkpt>
      <trkpt lat="46.70555" lon="-1.96046">
        <ele>16</ele>
        <time>2018-01-13T03:24:07Z</time>
      </trkpt>
      <trkpt lat="46.70579" lon="-1.96052">
        <ele>16</ele>
        <time>2018-01-13T03:25:07Z</time>
      </trkpt>
      <trkpt lat="46.70615" lon="-1.96059">
        <ele>16</ele>
        <time>2018-01-13T03:26:07Z</time>
      </trkpt>
      <trkpt lat="46.7063" lon="-1.96062">
        <ele>16</ele>
        <time>2018-01-13T03:27:07Z</time>
      </trkpt>
      <trkpt lat="46.70647" lon="-1.96064">
        <ele>16</ele>
        <time>2018-01-13T03:28:07Z</time>
      </trkpt>
      <trkpt lat="46.70684" lon="-1.96067">
        <ele>16</ele>
        <time>2018-01-13T03:29:07Z</time>
      </trkpt>
      <trkpt lat="46.70717" lon="-1.96071">
        <ele>16</ele>
        <time>2018-01-13T03:30:07Z</time>
      </trkpt>
      <trkpt lat="46.70722" lon="-1.96071">
        <ele>16</ele>
        <time>2018-01-13T03:31:07Z</time>
      </trkpt>
      <trkpt lat="46.70763" lon="-1.96074">
        <ele>16</ele>
        <time>2018-01-13T03:32:07Z</time>
      </trkpt>
      <trkpt lat="46.7081" lon="-1.96079">
        <ele>15</ele>
        <time>2018-01-13T03:33:07Z</time>
      </trkpt>
      <trkpt lat="46.70848" lon="-1.96082">
        <ele>15</ele>
        <time>2018-01-13T03:34:07Z</time>
      </trkpt>
      <trkpt lat="46.70896" lon="-1.96087">
        <ele>16</ele>
        <time>2018-01-13T03:35:07Z</time>
      </trkpt>
      <trkpt lat="46.7092" lon="-1.9609">
        <ele>16</ele>
        <time>2018-01-13T03:36:07Z</time>
      </trkpt>
      <trkpt lat="46.70938" lon="-1.96092">
        <ele>16</ele>
        <time>2018-01-13T03:37:07Z</time>
      </trkpt>
      <trkpt lat="46.70954" lon="-1.96093">
        <ele>16</ele>
        <time>2018-01-13T03:38:07Z</time>
      </trkpt>
      <trkpt lat="46.70967" lon="-1.96095">
        <ele>16</ele>
        <time>2018-01-13T03:39:07Z</time>
      </trkpt>
      <trkpt lat="46.70967" lon="-1.96095">
        <ele>16</ele>
        <time>2018-01-13T03:40:07Z</time>
      </trkpt>
      <trkpt lat="46.70968" lon="-1.9609">
        <ele>16</ele>
        <time>2018-01-13T03:41:07Z</time>
      </trkpt>
      <trkpt lat="46.7097" lon="-1.96085">
        <ele>17</ele>
        <time>2018-01-13T03:42:07Z</time>
      </trkpt>
      <trkpt lat="46.70972" lon="-1.96082">
        <ele>17</ele>
        <time>2018-01-13T03:43:07Z</time>
      </trkpt>
      <trkpt lat="46.70975" lon="-1.9608">
        <ele>17</ele>
        <time>2018-01-13T03:44:07Z</time>
      </trkpt>
      <trkpt lat="46.7098" lon="-1.9608">
        <ele>17</ele>
        <time>2018-01-13T03:45:07Z</time>
      </trkpt>
      <trkpt lat="46.70984" lon="-1.96081">
        <ele>17</ele>
        <time>2018-01-13T03:46:07Z</time>
      </trkpt>
      <trkpt lat="46.70987" lon="-1.96084">
        <ele>17</ele>
        <time>2018-01-13T03:47:07Z</time>
      </trkpt>
      <trkpt lat="46.70989" lon="-1.96088">
        <ele>17</ele>
        <time>2018-01-13T03:48:07Z</time>
      </trkpt>
      <trkpt lat="46.70991" lon="-1.96094">
        <ele>16</ele>
        <time>2018-01-13T03:49:07Z</time>
      </trkpt>
      <trkpt lat="46.70991" lon="-1.96098">
        <ele>16</ele>
        <time>2018-01-13T03:50:07Z</time>
      </trkpt>
      <trkpt lat="46.7099" lon="-1.96103">
        <ele>16</ele>
        <time>2018-01-13T03:51:07Z</time>
      </trkpt>
      <trkpt lat="46.70987" lon="-1.96109">
        <ele>16</ele>
        <time>2018-01-13T03:52:07Z</time>
      </trkpt>
      <trkpt lat="46.70984" lon="-1.96112">
        <ele>16</ele>
        <time>2018-01-13T03:53:07Z</time>
      </trkpt>
      <trkpt lat="46.70982" lon="-1.96114">
        <ele>15</ele>
        <time>2018-01-13T03:54:07Z</time>
      </trkpt>
      <trkpt lat="46.70977" lon="-1.96114">
        <ele>15</ele>
        <time>2018-01-13T03:55:07Z</time>
      </trkpt>
      <trkpt lat="46.70976" lon="-1.96124">
        <ele>15</ele>
        <time>2018-01-13T03:56:07Z</time>
      </trkpt>
      <trkpt lat="46.70976" lon="-1.96132">
        <ele>15</ele>
        <time>2018-01-13T03:57:07Z</time>
      </trkpt>
      <trkpt lat="46.70977" lon="-1.96155">
        <ele>14</ele>
        <time>2018-01-13T03:58:07Z</time>
      </trkpt>
      <trkpt lat="46.70978" lon="-1.96188">
        <ele>13</ele>
        <time>2018-01-13T03:59:07Z</time>
      </trkpt>
      <trkpt lat="46.70978" lon="-1.96214">
        <ele>13</ele>
        <time>2018-01-13T04:00:07Z</time>
      </trkpt>
      <trkpt lat="46.70978" lon="-1.96247">
        <ele>13</ele>
        <time>2018-01-13T04:01:07Z</time>
      </trkpt>
      <trkpt lat="46.70979" lon="-1.96277">
        <ele>13</ele>
        <time>2018-01-13T04:02:07Z</time>
      </trkpt>
      <trkpt lat="46.70979" lon="-1.96306">
        <ele>13</ele>
        <time>2018-01-13T04:03:07Z</time>
      </trkpt>
      <trkpt lat="46.70978" lon="-1.9633">
        <ele>13</ele>
        <time>2018-01-13T04:04:07Z</time>
      </trkpt>
      <trkpt lat="46.70976" lon="-1.96356">
        <ele>13</ele>
        <time>2018-01-13T04:05:07Z</time>
      </trkpt>
      <trkpt lat="46.70975" lon="-1.96369">
        <ele>13</ele>
        <time>2018-01-13T04:06:07Z</time>
      </trkpt>
      <trkpt lat="46.70972" lon="-1.96386">
        <ele>13</ele>
        <time>2018-01-13T04:07:07Z</time>
      </trkpt>
      <trkpt lat="46.70969" lon="-1.96404">
        <ele>14</ele>
        <time>2018-01-13T04:08:07Z</time>
      </trkpt>
      <trkpt lat="46.70966" lon="-1.96422">
        <ele>14</ele>
        <time>2018-01-13T04:09:07Z</time>
      </trkpt>
      <trkpt lat="46.70963" lon="-1.96436">
        <ele>14</ele>
        <time>2018-01-13T04:10:07Z</time>
      </trkpt>
      <trkpt lat="46.70959" lon="-1.96453">
        <ele>14</ele>
        <time>2018-01-13T04:11:07Z</time>
      </trkpt>
      <trkpt lat="46.70955" lon="-1.9647">
        <ele>14</ele>
        <time>2018-01-13T04:12:07Z</time>
      </trkpt>
      <trkpt lat="46.7095" lon="-1.96493">
        <ele>14</ele>
        <time>2018-01-13T04:13:07Z</time>
      </trkpt>
      <trkpt lat="46.70946" lon="-1.96512">
        <ele>14</ele>
        <time>2018-01-13T04:14:07Z</time>
      </trkpt>
      <trkpt lat="46.70942" lon="-1.96531">
        <ele>13</ele>
        <time>2018-01-13T04:15:07Z</time>
      </trkpt>
      <trkpt lat="46.7094" lon="-1.96544">
        <ele>13</ele>
        <time>2018-01-13T04:16:07Z</time>
      </trkpt>
      <trkpt lat="46.70938" lon="-1.96557">
        <ele>13</ele>
        <time>2018-01-13T04:17:07Z</time>
      </trkpt>
      <trkpt lat="46.70938" lon="-1.96567">
        <ele>13</ele>
        <time>2018-01-13T04:18:07Z</time>
      </trkpt>
      <trkpt lat="46.70938" lon="-1.96578">
        <ele>13</ele>
        <time>2018-01-13T04:19:07Z</time>
      </trkpt>
      <trkpt lat="46.70939" lon="-1.96593">
        <ele>13</ele>
        <time>2018-01-13T04:20:07Z</time>
      </trkpt>
      <trkpt lat="46.70941" lon="-1.96605">
        <ele>13</ele>
        <time>2018-01-13T04:21:07Z</time>
      </trkpt>
      <trkpt lat="46.70943" lon="-1.96619">
        <ele>13</ele>
        <time>2018-01-13T04:22:07Z</time>
      </trkpt>
      <trkpt lat="46.70947" lon="-1.9663">
        <ele>13</ele>
        <time>2018-01-13T04:23:07Z</time>
      </trkpt>
      <trkpt lat="46.7095" lon="-1.9664">
        <ele>13</ele>
        <time>2018-01-13T04:24:07Z</time>
      </trkpt>
      <trkpt lat="46.70955" lon="-1.96651">
        <ele>13</ele>
        <time>2018-01-13T04:25:07Z</time>
      </trkpt>
      <trkpt lat="46.70963" lon="-1.96669">
        <ele>13</ele>
        <time>2018-01-13T04:26:07Z</time>
      </trkpt>
      <trkpt lat="46.70969" lon="-1.96685">
        <ele>13</ele>
        <time>2018-01-13T04:27:07Z</time>
      </trkpt>
      <trkpt lat="46.70973" lon="-1.96697">
        <ele>13</ele>
        <time>2018-01-13T04:28:07Z</time>
      </trkpt>
      <trkpt lat="46.70976" lon="-1.96705">
        <ele>13</ele>
        <time>2018-01-13T04:29:07Z</time>
      </trkpt>
      <trkpt lat="46.70981" lon="-1.96714">
        <ele>13</ele>
        <time>2018-01-13T04:30:07Z</time>
      </trkpt>
      <trkpt lat="46.70982" lon="-1.96719">
        <ele>13</ele>
        <time>2018-01-13T04:31:07Z</time>
      </trkpt>
      <trkpt lat="46.70988" lon="-1.96726">
        <ele>13</ele>
        <time>2018-01-13T04:32:07Z</time>
      </trkpt>
      <trkpt lat="46.70991" lon="-1.96733">
        <ele>13</ele>
        <time>2018-01-13T04:33:07Z</time>
      </trkpt>
      <trkpt lat="46.70992" lon="-1.96736">
        <ele>13</ele>
        <time>2018-01-13T04:34:07Z</time>
      </trkpt>
      <trkpt lat="46.70995" lon="-1.96741">
        <ele>13</ele>
        <time>2018-01-13T04:35:07Z</time>
      </trkpt>
      <trkpt lat="46.70998" lon="-1.96744">
        <ele>13</ele>
        <time>2018-01-13T04:36:07Z</time>
      </trkpt>
      <trkpt lat="46.71001" lon="-1.96747">
        <ele>13</ele>
        <time>2018-01-13T04:37:07Z</time>
      </trkpt>
      <trkpt lat="46.71001" lon="-1.96747">
        <ele>13</ele>
        <time>2018-01-13T04:38:07Z</time>
      </trkpt>
      <trkpt lat="46.71005" lon="-1.96746">
        <ele>13</ele>
        <time>2018-01-13T04:39:07Z</time>
      </trkpt>
      <trkpt lat="46.71009" lon="-1.96746">
        <ele>13</ele>
        <time>2018-01-13T04:40:07Z</time>
      </trkpt>
      <trkpt lat="46.71013" lon="-1.96746">
        <ele>13</ele>
        <time>2018-01-13T04:41:07Z</time>
      </trkpt>
      <trkpt lat="46.71016" lon="-1.96749">
        <ele>13</ele>
        <time>2018-01-13T04:42:07Z</time>
      </trkpt>
      <trkpt lat="46.71023" lon="-1.96757">
        <ele>13</ele>
        <time>2018-01-13T04:43:07Z</time>
      </trkpt>
      <trkpt lat="46.71029" lon="-1.96761">
        <ele>13</ele>
        <time>2018-01-13T04:44:07Z</time>
      </trkpt>
      <trkpt lat="46.71034" lon="-1.96764">
        <ele>13</ele>
        <time>2018-01-13T04:45:07Z</time>
      </trkpt>
      <trkpt lat="46.71039" lon="-1.96766">
        <ele>13</ele>
        <time>2018-01-13T04:46:07Z</time>
      </trkpt>
      <trkpt lat="46.71065" lon="-1.96766">
        <ele>14</ele>
        <time>2018-01-13T04:47:07Z</time>
      </trkpt>
      <trkpt lat="46.71081" lon="-1.96765">
        <ele>14</ele>
        <time>2018-01-13T04:48:07Z</time>
      </trkpt>
      <trkpt lat="46.71128" lon="-1.96765">
        <ele>14</ele>
        <time>2018-01-13T04:49:07Z</time>
      </trkpt>
      <trkpt lat="46.71179" lon="-1.96765">
        <ele>15</ele>
        <time>2018-01-13T04:50:07Z</time>
      </trkpt>
      <trkpt lat="46.71215" lon="-1.96763">
        <ele>15</ele>
        <time>2018-01-13T04:51:07Z</time>
      </trkpt>
      <trkpt lat="46.71239" lon="-1.96763">
        <ele>15</ele>
        <time>2018-01-13T04:52:07Z</time>
      </trkpt>
      <trkpt lat="46.71248" lon="-1.9676">
        <ele>15</ele>
        <time>2018-01-13T04:53:07Z</time>
      </trkpt>
      <trkpt lat="46.71248" lon="-1.9676">
        <ele>15</ele>
        <time>2018-01-13T04:54:07Z</time>
      </trkpt>
      <trkpt lat="46.71268" lon="-1.96753">
        <ele>15</ele>
        <time>2018-01-13T04:55:07Z</time>
      </trkpt>
      <trkpt lat="46.7128" lon="-1.96751">
        <ele>16</ele>
        <time>2018-01-13T04:56:07Z</time>
      </trkpt>
      <trkpt lat="46.71292" lon="-1.9675">
        <ele>16</ele>
        <time>2018-01-13T04:57:07Z</time>
      </trkpt>
      <trkpt lat="46.713" lon="-1.9675">
        <ele>16</ele>
        <time>2018-01-13T04:58:07Z</time>
      </trkpt>
      <trkpt lat="46.7131" lon="-1.96749">
        <ele>16</ele>
        <time>2018-01-13T04:59:07Z</time>
      </trkpt>
      <trkpt lat="46.7132" lon="-1.9675">
        <ele>17</ele>
        <time>2018-01-13T05:00:07Z</time>
      </trkpt>
      <trkpt lat="46.71332" lon="-1.96753">
        <ele>17</ele>
        <time>2018-01-13T05:01:07Z</time>
      </trkpt>
      <trkpt lat="46.71348" lon="-1.96755">
        <ele>16</ele>
        <time>2018-01-13T05:02:07Z</time>
      </trkpt>
      <trkpt lat="46.71362" lon="-1.96758">
        <ele>16</ele>
        <time>2018-01-13T05:03:07Z</time>
      </trkpt>
      <trkpt lat="46.7137" lon="-1.96762">
        <ele>15</ele>
        <time>2018-01-13T05:04:07Z</time>
      </trkpt>
      <trkpt lat="46.71382" lon="-1.96767">
        <ele>15</ele>
        <time>2018-01-13T05:05:07Z</time>
      </trkpt>
      <trkpt lat="46.71395" lon="-1.96774">
        <ele>14</ele>
        <time>2018-01-13T05:06:07Z</time>
      </trkpt>
      <trkpt lat="46.71403" lon="-1.96777">
        <ele>14</ele>
        <time>2018-01-13T05:07:07Z</time>
      </trkpt>
      <trkpt lat="46.71403" lon="-1.96777">
        <ele>14</ele>
        <time>2018-01-13T05:08:07Z</time>
      </trkpt>
      <trkpt lat="46.71424" lon="-1.96783">
        <ele>13</ele>
        <time>2018-01-13T05:09:07Z</time>
      </trkpt>
      <trkpt lat="46.71442" lon="-1.96789">
        <ele>13</ele>
        <time>2018-01-13T05:10:07Z</time>
      </trkpt>
      <trkpt lat="46.71474" lon="-1.96801">
        <ele>13</ele>
        <time>2018-01-13T05:11:07Z</time>
      </trkpt>
      <trkpt lat="46.71496" lon="-1.96806">
        <ele>13</ele>
        <time>2018-01-13T05:12:07Z</time>
      </trkpt>
      <trkpt lat="46.71528" lon="-1.96807">
        <ele>14</ele>
        <time>2018-01-13T05:13:07Z</time>
      </trkpt>
      <trkpt lat="46.71543" lon="-1.96807">
        <ele>14</ele>
        <time>2018-01-13T05:14:07Z</time>
      </trkpt>
      <trkpt lat="46.71558" lon="-1.96809">
        <ele>14</ele>
        <time>2018-01-13T05:15:07Z</time>
      </trkpt>
      <trkpt lat="46.71571" lon="-1.9681">
        <ele>14</ele>
        <time>2018-01-13T05:16:07Z</time>
      </trkpt>
      <trkpt lat="46.71581" lon="-1.96809">
        <ele>14</ele>
        <time>2018-01-13T05:17:07Z</time>
      </trkpt>
      <trkpt lat="46.71587" lon="-1.96807">
        <ele>14</ele>
        <time>2018-01-13T05:18:07Z</time>
      </trkpt>
      <trkpt lat="46.71593" lon="-1.96805">
        <ele>14</ele>
        <time>2018-01-13T05:19:07Z</time>
      </trkpt>
      <trkpt lat="46.71598" lon="-1.96802">
        <ele>14</ele>
        <time>2018-01-13T05:20:07Z</time>
      </trkpt>
      <trkpt lat="46.71615" lon="-1.96791">
        <ele>14</ele>
        <time>2018-01-13T05:21:07Z</time>
      </trkpt>
      <trkpt lat="46.71634" lon="-1.9678">
        <ele>14</ele>
        <time>2018-01-13T05:22:07Z</time>
      </trkpt>
      <trkpt lat="46.71643" lon="-1.96776">
        <ele>14</ele>
        <time>2018-01-13T05:23:07Z</time>
      </trkpt>
      <trkpt lat="46.7165" lon="-1.96775">
        <ele>14</ele>
        <time>2018-01-13T05:24:07Z</time>
      </trkpt>
      <trkpt lat="46.71657" lon="-1.96774">
        <ele>14</ele>
        <time>2018-01-13T05:25:07Z</time>
      </trkpt>
      <trkpt lat="46.71664" lon="-1.96774">
        <ele>14</ele>
        <time>2018-01-13T05:26:07Z</time>
      </trkpt>
      <trkpt lat="46.71672" lon="-1.96774">
        <ele>14</ele>
        <time>2018-01-13T05:27:07Z</time>
      </trkpt>
      <trkpt lat="46.7168" lon="-1.96777">
        <ele>14</ele>
        <time>2018-01-13T05:28:07Z</time>
      </trkpt>
      <trkpt lat="46.71689" lon="-1.96781">
        <ele>14</ele>
        <time>2018-01-13T05:29:07Z</time>
      </trkpt>
      <trkpt lat="46.71699" lon="-1.96786">
        <ele>13</ele>
        <time>2018-01-13T05:30:07Z</time>
      </trkpt>
      <trkpt lat="46.71712" lon="-1.96794">
        <ele>13</ele>
        <time>2018-01-13T05:31:07Z</time>
      </trkpt>
      <trkpt lat="46.71726" lon="-1.96803">
        <ele>13</ele>
        <time>2018-01-13T05:32:07Z</time>
      </trkpt>
      <trkpt lat="46.71738" lon="-1.96811">
        <ele>13</ele>
        <time>2018-01-13T05:33:07Z</time>
      </trkpt>
      <trkpt lat="46.71747" lon="-1.96817">
        <ele>13</ele>
        <time>2018-01-13T05:34:07Z</time>
      </trkpt>
      <trkpt lat="46.71755" lon="-1.9682">
        <ele>13</ele>
        <time>2018-01-13T05:35:07Z</time>
      </trkpt>
      <trkpt lat="46.71767" lon="-1.96825">
        <ele>13</ele>
        <time>2018-01-13T05:36:07Z</time>
      </trkpt>
      <trkpt lat="46.71781" lon="-1.9683">
        <ele>13</ele>
        <time>2018-01-13T05:37:07Z</time>
      </trkpt>
      <trkpt lat="46.71796" lon="-1.96835">
        <ele>14</ele>
        <time>2018-01-13T05:38:07Z</time>
      </trkpt>
      <trkpt lat="46.71808" lon="-1.96839">
        <ele>14</ele>
        <time>2018-01-13T05:39:07Z</time>
      </trkpt>
      <trkpt lat="46.71812" lon="-1.96843">
        <ele>14</ele>
        <time>2018-01-13T05:40:07Z</time>
      </trkpt>
      <trkpt lat="46.71812" lon="-1.96843">
        <ele>14</ele>
        <time>2018-01-13T05:41:07Z</time>
      </trkpt>
      <trkpt lat="46.71829" lon="-1.96851">
        <ele>14</ele>
        <time>2018-01-13T05:42:07Z</time>
      </trkpt>
      <trkpt lat="46.71835" lon="-1.96855">
        <ele>14</ele>
        <time>2018-01-13T05:43:07Z</time>
      </trkpt>
      <trkpt lat="46.71855" lon="-1.96862">
        <ele>15</ele>
        <time>2018-01-13T05:44:07Z</time>
      </trkpt>
      <trkpt lat="46.71856" lon="-1.96862">
        <ele>15</ele>
        <time>2018-01-13T05:45:07Z</time>
      </trkpt>
      <trkpt lat="46.7186" lon="-1.96864">
        <ele>15</ele>
        <time>2018-01-13T05:46:07Z</time>
      </trkpt>
      <trkpt lat="46.71865" lon="-1.96867">
        <ele>15</ele>
        <time>2018-01-13T05:47:07Z</time>
      </trkpt>
      <trkpt lat="46.71872" lon="-1.96873">
        <ele>15</ele>
        <time>2018-01-13T05:48:07Z</time>
      </trkpt>
      <trkpt lat="46.71883" lon="-1.96894">
        <ele>15</ele>
        <time>2018-01-13T05:49:07Z</time>
      </trkpt>
      <trkpt lat="46.7189" lon="-1.96905">
        <ele>15</ele>
        <time>2018-01-13T05:50:07Z</time>
      </trkpt>
      <trkpt lat="46.71919" lon="-1.96958">
        <ele>15</ele>
        <time>2018-01-13T05:51:07Z</time>
      </trkpt>
      <trkpt lat="46.7193" lon="-1.96978">
        <ele>15</ele>
        <time>2018-01-13T05:52:07Z</time>
      </trkpt>
      <trkpt lat="46.71944" lon="-1.97005">
        <ele>14</ele>
        <time>2018-01-13T05:53:07Z</time>
      </trkpt>
      <trkpt lat="46.71969" lon="-1.97055">
        <ele>13</ele>
        <time>2018-01-13T05:54:07Z</time>
      </trkpt>
      <trkpt lat="46.7199" lon="-1.97098">
        <ele>12</ele>
        <time>2018-01-13T05:55:07Z</time>
      </trkpt>
      <trkpt lat="46.71999" lon="-1.97111">
        <ele>11</ele>
        <time>2018-01-13T05:56:07Z</time>
      </trkpt>
      <trkpt lat="46.72012" lon="-1.97137">
        <ele>11</ele>
        <time>2018-01-13T05:57:07Z</time>
      </trkpt>
      <trkpt lat="46.72045" lon="-1.972">
        <ele>10</ele>
        <time>2018-01-13T05:58:07Z</time>
      </trkpt>
      <trkpt lat="46.72062" lon="-1.97231">
        <ele>10</ele>
        <time>2018-01-13T05:59:07Z</time>
      </trkpt>
      <trkpt lat="46.72092" lon="-1.97285">
        <ele>9</ele>
        <time>2018-01-13T06:00:07Z</time>
      </trkpt>
      <trkpt lat="46.72114" lon="-1.97324">
        <ele>9</ele>
        <time>2018-01-13T06:01:07Z</time>
      </trkpt>
      <trkpt lat="46.72132" lon="-1.97353">
        <ele>10</ele>
        <time>2018-01-13T06:02:07Z</time>
      </trkpt>
      <trkpt lat="46.72144" lon="-1.97376">
        <ele>10</ele>
        <time>2018-01-13T06:03:07Z</time>
      </trkpt>
      <trkpt lat="46.72182" lon="-1.97442">
        <ele>10</ele>
        <time>2018-01-13T06:04:07Z</time>
      </trkpt>
      <trkpt lat="46.72229" lon="-1.97523">
        <ele>11</ele>
        <time>2018-01-13T06:05:07Z</time>
      </trkpt>
      <trkpt lat="46.72252" lon="-1.97565">
        <ele>12</ele>
        <time>2018-01-13T06:06:07Z</time>
      </trkpt>
      <trkpt lat="46.72268" lon="-1.97595">
        <ele>12</ele>
        <time>2018-01-13T06:07:07Z</time>
      </trkpt>
      <trkpt lat="46.72278" lon="-1.97612">
        <ele>12</ele>
        <time>2018-01-13T06:08:07Z</time>
      </trkpt>
      <trkpt lat="46.72306" lon="-1.97664">
        <ele>11</ele>
        <time>2018-01-13T06:09:07Z</time>
      </trkpt>
      <trkpt lat="46.72345" lon="-1.97737">
        <ele>9</ele>
        <time>2018-01-13T06:10:07Z</time>
      </trkpt>
      <trkpt lat="46.72381" lon="-1.97799">
        <ele>8</ele>
        <time>2018-01-13T06:11:07Z</time>
      </trkpt>
      <trkpt lat="46.72387" lon="-1.97802">
        <ele>7</ele>
        <time>2018-01-13T06:12:07Z</time>
      </trkpt>
      <trkpt lat="46.72403" lon="-1.97824">
        <ele>7</ele>
        <time>2018-01-13T06:13:07Z</time>
      </trkpt>
      <trkpt lat="46.72404" lon="-1.97824">
        <ele>7</ele>
        <time>2018-01-13T06:14:07Z</time>
      </trkpt>
      <trkpt lat="46.72405" lon="-1.97824">
        <ele>7</ele>
        <time>2018-01-13T06:15:07Z</time>
      </trkpt>
      <trkpt lat="46.72406" lon="-1.97824">
        <ele>6</ele>
        <time>2018-01-13T06:16:07Z</time>
      </trkpt>
      <trkpt lat="46.72407" lon="-1.97824">
        <ele>6</ele>
        <time>2018-01-13T06:17:07Z</time>
      </trkpt>
      <trkpt lat="46.72407" lon="-1.97825">
        <ele>6</ele>
        <time>2018-01-13T06:18:07Z</time>
      </trkpt>
      <trkpt lat="46.72408" lon="-1.97825">
        <ele>6</ele>
        <time>2018-01-13T06:19:07Z</time>
      </trkpt>
      <trkpt lat="46.72408" lon="-1.97826">
        <ele>6</ele>
        <time>2018-01-13T06:20:07Z</time>
      </trkpt>
      <trkpt lat="46.72409" lon="-1.97826">
        <ele>6</ele>
        <time>2018-01-13T06:21:07Z</time>
      </trkpt>
      <trkpt lat="46.72409" lon="-1.97827">
        <ele>6</ele>
        <time>2018-01-13T06:22:07Z</time>
      </trkpt>
      <trkpt lat="46.7241" lon="-1.97827">
        <ele>6</ele>
        <time>2018-01-13T06:23:07Z</time>
      </trkpt>
      <trkpt lat="46.7241" lon="-1.97828">
        <ele>6</ele>
        <time>2018-01-13T06:24:07Z</time>
      </trkpt>
      <trkpt lat="46.72411" lon="-1.97829">
        <ele>6</ele>
        <time>2018-01-13T06:25:07Z</time>
      </trkpt>
      <trkpt lat="46.72411" lon="-1.9783">
        <ele>6</ele>
        <time>2018-01-13T06:26:07Z</time>
      </trkpt>
      <trkpt lat="46.72412" lon="-1.97831">
        <ele>6</ele>
        <time>2018-01-13T06:27:07Z</time>
      </trkpt>
      <trkpt lat="46.72412" lon="-1.97832">
        <ele>6</ele>
        <time>2018-01-13T06:28:07Z</time>
      </trkpt>
      <trkpt lat="46.72412" lon="-1.97833">
        <ele>6</ele>
        <time>2018-01-13T06:29:07Z</time>
      </trkpt>
      <trkpt lat="46.72412" lon="-1.97834">
        <ele>6</ele>
        <time>2018-01-13T06:30:07Z</time>
      </trkpt>
      <trkpt lat="46.72412" lon="-1.97835">
        <ele>6</ele>
        <time>2018-01-13T06:31:07Z</time>
      </trkpt>
      <trkpt lat="46.72412" lon="-1.97836">
        <ele>6</ele>
        <time>2018-01-13T06:32:07Z</time>
      </trkpt>
      <trkpt lat="46.72412" lon="-1.97837">
        <ele>6</ele>
        <time>2018-01-13T06:33:07Z</time>
      </trkpt>
      <trkpt lat="46.72412" lon="-1.97838">
        <ele>6</ele>
        <time>2018-01-13T06:34:07Z</time>
      </trkpt>
      <trkpt lat="46.72412" lon="-1.97839">
        <ele>6</ele>
        <time>2018-01-13T06:35:07Z</time>
      </trkpt>
      <trkpt lat="46.72412" lon="-1.9784">
        <ele>6</ele>
        <time>2018-01-13T06:36:07Z</time>
      </trkpt>
      <trkpt lat="46.72425" lon="-1.97862">
        <ele>7</ele>
        <time>2018-01-13T06:37:07Z</time>
      </trkpt>
      <trkpt lat="46.72429" lon="-1.97876">
        <ele>7</ele>
        <time>2018-01-13T06:38:07Z</time>
      </trkpt>
      <trkpt lat="46.72432" lon="-1.97882">
        <ele>8</ele>
        <time>2018-01-13T06:39:07Z</time>
      </trkpt>
      <trkpt lat="46.72448" lon="-1.97908">
        <ele>8</ele>
        <time>2018-01-13T06:40:07Z</time>
      </trkpt>
      <trkpt lat="46.7247" lon="-1.97935">
        <ele>8</ele>
        <time>2018-01-13T06:41:07Z</time>
      </trkpt>
      <trkpt lat="46.7248" lon="-1.97945">
        <ele>8</ele>
        <time>2018-01-13T06:42:07Z</time>
      </trkpt>
      <trkpt lat="46.7249" lon="-1.97955">
        <ele>8</ele>
        <time>2018-01-13T06:43:07Z</time>
      </trkpt>
      <trkpt lat="46.72513" lon="-1.97975">
        <ele>8</ele>
        <time>2018-01-13T06:44:07Z</time>
      </trkpt>
      <trkpt lat="46.7254" lon="-1.97993">
        <ele>8</ele>
        <time>2018-01-13T06:45:07Z</time>
      </trkpt>
      <trkpt lat="46.72577" lon="-1.98018">
        <ele>8</ele>
        <time>2018-01-13T06:46:07Z</time>
      </trkpt>
      <trkpt lat="46.72619" lon="-1.98047">
        <ele>9</ele>
        <time>2018-01-13T06:47:07Z</time>
      </trkpt>
      <trkpt lat="46.72667" lon="-1.98081">
        <ele>10</ele>
        <time>2018-01-13T06:48:07Z</time>
      </trkpt>
      <trkpt lat="46.72704" lon="-1.98105">
        <ele>11</ele>
        <time>2018-01-13T06:49:07Z</time>
      </trkpt>
      <trkpt lat="46.72722" lon="-1.98115">
        <ele>11</ele>
        <time>2018-01-13T06:50:07Z</time>
      </trkpt>
      <trkpt lat="46.72738" lon="-1.98124">
        <ele>11</ele>
        <time>2018-01-13T06:51:07Z</time>
      </trkpt>
      <trkpt lat="46.72753" lon="-1.98131">
        <ele>11</ele>
        <time>2018-01-13T06:52:07Z</time>
      </trkpt>
      <trkpt lat="46.72761" lon="-1.98134">
        <ele>11</ele>
        <time>2018-01-13T06:53:07Z</time>
      </trkpt>
      <trkpt lat="46.72778" lon="-1.98142">
        <ele>10</ele>
        <time>2018-01-13T06:54:07Z</time>
      </trkpt>
      <trkpt lat="46.72793" lon="-1.98149">
        <ele>10</ele>
        <time>2018-01-13T06:55:07Z</time>
      </trkpt>
      <trkpt lat="46.72817" lon="-1.98158">
        <ele>9</ele>
        <time>2018-01-13T06:56:07Z</time>
      </trkpt>
      <trkpt lat="46.72862" lon="-1.98176">
        <ele>9</ele>
        <time>2018-01-13T06:57:07Z</time>
      </trkpt>
      <trkpt lat="46.72964" lon="-1.98218">
        <ele>11</ele>
        <time>2018-01-13T06:58:07Z</time>
      </trkpt>
      <trkpt lat="46.73021" lon="-1.98242">
        <ele>10</ele>
        <time>2018-01-13T06:59:07Z</time>
      </trkpt>
      <trkpt lat="46.73054" lon="-1.98256">
        <ele>11</ele>
        <time>2018-01-13T07:00:07Z</time>
      </trkpt>
      <trkpt lat="46.7307" lon="-1.98262">
        <ele>11</ele>
        <time>2018-01-13T07:01:07Z</time>
      </trkpt>
      <trkpt lat="46.73092" lon="-1.98272">
        <ele>11</ele>
        <time>2018-01-13T07:02:07Z</time>
      </trkpt>
      <trkpt lat="46.73108" lon="-1.98278">
        <ele>11</ele>
        <time>2018-01-13T07:03:07Z</time>
      </trkpt>
      <trkpt lat="46.73123" lon="-1.98284">
        <ele>11</ele>
        <time>2018-01-13T07:04:07Z</time>
      </trkpt>
      <trkpt lat="46.73138" lon="-1.98291">
        <ele>12</ele>
        <time>2018-01-13T07:05:07Z</time>
      </trkpt>
      <trkpt lat="46.73152" lon="-1.98299">
        <ele>12</ele>
        <time>2018-01-13T07:06:07Z</time>
      </trkpt>
      <trkpt lat="46.73162" lon="-1.98305">
        <ele>12</ele>
        <time>2018-01-13T07:07:07Z</time>
      </trkpt>
      <trkpt lat="46.73174" lon="-1.98312">
        <ele>12</ele>
        <time>2018-01-13T07:08:07Z</time>
      </trkpt>
      <trkpt lat="46.7319" lon="-1.98325">
        <ele>12</ele>
        <time>2018-01-13T07:09:07Z</time>
      </trkpt>
      <trkpt lat="46.73213" lon="-1.98346">
        <ele>11</ele>
        <time>2018-01-13T07:10:07Z</time>
      </trkpt>
      <trkpt lat="46.73238" lon="-1.9837">
        <ele>11</ele>
        <time>2018-01-13T07:11:07Z</time>
      </trkpt>
      <trkpt lat="46.73263" lon="-1.98394">
        <ele>10</ele>
        <time>2018-01-13T07:12:07Z</time>
      </trkpt>
      <trkpt lat="46.73291" lon="-1.9842">
        <ele>10</ele>
        <time>2018-01-13T07:13:07Z</time>
      </trkpt>
      <trkpt lat="46.73318" lon="-1.98447">
        <ele>10</ele>
        <time>2018-01-13T07:14:07Z</time>
      </trkpt>
      <trkpt lat="46.73336" lon="-1.98466">
        <ele>10</ele>
        <time>2018-01-13T07:15:07Z</time>
      </trkpt>
      <trkpt lat="46.73347" lon="-1.98478">
        <ele>10</ele>
        <time>2018-01-13T07:16:07Z</time>
      </trkpt>
      <trkpt lat="46.73356" lon="-1.9849">
        <ele>9</ele>
        <time>2018-01-13T07:17:07Z</time>
      </trkpt>
      <trkpt lat="46.73362" lon="-1.98501">
        <ele>9</ele>
        <time>2018-01-13T07:18:07Z</time>
      </trkpt>
      <trkpt lat="46.73369" lon="-1.98518">
        <ele>9</ele>
        <time>2018-01-13T07:19:07Z</time>
      </trkpt>
      <trkpt lat="46.73375" lon="-1.98535">
        <ele>9</ele>
        <time>2018-01-13T07:20:07Z</time>
      </trkpt>
      <trkpt lat="46.7338" lon="-1.98549">
        <ele>9</ele>
        <time>2018-01-13T07:21:07Z</time>
      </trkpt>
      <trkpt lat="46.73383" lon="-1.98564">
        <ele>9</ele>
        <time>2018-01-13T07:22:07Z</time>
      </trkpt>
      <trkpt lat="46.73386" lon="-1.98577">
        <ele>9</ele>
        <time>2018-01-13T07:23:07Z</time>
      </trkpt>
      <trkpt lat="46.73387" lon="-1.98593">
        <ele>9</ele>
        <time>2018-01-13T07:24:07Z</time>
      </trkpt>
      <trkpt lat="46.73388" lon="-1.9861">
        <ele>9</ele>
        <time>2018-01-13T07:25:07Z</time>
      </trkpt>
      <trkpt lat="46.73389" lon="-1.98623">
        <ele>9</ele>
        <time>2018-01-13T07:26:07Z</time>
      </trkpt>
      <trkpt lat="46.73389" lon="-1.98633">
        <ele>9</ele>
        <time>2018-01-13T07:27:07Z</time>
      </trkpt>
      <trkpt lat="46.73389" lon="-1.98637">
        <ele>9</ele>
        <time>2018-01-13T07:28:07Z</time>
      </trkpt>
      <trkpt lat="46.73392" lon="-1.98653">
        <ele>9</ele>
        <time>2018-01-13T07:29:07Z</time>
      </trkpt>
      <trkpt lat="46.73393" lon="-1.9866">
        <ele>9</ele>
        <time>2018-01-13T07:30:07Z</time>
      </trkpt>
      <trkpt lat="46.73394" lon="-1.98667">
        <ele>9</ele>
        <time>2018-01-13T07:31:07Z</time>
      </trkpt>
      <trkpt lat="46.73397" lon="-1.98679">
        <ele>9</ele>
        <time>2018-01-13T07:32:07Z</time>
      </trkpt>
      <trkpt lat="46.73401" lon="-1.98693">
        <ele>9</ele>
        <time>2018-01-13T07:33:07Z</time>
      </trkpt>
      <trkpt lat="46.73404" lon="-1.98702">
        <ele>9</ele>
        <time>2018-01-13T07:34:07Z</time>
      </trkpt>
      <trkpt lat="46.73407" lon="-1.98708">
        <ele>9</ele>
        <time>2018-01-13T07:35:07Z</time>
      </trkpt>
      <trkpt lat="46.73414" lon="-1.9872">
        <ele>9</ele>
        <time>2018-01-13T07:36:07Z</time>
      </trkpt>
      <trkpt lat="46.73425" lon="-1.98734">
        <ele>9</ele>
        <time>2018-01-13T07:37:07Z</time>
      </trkpt>
      <trkpt lat="46.73441" lon="-1.98751">
        <ele>8</ele>
        <time>2018-01-13T07:38:07Z</time>
      </trkpt>
      <trkpt lat="46.73447" lon="-1.98757">
        <ele>8</ele>
        <time>2018-01-13T07:39:07Z</time>
      </trkpt>
      <trkpt lat="46.73474" lon="-1.98783">
        <ele>9</ele>
        <time>2018-01-13T07:40:07Z</time>
      </trkpt>
      <trkpt lat="46.73504" lon="-1.98811">
        <ele>8</ele>
        <time>2018-01-13T07:41:07Z</time>
      </trkpt>
      <trkpt lat="46.73528" lon="-1.98834">
        <ele>8</ele>
        <time>2018-01-13T07:42:07Z</time>
      </trkpt>
      <trkpt lat="46.73544" lon="-1.98848">
        <ele>7</ele>
        <time>2018-01-13T07:43:07Z</time>
      </trkpt>
      <trkpt lat="46.73569" lon="-1.98872">
        <ele>7</ele>
        <time>2018-01-13T07:44:07Z</time>
      </trkpt>
      <trkpt lat="46.73597" lon="-1.98901">
        <ele>7</ele>
        <time>2018-01-13T07:45:07Z</time>
      </trkpt>
      <trkpt lat="46.7363" lon="-1.98933">
        <ele>7</ele>
        <time>2018-01-13T07:46:07Z</time>
      </trkpt>
      <trkpt lat="46.7365" lon="-1.98953">
        <ele>8</ele>
        <time>2018-01-13T07:47:07Z</time>
      </trkpt>
      <trkpt lat="46.73663" lon="-1.98965">
        <ele>8</ele>
        <time>2018-01-13T07:48:07Z</time>
      </trkpt>
      <trkpt lat="46.73664" lon="-1.98966">
        <ele>8</ele>
        <time>2018-01-13T07:49:07Z</time>
      </trkpt>
      <trkpt lat="46.73706" lon="-1.99004">
        <ele>9</ele>
        <time>2018-01-13T07:50:07Z</time>
      </trkpt>
      <trkpt lat="46.73719" lon="-1.99017">
        <ele>8</ele>
        <time>2018-01-13T07:51:07Z</time>
      </trkpt>
      <trkpt lat="46.73748" lon="-1.99044">
        <ele>8</ele>
        <time>2018-01-13T07:52:07Z</time>
      </trkpt>
      <trkpt lat="46.73778" lon="-1.99073">
        <ele>8</ele>
        <time>2018-01-13T07:53:07Z</time>
      </trkpt>
      <trkpt lat="46.73818" lon="-1.99114">
        <ele>8</ele>
        <time>2018-01-13T07:54:07Z</time>
      </trkpt>
      <trkpt lat="46.73849" lon="-1.99145">
        <ele>8</ele>
        <time>2018-01-13T07:55:07Z</time>
      </trkpt>
      <trkpt lat="46.73877" lon="-1.99173">
        <ele>7</ele>
        <time>2018-01-13T07:56:07Z</time>
      </trkpt>
      <trkpt lat="46.73916" lon="-1.99212">
        <ele>8</ele>
        <time>2018-01-13T07:57:07Z</time>
      </trkpt>
      <trkpt lat="46.73934" lon="-1.99226">
        <ele>8</ele>
        <time>2018-01-13T07:58:07Z</time>
      </trkpt>
      <trkpt lat="46.73956" lon="-1.9924">
        <ele>9</ele>
        <time>2018-01-13T07:59:07Z</time>
      </trkpt>
      <trkpt lat="46.7397" lon="-1.99247">
        <ele>9</ele>
        <time>2018-01-13T08:00:07Z</time>
      </trkpt>
      <trkpt lat="46.73992" lon="-1.99255">
        <ele>9</ele>
        <time>2018-01-13T08:01:07Z</time>
      </trkpt>
      <trkpt lat="46.74013" lon="-1.99261">
        <ele>8</ele>
        <time>2018-01-13T08:02:07Z</time>
      </trkpt>
      <trkpt lat="46.74037" lon="-1.99265">
        <ele>7</ele>
        <time>2018-01-13T08:03:07Z</time>
      </trkpt>
      <trkpt lat="46.74042" lon="-1.99266">
        <ele>7</ele>
        <time>2018-01-13T08:04:07Z</time>
      </trkpt>
      <trkpt lat="46.74086" lon="-1.9927">
        <ele>5</ele>
        <time>2018-01-13T08:05:07Z</time>
      </trkpt>
      <trkpt lat="46.74115" lon="-1.99274">
        <ele>5</ele>
        <time>2018-01-13T08:06:07Z</time>
      </trkpt>
      <trkpt lat="46.74161" lon="-1.99278">
        <ele>4</ele>
        <time>2018-01-13T08:07:07Z</time>
      </trkpt>
      <trkpt lat="46.74166" lon="-1.99279">
        <ele>4</ele>
        <time>2018-01-13T08:08:07Z</time>
      </trkpt>
      <trkpt lat="46.7417" lon="-1.99281">
        <ele>4</ele>
        <time>2018-01-13T08:09:07Z</time>
      </trkpt>
      <trkpt lat="46.74177" lon="-1.99282">
        <ele>4</ele>
        <time>2018-01-13T08:10:07Z</time>
      </trkpt>
      <trkpt lat="46.74184" lon="-1.99283">
        <ele>4</ele>
        <time>2018-01-13T08:11:07Z</time>
      </trkpt>
      <trkpt lat="46.74184" lon="-1.99283">
        <ele>4</ele>
        <time>2018-01-13T08:12:07Z</time>
      </trkpt>
      <trkpt lat="46.74187" lon="-1.99281">
        <ele>4</ele>
        <time>2018-01-13T08:13:07Z</time>
      </trkpt>
      <trkpt lat="46.74189" lon="-1.99281">
        <ele>4</ele>
        <time>2018-01-13T08:14:07Z</time>
      </trkpt>
      <trkpt lat="46.74192" lon="-1.9928">
        <ele>4</ele>
        <time>2018-01-13T08:15:07Z</time>
      </trkpt>
      <trkpt lat="46.74194" lon="-1.9928">
        <ele>4</ele>
        <time>2018-01-13T08:16:07Z</time>
      </trkpt>
      <trkpt lat="46.74197" lon="-1.99281">
        <ele>4</ele>
        <time>2018-01-13T08:17:07Z</time>
      </trkpt>
      <trkpt lat="46.74199" lon="-1.99283">
        <ele>4</ele>
        <time>2018-01-13T08:18:07Z</time>
      </trkpt>
      <trkpt lat="46.74202" lon="-1.99285">
        <ele>4</ele>
        <time>2018-01-13T08:19:07Z</time>
      </trkpt>
      <trkpt lat="46.74204" lon="-1.99287">
        <ele>4</ele>
        <time>2018-01-13T08:20:07Z</time>
      </trkpt>
      <trkpt lat="46.74205" lon="-1.9929">
        <ele>4</ele>
        <time>2018-01-13T08:21:07Z</time>
      </trkpt>
      <trkpt lat="46.74207" lon="-1.99294">
        <ele>5</ele>
        <time>2018-01-13T08:22:07Z</time>
      </trkpt>
      <trkpt lat="46.74207" lon="-1.99297">
        <ele>5</ele>
        <time>2018-01-13T08:23:07Z</time>
      </trkpt>
      <trkpt lat="46.74208" lon="-1.993">
        <ele>5</ele>
        <time>2018-01-13T08:24:07Z</time>
      </trkpt>
      <trkpt lat="46.74208" lon="-1.99304">
        <ele>5</ele>
        <time>2018-01-13T08:25:07Z</time>
      </trkpt>
      <trkpt lat="46.74207" lon="-1.99308">
        <ele>5</ele>
        <time>2018-01-13T08:26:07Z</time>
      </trkpt>
      <trkpt lat="46.74208" lon="-1.99315">
        <ele>5</ele>
        <time>2018-01-13T08:27:07Z</time>
      </trkpt>
      <trkpt lat="46.74209" lon="-1.99326">
        <ele>5</ele>
        <time>2018-01-13T08:28:07Z</time>
      </trkpt>
      <trkpt lat="46.74212" lon="-1.99342">
        <ele>5</ele>
        <time>2018-01-13T08:29:07Z</time>
      </trkpt>
      <trkpt lat="46.74215" lon="-1.99356">
        <ele>5</ele>
        <time>2018-01-13T08:30:07Z</time>
      </trkpt>
      <trkpt lat="46.74215" lon="-1.99361">
        <ele>5</ele>
        <time>2018-01-13T08:31:07Z</time>
      </trkpt>
      <trkpt lat="46.74216" lon="-1.99379">
        <ele>5</ele>
        <time>2018-01-13T08:32:07Z</time>
      </trkpt>
      <trkpt lat="46.74216" lon="-1.99393">
        <ele>5</ele>
        <time>2018-01-13T08:33:07Z</time>
      </trkpt>
      <trkpt lat="46.74216" lon="-1.99406">
        <ele>4</ele>
        <time>2018-01-13T08:34:07Z</time>
      </trkpt>
      <trkpt lat="46.74211" lon="-1.99436">
        <ele>5</ele>
        <time>2018-01-13T08:35:07Z</time>
      </trkpt>
      <trkpt lat="46.74206" lon="-1.99468">
        <ele>5</ele>
        <time>2018-01-13T08:36:07Z</time>
      </trkpt>
      <trkpt lat="46.74204" lon="-1.99474">
        <ele>5</ele>
        <time>2018-01-13T08:37:07Z</time>
      </trkpt>
      <trkpt lat="46.742" lon="-1.99493">
        <ele>5</ele>
        <time>2018-01-13T08:38:07Z</time>
      </trkpt>
      <trkpt lat="46.74192" lon="-1.99525">
        <ele>6</ele>
        <time>2018-01-13T08:39:07Z</time>
      </trkpt>
      <trkpt lat="46.74182" lon="-1.99559">
        <ele>6</ele>
        <time>2018-01-13T08:40:07Z</time>
      </trkpt>
      <trkpt lat="46.74174" lon="-1.9959">
        <ele>7</ele>
        <time>2018-01-13T08:41:07Z</time>
      </trkpt>
      <trkpt lat="46.74165" lon="-1.99622">
        <ele>6</ele>
        <time>2018-01-13T08:42:07Z</time>
      </trkpt>
      <trkpt lat="46.74162" lon="-1.99638">
        <ele>6</ele>
        <time>2018-01-13T08:43:07Z</time>
      </trkpt>
      <trkpt lat="46.74158" lon="-1.99666">
        <ele>5</ele>
        <time>2018-01-13T08:44:07Z</time>
      </trkpt>
      <trkpt lat="46.74157" lon="-1.99675">
        <ele>5</ele>
        <time>2018-01-13T08:45:07Z</time>
      </trkpt>
      <trkpt lat="46.74155" lon="-1.99686">
        <ele>5</ele>
        <time>2018-01-13T08:46:07Z</time>
      </trkpt>
      <trkpt lat="46.74154" lon="-1.99732">
        <ele>5</ele>
        <time>2018-01-13T08:47:07Z</time>
      </trkpt>
      <trkpt lat="46.74148" lon="-1.99843">
        <ele>7</ele>
        <time>2018-01-13T08:48:07Z</time>
      </trkpt>
      <trkpt lat="46.74143" lon="-1.99924">
        <ele>7</ele>
        <time>2018-01-13T08:49:07Z</time>
      </trkpt>
      <trkpt lat="46.74142" lon="-1.99944">
        <ele>6</ele>
        <time>2018-01-13T08:50:07Z</time>
      </trkpt>
      <trkpt lat="46.74134" lon="-2.0004">
        <ele>6</ele>
        <time>2018-01-13T08:51:07Z</time>
      </trkpt>
      <trkpt lat="46.74127" lon="-2.001">
        <ele>6</ele>
        <time>2018-01-13T08:52:07Z</time>
      </trkpt>
      <trkpt lat="46.74123" lon="-2.00124">
        <ele>6</ele>
        <time>2018-01-13T08:53:07Z</time>
      </trkpt>
      <trkpt lat="46.74119" lon="-2.00146">
        <ele>5</ele>
        <time>2018-01-13T08:54:07Z</time>
      </trkpt>
      <trkpt lat="46.74115" lon="-2.00164">
        <ele>5</ele>
        <time>2018-01-13T08:55:07Z</time>
      </trkpt>
      <trkpt lat="46.7411" lon="-2.00185">
        <ele>5</ele>
        <time>2018-01-13T08:56:07Z</time>
      </trkpt>
      <trkpt lat="46.74088" lon="-2.00267">
        <ele>4</ele>
        <time>2018-01-13T08:57:07Z</time>
      </trkpt>
      <trkpt lat="46.74085" lon="-2.00279">
        <ele>3</ele>
        <time>2018-01-13T08:58:07Z</time>
      </trkpt>
      <trkpt lat="46.74079" lon="-2.00302">
        <ele>3</ele>
        <time>2018-01-13T08:59:07Z</time>
      </trkpt>
      <trkpt lat="46.74075" lon="-2.00318">
        <ele>3</ele>
        <time>2018-01-13T09:00:07Z</time>
      </trkpt>
      <trkpt lat="46.7407" lon="-2.00339">
        <ele>2</ele>
        <time>2018-01-13T09:01:07Z</time>
      </trkpt>
      <trkpt lat="46.74067" lon="-2.00353">
        <ele>3</ele>
        <time>2018-01-13T09:02:07Z</time>
      </trkpt>
      <trkpt lat="46.74065" lon="-2.00368">
        <ele>3</ele>
        <time>2018-01-13T09:03:07Z</time>
      </trkpt>
      <trkpt lat="46.74065" lon="-2.00382">
        <ele>3</ele>
        <time>2018-01-13T09:04:07Z</time>
      </trkpt>
      <trkpt lat="46.74066" lon="-2.00393">
        <ele>3</ele>
        <time>2018-01-13T09:05:07Z</time>
      </trkpt>
      <trkpt lat="46.74067" lon="-2.00404">
        <ele>3</ele>
        <time>2018-01-13T09:06:07Z</time>
      </trkpt>
      <trkpt lat="46.74073" lon="-2.00423">
        <ele>3</ele>
        <time>2018-01-13T09:07:07Z</time>
      </trkpt>
      <trkpt lat="46.74078" lon="-2.00436">
        <ele>3</ele>
        <time>2018-01-13T09:08:07Z</time>
      </trkpt>
      <trkpt lat="46.74085" lon="-2.00458">
        <ele>3</ele>
        <time>2018-01-13T09:09:07Z</time>
      </trkpt>
      <trkpt lat="46.74096" lon="-2.00481">
        <ele>3</ele>
        <time>2018-01-13T09:10:07Z</time>
      </trkpt>
      <trkpt lat="46.74099" lon="-2.00488">
        <ele>3</ele>
        <time>2018-01-13T09:11:07Z</time>
      </trkpt>
      <trkpt lat="46.74103" lon="-2.00497">
        <ele>3</ele>
        <time>2018-01-13T09:12:07Z</time>
      </trkpt>
      <trkpt lat="46.74108" lon="-2.00504">
        <ele>3</ele>
        <time>2018-01-13T09:13:07Z</time>
      </trkpt>
      <trkpt lat="46.74114" lon="-2.00514">
        <ele>3</ele>
        <time>2018-01-13T09:14:07Z</time>
      </trkpt>
      <trkpt lat="46.74117" lon="-2.00519">
        <ele>3</ele>
        <time>2018-01-13T09:15:07Z</time>
      </trkpt>
      <trkpt lat="46.74124" lon="-2.00529">
        <ele>3</ele>
        <time>2018-01-13T09:16:07Z</time>
      </trkpt>
      <trkpt lat="46.74131" lon="-2.0054">
        <ele>3</ele>
        <time>2018-01-13T09:17:07Z</time>
      </trkpt>
      <trkpt lat="46.74143" lon="-2.00558">
        <ele>3</ele>
        <time>2018-01-13T09:18:07Z</time>
      </trkpt>
      <trkpt lat="46.74148" lon="-2.00565">
        <ele>3</ele>
        <time>2018-01-13T09:19:07Z</time>
      </trkpt>
      <trkpt lat="46.74191" lon="-2.00625">
        <ele>3</ele>
        <time>2018-01-13T09:20:07Z</time>
      </trkpt>
      <trkpt lat="46.74235" lon="-2.00689">
        <ele>3</ele>
        <time>2018-01-13T09:21:07Z</time>
      </trkpt>
      <trkpt lat="46.7425" lon="-2.00711">
        <ele>2</ele>
        <time>2018-01-13T09:22:07Z</time>
      </trkpt>
      <trkpt lat="46.7426" lon="-2.00726">
        <ele>2</ele>
        <time>2018-01-13T09:23:07Z</time>
      </trkpt>
      <trkpt lat="46.74275" lon="-2.00753">
        <ele>2</ele>
        <time>2018-01-13T09:24:07Z</time>
      </trkpt>
      <trkpt lat="46.74283" lon="-2.00765">
        <ele>2</ele>
        <time>2018-01-13T09:25:07Z</time>
      </trkpt>
      <trkpt lat="46.74301" lon="-2.00793">
        <ele>2</ele>
        <time>2018-01-13T09:26:07Z</time>
      </trkpt>
      <trkpt lat="46.74308" lon="-2.00805">
        <ele>2</ele>
        <time>2018-01-13T09:27:07Z</time>
      </trkpt>
      <trkpt lat="46.74312" lon="-2.00812">
        <ele>2</ele>
        <time>2018-01-13T09:28:07Z</time>
      </trkpt>
      <trkpt lat="46.74322" lon="-2.0083">
        <ele>3</ele>
        <time>2018-01-13T09:29:07Z</time>
      </trkpt>
      <trkpt lat="46.7433" lon="-2.00843">
        <ele>3</ele>
        <time>2018-01-13T09:30:07Z</time>
      </trkpt>
      <trkpt lat="46.74337" lon="-2.00853">
        <ele>3</ele>
        <time>2018-01-13T09:31:07Z</time>
      </trkpt>
      <trkpt lat="46.74345" lon="-2.00864">
        <ele>3</ele>
        <time>2018-01-13T09:32:07Z</time>
      </trkpt>
      <trkpt lat="46.74361" lon="-2.0088">
        <ele>3</ele>
        <time>2018-01-13T09:33:07Z</time>
      </trkpt>
      <trkpt lat="46.7439" lon="-2.00906">
        <ele>3</ele>
        <time>2018-01-13T09:34:07Z</time>
      </trkpt>
      <trkpt lat="46.74444" lon="-2.00952">
        <ele>4</ele>
        <time>2018-01-13T09:35:07Z</time>
      </trkpt>
      <trkpt lat="46.74463" lon="-2.00969">
        <ele>4</ele>
        <time>2018-01-13T09:36:07Z</time>
      </trkpt>
      <trkpt lat="46.74482" lon="-2.00986">
        <ele>4</ele>
        <time>2018-01-13T09:37:07Z</time>
      </trkpt>
      <trkpt lat="46.74512" lon="-2.01014">
        <ele>5</ele>
        <time>2018-01-13T09:38:07Z</time>
      </trkpt>
      <trkpt lat="46.74532" lon="-2.0103">
        <ele>5</ele>
        <time>2018-01-13T09:39:07Z</time>
      </trkpt>
      <trkpt lat="46.74538" lon="-2.01036">
        <ele>4</ele>
        <time>2018-01-13T09:40:07Z</time>
      </trkpt>
      <trkpt lat="46.74557" lon="-2.01058">
        <ele>4</ele>
        <time>2018-01-13T09:41:07Z</time>
      </trkpt>
      <trkpt lat="46.74564" lon="-2.01068">
        <ele>4</ele>
        <time>2018-01-13T09:42:07Z</time>
      </trkpt>
      <trkpt lat="46.74582" lon="-2.01089">
        <ele>4</ele>
        <time>2018-01-13T09:43:07Z</time>
      </trkpt>
      <trkpt lat="46.74613" lon="-2.01126">
        <ele>7</ele>
        <time>2018-01-13T09:44:07Z</time>
      </trkpt>
      <trkpt lat="46.74638" lon="-2.01154">
        <ele>8</ele>
        <time>2018-01-13T09:45:07Z</time>
      </trkpt>
      <trkpt lat="46.74646" lon="-2.01164">
        <ele>8</ele>
        <time>2018-01-13T09:46:07Z</time>
      </trkpt>
      <trkpt lat="46.74664" lon="-2.01183">
        <ele>8</ele>
        <time>2018-01-13T09:47:07Z</time>
      </trkpt>
      <trkpt lat="46.74682" lon="-2.01198">
        <ele>8</ele>
        <time>2018-01-13T09:48:07Z</time>
      </trkpt>
      <trkpt lat="46.74693" lon="-2.01205">
        <ele>8</ele>
        <time>2018-01-13T09:49:07Z</time>
      </trkpt>
      <trkpt lat="46.74723" lon="-2.01225">
        <ele>7</ele>
        <time>2018-01-13T09:50:07Z</time>
      </trkpt>
      <trkpt lat="46.74747" lon="-2.0124">
        <ele>7</ele>
        <time>2018-01-13T09:51:07Z</time>
      </trkpt>
      <trkpt lat="46.74784" lon="-2.01263">
        <ele>6</ele>
        <time>2018-01-13T09:52:07Z</time>
      </trkpt>
      <trkpt lat="46.74821" lon="-2.01285">
        <ele>6</ele>
        <time>2018-01-13T09:53:07Z</time>
      </trkpt>
      <trkpt lat="46.74863" lon="-2.01308">
        <ele>7</ele>
        <time>2018-01-13T09:54:07Z</time>
      </trkpt>
      <trkpt lat="46.74895" lon="-2.01325">
        <ele>7</ele>
        <time>2018-01-13T09:55:07Z</time>
      </trkpt>
      <trkpt lat="46.74927" lon="-2.01343">
        <ele>7</ele>
        <time>2018-01-13T09:56:07Z</time>
      </trkpt>
      <trkpt lat="46.74944" lon="-2.01355">
        <ele>6</ele>
        <time>2018-01-13T09:57:07Z</time>
      </trkpt>
      <trkpt lat="46.7495" lon="-2.01362">
        <ele>6</ele>
        <time>2018-01-13T09:58:07Z</time>
      </trkpt>
      <trkpt lat="46.74952" lon="-2.01363">
        <ele>6</ele>
        <time>2018-01-13T09:59:07Z</time>
      </trkpt>
      <trkpt lat="46.74958" lon="-2.01372">
        <ele>5</ele>
        <time>2018-01-13T10:00:07Z</time>
      </trkpt>
      <trkpt lat="46.74969" lon="-2.01389">
        <ele>5</ele>
        <time>2018-01-13T10:01:07Z</time>
      </trkpt>
      <trkpt lat="46.74972" lon="-2.01394">
        <ele>5</ele>
        <time>2018-01-13T10:02:07Z</time>
      </trkpt>
      <trkpt lat="46.74993" lon="-2.01431">
        <ele>4</ele>
        <time>2018-01-13T10:03:07Z</time>
      </trkpt>
      <trkpt lat="46.75018" lon="-2.01472">
        <ele>4</ele>
        <time>2018-01-13T10:04:07Z</time>
      </trkpt>
      <trkpt lat="46.75035" lon="-2.01499">
        <ele>4</ele>
        <time>2018-01-13T10:05:07Z</time>
      </trkpt>
      <trkpt lat="46.75037" lon="-2.01501">
        <ele>4</ele>
        <time>2018-01-13T10:06:07Z</time>
      </trkpt>
      <trkpt lat="46.75057" lon="-2.01531">
        <ele>4</ele>
        <time>2018-01-13T10:07:07Z</time>
      </trkpt>
      <trkpt lat="46.75084" lon="-2.01564">
        <ele>4</ele>
        <time>2018-01-13T10:08:07Z</time>
      </trkpt>
      <trkpt lat="46.75096" lon="-2.01579">
        <ele>4</ele>
        <time>2018-01-13T10:09:07Z</time>
      </trkpt>
      <trkpt lat="46.75104" lon="-2.01586">
        <ele>4</ele>
        <time>2018-01-13T10:10:07Z</time>
      </trkpt>
      <trkpt lat="46.75112" lon="-2.0159">
        <ele>3</ele>
        <time>2018-01-13T10:11:07Z</time>
      </trkpt>
      <trkpt lat="46.75114" lon="-2.01589">
        <ele>3</ele>
        <time>2018-01-13T10:12:07Z</time>
      </trkpt>
      <trkpt lat="46.75115" lon="-2.01589">
        <ele>3</ele>
        <time>2018-01-13T10:13:07Z</time>
      </trkpt>
      <trkpt lat="46.75118" lon="-2.01588">
        <ele>3</ele>
        <time>2018-01-13T10:14:07Z</time>
      </trkpt>
      <trkpt lat="46.75122" lon="-2.01589">
        <ele>3</ele>
        <time>2018-01-13T10:15:07Z</time>
      </trkpt>
      <trkpt lat="46.75125" lon="-2.01591">
        <ele>3</ele>
        <time>2018-01-13T10:16:07Z</time>
      </trkpt>
      <trkpt lat="46.75128" lon="-2.01593">
        <ele>3</ele>
        <time>2018-01-13T10:17:07Z</time>
      </trkpt>
      <trkpt lat="46.7513" lon="-2.01596">
        <ele>3</ele>
        <time>2018-01-13T10:18:07Z</time>
      </trkpt>
      <trkpt lat="46.75132" lon="-2.01601">
        <ele>3</ele>
        <time>2018-01-13T10:19:07Z</time>
      </trkpt>
      <trkpt lat="46.75134" lon="-2.01607">
        <ele>3</ele>
        <time>2018-01-13T10:20:07Z</time>
      </trkpt>
      <trkpt lat="46.75134" lon="-2.0161">
        <ele>3</ele>
        <time>2018-01-13T10:21:07Z</time>
      </trkpt>
      <trkpt lat="46.75134" lon="-2.01615">
        <ele>3</ele>
        <time>2018-01-13T10:22:07Z</time>
      </trkpt>
      <trkpt lat="46.75133" lon="-2.0162">
        <ele>4</ele>
        <time>2018-01-13T10:23:07Z</time>
      </trkpt>
      <trkpt lat="46.75135" lon="-2.01625">
        <ele>4</ele>
        <time>2018-01-13T10:24:07Z</time>
      </trkpt>
      <trkpt lat="46.7514" lon="-2.0164">
        <ele>4</ele>
        <time>2018-01-13T10:25:07Z</time>
      </trkpt>
      <trkpt lat="46.75163" lon="-2.01681">
        <ele>4</ele>
        <time>2018-01-13T10:26:07Z</time>
      </trkpt>
      <trkpt lat="46.75167" lon="-2.01688">
        <ele>4</ele>
        <time>2018-01-13T10:27:07Z</time>
      </trkpt>
      <trkpt lat="46.75196" lon="-2.01732">
        <ele>3</ele>
        <time>2018-01-13T10:28:07Z</time>
      </trkpt>
      <trkpt lat="46.752" lon="-2.01737">
        <ele>3</ele>
        <time>2018-01-13T10:29:07Z</time>
      </trkpt>
      <trkpt lat="46.7522" lon="-2.01766">
        <ele>3</ele>
        <time>2018-01-13T10:30:07Z</time>
      </trkpt>
      <trkpt lat="46.7525" lon="-2.01807">
        <ele>2</ele>
        <time>2018-01-13T10:31:07Z</time>
      </trkpt>
      <trkpt lat="46.75262" lon="-2.01823">
        <ele>2</ele>
        <time>2018-01-13T10:32:07Z</time>
      </trkpt>
      <trkpt lat="46.75285" lon="-2.01854">
        <ele>2</ele>
        <time>2018-01-13T10:33:07Z</time>
      </trkpt>
      <trkpt lat="46.75312" lon="-2.01896">
        <ele>3</ele>
        <time>2018-01-13T10:34:07Z</time>
      </trkpt>
      <trkpt lat="46.75332" lon="-2.01929">
        <ele>3</ele>
        <time>2018-01-13T10:35:07Z</time>
      </trkpt>
      <trkpt lat="46.75345" lon="-2.01949">
        <ele>3</ele>
        <time>2018-01-13T10:36:07Z</time>
      </trkpt>
      <trkpt lat="46.75348" lon="-2.01954">
        <ele>3</ele>
        <time>2018-01-13T10:37:07Z</time>
      </trkpt>
      <trkpt lat="46.75354" lon="-2.01964">
        <ele>3</ele>
        <time>2018-01-13T10:38:07Z</time>
      </trkpt>
      <trkpt lat="46.75375" lon="-2.01991">
        <ele>2</ele>
        <time>2018-01-13T10:39:07Z</time>
      </trkpt>
      <trkpt lat="46.75389" lon="-2.02007">
        <ele>2</ele>
        <time>2018-01-13T10:40:07Z</time>
      </trkpt>
      <trkpt lat="46.75404" lon="-2.02024">
        <ele>2</ele>
        <time>2018-01-13T10:41:07Z</time>
      </trkpt>
      <trkpt lat="46.75417" lon="-2.0204">
        <ele>2</ele>
        <time>2018-01-13T10:42:07Z</time>
      </trkpt>
      <trkpt lat="46.75428" lon="-2.02053">
        <ele>2</ele>
        <time>2018-01-13T10:43:07Z</time>
      </trkpt>
      <trkpt lat="46.75435" lon="-2.02063">
        <ele>2</ele>
        <time>2018-01-13T10:44:07Z</time>
      </trkpt>
      <trkpt lat="46.75445" lon="-2.02076">
        <ele>3</ele>
        <time>2018-01-13T10:45:07Z</time>
      </trkpt>
      <trkpt lat="46.75449" lon="-2.02083">
        <ele>3</ele>
        <time>2018-01-13T10:46:07Z</time>
      </trkpt>
      <trkpt lat="46.75453" lon="-2.02089">
        <ele>3</ele>
        <time>2018-01-13T10:47:07Z</time>
      </trkpt>
      <trkpt lat="46.75454" lon="-2.02092">
        <ele>3</ele>
        <time>2018-01-13T10:48:07Z</time>
      </trkpt>
      <trkpt lat="46.75459" lon="-2.021">
        <ele>3</ele>
        <time>2018-01-13T10:49:07Z</time>
      </trkpt>
      <trkpt lat="46.75466" lon="-2.02113">
        <ele>3</ele>
        <time>2018-01-13T10:50:07Z</time>
      </trkpt>
      <trkpt lat="46.7547" lon="-2.02123">
        <ele>3</ele>
        <time>2018-01-13T10:51:07Z</time>
      </trkpt>
      <trkpt lat="46.75474" lon="-2.02131">
        <ele>2</ele>
        <time>2018-01-13T10:52:07Z</time>
      </trkpt>
      <trkpt lat="46.75479" lon="-2.02148">
        <ele>2</ele>
        <time>2018-01-13T10:53:07Z</time>
      </trkpt>
      <trkpt lat="46.75484" lon="-2.02161">
        <ele>2</ele>
        <time>2018-01-13T10:54:07Z</time>
      </trkpt>
      <trkpt lat="46.75489" lon="-2.02176">
        <ele>2</ele>
        <time>2018-01-13T10:55:07Z</time>
      </trkpt>
      <trkpt lat="46.75493" lon="-2.0219">
        <ele>2</ele>
        <time>2018-01-13T10:56:07Z</time>
      </trkpt>
      <trkpt lat="46.75494" lon="-2.02195">
        <ele>2</ele>
        <time>2018-01-13T10:57:07Z</time>
      </trkpt>
      <trkpt lat="46.75498" lon="-2.02207">
        <ele>2</ele>
        <time>2018-01-13T10:58:07Z</time>
      </trkpt>
      <trkpt lat="46.75501" lon="-2.02214">
        <ele>1</ele>
        <time>2018-01-13T10:59:07Z</time>
      </trkpt>
      <trkpt lat="46.75503" lon="-2.02221">
        <ele>1</ele>
        <time>2018-01-13T11:00:07Z</time>
      </trkpt>
      <trkpt lat="46.75506" lon="-2.02226">
        <ele>1</ele>
        <time>2018-01-13T11:01:07Z</time>
      </trkpt>
      <trkpt lat="46.75509" lon="-2.02232">
        <ele>1</ele>
        <time>2018-01-13T11:02:07Z</time>
      </trkpt>
      <trkpt lat="46.75514" lon="-2.02239">
        <ele>1</ele>
        <time>2018-01-13T11:03:07Z</time>
      </trkpt>
      <trkpt lat="46.75519" lon="-2.02246">
        <ele>1</ele>
        <time>2018-01-13T11:04:07Z</time>
      </trkpt>
      <trkpt lat="46.75524" lon="-2.02253">
        <ele>1</ele>
        <time>2018-01-13T11:05:07Z</time>
      </trkpt>
      <trkpt lat="46.75543" lon="-2.0227">
        <ele>1</ele>
        <time>2018-01-13T11:06:07Z</time>
      </trkpt>
      <trkpt lat="46.75568" lon="-2.02289">
        <ele>1</ele>
        <time>2018-01-13T11:07:07Z</time>
      </trkpt>
      <trkpt lat="46.75594" lon="-2.02308">
        <ele>1</ele>
        <time>2018-01-13T11:08:07Z</time>
      </trkpt>
      <trkpt lat="46.7562" lon="-2.0233">
        <ele>3</ele>
        <time>2018-01-13T11:09:07Z</time>
      </trkpt>
      <trkpt lat="46.75642" lon="-2.02347">
        <ele>4</ele>
        <time>2018-01-13T11:10:07Z</time>
      </trkpt>
      <trkpt lat="46.75663" lon="-2.02374">
        <ele>4</ele>
        <time>2018-01-13T11:11:07Z</time>
      </trkpt>
      <trkpt lat="46.75683" lon="-2.02399">
        <ele>4</ele>
        <time>2018-01-13T11:12:07Z</time>
      </trkpt>
      <trkpt lat="46.75697" lon="-2.0242">
        <ele>4</ele>
        <time>2018-01-13T11:13:07Z</time>
      </trkpt>
      <trkpt lat="46.75704" lon="-2.02428">
        <ele>4</ele>
        <time>2018-01-13T11:14:07Z</time>
      </trkpt>
      <trkpt lat="46.75706" lon="-2.02431">
        <ele>4</ele>
        <time>2018-01-13T11:15:07Z</time>
      </trkpt>
      <trkpt lat="46.75709" lon="-2.02434">
        <ele>4</ele>
        <time>2018-01-13T11:16:07Z</time>
      </trkpt>
      <trkpt lat="46.75712" lon="-2.02438">
        <ele>4</ele>
        <time>2018-01-13T11:17:07Z</time>
      </trkpt>
      <trkpt lat="46.75717" lon="-2.02444">
        <ele>4</ele>
        <time>2018-01-13T11:18:07Z</time>
      </trkpt>
      <trkpt lat="46.75722" lon="-2.02449">
        <ele>4</ele>
        <time>2018-01-13T11:19:07Z</time>
      </trkpt>
      <trkpt lat="46.75728" lon="-2.02453">
        <ele>4</ele>
        <time>2018-01-13T11:20:07Z</time>
      </trkpt>
      <trkpt lat="46.75733" lon="-2.02456">
        <ele>4</ele>
        <time>2018-01-13T11:21:07Z</time>
      </trkpt>
      <trkpt lat="46.75738" lon="-2.02459">
        <ele>5</ele>
        <time>2018-01-13T11:22:07Z</time>
      </trkpt>
      <trkpt lat="46.75741" lon="-2.0246">
        <ele>5</ele>
        <time>2018-01-13T11:23:07Z</time>
      </trkpt>
      <trkpt lat="46.7575" lon="-2.02463">
        <ele>5</ele>
        <time>2018-01-13T11:24:07Z</time>
      </trkpt>
      <trkpt lat="46.75775" lon="-2.02468">
        <ele>5</ele>
        <time>2018-01-13T11:25:07Z</time>
      </trkpt>
      <trkpt lat="46.7578" lon="-2.02469">
        <ele>5</ele>
        <time>2018-01-13T11:26:07Z</time>
      </trkpt>
      <trkpt lat="46.75784" lon="-2.0247">
        <ele>5</ele>
        <time>2018-01-13T11:27:07Z</time>
      </trkpt>
      <trkpt lat="46.75788" lon="-2.02472">
        <ele>5</ele>
        <time>2018-01-13T11:28:07Z</time>
      </trkpt>
      <trkpt lat="46.75795" lon="-2.02474">
        <ele>5</ele>
        <time>2018-01-13T11:29:07Z</time>
      </trkpt>
      <trkpt lat="46.75795" lon="-2.02473">
        <ele>5</ele>
        <time>2018-01-13T11:30:07Z</time>
      </trkpt>
      <trkpt lat="46.75796" lon="-2.02473">
        <ele>5</ele>
        <time>2018-01-13T11:31:07Z</time>
      </trkpt>
      <trkpt lat="46.75796" lon="-2.02472">
        <ele>5</ele>
        <time>2018-01-13T11:32:07Z</time>
      </trkpt>
      <trkpt lat="46.75796" lon="-2.02471">
        <ele>5</ele>
        <time>2018-01-13T11:33:07Z</time>
      </trkpt>
      <trkpt lat="46.75797" lon="-2.02471">
        <ele>5</ele>
        <time>2018-01-13T11:34:07Z</time>
      </trkpt>
      <trkpt lat="46.75797" lon="-2.0247">
        <ele>5</ele>
        <time>2018-01-13T11:35:07Z</time>
      </trkpt>
      <trkpt lat="46.75797" lon="-2.02469">
        <ele>5</ele>
        <time>2018-01-13T11:36:07Z</time>
      </trkpt>
      <trkpt lat="46.75798" lon="-2.02469">
        <ele>5</ele>
        <time>2018-01-13T11:37:07Z</time>
      </trkpt>
      <trkpt lat="46.75799" lon="-2.02469">
        <ele>5</ele>
        <time>2018-01-13T11:38:07Z</time>
      </trkpt>
      <trkpt lat="46.75799" lon="-2.02468">
        <ele>5</ele>
        <time>2018-01-13T11:39:07Z</time>
      </trkpt>
      <trkpt lat="46.758" lon="-2.02468">
        <ele>5</ele>
        <time>2018-01-13T11:40:07Z</time>
      </trkpt>
      <trkpt lat="46.75801" lon="-2.02468">
        <ele>5</ele>
        <time>2018-01-13T11:41:07Z</time>
      </trkpt>
      <trkpt lat="46.75802" lon="-2.02468">
        <ele>5</ele>
        <time>2018-01-13T11:42:07Z</time>
      </trkpt>
      <trkpt lat="46.75802" lon="-2.02469">
        <ele>5</ele>
        <time>2018-01-13T11:43:07Z</time>
      </trkpt>
      <trkpt lat="46.75803" lon="-2.02469">
        <ele>6</ele>
        <time>2018-01-13T11:44:07Z</time>
      </trkpt>
      <trkpt lat="46.75804" lon="-2.0247">
        <ele>6</ele>
        <time>2018-01-13T11:45:07Z</time>
      </trkpt>
      <trkpt lat="46.75804" lon="-2.02471">
        <ele>6</ele>
        <time>2018-01-13T11:46:07Z</time>
      </trkpt>
      <trkpt lat="46.75805" lon="-2.02471">
        <ele>6</ele>
        <time>2018-01-13T11:47:07Z</time>
      </trkpt>
      <trkpt lat="46.75805" lon="-2.02472">
        <ele>6</ele>
        <time>2018-01-13T11:48:07Z</time>
      </trkpt>
      <trkpt lat="46.75805" lon="-2.02473">
        <ele>6</ele>
        <time>2018-01-13T11:49:07Z</time>
      </trkpt>
      <trkpt lat="46.75805" lon="-2.02474">
        <ele>6</ele>
        <time>2018-01-13T11:50:07Z</time>
      </trkpt>
      <trkpt lat="46.75806" lon="-2.02474">
        <ele>6</ele>
        <time>2018-01-13T11:51:07Z</time>
      </trkpt>
      <trkpt lat="46.75806" lon="-2.02475">
        <ele>6</ele>
        <time>2018-01-13T11:52:07Z</time>
      </trkpt>
      <trkpt lat="46.75816" lon="-2.02473">
        <ele>6</ele>
        <time>2018-01-13T11:53:07Z</time>
      </trkpt>
      <trkpt lat="46.75821" lon="-2.02474">
        <ele>6</ele>
        <time>2018-01-13T11:54:07Z</time>
      </trkpt>
      <trkpt lat="46.75847" lon="-2.02478">
        <ele>6</ele>
        <time>2018-01-13T11:55:07Z</time>
      </trkpt>
      <trkpt lat="46.75865" lon="-2.02483">
        <ele>6</ele>
        <time>2018-01-13T11:56:07Z</time>
      </trkpt>
      <trkpt lat="46.75884" lon="-2.0249">
        <ele>6</ele>
        <time>2018-01-13T11:57:07Z</time>
      </trkpt>
      <trkpt lat="46.75887" lon="-2.0249">
        <ele>6</ele>
        <time>2018-01-13T11:58:07Z</time>
      </trkpt>
      <trkpt lat="46.75893" lon="-2.02493">
        <ele>6</ele>
        <time>2018-01-13T11:59:07Z</time>
      </trkpt>
      <trkpt lat="46.75907" lon="-2.02498">
        <ele>6</ele>
        <time>2018-01-13T12:00:07Z</time>
      </trkpt>
      <trkpt lat="46.75922" lon="-2.02504">
        <ele>6</ele>
        <time>2018-01-13T12:01:07Z</time>
      </trkpt>
      <trkpt lat="46.75924" lon="-2.02505">
        <ele>6</ele>
        <time>2018-01-13T12:02:07Z</time>
      </trkpt>
      <trkpt lat="46.75937" lon="-2.02514">
        <ele>6</ele>
        <time>2018-01-13T12:03:07Z</time>
      </trkpt>
      <trkpt lat="46.75953" lon="-2.02526">
        <ele>6</ele>
        <time>2018-01-13T12:04:07Z</time>
      </trkpt>
      <trkpt lat="46.75958" lon="-2.02529">
        <ele>6</ele>
        <time>2018-01-13T12:05:07Z</time>
      </trkpt>
      <trkpt lat="46.7597" lon="-2.02541">
        <ele>6</ele>
        <time>2018-01-13T12:06:07Z</time>
      </trkpt>
      <trkpt lat="46.75972" lon="-2.02545">
        <ele>6</ele>
        <time>2018-01-13T12:07:07Z</time>
      </trkpt>
      <trkpt lat="46.75973" lon="-2.02544">
        <ele>6</ele>
        <time>2018-01-13T12:08:07Z</time>
      </trkpt>
      <trkpt lat="46.75974" lon="-2.02543">
        <ele>6</ele>
        <time>2018-01-13T12:09:07Z</time>
      </trkpt>
      <trkpt lat="46.75975" lon="-2.02542">
        <ele>6</ele>
        <time>2018-01-13T12:10:07Z</time>
      </trkpt>
      <trkpt lat="46.75977" lon="-2.02542">
        <ele>6</ele>
        <time>2018-01-13T12:11:07Z</time>
      </trkpt>
      <trkpt lat="46.75978" lon="-2.02542">
        <ele>6</ele>
        <time>2018-01-13T12:12:07Z</time>
      </trkpt>
      <trkpt lat="46.75979" lon="-2.02542">
        <ele>6</ele>
        <time>2018-01-13T12:13:07Z</time>
      </trkpt>
      <trkpt lat="46.7598" lon="-2.02543">
        <ele>6</ele>
        <time>2018-01-13T12:14:07Z</time>
      </trkpt>
      <trkpt lat="46.75981" lon="-2.02545">
        <ele>6</ele>
        <time>2018-01-13T12:15:07Z</time>
      </trkpt>
      <trkpt lat="46.75982" lon="-2.02546">
        <ele>6</ele>
        <time>2018-01-13T12:16:07Z</time>
      </trkpt>
      <trkpt lat="46.75982" lon="-2.02547">
        <ele>6</ele>
        <time>2018-01-13T12:17:07Z</time>
      </trkpt>
      <trkpt lat="46.75983" lon="-2.02549">
        <ele>6</ele>
        <time>2018-01-13T12:18:07Z</time>
      </trkpt>
      <trkpt lat="46.75983" lon="-2.0255">
        <ele>6</ele>
        <time>2018-01-13T12:19:07Z</time>
      </trkpt>
      <trkpt lat="46.75983" lon="-2.02553">
        <ele>6</ele>
        <time>2018-01-13T12:20:07Z</time>
      </trkpt>
      <trkpt lat="46.75982" lon="-2.02555">
        <ele>6</ele>
        <time>2018-01-13T12:21:07Z</time>
      </trkpt>
      <trkpt lat="46.75982" lon="-2.02556">
        <ele>6</ele>
        <time>2018-01-13T12:22:07Z</time>
      </trkpt>
      <trkpt lat="46.75985" lon="-2.0256">
        <ele>6</ele>
        <time>2018-01-13T12:23:07Z</time>
      </trkpt>
      <trkpt lat="46.76004" lon="-2.02584">
        <ele>6</ele>
        <time>2018-01-13T12:24:07Z</time>
      </trkpt>
      <trkpt lat="46.76015" lon="-2.02602">
        <ele>6</ele>
        <time>2018-01-13T12:25:07Z</time>
      </trkpt>
      <trkpt lat="46.76035" lon="-2.02631">
        <ele>6</ele>
        <time>2018-01-13T12:26:07Z</time>
      </trkpt>
      <trkpt lat="46.76045" lon="-2.02644">
        <ele>7</ele>
        <time>2018-01-13T12:27:07Z</time>
      </trkpt>
      <trkpt lat="46.76049" lon="-2.02649">
        <ele>7</ele>
        <time>2018-01-13T12:28:07Z</time>
      </trkpt>
      <trkpt lat="46.76054" lon="-2.02655">
        <ele>7</ele>
        <time>2018-01-13T12:29:07Z</time>
      </trkpt>
      <trkpt lat="46.76064" lon="-2.02665">
        <ele>7</ele>
        <time>2018-01-13T12:30:07Z</time>
      </trkpt>
      <trkpt lat="46.76072" lon="-2.02672">
        <ele>7</ele>
        <time>2018-01-13T12:31:07Z</time>
      </trkpt>
      <trkpt lat="46.7608" lon="-2.02679">
        <ele>8</ele>
        <time>2018-01-13T12:32:07Z</time>
      </trkpt>
      <trkpt lat="46.76087" lon="-2.02684">
        <ele>8</ele>
        <time>2018-01-13T12:33:07Z</time>
      </trkpt>
      <trkpt lat="46.76094" lon="-2.0269">
        <ele>8</ele>
        <time>2018-01-13T12:34:07Z</time>
      </trkpt>
      <trkpt lat="46.76103" lon="-2.02696">
        <ele>8</ele>
        <time>2018-01-13T12:35:07Z</time>
      </trkpt>
      <trkpt lat="46.76115" lon="-2.02706">
        <ele>9</ele>
        <time>2018-01-13T12:36:07Z</time>
      </trkpt>
      <trkpt lat="46.76142" lon="-2.02727">
        <ele>10</ele>
        <time>2018-01-13T12:37:07Z</time>
      </trkpt>
      <trkpt lat="46.76152" lon="-2.02735">
        <ele>10</ele>
        <time>2018-01-13T12:38:07Z</time>
      </trkpt>
      <trkpt lat="46.76153" lon="-2.02736">
        <ele>10</ele>
        <time>2018-01-13T12:39:07Z</time>
      </trkpt>
      <trkpt lat="46.76193" lon="-2.02769">
        <ele>9</ele>
        <time>2018-01-13T12:40:07Z</time>
      </trkpt>
      <trkpt lat="46.7621" lon="-2.02785">
        <ele>8</ele>
        <time>2018-01-13T12:41:07Z</time>
      </trkpt>
      <trkpt lat="46.76226" lon="-2.02802">
        <ele>8</ele>
        <time>2018-01-13T12:42:07Z</time>
      </trkpt>
      <trkpt lat="46.76248" lon="-2.02831">
        <ele>7</ele>
        <time>2018-01-13T12:43:07Z</time>
      </trkpt>
      <trkpt lat="46.76249" lon="-2.02833">
        <ele>7</ele>
        <time>2018-01-13T12:44:07Z</time>
      </trkpt>
      <trkpt lat="46.76263" lon="-2.02847">
        <ele>8</ele>
        <time>2018-01-13T12:45:07Z</time>
      </trkpt>
      <trkpt lat="46.7627" lon="-2.02853">
        <ele>8</ele>
        <time>2018-01-13T12:46:07Z</time>
      </trkpt>
      <trkpt lat="46.7628" lon="-2.0286">
        <ele>8</ele>
        <time>2018-01-13T12:47:07Z</time>
      </trkpt>
      <trkpt lat="46.76289" lon="-2.02868">
        <ele>8</ele>
        <time>2018-01-13T12:48:07Z</time>
      </trkpt>
      <trkpt lat="46.76295" lon="-2.02871">
        <ele>8</ele>
        <time>2018-01-13T12:49:07Z</time>
      </trkpt>
      <trkpt lat="46.76302" lon="-2.02876">
        <ele>8</ele>
        <time>2018-01-13T12:50:07Z</time>
      </trkpt>
      <trkpt lat="46.76311" lon="-2.02881">
        <ele>8</ele>
        <time>2018-01-13T12:51:07Z</time>
      </trkpt>
      <trkpt lat="46.7632" lon="-2.02886">
        <ele>8</ele>
        <time>2018-01-13T12:52:07Z</time>
      </trkpt>
      <trkpt lat="46.76325" lon="-2.0289">
        <ele>8</ele>
        <time>2018-01-13T12:53:07Z</time>
      </trkpt>
      <trkpt lat="46.76333" lon="-2.02896">
        <ele>9</ele>
        <time>2018-01-13T12:54:07Z</time>
      </trkpt>
      <trkpt lat="46.76339" lon="-2.02903">
        <ele>9</ele>
        <time>2018-01-13T12:55:07Z</time>
      </trkpt>
      <trkpt lat="46.76345" lon="-2.02911">
        <ele>9</ele>
        <time>2018-01-13T12:56:07Z</time>
      </trkpt>
      <trkpt lat="46.7635" lon="-2.0292">
        <ele>9</ele>
        <time>2018-01-13T12:57:07Z</time>
      </trkpt>
      <trkpt lat="46.76354" lon="-2.02927">
        <ele>9</ele>
        <time>2018-01-13T12:58:07Z</time>
      </trkpt>
      <trkpt lat="46.76357" lon="-2.02936">
        <ele>9</ele>
        <time>2018-01-13T12:59:07Z</time>
      </trkpt>
      <trkpt lat="46.76363" lon="-2.0295">
        <ele>9</ele>
        <time>2018-01-13T13:00:07Z</time>
      </trkpt>
      <trkpt lat="46.76367" lon="-2.02964">
        <ele>9</ele>
        <time>2018-01-13T13:01:07Z</time>
      </trkpt>
      <trkpt lat="46.76369" lon="-2.02974">
        <ele>9</ele>
        <time>2018-01-13T13:02:07Z</time>
      </trkpt>
      <trkpt lat="46.76371" lon="-2.02981">
        <ele>9</ele>
        <time>2018-01-13T13:03:07Z</time>
      </trkpt>
      <trkpt lat="46.76372" lon="-2.02988">
        <ele>9</ele>
        <time>2018-01-13T13:04:07Z</time>
      </trkpt>
      <trkpt lat="46.76374" lon="-2.02995">
        <ele>9</ele>
        <time>2018-01-13T13:05:07Z</time>
      </trkpt>
      <trkpt lat="46.76374" lon="-2.02998">
        <ele>9</ele>
        <time>2018-01-13T13:06:07Z</time>
      </trkpt>
      <trkpt lat="46.76375" lon="-2.03002">
        <ele>8</ele>
        <time>2018-01-13T13:07:07Z</time>
      </trkpt>
      <trkpt lat="46.76375" lon="-2.03006">
        <ele>8</ele>
        <time>2018-01-13T13:08:07Z</time>
      </trkpt>
      <trkpt lat="46.76376" lon="-2.03017">
        <ele>8</ele>
        <time>2018-01-13T13:09:07Z</time>
      </trkpt>
      <trkpt lat="46.76377" lon="-2.03027">
        <ele>8</ele>
        <time>2018-01-13T13:10:07Z</time>
      </trkpt>
      <trkpt lat="46.76378" lon="-2.03049">
        <ele>8</ele>
        <time>2018-01-13T13:11:07Z</time>
      </trkpt>
      <trkpt lat="46.76378" lon="-2.03065">
        <ele>8</ele>
        <time>2018-01-13T13:12:07Z</time>
      </trkpt>
      <trkpt lat="46.76378" lon="-2.03082">
        <ele>8</ele>
        <time>2018-01-13T13:13:07Z</time>
      </trkpt>
      <trkpt lat="46.76379" lon="-2.0309">
        <ele>8</ele>
        <time>2018-01-13T13:14:07Z</time>
      </trkpt>
      <trkpt lat="46.76379" lon="-2.03097">
        <ele>8</ele>
        <time>2018-01-13T13:15:07Z</time>
      </trkpt>
      <trkpt lat="46.7638" lon="-2.03102">
        <ele>8</ele>
        <time>2018-01-13T13:16:07Z</time>
      </trkpt>
      <trkpt lat="46.76381" lon="-2.03108">
        <ele>8</ele>
        <time>2018-01-13T13:17:07Z</time>
      </trkpt>
      <trkpt lat="46.76382" lon="-2.03114">
        <ele>8</ele>
        <time>2018-01-13T13:18:07Z</time>
      </trkpt>
      <trkpt lat="46.76383" lon="-2.03123">
        <ele>8</ele>
        <time>2018-01-13T13:19:07Z</time>
      </trkpt>
      <trkpt lat="46.76385" lon="-2.03132">
        <ele>8</ele>
        <time>2018-01-13T13:20:07Z</time>
      </trkpt>
      <trkpt lat="46.76388" lon="-2.03139">
        <ele>8</ele>
        <time>2018-01-13T13:21:07Z</time>
      </trkpt>
      <trkpt lat="46.7639" lon="-2.03145">
        <ele>8</ele>
        <time>2018-01-13T13:22:07Z</time>
      </trkpt>
      <trkpt lat="46.76393" lon="-2.03152">
        <ele>8</ele>
        <time>2018-01-13T13:23:07Z</time>
      </trkpt>
      <trkpt lat="46.76417" lon="-2.03201">
        <ele>8</ele>
        <time>2018-01-13T13:24:07Z</time>
      </trkpt>
      <trkpt lat="46.76443" lon="-2.03252">
        <ele>8</ele>
        <time>2018-01-13T13:25:07Z</time>
      </trkpt>
      <trkpt lat="46.76444" lon="-2.03253">
        <ele>8</ele>
        <time>2018-01-13T13:26:07Z</time>
      </trkpt>
      <trkpt lat="46.76463" lon="-2.0329">
        <ele>7</ele>
        <time>2018-01-13T13:27:07Z</time>
      </trkpt>
      <trkpt lat="46.76476" lon="-2.03317">
        <ele>7</ele>
        <time>2018-01-13T13:28:07Z</time>
      </trkpt>
      <trkpt lat="46.76479" lon="-2.03323">
        <ele>6</ele>
        <time>2018-01-13T13:29:07Z</time>
      </trkpt>
      <trkpt lat="46.76481" lon="-2.03332">
        <ele>6</ele>
        <time>2018-01-13T13:30:07Z</time>
      </trkpt>
      <trkpt lat="46.76488" lon="-2.03352">
        <ele>7</ele>
        <time>2018-01-13T13:31:07Z</time>
      </trkpt>
      <trkpt lat="46.76491" lon="-2.03363">
        <ele>7</ele>
        <time>2018-01-13T13:32:07Z</time>
      </trkpt>
      <trkpt lat="46.765" lon="-2.03393">
        <ele>7</ele>
        <time>2018-01-13T13:33:07Z</time>
      </trkpt>
      <trkpt lat="46.76501" lon="-2.03396">
        <ele>8</ele>
        <time>2018-01-13T13:34:07Z</time>
      </trkpt>
      <trkpt lat="46.76504" lon="-2.03405">
        <ele>8</ele>
        <time>2018-01-13T13:35:07Z</time>
      </trkpt>
      <trkpt lat="46.76511" lon="-2.03423">
        <ele>8</ele>
        <time>2018-01-13T13:36:07Z</time>
      </trkpt>
      <trkpt lat="46.76518" lon="-2.0344">
        <ele>8</ele>
        <time>2018-01-13T13:37:07Z</time>
      </trkpt>
      <trkpt lat="46.76528" lon="-2.0346">
        <ele>9</ele>
        <time>2018-01-13T13:38:07Z</time>
      </trkpt>
      <trkpt lat="46.76542" lon="-2.03482">
        <ele>9</ele>
        <time>2018-01-13T13:39:07Z</time>
      </trkpt>
      <trkpt lat="46.76555" lon="-2.03501">
        <ele>9</ele>
        <time>2018-01-13T13:40:07Z</time>
      </trkpt>
      <trkpt lat="46.76566" lon="-2.03511">
        <ele>9</ele>
        <time>2018-01-13T13:41:07Z</time>
      </trkpt>
      <trkpt lat="46.76581" lon="-2.03518">
        <ele>9</ele>
        <time>2018-01-13T13:42:07Z</time>
      </trkpt>
      <trkpt lat="46.76597" lon="-2.03529">
        <ele>10</ele>
        <time>2018-01-13T13:43:07Z</time>
      </trkpt>
      <trkpt lat="46.76611" lon="-2.0354">
        <ele>10</ele>
        <time>2018-01-13T13:44:07Z</time>
      </trkpt>
      <trkpt lat="46.76614" lon="-2.03542">
        <ele>10</ele>
        <time>2018-01-13T13:45:07Z</time>
      </trkpt>
      <trkpt lat="46.76653" lon="-2.03574">
        <ele>10</ele>
        <time>2018-01-13T13:46:07Z</time>
      </trkpt>
      <trkpt lat="46.76656" lon="-2.03576">
        <ele>10</ele>
        <time>2018-01-13T13:47:07Z</time>
      </trkpt>
      <trkpt lat="46.76659" lon="-2.03577">
        <ele>10</ele>
        <time>2018-01-13T13:48:07Z</time>
      </trkpt>
      <trkpt lat="46.76668" lon="-2.03581">
        <ele>10</ele>
        <time>2018-01-13T13:49:07Z</time>
      </trkpt>
      <trkpt lat="46.7667" lon="-2.03582">
        <ele>10</ele>
        <time>2018-01-13T13:50:07Z</time>
      </trkpt>
      <trkpt lat="46.76673" lon="-2.03583">
        <ele>10</ele>
        <time>2018-01-13T13:51:07Z</time>
      </trkpt>
      <trkpt lat="46.76676" lon="-2.03583">
        <ele>10</ele>
        <time>2018-01-13T13:52:07Z</time>
      </trkpt>
      <trkpt lat="46.76679" lon="-2.03583">
        <ele>10</ele>
        <time>2018-01-13T13:53:07Z</time>
      </trkpt>
      <trkpt lat="46.76686" lon="-2.0358">
        <ele>10</ele>
        <time>2018-01-13T13:54:07Z</time>
      </trkpt>
      <trkpt lat="46.76691" lon="-2.03577">
        <ele>10</ele>
        <time>2018-01-13T13:55:07Z</time>
      </trkpt>
      <trkpt lat="46.76696" lon="-2.03575">
        <ele>9</ele>
        <time>2018-01-13T13:56:07Z</time>
      </trkpt>
      <trkpt lat="46.767" lon="-2.03571">
        <ele>9</ele>
        <time>2018-01-13T13:57:07Z</time>
      </trkpt>
      <trkpt lat="46.76706" lon="-2.03566">
        <ele>9</ele>
        <time>2018-01-13T13:58:07Z</time>
      </trkpt>
      <trkpt lat="46.76715" lon="-2.03551">
        <ele>8</ele>
        <time>2018-01-13T13:59:07Z</time>
      </trkpt>
      <trkpt lat="46.76759" lon="-2.03481">
        <ele>6</ele>
        <time>2018-01-13T14:00:07Z</time>
      </trkpt>
      <trkpt lat="46.76772" lon="-2.03464">
        <ele>6</ele>
        <time>2018-01-13T14:01:07Z</time>
      </trkpt>
      <trkpt lat="46.76776" lon="-2.03456">
        <ele>6</ele>
        <time>2018-01-13T14:02:07Z</time>
      </trkpt>
      <trkpt lat="46.76802" lon="-2.03426">
        <ele>6</ele>
        <time>2018-01-13T14:03:07Z</time>
      </trkpt>
      <trkpt lat="46.76805" lon="-2.03423">
        <ele>6</ele>
        <time>2018-01-13T14:04:07Z</time>
      </trkpt>
      <trkpt lat="46.76819" lon="-2.03411">
        <ele>6</ele>
        <time>2018-01-13T14:05:07Z</time>
      </trkpt>
      <trkpt lat="46.76839" lon="-2.03397">
        <ele>5</ele>
        <time>2018-01-13T14:06:07Z</time>
      </trkpt>
      <trkpt lat="46.76855" lon="-2.03387">
        <ele>5</ele>
        <time>2018-01-13T14:07:07Z</time>
      </trkpt>
      <trkpt lat="46.76863" lon="-2.03381">
        <ele>4</ele>
        <time>2018-01-13T14:08:07Z</time>
      </trkpt>
      <trkpt lat="46.76867" lon="-2.03377">
        <ele>4</ele>
        <time>2018-01-13T14:09:07Z</time>
      </trkpt>
      <trkpt lat="46.76887" lon="-2.03345">
        <ele>3</ele>
        <time>2018-01-13T14:10:07Z</time>
      </trkpt>
      <trkpt lat="46.76911" lon="-2.03308">
        <ele>3</ele>
        <time>2018-01-13T14:11:07Z</time>
      </trkpt>
      <trkpt lat="46.76921" lon="-2.03291">
        <ele>3</ele>
        <time>2018-01-13T14:12:07Z</time>
      </trkpt>
      <trkpt lat="46.76943" lon="-2.03252">
        <ele>3</ele>
        <time>2018-01-13T14:13:07Z</time>
      </trkpt>
      <trkpt lat="46.76954" lon="-2.03233">
        <ele>3</ele>
        <time>2018-01-13T14:14:07Z</time>
      </trkpt>
      <trkpt lat="46.76973" lon="-2.032">
        <ele>4</ele>
        <time>2018-01-13T14:15:07Z</time>
      </trkpt>
      <trkpt lat="46.76985" lon="-2.03184">
        <ele>4</ele>
        <time>2018-01-13T14:16:07Z</time>
      </trkpt>
      <trkpt lat="46.7699" lon="-2.0318">
        <ele>4</ele>
        <time>2018-01-13T14:17:07Z</time>
      </trkpt>
      <trkpt lat="46.76995" lon="-2.03177">
        <ele>5</ele>
        <time>2018-01-13T14:18:07Z</time>
      </trkpt>
      <trkpt lat="46.76999" lon="-2.03176">
        <ele>5</ele>
        <time>2018-01-13T14:19:07Z</time>
      </trkpt>
      <trkpt lat="46.77013" lon="-2.03175">
        <ele>5</ele>
        <time>2018-01-13T14:20:07Z</time>
      </trkpt>
      <trkpt lat="46.7702" lon="-2.03177">
        <ele>5</ele>
        <time>2018-01-13T14:21:07Z</time>
      </trkpt>
      <trkpt lat="46.77029" lon="-2.03182">
        <ele>5</ele>
        <time>2018-01-13T14:22:07Z</time>
      </trkpt>
      <trkpt lat="46.77042" lon="-2.032">
        <ele>4</ele>
        <time>2018-01-13T14:23:07Z</time>
      </trkpt>
      <trkpt lat="46.7707" lon="-2.03254">
        <ele>3</ele>
        <time>2018-01-13T14:24:07Z</time>
      </trkpt>
      <trkpt lat="46.77093" lon="-2.03298">
        <ele>2</ele>
        <time>2018-01-13T14:25:07Z</time>
      </trkpt>
      <trkpt lat="46.77099" lon="-2.03309">
        <ele>2</ele>
        <time>2018-01-13T14:26:07Z</time>
      </trkpt>
      <trkpt lat="46.77124" lon="-2.03358">
        <ele>2</ele>
        <time>2018-01-13T14:27:07Z</time>
      </trkpt>
      <trkpt lat="46.77142" lon="-2.03393">
        <ele>3</ele>
        <time>2018-01-13T14:28:07Z</time>
      </trkpt>
      <trkpt lat="46.77171" lon="-2.03444">
        <ele>4</ele>
        <time>2018-01-13T14:29:07Z</time>
      </trkpt>
      <trkpt lat="46.77181" lon="-2.03463">
        <ele>4</ele>
        <time>2018-01-13T14:30:07Z</time>
      </trkpt>
      <trkpt lat="46.77199" lon="-2.03494">
        <ele>5</ele>
        <time>2018-01-13T14:31:07Z</time>
      </trkpt>
      <trkpt lat="46.77233" lon="-2.03551">
        <ele>6</ele>
        <time>2018-01-13T14:32:07Z</time>
      </trkpt>
      <trkpt lat="46.77257" lon="-2.03591">
        <ele>6</ele>
        <time>2018-01-13T14:33:07Z</time>
      </trkpt>
      <trkpt lat="46.77277" lon="-2.03616">
        <ele>6</ele>
        <time>2018-01-13T14:34:07Z</time>
      </trkpt>
      <trkpt lat="46.77304" lon="-2.03647">
        <ele>6</ele>
        <time>2018-01-13T14:35:07Z</time>
      </trkpt>
      <trkpt lat="46.77313" lon="-2.03656">
        <ele>6</ele>
        <time>2018-01-13T14:36:07Z</time>
      </trkpt>
      <trkpt lat="46.77317" lon="-2.03661">
        <ele>6</ele>
        <time>2018-01-13T14:37:07Z</time>
      </trkpt>
      <trkpt lat="46.77328" lon="-2.03673">
        <ele>5</ele>
        <time>2018-01-13T14:38:07Z</time>
      </trkpt>
      <trkpt lat="46.77339" lon="-2.03684">
        <ele>5</ele>
        <time>2018-01-13T14:39:07Z</time>
      </trkpt>
      <trkpt lat="46.77351" lon="-2.03693">
        <ele>5</ele>
        <time>2018-01-13T14:40:07Z</time>
      </trkpt>
      <trkpt lat="46.77364" lon="-2.03701">
        <ele>5</ele>
        <time>2018-01-13T14:41:07Z</time>
      </trkpt>
      <trkpt lat="46.77371" lon="-2.03705">
        <ele>5</ele>
        <time>2018-01-13T14:42:07Z</time>
      </trkpt>
      <trkpt lat="46.77374" lon="-2.03707">
        <ele>5</ele>
        <time>2018-01-13T14:43:07Z</time>
      </trkpt>
      <trkpt lat="46.77379" lon="-2.03709">
        <ele>5</ele>
        <time>2018-01-13T14:44:07Z</time>
      </trkpt>
      <trkpt lat="46.77388" lon="-2.03713">
        <ele>5</ele>
        <time>2018-01-13T14:45:07Z</time>
      </trkpt>
      <trkpt lat="46.77401" lon="-2.03718">
        <ele>4</ele>
        <time>2018-01-13T14:46:07Z</time>
      </trkpt>
      <trkpt lat="46.77423" lon="-2.03726">
        <ele>4</ele>
        <time>2018-01-13T14:47:07Z</time>
      </trkpt>
      <trkpt lat="46.77463" lon="-2.03739">
        <ele>4</ele>
        <time>2018-01-13T14:48:07Z</time>
      </trkpt>
      <trkpt lat="46.77494" lon="-2.03749">
        <ele>4</ele>
        <time>2018-01-13T14:49:07Z</time>
      </trkpt>
      <trkpt lat="46.77527" lon="-2.03761">
        <ele>5</ele>
        <time>2018-01-13T14:50:07Z</time>
      </trkpt>
      <trkpt lat="46.77564" lon="-2.03775">
        <ele>5</ele>
        <time>2018-01-13T14:51:07Z</time>
      </trkpt>
      <trkpt lat="46.77578" lon="-2.0378">
        <ele>5</ele>
        <time>2018-01-13T14:52:07Z</time>
      </trkpt>
      <trkpt lat="46.77597" lon="-2.03784">
        <ele>4</ele>
        <time>2018-01-13T14:53:07Z</time>
      </trkpt>
      <trkpt lat="46.77599" lon="-2.03784">
        <ele>4</ele>
        <time>2018-01-13T14:54:07Z</time>
      </trkpt>
      <trkpt lat="46.77621" lon="-2.03792">
        <ele>4</ele>
        <time>2018-01-13T14:55:07Z</time>
      </trkpt>
      <trkpt lat="46.77628" lon="-2.03794">
        <ele>4</ele>
        <time>2018-01-13T14:56:07Z</time>
      </trkpt>
      <trkpt lat="46.7764" lon="-2.03799">
        <ele>3</ele>
        <time>2018-01-13T14:57:07Z</time>
      </trkpt>
      <trkpt lat="46.7765" lon="-2.03803">
        <ele>3</ele>
        <time>2018-01-13T14:58:07Z</time>
      </trkpt>
      <trkpt lat="46.7766" lon="-2.03807">
        <ele>3</ele>
        <time>2018-01-13T14:59:07Z</time>
      </trkpt>
      <trkpt lat="46.77669" lon="-2.03812">
        <ele>3</ele>
        <time>2018-01-13T15:00:07Z</time>
      </trkpt>
      <trkpt lat="46.77679" lon="-2.03817">
        <ele>2</ele>
        <time>2018-01-13T15:01:07Z</time>
      </trkpt>
      <trkpt lat="46.77695" lon="-2.03824">
        <ele>2</ele>
        <time>2018-01-13T15:02:07Z</time>
      </trkpt>
      <trkpt lat="46.77718" lon="-2.03837">
        <ele>3</ele>
        <time>2018-01-13T15:03:07Z</time>
      </trkpt>
      <trkpt lat="46.77742" lon="-2.0385">
        <ele>3</ele>
        <time>2018-01-13T15:04:07Z</time>
      </trkpt>
      <trkpt lat="46.77742" lon="-2.0385">
        <ele>3</ele>
        <time>2018-01-13T15:05:07Z</time>
      </trkpt>
      <trkpt lat="46.77762" lon="-2.0386">
        <ele>3</ele>
        <time>2018-01-13T15:06:07Z</time>
      </trkpt>
      <trkpt lat="46.77772" lon="-2.03866">
        <ele>3</ele>
        <time>2018-01-13T15:07:07Z</time>
      </trkpt>
      <trkpt lat="46.77797" lon="-2.03878">
        <ele>3</ele>
        <time>2018-01-13T15:08:07Z</time>
      </trkpt>
      <trkpt lat="46.77813" lon="-2.03886">
        <ele>3</ele>
        <time>2018-01-13T15:09:07Z</time>
      </trkpt>
      <trkpt lat="46.77816" lon="-2.03887">
        <ele>3</ele>
        <time>2018-01-13T15:10:07Z</time>
      </trkpt>
      <trkpt lat="46.77818" lon="-2.03888">
        <ele>3</ele>
        <time>2018-01-13T15:11:07Z</time>
      </trkpt>
      <trkpt lat="46.77824" lon="-2.03892">
        <ele>3</ele>
        <time>2018-01-13T15:12:07Z</time>
      </trkpt>
      <trkpt lat="46.77834" lon="-2.03897">
        <ele>3</ele>
        <time>2018-01-13T15:13:07Z</time>
      </trkpt>
      <trkpt lat="46.77849" lon="-2.03907">
        <ele>3</ele>
        <time>2018-01-13T15:14:07Z</time>
      </trkpt>
      <trkpt lat="46.77871" lon="-2.03921">
        <ele>3</ele>
        <time>2018-01-13T15:15:07Z</time>
      </trkpt>
      <trkpt lat="46.77879" lon="-2.03926">
        <ele>2</ele>
        <time>2018-01-13T15:16:07Z</time>
      </trkpt>
      <trkpt lat="46.77895" lon="-2.03934">
        <ele>2</ele>
        <time>2018-01-13T15:17:07Z</time>
      </trkpt>
      <trkpt lat="46.779" lon="-2.03936">
        <ele>2</ele>
        <time>2018-01-13T15:18:07Z</time>
      </trkpt>
      <trkpt lat="46.77904" lon="-2.03937">
        <ele>2</ele>
        <time>2018-01-13T15:19:07Z</time>
      </trkpt>
      <trkpt lat="46.7791" lon="-2.03938">
        <ele>2</ele>
        <time>2018-01-13T15:20:07Z</time>
      </trkpt>
      <trkpt lat="46.77916" lon="-2.03938">
        <ele>2</ele>
        <time>2018-01-13T15:21:07Z</time>
      </trkpt>
      <trkpt lat="46.77923" lon="-2.03937">
        <ele>2</ele>
        <time>2018-01-13T15:22:07Z</time>
      </trkpt>
      <trkpt lat="46.77936" lon="-2.03935">
        <ele>2</ele>
        <time>2018-01-13T15:23:07Z</time>
      </trkpt>
      <trkpt lat="46.77949" lon="-2.03933">
        <ele>2</ele>
        <time>2018-01-13T15:24:07Z</time>
      </trkpt>
      <trkpt lat="46.77992" lon="-2.03922">
        <ele>3</ele>
        <time>2018-01-13T15:25:07Z</time>
      </trkpt>
      <trkpt lat="46.77992" lon="-2.03921">
        <ele>3</ele>
        <time>2018-01-13T15:26:07Z</time>
      </trkpt>
      <trkpt lat="46.77992" lon="-2.0392">
        <ele>3</ele>
        <time>2018-01-13T15:27:07Z</time>
      </trkpt>
      <trkpt lat="46.77992" lon="-2.03919">
        <ele>3</ele>
        <time>2018-01-13T15:28:07Z</time>
      </trkpt>
      <trkpt lat="46.77993" lon="-2.03919">
        <ele>3</ele>
        <time>2018-01-13T15:29:07Z</time>
      </trkpt>
      <trkpt lat="46.77993" lon="-2.03918">
        <ele>3</ele>
        <time>2018-01-13T15:30:07Z</time>
      </trkpt>
      <trkpt lat="46.77994" lon="-2.03918">
        <ele>3</ele>
        <time>2018-01-13T15:31:07Z</time>
      </trkpt>
      <trkpt lat="46.77994" lon="-2.03917">
        <ele>3</ele>
        <time>2018-01-13T15:32:07Z</time>
      </trkpt>
      <trkpt lat="46.77995" lon="-2.03917">
        <ele>3</ele>
        <time>2018-01-13T15:33:07Z</time>
      </trkpt>
      <trkpt lat="46.77995" lon="-2.03916">
        <ele>3</ele>
        <time>2018-01-13T15:34:07Z</time>
      </trkpt>
      <trkpt lat="46.77996" lon="-2.03916">
        <ele>3</ele>
        <time>2018-01-13T15:35:07Z</time>
      </trkpt>
      <trkpt lat="46.77997" lon="-2.03916">
        <ele>3</ele>
        <time>2018-01-13T15:36:07Z</time>
      </trkpt>
      <trkpt lat="46.77997" lon="-2.03915">
        <ele>3</ele>
        <time>2018-01-13T15:37:07Z</time>
      </trkpt>
      <trkpt lat="46.77998" lon="-2.03915">
        <ele>3</ele>
        <time>2018-01-13T15:38:07Z</time>
      </trkpt>
      <trkpt lat="46.77998" lon="-2.03916">
        <ele>3</ele>
        <time>2018-01-13T15:39:07Z</time>
      </trkpt>
      <trkpt lat="46.77999" lon="-2.03916">
        <ele>3</ele>
        <time>2018-01-13T15:40:07Z</time>
      </trkpt>
      <trkpt lat="46.78" lon="-2.03916">
        <ele>3</ele>
        <time>2018-01-13T15:41:07Z</time>
      </trkpt>
      <trkpt lat="46.78" lon="-2.03917">
        <ele>3</ele>
        <time>2018-01-13T15:42:07Z</time>
      </trkpt>
      <trkpt lat="46.78001" lon="-2.03917">
        <ele>3</ele>
        <time>2018-01-13T15:43:07Z</time>
      </trkpt>
      <trkpt lat="46.78002" lon="-2.03918">
        <ele>3</ele>
        <time>2018-01-13T15:44:07Z</time>
      </trkpt>
      <trkpt lat="46.78002" lon="-2.03919">
        <ele>3</ele>
        <time>2018-01-13T15:45:07Z</time>
      </trkpt>
      <trkpt lat="46.78003" lon="-2.03919">
        <ele>3</ele>
        <time>2018-01-13T15:46:07Z</time>
      </trkpt>
      <trkpt lat="46.78003" lon="-2.0392">
        <ele>3</ele>
        <time>2018-01-13T15:47:07Z</time>
      </trkpt>
      <trkpt lat="46.7801" lon="-2.03915">
        <ele>3</ele>
        <time>2018-01-13T15:48:07Z</time>
      </trkpt>
      <trkpt lat="46.78017" lon="-2.03909">
        <ele>3</ele>
        <time>2018-01-13T15:49:07Z</time>
      </trkpt>
      <trkpt lat="46.78026" lon="-2.03903">
        <ele>4</ele>
        <time>2018-01-13T15:50:07Z</time>
      </trkpt>
      <trkpt lat="46.78054" lon="-2.03889">
        <ele>4</ele>
        <time>2018-01-13T15:51:07Z</time>
      </trkpt>
      <trkpt lat="46.78071" lon="-2.0388">
        <ele>4</ele>
        <time>2018-01-13T15:52:07Z</time>
      </trkpt>
      <trkpt lat="46.78096" lon="-2.03865">
        <ele>5</ele>
        <time>2018-01-13T15:53:07Z</time>
      </trkpt>
      <trkpt lat="46.78107" lon="-2.03854">
        <ele>5</ele>
        <time>2018-01-13T15:54:07Z</time>
      </trkpt>
      <trkpt lat="46.78107" lon="-2.03853">
        <ele>5</ele>
        <time>2018-01-13T15:55:07Z</time>
      </trkpt>
      <trkpt lat="46.78106" lon="-2.03853">
        <ele>5</ele>
        <time>2018-01-13T15:56:07Z</time>
      </trkpt>
      <trkpt lat="46.78106" lon="-2.03852">
        <ele>5</ele>
        <time>2018-01-13T15:57:07Z</time>
      </trkpt>
      <trkpt lat="46.78105" lon="-2.03852">
        <ele>5</ele>
        <time>2018-01-13T15:58:07Z</time>
      </trkpt>
      <trkpt lat="46.78105" lon="-2.03851">
        <ele>5</ele>
        <time>2018-01-13T15:59:07Z</time>
      </trkpt>
      <trkpt lat="46.78105" lon="-2.0385">
        <ele>5</ele>
        <time>2018-01-13T16:00:07Z</time>
      </trkpt>
      <trkpt lat="46.78105" lon="-2.03849">
        <ele>5</ele>
        <time>2018-01-13T16:01:07Z</time>
      </trkpt>
      <trkpt lat="46.78105" lon="-2.03848">
        <ele>5</ele>
        <time>2018-01-13T16:02:07Z</time>
      </trkpt>
      <trkpt lat="46.78104" lon="-2.03848">
        <ele>5</ele>
        <time>2018-01-13T16:03:07Z</time>
      </trkpt>
      <trkpt lat="46.78104" lon="-2.03847">
        <ele>5</ele>
        <time>2018-01-13T16:04:07Z</time>
      </trkpt>
      <trkpt lat="46.78104" lon="-2.03846">
        <ele>5</ele>
        <time>2018-01-13T16:05:07Z</time>
      </trkpt>
      <trkpt lat="46.78104" lon="-2.03845">
        <ele>5</ele>
        <time>2018-01-13T16:06:07Z</time>
      </trkpt>
      <trkpt lat="46.78105" lon="-2.03845">
        <ele>5</ele>
        <time>2018-01-13T16:07:07Z</time>
      </trkpt>
      <trkpt lat="46.78105" lon="-2.03844">
        <ele>5</ele>
        <time>2018-01-13T16:08:07Z</time>
      </trkpt>
      <trkpt lat="46.78105" lon="-2.03843">
        <ele>5</ele>
        <time>2018-01-13T16:09:07Z</time>
      </trkpt>
      <trkpt lat="46.78105" lon="-2.03842">
        <ele>5</ele>
        <time>2018-01-13T16:10:07Z</time>
      </trkpt>
      <trkpt lat="46.78106" lon="-2.03841">
        <ele>6</ele>
        <time>2018-01-13T16:11:07Z</time>
      </trkpt>
      <trkpt lat="46.78106" lon="-2.0384">
        <ele>6</ele>
        <time>2018-01-13T16:12:07Z</time>
      </trkpt>
      <trkpt lat="46.78107" lon="-2.0384">
        <ele>6</ele>
        <time>2018-01-13T16:13:07Z</time>
      </trkpt>
      <trkpt lat="46.78107" lon="-2.03839">
        <ele>6</ele>
        <time>2018-01-13T16:14:07Z</time>
      </trkpt>
      <trkpt lat="46.78108" lon="-2.03839">
        <ele>6</ele>
        <time>2018-01-13T16:15:07Z</time>
      </trkpt>
      <trkpt lat="46.78108" lon="-2.03838">
        <ele>6</ele>
        <time>2018-01-13T16:16:07Z</time>
      </trkpt>
      <trkpt lat="46.78109" lon="-2.03838">
        <ele>6</ele>
        <time>2018-01-13T16:17:07Z</time>
      </trkpt>
      <trkpt lat="46.7811" lon="-2.03838">
        <ele>6</ele>
        <time>2018-01-13T16:18:07Z</time>
      </trkpt>
      <trkpt lat="46.78111" lon="-2.03838">
        <ele>6</ele>
        <time>2018-01-13T16:19:07Z</time>
      </trkpt>
      <trkpt lat="46.78112" lon="-2.03838">
        <ele>6</ele>
        <time>2018-01-13T16:20:07Z</time>
      </trkpt>
      <trkpt lat="46.78113" lon="-2.03838">
        <ele>6</ele>
        <time>2018-01-13T16:21:07Z</time>
      </trkpt>
      <trkpt lat="46.78113" lon="-2.03839">
        <ele>6</ele>
        <time>2018-01-13T16:22:07Z</time>
      </trkpt>
      <trkpt lat="46.78114" lon="-2.03839">
        <ele>6</ele>
        <time>2018-01-13T16:23:07Z</time>
      </trkpt>
      <trkpt lat="46.78114" lon="-2.0384">
        <ele>6</ele>
        <time>2018-01-13T16:24:07Z</time>
      </trkpt>
      <trkpt lat="46.78115" lon="-2.0384">
        <ele>6</ele>
        <time>2018-01-13T16:25:07Z</time>
      </trkpt>
      <trkpt lat="46.78115" lon="-2.03841">
        <ele>6</ele>
        <time>2018-01-13T16:26:07Z</time>
      </trkpt>
      <trkpt lat="46.78116" lon="-2.03842">
        <ele>6</ele>
        <time>2018-01-13T16:27:07Z</time>
      </trkpt>
      <trkpt lat="46.78116" lon="-2.03843">
        <ele>6</ele>
        <time>2018-01-13T16:28:07Z</time>
      </trkpt>
      <trkpt lat="46.78116" lon="-2.03844">
        <ele>6</ele>
        <time>2018-01-13T16:29:07Z</time>
      </trkpt>
      <trkpt lat="46.78116" lon="-2.03845">
        <ele>6</ele>
        <time>2018-01-13T16:30:07Z</time>
      </trkpt>
      <trkpt lat="46.78117" lon="-2.03845">
        <ele>6</ele>
        <time>2018-01-13T16:31:07Z</time>
      </trkpt>
      <trkpt lat="46.78117" lon="-2.03846">
        <ele>6</ele>
        <time>2018-01-13T16:32:07Z</time>
      </trkpt>
      <trkpt lat="46.78117" lon="-2.03847">
        <ele>6</ele>
        <time>2018-01-13T16:33:07Z</time>
      </trkpt>
      <trkpt lat="46.78117" lon="-2.03848">
        <ele>6</ele>
        <time>2018-01-13T16:34:07Z</time>
      </trkpt>
      <trkpt lat="46.78116" lon="-2.03848">
        <ele>6</ele>
        <time>2018-01-13T16:35:07Z</time>
      </trkpt>
      <trkpt lat="46.78116" lon="-2.03849">
        <ele>6</ele>
        <time>2018-01-13T16:36:07Z</time>
      </trkpt>
      <trkpt lat="46.78116" lon="-2.0385">
        <ele>6</ele>
        <time>2018-01-13T16:37:07Z</time>
      </trkpt>
      <trkpt lat="46.78142" lon="-2.03838">
        <ele>6</ele>
        <time>2018-01-13T16:38:07Z</time>
      </trkpt>
      <trkpt lat="46.78154" lon="-2.03832">
        <ele>7</ele>
        <time>2018-01-13T16:39:07Z</time>
      </trkpt>
      <trkpt lat="46.78198" lon="-2.038">
        <ele>9</ele>
        <time>2018-01-13T16:40:07Z</time>
      </trkpt>
      <trkpt lat="46.78202" lon="-2.03796">
        <ele>9</ele>
        <time>2018-01-13T16:41:07Z</time>
      </trkpt>
      <trkpt lat="46.7821" lon="-2.03791">
        <ele>9</ele>
        <time>2018-01-13T16:42:07Z</time>
      </trkpt>
      <trkpt lat="46.78224" lon="-2.03783">
        <ele>9</ele>
        <time>2018-01-13T16:43:07Z</time>
      </trkpt>
      <trkpt lat="46.78225" lon="-2.03782">
        <ele>9</ele>
        <time>2018-01-13T16:44:07Z</time>
      </trkpt>
      <trkpt lat="46.78225" lon="-2.03781">
        <ele>9</ele>
        <time>2018-01-13T16:45:07Z</time>
      </trkpt>
      <trkpt lat="46.78226" lon="-2.03781">
        <ele>9</ele>
        <time>2018-01-13T16:46:07Z</time>
      </trkpt>
      <trkpt lat="46.78227" lon="-2.03781">
        <ele>10</ele>
        <time>2018-01-13T16:47:07Z</time>
      </trkpt>
      <trkpt lat="46.78227" lon="-2.0378">
        <ele>10</ele>
        <time>2018-01-13T16:48:07Z</time>
      </trkpt>
      <trkpt lat="46.78228" lon="-2.0378">
        <ele>10</ele>
        <time>2018-01-13T16:49:07Z</time>
      </trkpt>
      <trkpt lat="46.78229" lon="-2.0378">
        <ele>10</ele>
        <time>2018-01-13T16:50:07Z</time>
      </trkpt>
      <trkpt lat="46.7823" lon="-2.03781">
        <ele>10</ele>
        <time>2018-01-13T16:51:07Z</time>
      </trkpt>
      <trkpt lat="46.78252" lon="-2.03756">
        <ele>10</ele>
        <time>2018-01-13T16:52:07Z</time>
      </trkpt>
      <trkpt lat="46.78257" lon="-2.03751">
        <ele>10</ele>
        <time>2018-01-13T16:53:07Z</time>
      </trkpt>
      <trkpt lat="46.78262" lon="-2.03749">
        <ele>10</ele>
        <time>2018-01-13T16:54:07Z</time>
      </trkpt>
      <trkpt lat="46.78294" lon="-2.03718">
        <ele>10</ele>
        <time>2018-01-13T16:55:07Z</time>
      </trkpt>
      <trkpt lat="46.78383" lon="-2.03637">
        <ele>8</ele>
        <time>2018-01-13T16:56:07Z</time>
      </trkpt>
      <trkpt lat="46.78391" lon="-2.03631">
        <ele>8</ele>
        <time>2018-01-13T16:57:07Z</time>
      </trkpt>
      <trkpt lat="46.78398" lon="-2.03627">
        <ele>7</ele>
        <time>2018-01-13T16:58:07Z</time>
      </trkpt>
      <trkpt lat="46.78398" lon="-2.03627">
        <ele>7</ele>
        <time>2018-01-13T16:59:07Z</time>
      </trkpt>
      <trkpt lat="46.78398" lon="-2.03624">
        <ele>7</ele>
        <time>2018-01-13T17:00:07Z</time>
      </trkpt>
      <trkpt lat="46.78398" lon="-2.03622">
        <ele>7</ele>
        <time>2018-01-13T17:01:07Z</time>
      </trkpt>
      <trkpt lat="46.78399" lon="-2.0362">
        <ele>7</ele>
        <time>2018-01-13T17:02:07Z</time>
      </trkpt>
      <trkpt lat="46.784" lon="-2.03619">
        <ele>7</ele>
        <time>2018-01-13T17:03:07Z</time>
      </trkpt>
      <trkpt lat="46.78402" lon="-2.03618">
        <ele>7</ele>
        <time>2018-01-13T17:04:07Z</time>
      </trkpt>
      <trkpt lat="46.78404" lon="-2.03619">
        <ele>7</ele>
        <time>2018-01-13T17:05:07Z</time>
      </trkpt>
      <trkpt lat="46.78405" lon="-2.03619">
        <ele>7</ele>
        <time>2018-01-13T17:06:07Z</time>
      </trkpt>
      <trkpt lat="46.78406" lon="-2.03621">
        <ele>7</ele>
        <time>2018-01-13T17:07:07Z</time>
      </trkpt>
      <trkpt lat="46.78407" lon="-2.03624">
        <ele>7</ele>
        <time>2018-01-13T17:08:07Z</time>
      </trkpt>
      <trkpt lat="46.78407" lon="-2.03626">
        <ele>7</ele>
        <time>2018-01-13T17:09:07Z</time>
      </trkpt>
      <trkpt lat="46.78406" lon="-2.03628">
        <ele>7</ele>
        <time>2018-01-13T17:10:07Z</time>
      </trkpt>
      <trkpt lat="46.78405" lon="-2.0363">
        <ele>7</ele>
        <time>2018-01-13T17:11:07Z</time>
      </trkpt>
      <trkpt lat="46.78404" lon="-2.03631">
        <ele>7</ele>
        <time>2018-01-13T17:12:07Z</time>
      </trkpt>
      <trkpt lat="46.78415" lon="-2.03658">
        <ele>7</ele>
        <time>2018-01-13T17:13:07Z</time>
      </trkpt>
      <trkpt lat="46.78426" lon="-2.03684">
        <ele>7</ele>
        <time>2018-01-13T17:14:07Z</time>
      </trkpt>
      <trkpt lat="46.78445" lon="-2.03728">
        <ele>7</ele>
        <time>2018-01-13T17:15:07Z</time>
      </trkpt>
      <trkpt lat="46.78455" lon="-2.03755">
        <ele>7</ele>
        <time>2018-01-13T17:16:07Z</time>
      </trkpt>
      <trkpt lat="46.78464" lon="-2.03776">
        <ele>6</ele>
        <time>2018-01-13T17:17:07Z</time>
      </trkpt>
      <trkpt lat="46.78471" lon="-2.03797">
        <ele>6</ele>
        <time>2018-01-13T17:18:07Z</time>
      </trkpt>
      <trkpt lat="46.78486" lon="-2.03841">
        <ele>6</ele>
        <time>2018-01-13T17:19:07Z</time>
      </trkpt>
      <trkpt lat="46.78496" lon="-2.03872">
        <ele>6</ele>
        <time>2018-01-13T17:20:07Z</time>
      </trkpt>
      <trkpt lat="46.78499" lon="-2.03879">
        <ele>6</ele>
        <time>2018-01-13T17:21:07Z</time>
      </trkpt>
      <trkpt lat="46.78513" lon="-2.03921">
        <ele>6</ele>
        <time>2018-01-13T17:22:07Z</time>
      </trkpt>
      <trkpt lat="46.7853" lon="-2.03963">
        <ele>7</ele>
        <time>2018-01-13T17:23:07Z</time>
      </trkpt>
      <trkpt lat="46.7854" lon="-2.0399">
        <ele>6</ele>
        <time>2018-01-13T17:24:07Z</time>
      </trkpt>
      <trkpt lat="46.78544" lon="-2.04006">
        <ele>6</ele>
        <time>2018-01-13T17:25:07Z</time>
      </trkpt>
      <trkpt lat="46.78545" lon="-2.04009">
        <ele>6</ele>
        <time>2018-01-13T17:26:07Z</time>
      </trkpt>
      <trkpt lat="46.78555" lon="-2.04046">
        <ele>6</ele>
        <time>2018-01-13T17:27:07Z</time>
      </trkpt>
      <trkpt lat="46.78564" lon="-2.04079">
        <ele>6</ele>
        <time>2018-01-13T17:28:07Z</time>
      </trkpt>
      <trkpt lat="46.78571" lon="-2.04104">
        <ele>5</ele>
        <time>2018-01-13T17:29:07Z</time>
      </trkpt>
      <trkpt lat="46.78576" lon="-2.04123">
        <ele>5</ele>
        <time>2018-01-13T17:30:07Z</time>
      </trkpt>
      <trkpt lat="46.78579" lon="-2.04129">
        <ele>5</ele>
        <time>2018-01-13T17:31:07Z</time>
      </trkpt>
      <trkpt lat="46.78583" lon="-2.0414">
        <ele>4</ele>
        <time>2018-01-13T17:32:07Z</time>
      </trkpt>
      <trkpt lat="46.7859" lon="-2.04156">
        <ele>4</ele>
        <time>2018-01-13T17:33:07Z</time>
      </trkpt>
      <trkpt lat="46.78599" lon="-2.04178">
        <ele>4</ele>
        <time>2018-01-13T17:34:07Z</time>
      </trkpt>
      <trkpt lat="46.78609" lon="-2.04205">
        <ele>5</ele>
        <time>2018-01-13T17:35:07Z</time>
      </trkpt>
      <trkpt lat="46.78622" lon="-2.04236">
        <ele>5</ele>
        <time>2018-01-13T17:36:07Z</time>
      </trkpt>
      <trkpt lat="46.78625" lon="-2.04245">
        <ele>5</ele>
        <time>2018-01-13T17:37:07Z</time>
      </trkpt>
      <trkpt lat="46.78632" lon="-2.04264">
        <ele>5</ele>
        <time>2018-01-13T17:38:07Z</time>
      </trkpt>
      <trkpt lat="46.78643" lon="-2.04296">
        <ele>5</ele>
        <time>2018-01-13T17:39:07Z</time>
      </trkpt>
      <trkpt lat="46.78659" lon="-2.04344">
        <ele>5</ele>
        <time>2018-01-13T17:40:07Z</time>
      </trkpt>
      <trkpt lat="46.78665" lon="-2.04361">
        <ele>6</ele>
        <time>2018-01-13T17:41:07Z</time>
      </trkpt>
      <trkpt lat="46.78684" lon="-2.04412">
        <ele>7</ele>
        <time>2018-01-13T17:42:07Z</time>
      </trkpt>
      <trkpt lat="46.78708" lon="-2.04474">
        <ele>6</ele>
        <time>2018-01-13T17:43:07Z</time>
      </trkpt>
      <trkpt lat="46.7873" lon="-2.04527">
        <ele>6</ele>
        <time>2018-01-13T17:44:07Z</time>
      </trkpt>
      <trkpt lat="46.7875" lon="-2.04577">
        <ele>6</ele>
        <time>2018-01-13T17:45:07Z</time>
      </trkpt>
      <trkpt lat="46.7877" lon="-2.04627">
        <ele>7</ele>
        <time>2018-01-13T17:46:07Z</time>
      </trkpt>
      <trkpt lat="46.78785" lon="-2.04662">
        <ele>7</ele>
        <time>2018-01-13T17:47:07Z</time>
      </trkpt>
      <trkpt lat="46.78798" lon="-2.04696">
        <ele>7</ele>
        <time>2018-01-13T17:48:07Z</time>
      </trkpt>
      <trkpt lat="46.78813" lon="-2.04743">
        <ele>6</ele>
        <time>2018-01-13T17:49:07Z</time>
      </trkpt>
      <trkpt lat="46.78824" lon="-2.04778">
        <ele>5</ele>
        <time>2018-01-13T17:50:07Z</time>
      </trkpt>
      <trkpt lat="46.78844" lon="-2.04846">
        <ele>5</ele>
        <time>2018-01-13T17:51:07Z</time>
      </trkpt>
      <trkpt lat="46.78854" lon="-2.04876">
        <ele>5</ele>
        <time>2018-01-13T17:52:07Z</time>
      </trkpt>
      <trkpt lat="46.78863" lon="-2.04907">
        <ele>5</ele>
        <time>2018-01-13T17:53:07Z</time>
      </trkpt>
      <trkpt lat="46.78869" lon="-2.04925">
        <ele>5</ele>
        <time>2018-01-13T17:54:07Z</time>
      </trkpt>
      <trkpt lat="46.78898" lon="-2.05001">
        <ele>4</ele>
        <time>2018-01-13T17:55:07Z</time>
      </trkpt>
      <trkpt lat="46.78914" lon="-2.05036">
        <ele>3</ele>
        <time>2018-01-13T17:56:07Z</time>
      </trkpt>
      <trkpt lat="46.7892" lon="-2.0505">
        <ele>3</ele>
        <time>2018-01-13T17:57:07Z</time>
      </trkpt>
      <trkpt lat="46.78923" lon="-2.05057">
        <ele>3</ele>
        <time>2018-01-13T17:58:07Z</time>
      </trkpt>
      <trkpt lat="46.78926" lon="-2.05063">
        <ele>3</ele>
        <time>2018-01-13T17:59:07Z</time>
      </trkpt>
      <trkpt lat="46.78942" lon="-2.051">
        <ele>3</ele>
        <time>2018-01-13T18:00:07Z</time>
      </trkpt>
      <trkpt lat="46.78958" lon="-2.05141">
        <ele>4</ele>
        <time>2018-01-13T18:01:07Z</time>
      </trkpt>
      <trkpt lat="46.78973" lon="-2.05181">
        <ele>4</ele>
        <time>2018-01-13T18:02:07Z</time>
      </trkpt>
      <trkpt lat="46.78987" lon="-2.05224">
        <ele>4</ele>
        <time>2018-01-13T18:03:07Z</time>
      </trkpt>
      <trkpt lat="46.79" lon="-2.05265">
        <ele>4</ele>
        <time>2018-01-13T18:04:07Z</time>
      </trkpt>
      <trkpt lat="46.79003" lon="-2.05274">
        <ele>4</ele>
        <time>2018-01-13T18:05:07Z</time>
      </trkpt>
      <trkpt lat="46.79016" lon="-2.05314">
        <ele>4</ele>
        <time>2018-01-13T18:06:07Z</time>
      </trkpt>
      <trkpt lat="46.79019" lon="-2.05325">
        <ele>4</ele>
        <time>2018-01-13T18:07:07Z</time>
      </trkpt>
      <trkpt lat="46.79034" lon="-2.05372">
        <ele>4</ele>
        <time>2018-01-13T18:08:07Z</time>
      </trkpt>
      <trkpt lat="46.79047" lon="-2.05411">
        <ele>3</ele>
        <time>2018-01-13T18:09:07Z</time>
      </trkpt>
      <trkpt lat="46.79055" lon="-2.05436">
        <ele>3</ele>
        <time>2018-01-13T18:10:07Z</time>
      </trkpt>
      <trkpt lat="46.79058" lon="-2.05443">
        <ele>3</ele>
        <time>2018-01-13T18:11:07Z</time>
      </trkpt>
      <trkpt lat="46.79065" lon="-2.05462">
        <ele>3</ele>
        <time>2018-01-13T18:12:07Z</time>
      </trkpt>
      <trkpt lat="46.79076" lon="-2.05485">
        <ele>3</ele>
        <time>2018-01-13T18:13:07Z</time>
      </trkpt>
      <trkpt lat="46.79084" lon="-2.05501">
        <ele>3</ele>
        <time>2018-01-13T18:14:07Z</time>
      </trkpt>
      <trkpt lat="46.79085" lon="-2.05503">
        <ele>3</ele>
        <time>2018-01-13T18:15:07Z</time>
      </trkpt>
      <trkpt lat="46.79091" lon="-2.05514">
        <ele>3</ele>
        <time>2018-01-13T18:16:07Z</time>
      </trkpt>
      <trkpt lat="46.79094" lon="-2.05518">
        <ele>3</ele>
        <time>2018-01-13T18:17:07Z</time>
      </trkpt>
      <trkpt lat="46.79096" lon="-2.05522">
        <ele>3</ele>
        <time>2018-01-13T18:18:07Z</time>
      </trkpt>
      <trkpt lat="46.79102" lon="-2.0553">
        <ele>3</ele>
        <time>2018-01-13T18:19:07Z</time>
      </trkpt>
      <trkpt lat="46.79102" lon="-2.0553">
        <ele>3</ele>
        <time>2018-01-13T18:20:07Z</time>
      </trkpt>
      <trkpt lat="46.79104" lon="-2.05528">
        <ele>3</ele>
        <time>2018-01-13T18:21:07Z</time>
      </trkpt>
      <trkpt lat="46.79106" lon="-2.05527">
        <ele>3</ele>
        <time>2018-01-13T18:22:07Z</time>
      </trkpt>
      <trkpt lat="46.79109" lon="-2.05527">
        <ele>3</ele>
        <time>2018-01-13T18:23:07Z</time>
      </trkpt>
      <trkpt lat="46.79111" lon="-2.05527">
        <ele>3</ele>
        <time>2018-01-13T18:24:07Z</time>
      </trkpt>
      <trkpt lat="46.79113" lon="-2.05529">
        <ele>3</ele>
        <time>2018-01-13T18:25:07Z</time>
      </trkpt>
      <trkpt lat="46.79115" lon="-2.05531">
        <ele>3</ele>
        <time>2018-01-13T18:26:07Z</time>
      </trkpt>
      <trkpt lat="46.79115" lon="-2.05534">
        <ele>3</ele>
        <time>2018-01-13T18:27:07Z</time>
      </trkpt>
      <trkpt lat="46.79115" lon="-2.05536">
        <ele>3</ele>
        <time>2018-01-13T18:28:07Z</time>
      </trkpt>
      <trkpt lat="46.79115" lon="-2.05539">
        <ele>3</ele>
        <time>2018-01-13T18:29:07Z</time>
      </trkpt>
      <trkpt lat="46.79115" lon="-2.05541">
        <ele>3</ele>
        <time>2018-01-13T18:30:07Z</time>
      </trkpt>
      <trkpt lat="46.79114" lon="-2.05543">
        <ele>3</ele>
        <time>2018-01-13T18:31:07Z</time>
      </trkpt>
      <trkpt lat="46.79112" lon="-2.05545">
        <ele>3</ele>
        <time>2018-01-13T18:32:07Z</time>
      </trkpt>
      <trkpt lat="46.7911" lon="-2.05547">
        <ele>3</ele>
        <time>2018-01-13T18:33:07Z</time>
      </trkpt>
      <trkpt lat="46.79108" lon="-2.0556">
        <ele>3</ele>
        <time>2018-01-13T18:34:07Z</time>
      </trkpt>
      <trkpt lat="46.79108" lon="-2.05564">
        <ele>3</ele>
        <time>2018-01-13T18:35:07Z</time>
      </trkpt>
      <trkpt lat="46.79108" lon="-2.05567">
        <ele>3</ele>
        <time>2018-01-13T18:36:07Z</time>
      </trkpt>
      <trkpt lat="46.79107" lon="-2.05574">
        <ele>3</ele>
        <time>2018-01-13T18:37:07Z</time>
      </trkpt>
      <trkpt lat="46.79107" lon="-2.05584">
        <ele>3</ele>
        <time>2018-01-13T18:38:07Z</time>
      </trkpt>
      <trkpt lat="46.79107" lon="-2.05584">
        <ele>3</ele>
        <time>2018-01-13T18:39:07Z</time>
      </trkpt>
      <trkpt lat="46.7911" lon="-2.05587">
        <ele>3</ele>
        <time>2018-01-13T18:40:07Z</time>
      </trkpt>
      <trkpt lat="46.79111" lon="-2.05589">
        <ele>3</ele>
        <time>2018-01-13T18:41:07Z</time>
      </trkpt>
      <trkpt lat="46.79112" lon="-2.05592">
        <ele>3</ele>
        <time>2018-01-13T18:42:07Z</time>
      </trkpt>
      <trkpt lat="46.79113" lon="-2.05595">
        <ele>3</ele>
        <time>2018-01-13T18:43:07Z</time>
      </trkpt>
      <trkpt lat="46.79113" lon="-2.056">
        <ele>3</ele>
        <time>2018-01-13T18:44:07Z</time>
      </trkpt>
      <trkpt lat="46.79112" lon="-2.05605">
        <ele>3</ele>
        <time>2018-01-13T18:45:07Z</time>
      </trkpt>
      <trkpt lat="46.79111" lon="-2.05608">
        <ele>3</ele>
        <time>2018-01-13T18:46:07Z</time>
      </trkpt>
      <trkpt lat="46.79109" lon="-2.0561">
        <ele>3</ele>
        <time>2018-01-13T18:47:07Z</time>
      </trkpt>
      <trkpt lat="46.79107" lon="-2.05612">
        <ele>3</ele>
        <time>2018-01-13T18:48:07Z</time>
      </trkpt>
      <trkpt lat="46.79105" lon="-2.05613">
        <ele>3</ele>
        <time>2018-01-13T18:49:07Z</time>
      </trkpt>
      <trkpt lat="46.79103" lon="-2.05613">
        <ele>3</ele>
        <time>2018-01-13T18:50:07Z</time>
      </trkpt>
      <trkpt lat="46.79102" lon="-2.05612">
        <ele>3</ele>
        <time>2018-01-13T18:51:07Z</time>
      </trkpt>
      <trkpt lat="46.79101" lon="-2.05612">
        <ele>3</ele>
        <time>2018-01-13T18:52:07Z</time>
      </trkpt>
      <trkpt lat="46.79096" lon="-2.05609">
        <ele>3</ele>
        <time>2018-01-13T18:53:07Z</time>
      </trkpt>
      <trkpt lat="46.79092" lon="-2.05616">
        <ele>3</ele>
        <time>2018-01-13T18:54:07Z</time>
      </trkpt>
      <trkpt lat="46.79088" lon="-2.05623">
        <ele>3</ele>
        <time>2018-01-13T18:55:07Z</time>
      </trkpt>
      <trkpt lat="46.79085" lon="-2.05631">
        <ele>3</ele>
        <time>2018-01-13T18:56:07Z</time>
      </trkpt>
      <trkpt lat="46.79083" lon="-2.05638">
        <ele>3</ele>
        <time>2018-01-13T18:57:07Z</time>
      </trkpt>
      <trkpt lat="46.79075" lon="-2.05662">
        <ele>4</ele>
        <time>2018-01-13T18:58:07Z</time>
      </trkpt>
      <trkpt lat="46.7907" lon="-2.05676">
        <ele>5</ele>
        <time>2018-01-13T18:59:07Z</time>
      </trkpt>
      <trkpt lat="46.79046" lon="-2.05772">
        <ele>10</ele>
        <time>2018-01-13T19:00:07Z</time>
      </trkpt>
      <trkpt lat="46.79042" lon="-2.05785">
        <ele>10</ele>
        <time>2018-01-13T19:01:07Z</time>
      </trkpt>
      <trkpt lat="46.7904" lon="-2.05796">
        <ele>10</ele>
        <time>2018-01-13T19:02:07Z</time>
      </trkpt>
      <trkpt lat="46.79039" lon="-2.05803">
        <ele>10</ele>
        <time>2018-01-13T19:03:07Z</time>
      </trkpt>
      <trkpt lat="46.79039" lon="-2.05807">
        <ele>10</ele>
        <time>2018-01-13T19:04:07Z</time>
      </trkpt>
      <trkpt lat="46.79038" lon="-2.05832">
        <ele>9</ele>
        <time>2018-01-13T19:05:07Z</time>
      </trkpt>
      <trkpt lat="46.79037" lon="-2.05857">
        <ele>9</ele>
        <time>2018-01-13T19:06:07Z</time>
      </trkpt>
      <trkpt lat="46.79037" lon="-2.05869">
        <ele>9</ele>
        <time>2018-01-13T19:07:07Z</time>
      </trkpt>
      <trkpt lat="46.79037" lon="-2.05895">
        <ele>8</ele>
        <time>2018-01-13T19:08:07Z</time>
      </trkpt>
      <trkpt lat="46.79038" lon="-2.0592">
        <ele>8</ele>
        <time>2018-01-13T19:09:07Z</time>
      </trkpt>
      <trkpt lat="46.79038" lon="-2.05941">
        <ele>9</ele>
        <time>2018-01-13T19:10:07Z</time>
      </trkpt>
      <trkpt lat="46.79038" lon="-2.05964">
        <ele>9</ele>
        <time>2018-01-13T19:11:07Z</time>
      </trkpt>
      <trkpt lat="46.79039" lon="-2.06061">
        <ele>9</ele>
        <time>2018-01-13T19:12:07Z</time>
      </trkpt>
      <trkpt lat="46.79039" lon="-2.06073">
        <ele>9</ele>
        <time>2018-01-13T19:13:07Z</time>
      </trkpt>
      <trkpt lat="46.79039" lon="-2.06078">
        <ele>9</ele>
        <time>2018-01-13T19:14:07Z</time>
      </trkpt>
      <trkpt lat="46.79041" lon="-2.06088">
        <ele>9</ele>
        <time>2018-01-13T19:15:07Z</time>
      </trkpt>
      <trkpt lat="46.79041" lon="-2.06094">
        <ele>9</ele>
        <time>2018-01-13T19:16:07Z</time>
      </trkpt>
      <trkpt lat="46.79041" lon="-2.06112">
        <ele>10</ele>
        <time>2018-01-13T19:17:07Z</time>
      </trkpt>
      <trkpt lat="46.7904" lon="-2.06138">
        <ele>10</ele>
        <time>2018-01-13T19:18:07Z</time>
      </trkpt>
      <trkpt lat="46.7904" lon="-2.06148">
        <ele>10</ele>
        <time>2018-01-13T19:19:07Z</time>
      </trkpt>
      <trkpt lat="46.79039" lon="-2.06168">
        <ele>11</ele>
        <time>2018-01-13T19:20:07Z</time>
      </trkpt>
      <trkpt lat="46.79038" lon="-2.06182">
        <ele>11</ele>
        <time>2018-01-13T19:21:07Z</time>
      </trkpt>
      <trkpt lat="46.79037" lon="-2.06191">
        <ele>11</ele>
        <time>2018-01-13T19:22:07Z</time>
      </trkpt>
      <trkpt lat="46.79038" lon="-2.06196">
        <ele>11</ele>
        <time>2018-01-13T19:23:07Z</time>
      </trkpt>
      <trkpt lat="46.79038" lon="-2.06199">
        <ele>11</ele>
        <time>2018-01-13T19:24:07Z</time>
      </trkpt>
      <trkpt lat="46.79038" lon="-2.06202">
        <ele>11</ele>
        <time>2018-01-13T19:25:07Z</time>
      </trkpt>
      <trkpt lat="46.79041" lon="-2.06216">
        <ele>11</ele>
        <time>2018-01-13T19:26:07Z</time>
      </trkpt>
      <trkpt lat="46.79041" lon="-2.06216">
        <ele>11</ele>
        <time>2018-01-13T19:27:07Z</time>
      </trkpt>
      <trkpt lat="46.79044" lon="-2.06218">
        <ele>10</ele>
        <time>2018-01-13T19:28:07Z</time>
      </trkpt>
      <trkpt lat="46.79046" lon="-2.0622">
        <ele>10</ele>
        <time>2018-01-13T19:29:07Z</time>
      </trkpt>
      <trkpt lat="46.79049" lon="-2.06224">
        <ele>10</ele>
        <time>2018-01-13T19:30:07Z</time>
      </trkpt>
      <trkpt lat="46.79052" lon="-2.06229">
        <ele>10</ele>
        <time>2018-01-13T19:31:07Z</time>
      </trkpt>
      <trkpt lat="46.79053" lon="-2.06232">
        <ele>10</ele>
        <time>2018-01-13T19:32:07Z</time>
      </trkpt>
      <trkpt lat="46.79054" lon="-2.06235">
        <ele>10</ele>
        <time>2018-01-13T19:33:07Z</time>
      </trkpt>
      <trkpt lat="46.79054" lon="-2.06238">
        <ele>10</ele>
        <time>2018-01-13T19:34:07Z</time>
      </trkpt>
      <trkpt lat="46.79055" lon="-2.06241">
        <ele>10</ele>
        <time>2018-01-13T19:35:07Z</time>
      </trkpt>
      <trkpt lat="46.79055" lon="-2.06244">
        <ele>10</ele>
        <time>2018-01-13T19:36:07Z</time>
      </trkpt>
      <trkpt lat="46.79055" lon="-2.06247">
        <ele>10</ele>
        <time>2018-01-13T19:37:07Z</time>
      </trkpt>
      <trkpt lat="46.79055" lon="-2.0625">
        <ele>10</ele>
        <time>2018-01-13T19:38:07Z</time>
      </trkpt>
      <trkpt lat="46.79055" lon="-2.06254">
        <ele>10</ele>
        <time>2018-01-13T19:39:07Z</time>
      </trkpt>
      <trkpt lat="46.79055" lon="-2.06255">
        <ele>10</ele>
        <time>2018-01-13T19:40:07Z</time>
      </trkpt>
      <trkpt lat="46.79054" lon="-2.06256">
        <ele>10</ele>
        <time>2018-01-13T19:41:07Z</time>
      </trkpt>
      <trkpt lat="46.79054" lon="-2.06257">
        <ele>10</ele>
        <time>2018-01-13T19:42:07Z</time>
      </trkpt>
      <trkpt lat="46.79054" lon="-2.06258">
        <ele>11</ele>
        <time>2018-01-13T19:43:07Z</time>
      </trkpt>
      <trkpt lat="46.79054" lon="-2.06259">
        <ele>11</ele>
        <time>2018-01-13T19:44:07Z</time>
      </trkpt>
      <trkpt lat="46.79054" lon="-2.0626">
        <ele>11</ele>
        <time>2018-01-13T19:45:07Z</time>
      </trkpt>
      <trkpt lat="46.79053" lon="-2.06261">
        <ele>11</ele>
        <time>2018-01-13T19:46:07Z</time>
      </trkpt>
      <trkpt lat="46.79053" lon="-2.06262">
        <ele>11</ele>
        <time>2018-01-13T19:47:07Z</time>
      </trkpt>
      <trkpt lat="46.79053" lon="-2.06263">
        <ele>11</ele>
        <time>2018-01-13T19:48:07Z</time>
      </trkpt>
      <trkpt lat="46.79052" lon="-2.06263">
        <ele>11</ele>
        <time>2018-01-13T19:49:07Z</time>
      </trkpt>
      <trkpt lat="46.79052" lon="-2.06264">
        <ele>11</ele>
        <time>2018-01-13T19:50:07Z</time>
      </trkpt>
      <trkpt lat="46.79051" lon="-2.06265">
        <ele>11</ele>
        <time>2018-01-13T19:51:07Z</time>
      </trkpt>
      <trkpt lat="46.79051" lon="-2.06266">
        <ele>11</ele>
        <time>2018-01-13T19:52:07Z</time>
      </trkpt>
      <trkpt lat="46.7905" lon="-2.06267">
        <ele>11</ele>
        <time>2018-01-13T19:53:07Z</time>
      </trkpt>
      <trkpt lat="46.79049" lon="-2.06268">
        <ele>11</ele>
        <time>2018-01-13T19:54:07Z</time>
      </trkpt>
      <trkpt lat="46.79048" lon="-2.06269">
        <ele>11</ele>
        <time>2018-01-13T19:55:07Z</time>
      </trkpt>
      <trkpt lat="46.79048" lon="-2.0627">
        <ele>11</ele>
        <time>2018-01-13T19:56:07Z</time>
      </trkpt>
      <trkpt lat="46.79047" lon="-2.06271">
        <ele>11</ele>
        <time>2018-01-13T19:57:07Z</time>
      </trkpt>
      <trkpt lat="46.79046" lon="-2.06272">
        <ele>11</ele>
        <time>2018-01-13T19:58:07Z</time>
      </trkpt>
      <trkpt lat="46.79045" lon="-2.06272">
        <ele>11</ele>
        <time>2018-01-13T19:59:07Z</time>
      </trkpt>
      <trkpt lat="46.79044" lon="-2.06291">
        <ele>11</ele>
        <time>2018-01-13T20:00:07Z</time>
      </trkpt>
      <trkpt lat="46.79044" lon="-2.06299">
        <ele>12</ele>
        <time>2018-01-13T20:01:07Z</time>
      </trkpt>
      <trkpt lat="46.79045" lon="-2.06307">
        <ele>12</ele>
        <time>2018-01-13T20:02:07Z</time>
      </trkpt>
      <trkpt lat="46.79046" lon="-2.06315">
        <ele>12</ele>
        <time>2018-01-13T20:03:07Z</time>
      </trkpt>
      <trkpt lat="46.79047" lon="-2.0632">
        <ele>12</ele>
        <time>2018-01-13T20:04:07Z</time>
      </trkpt>
      <trkpt lat="46.79048" lon="-2.06324">
        <ele>12</ele>
        <time>2018-01-13T20:05:07Z</time>
      </trkpt>
      <trkpt lat="46.79051" lon="-2.0634">
        <ele>12</ele>
        <time>2018-01-13T20:06:07Z</time>
      </trkpt>
      <trkpt lat="46.79058" lon="-2.06362">
        <ele>13</ele>
        <time>2018-01-13T20:07:07Z</time>
      </trkpt>
      <trkpt lat="46.7907" lon="-2.064">
        <ele>13</ele>
        <time>2018-01-13T20:08:07Z</time>
      </trkpt>
      <trkpt lat="46.79075" lon="-2.06415">
        <ele>13</ele>
        <time>2018-01-13T20:09:07Z</time>
      </trkpt>
      <trkpt lat="46.79076" lon="-2.06416">
        <ele>13</ele>
        <time>2018-01-13T20:10:07Z</time>
      </trkpt>
      <trkpt lat="46.79082" lon="-2.06432">
        <ele>13</ele>
        <time>2018-01-13T20:11:07Z</time>
      </trkpt>
      <trkpt lat="46.7909" lon="-2.06455">
        <ele>13</ele>
        <time>2018-01-13T20:12:07Z</time>
      </trkpt>
      <trkpt lat="46.79093" lon="-2.06455">
        <ele>13</ele>
        <time>2018-01-13T20:13:07Z</time>
      </trkpt>
      <trkpt lat="46.79095" lon="-2.06455">
        <ele>13</ele>
        <time>2018-01-13T20:14:07Z</time>
      </trkpt>
      <trkpt lat="46.79097" lon="-2.06456">
        <ele>13</ele>
        <time>2018-01-13T20:15:07Z</time>
      </trkpt>
      <trkpt lat="46.79099" lon="-2.06457">
        <ele>12</ele>
        <time>2018-01-13T20:16:07Z</time>
      </trkpt>
      <trkpt lat="46.79101" lon="-2.0646">
        <ele>12</ele>
        <time>2018-01-13T20:17:07Z</time>
      </trkpt>
      <trkpt lat="46.79102" lon="-2.06463">
        <ele>12</ele>
        <time>2018-01-13T20:18:07Z</time>
      </trkpt>
      <trkpt lat="46.79103" lon="-2.06466">
        <ele>12</ele>
        <time>2018-01-13T20:19:07Z</time>
      </trkpt>
      <trkpt lat="46.79103" lon="-2.06468">
        <ele>12</ele>
        <time>2018-01-13T20:20:07Z</time>
      </trkpt>
      <trkpt lat="46.79103" lon="-2.06471">
        <ele>13</ele>
        <time>2018-01-13T20:21:07Z</time>
      </trkpt>
      <trkpt lat="46.79103" lon="-2.06474">
        <ele>13</ele>
        <time>2018-01-13T20:22:07Z</time>
      </trkpt>
      <trkpt lat="46.79103" lon="-2.06476">
        <ele>13</ele>
        <time>2018-01-13T20:23:07Z</time>
      </trkpt>
      <trkpt lat="46.79102" lon="-2.0648">
        <ele>13</ele>
        <time>2018-01-13T20:24:07Z</time>
      </trkpt>
      <trkpt lat="46.79106" lon="-2.06495">
        <ele>13</ele>
        <time>2018-01-13T20:25:07Z</time>
      </trkpt>
      <trkpt lat="46.79109" lon="-2.06505">
        <ele>13</ele>
        <time>2018-01-13T20:26:07Z</time>
      </trkpt>
      <trkpt lat="46.79136" lon="-2.06583">
        <ele>12</ele>
        <time>2018-01-13T20:27:07Z</time>
      </trkpt>
      <trkpt lat="46.79144" lon="-2.06602">
        <ele>12</ele>
        <time>2018-01-13T20:28:07Z</time>
      </trkpt>
      <trkpt lat="46.79148" lon="-2.06615">
        <ele>12</ele>
        <time>2018-01-13T20:29:07Z</time>
      </trkpt>
      <trkpt lat="46.79151" lon="-2.06623">
        <ele>12</ele>
        <time>2018-01-13T20:30:07Z</time>
      </trkpt>
      <trkpt lat="46.79154" lon="-2.06632">
        <ele>12</ele>
        <time>2018-01-13T20:31:07Z</time>
      </trkpt>
      <trkpt lat="46.79156" lon="-2.06639">
        <ele>12</ele>
        <time>2018-01-13T20:32:07Z</time>
      </trkpt>
      <trkpt lat="46.79157" lon="-2.06644">
        <ele>12</ele>
        <time>2018-01-13T20:33:07Z</time>
      </trkpt>
      <trkpt lat="46.79161" lon="-2.06657">
        <ele>11</ele>
        <time>2018-01-13T20:34:07Z</time>
      </trkpt>
      <trkpt lat="46.79161" lon="-2.06657">
        <ele>11</ele>
        <time>2018-01-13T20:35:07Z</time>
      </trkpt>
      <trkpt lat="46.79163" lon="-2.06659">
        <ele>11</ele>
        <time>2018-01-13T20:36:07Z</time>
      </trkpt>
      <trkpt lat="46.79165" lon="-2.06661">
        <ele>11</ele>
        <time>2018-01-13T20:37:07Z</time>
      </trkpt>
      <trkpt lat="46.79166" lon="-2.06663">
        <ele>11</ele>
        <time>2018-01-13T20:38:07Z</time>
      </trkpt>
      <trkpt lat="46.79167" lon="-2.06666">
        <ele>11</ele>
        <time>2018-01-13T20:39:07Z</time>
      </trkpt>
      <trkpt lat="46.79168" lon="-2.0667">
        <ele>11</ele>
        <time>2018-01-13T20:40:07Z</time>
      </trkpt>
      <trkpt lat="46.79168" lon="-2.06675">
        <ele>11</ele>
        <time>2018-01-13T20:41:07Z</time>
      </trkpt>
      <trkpt lat="46.79174" lon="-2.06684">
        <ele>11</ele>
        <time>2018-01-13T20:42:07Z</time>
      </trkpt>
      <trkpt lat="46.79176" lon="-2.06686">
        <ele>11</ele>
        <time>2018-01-13T20:43:07Z</time>
      </trkpt>
      <trkpt lat="46.79182" lon="-2.06695">
        <ele>11</ele>
        <time>2018-01-13T20:44:07Z</time>
      </trkpt>
      <trkpt lat="46.79189" lon="-2.06702">
        <ele>11</ele>
        <time>2018-01-13T20:45:07Z</time>
      </trkpt>
      <trkpt lat="46.79196" lon="-2.06708">
        <ele>10</ele>
        <time>2018-01-13T20:46:07Z</time>
      </trkpt>
      <trkpt lat="46.79201" lon="-2.06712">
        <ele>10</ele>
        <time>2018-01-13T20:47:07Z</time>
      </trkpt>
      <trkpt lat="46.79207" lon="-2.06716">
        <ele>10</ele>
        <time>2018-01-13T20:48:07Z</time>
      </trkpt>
      <trkpt lat="46.79221" lon="-2.06725">
        <ele>10</ele>
        <time>2018-01-13T20:49:07Z</time>
      </trkpt>
      <trkpt lat="46.79224" lon="-2.06727">
        <ele>10</ele>
        <time>2018-01-13T20:50:07Z</time>
      </trkpt>
      <trkpt lat="46.79229" lon="-2.06729">
        <ele>9</ele>
        <time>2018-01-13T20:51:07Z</time>
      </trkpt>
      <trkpt lat="46.79249" lon="-2.06734">
        <ele>8</ele>
        <time>2018-01-13T20:52:07Z</time>
      </trkpt>
      <trkpt lat="46.79318" lon="-2.06743">
        <ele>6</ele>
        <time>2018-01-13T20:53:07Z</time>
      </trkpt>
      <trkpt lat="46.79345" lon="-2.06747">
        <ele>6</ele>
        <time>2018-01-13T20:54:07Z</time>
      </trkpt>
      <trkpt lat="46.79406" lon="-2.06755">
        <ele>5</ele>
        <time>2018-01-13T20:55:07Z</time>
      </trkpt>
      <trkpt lat="46.79425" lon="-2.06757">
        <ele>5</ele>
        <time>2018-01-13T20:56:07Z</time>
      </trkpt>
      <trkpt lat="46.79431" lon="-2.06758">
        <ele>5</ele>
        <time>2018-01-13T20:57:07Z</time>
      </trkpt>
      <trkpt lat="46.79444" lon="-2.0676">
        <ele>5</ele>
        <time>2018-01-13T20:58:07Z</time>
      </trkpt>
      <trkpt lat="46.79453" lon="-2.0676">
        <ele>5</ele>
        <time>2018-01-13T20:59:07Z</time>
      </trkpt>
      <trkpt lat="46.79464" lon="-2.06757">
        <ele>5</ele>
        <time>2018-01-13T21:00:07Z</time>
      </trkpt>
      <trkpt lat="46.79471" lon="-2.06757">
        <ele>5</ele>
        <time>2018-01-13T21:01:07Z</time>
      </trkpt>
      <trkpt lat="46.79485" lon="-2.06754">
        <ele>5</ele>
        <time>2018-01-13T21:02:07Z</time>
      </trkpt>
      <trkpt lat="46.79485" lon="-2.06754">
        <ele>5</ele>
        <time>2018-01-13T21:03:07Z</time>
      </trkpt>
      <trkpt lat="46.79486" lon="-2.06751">
        <ele>5</ele>
        <time>2018-01-13T21:04:07Z</time>
      </trkpt>
      <trkpt lat="46.79486" lon="-2.0675">
        <ele>5</ele>
        <time>2018-01-13T21:05:07Z</time>
      </trkpt>
      <trkpt lat="46.79487" lon="-2.06749">
        <ele>5</ele>
        <time>2018-01-13T21:06:07Z</time>
      </trkpt>
      <trkpt lat="46.79488" lon="-2.06748">
        <ele>5</ele>
        <time>2018-01-13T21:07:07Z</time>
      </trkpt>
      <trkpt lat="46.7949" lon="-2.06747">
        <ele>5</ele>
        <time>2018-01-13T21:08:07Z</time>
      </trkpt>
      <trkpt lat="46.79491" lon="-2.06747">
        <ele>5</ele>
        <time>2018-01-13T21:09:07Z</time>
      </trkpt>
      <trkpt lat="46.79493" lon="-2.06747">
        <ele>5</ele>
        <time>2018-01-13T21:10:07Z</time>
      </trkpt>
      <trkpt lat="46.79495" lon="-2.06747">
        <ele>5</ele>
        <time>2018-01-13T21:11:07Z</time>
      </trkpt>
      <trkpt lat="46.79496" lon="-2.06749">
        <ele>5</ele>
        <time>2018-01-13T21:12:07Z</time>
      </trkpt>
      <trkpt lat="46.79497" lon="-2.06751">
        <ele>5</ele>
        <time>2018-01-13T21:13:07Z</time>
      </trkpt>
      <trkpt lat="46.79498" lon="-2.06752">
        <ele>5</ele>
        <time>2018-01-13T21:14:07Z</time>
      </trkpt>
      <trkpt lat="46.79498" lon="-2.06755">
        <ele>5</ele>
        <time>2018-01-13T21:15:07Z</time>
      </trkpt>
      <trkpt lat="46.79504" lon="-2.06762">
        <ele>5</ele>
        <time>2018-01-13T21:16:07Z</time>
      </trkpt>
      <trkpt lat="46.79507" lon="-2.06766">
        <ele>5</ele>
        <time>2018-01-13T21:17:07Z</time>
      </trkpt>
      <trkpt lat="46.79508" lon="-2.06768">
        <ele>5</ele>
        <time>2018-01-13T21:18:07Z</time>
      </trkpt>
      <trkpt lat="46.7951" lon="-2.06771">
        <ele>5</ele>
        <time>2018-01-13T21:19:07Z</time>
      </trkpt>
      <trkpt lat="46.79512" lon="-2.06776">
        <ele>5</ele>
        <time>2018-01-13T21:20:07Z</time>
      </trkpt>
      <trkpt lat="46.79514" lon="-2.06782">
        <ele>5</ele>
        <time>2018-01-13T21:21:07Z</time>
      </trkpt>
      <trkpt lat="46.79519" lon="-2.06789">
        <ele>5</ele>
        <time>2018-01-13T21:22:07Z</time>
      </trkpt>
      <trkpt lat="46.79528" lon="-2.06801">
        <ele>5</ele>
        <time>2018-01-13T21:23:07Z</time>
      </trkpt>
      <trkpt lat="46.79532" lon="-2.06806">
        <ele>5</ele>
        <time>2018-01-13T21:24:07Z</time>
      </trkpt>
      <trkpt lat="46.79544" lon="-2.06824">
        <ele>5</ele>
        <time>2018-01-13T21:25:07Z</time>
      </trkpt>
      <trkpt lat="46.79581" lon="-2.06877">
        <ele>5</ele>
        <time>2018-01-13T21:26:07Z</time>
      </trkpt>
      <trkpt lat="46.79584" lon="-2.06879">
        <ele>5</ele>
        <time>2018-01-13T21:27:07Z</time>
      </trkpt>
      <trkpt lat="46.79589" lon="-2.06884">
        <ele>5</ele>
        <time>2018-01-13T21:28:07Z</time>
      </trkpt>
      <trkpt lat="46.79593" lon="-2.06889">
        <ele>5</ele>
        <time>2018-01-13T21:29:07Z</time>
      </trkpt>
      <trkpt lat="46.79599" lon="-2.06897">
        <ele>5</ele>
        <time>2018-01-13T21:30:07Z</time>
      </trkpt>
      <trkpt lat="46.79603" lon="-2.06905">
        <ele>5</ele>
        <time>2018-01-13T21:31:07Z</time>
      </trkpt>
      <trkpt lat="46.79614" lon="-2.06922">
        <ele>5</ele>
        <time>2018-01-13T21:32:07Z</time>
      </trkpt>
      <trkpt lat="46.79622" lon="-2.06934">
        <ele>5</ele>
        <time>2018-01-13T21:33:07Z</time>
      </trkpt>
      <trkpt lat="46.79627" lon="-2.06941">
        <ele>5</ele>
        <time>2018-01-13T21:34:07Z</time>
      </trkpt>
      <trkpt lat="46.79631" lon="-2.06946">
        <ele>5</ele>
        <time>2018-01-13T21:35:07Z</time>
      </trkpt>
      <trkpt lat="46.79637" lon="-2.0695">
        <ele>4</ele>
        <time>2018-01-13T21:36:07Z</time>
      </trkpt>
      <trkpt lat="46.79641" lon="-2.06953">
        <ele>4</ele>
        <time>2018-01-13T21:37:07Z</time>
      </trkpt>
      <trkpt lat="46.79644" lon="-2.06954">
        <ele>4</ele>
        <time>2018-01-13T21:38:07Z</time>
      </trkpt>
      <trkpt lat="46.79655" lon="-2.06956">
        <ele>4</ele>
        <time>2018-01-13T21:39:07Z</time>
      </trkpt>
      <trkpt lat="46.79655" lon="-2.06956">
        <ele>4</ele>
        <time>2018-01-13T21:40:07Z</time>
      </trkpt>
      <trkpt lat="46.79655" lon="-2.06955">
        <ele>4</ele>
        <time>2018-01-13T21:41:07Z</time>
      </trkpt>
      <trkpt lat="46.79656" lon="-2.06955">
        <ele>4</ele>
        <time>2018-01-13T21:42:07Z</time>
      </trkpt>
      <trkpt lat="46.79656" lon="-2.06954">
        <ele>4</ele>
        <time>2018-01-13T21:43:07Z</time>
      </trkpt>
      <trkpt lat="46.79657" lon="-2.06954">
        <ele>4</ele>
        <time>2018-01-13T21:44:07Z</time>
      </trkpt>
      <trkpt lat="46.79658" lon="-2.06953">
        <ele>4</ele>
        <time>2018-01-13T21:45:07Z</time>
      </trkpt>
      <trkpt lat="46.79659" lon="-2.06953">
        <ele>4</ele>
        <time>2018-01-13T21:46:07Z</time>
      </trkpt>
      <trkpt lat="46.7966" lon="-2.06952">
        <ele>4</ele>
        <time>2018-01-13T21:47:07Z</time>
      </trkpt>
      <trkpt lat="46.79661" lon="-2.06952">
        <ele>4</ele>
        <time>2018-01-13T21:48:07Z</time>
      </trkpt>
      <trkpt lat="46.79662" lon="-2.06952">
        <ele>4</ele>
        <time>2018-01-13T21:49:07Z</time>
      </trkpt>
      <trkpt lat="46.79663" lon="-2.06952">
        <ele>4</ele>
        <time>2018-01-13T21:50:07Z</time>
      </trkpt>
      <trkpt lat="46.79664" lon="-2.06952">
        <ele>4</ele>
        <time>2018-01-13T21:51:07Z</time>
      </trkpt>
      <trkpt lat="46.79665" lon="-2.06952">
        <ele>4</ele>
        <time>2018-01-13T21:52:07Z</time>
      </trkpt>
      <trkpt lat="46.79666" lon="-2.06952">
        <ele>4</ele>
        <time>2018-01-13T21:53:07Z</time>
      </trkpt>
      <trkpt lat="46.79667" lon="-2.06953">
        <ele>4</ele>
        <time>2018-01-13T21:54:07Z</time>
      </trkpt>
      <trkpt lat="46.7968" lon="-2.06948">
        <ele>4</ele>
        <time>2018-01-13T21:55:07Z</time>
      </trkpt>
      <trkpt lat="46.7972" lon="-2.06934">
        <ele>3</ele>
        <time>2018-01-13T21:56:07Z</time>
      </trkpt>
      <trkpt lat="46.79768" lon="-2.06906">
        <ele>3</ele>
        <time>2018-01-13T21:57:07Z</time>
      </trkpt>
      <trkpt lat="46.79849" lon="-2.06859">
        <ele>2</ele>
        <time>2018-01-13T21:58:07Z</time>
      </trkpt>
      <trkpt lat="46.79883" lon="-2.0684">
        <ele>2</ele>
        <time>2018-01-13T21:59:07Z</time>
      </trkpt>
      <trkpt lat="46.79904" lon="-2.06828">
        <ele>2</ele>
        <time>2018-01-13T22:00:07Z</time>
      </trkpt>
      <trkpt lat="46.7997" lon="-2.0679">
        <ele>2</ele>
        <time>2018-01-13T22:01:07Z</time>
      </trkpt>
      <trkpt lat="46.79975" lon="-2.06787">
        <ele>2.1</ele>
        <time>2018-01-13T22:02:07Z</time>
      </trkpt>
      <trkpt lat="46.7998" lon="-2.06784">
        <ele>2.3</ele>
        <time>2018-01-13T22:03:07Z</time>
      </trkpt>
      <trkpt lat="46.79991" lon="-2.06779">
        <ele>1</ele>
        <time>2018-01-13T22:04:07Z</time>
      </trkpt>
      <trkpt lat="46.79991" lon="-2.06779">
        <ele>1</ele>
        <time>2018-01-13T22:05:07Z</time>
      </trkpt>
      <trkpt lat="46.79991" lon="-2.06778">
        <ele>1</ele>
        <time>2018-01-13T22:06:07Z</time>
      </trkpt>
      <trkpt lat="46.7999" lon="-2.06777">
        <ele>1</ele>
        <time>2018-01-13T22:07:07Z</time>
      </trkpt>
      <trkpt lat="46.7999" lon="-2.06776">
        <ele>1</ele>
        <time>2018-01-13T22:08:07Z</time>
      </trkpt>
      <trkpt lat="46.7999" lon="-2.06775">
        <ele>1</ele>
        <time>2018-01-13T22:09:07Z</time>
      </trkpt>
      <trkpt lat="46.7999" lon="-2.06774">
        <ele>1</ele>
        <time>2018-01-13T22:10:07Z</time>
      </trkpt>
      <trkpt lat="46.7999" lon="-2.06773">
        <ele>1</ele>
        <time>2018-01-13T22:11:07Z</time>
      </trkpt>
      <trkpt lat="46.79991" lon="-2.06772">
        <ele>1</ele>
        <time>2018-01-13T22:12:07Z</time>
      </trkpt>
      <trkpt lat="46.79991" lon="-2.06771">
        <ele>1</ele>
        <time>2018-01-13T22:13:07Z</time>
      </trkpt>
      <trkpt lat="46.79991" lon="-2.0677">
        <ele>1</ele>
        <time>2018-01-13T22:14:07Z</time>
      </trkpt>
      <trkpt lat="46.79991" lon="-2.06769">
        <ele>1</ele>
        <time>2018-01-13T22:15:07Z</time>
      </trkpt>
      <trkpt lat="46.79991" lon="-2.06768">
        <ele>1</ele>
        <time>2018-01-13T22:16:07Z</time>
      </trkpt>
      <trkpt lat="46.79992" lon="-2.06768">
        <ele>1</ele>
        <time>2018-01-13T22:17:07Z</time>
      </trkpt>
      <trkpt lat="46.79992" lon="-2.06767">
        <ele>1</ele>
        <time>2018-01-13T22:18:07Z</time>
      </trkpt>
      <trkpt lat="46.79992" lon="-2.06766">
        <ele>1</ele>
        <time>2018-01-13T22:19:07Z</time>
      </trkpt>
      <trkpt lat="46.79993" lon="-2.06766">
        <ele>1</ele>
        <time>2018-01-13T22:20:07Z</time>
      </trkpt>
      <trkpt lat="46.79993" lon="-2.06765">
        <ele>1</ele>
        <time>2018-01-13T22:21:07Z</time>
      </trkpt>
      <trkpt lat="46.79993" lon="-2.06764">
        <ele>1</ele>
        <time>2018-01-13T22:22:07Z</time>
      </trkpt>
      <trkpt lat="46.79994" lon="-2.06764">
        <ele>1</ele>
        <time>2018-01-13T22:23:07Z</time>
      </trkpt>
      <trkpt lat="46.79994" lon="-2.06763">
        <ele>1</ele>
        <time>2018-01-13T22:24:07Z</time>
      </trkpt>
      <trkpt lat="46.79995" lon="-2.06763">
        <ele>1</ele>
        <time>2018-01-13T22:25:07Z</time>
      </trkpt>
      <trkpt lat="46.79995" lon="-2.06762">
        <ele>1</ele>
        <time>2018-01-13T22:26:07Z</time>
      </trkpt>
      <trkpt lat="46.79996" lon="-2.06762">
        <ele>1</ele>
        <time>2018-01-13T22:27:07Z</time>
      </trkpt>
      <trkpt lat="46.79997" lon="-2.06762">
        <ele>1</ele>
        <time>2018-01-13T22:28:07Z</time>
      </trkpt>
      <trkpt lat="46.79997" lon="-2.06761">
        <ele>1</ele>
        <time>2018-01-13T22:29:07Z</time>
      </trkpt>
      <trkpt lat="46.79998" lon="-2.06761">
        <ele>1</ele>
        <time>2018-01-13T22:30:07Z</time>
      </trkpt>
      <trkpt lat="46.79999" lon="-2.06761">
        <ele>1</ele>
        <time>2018-01-13T22:31:07Z</time>
      </trkpt>
      <trkpt lat="46.8" lon="-2.06761">
        <ele>1</ele>
        <time>2018-01-13T22:32:07Z</time>
      </trkpt>
      <trkpt lat="46.80001" lon="-2.06761">
        <ele>1</ele>
        <time>2018-01-13T22:33:07Z</time>
      </trkpt>
      <trkpt lat="46.80002" lon="-2.06761">
        <ele>1</ele>
        <time>2018-01-13T22:34:07Z</time>
      </trkpt>
      <trkpt lat="46.80003" lon="-2.06761">
        <ele>1</ele>
        <time>2018-01-13T22:35:07Z</time>
      </trkpt>
      <trkpt lat="46.80004" lon="-2.06762">
        <ele>1</ele>
        <time>2018-01-13T22:36:07Z</time>
      </trkpt>
      <trkpt lat="46.80005" lon="-2.06762">
        <ele>1</ele>
        <time>2018-01-13T22:37:07Z</time>
      </trkpt>
      <trkpt lat="46.80005" lon="-2.06763">
        <ele>1</ele>
        <time>2018-01-13T22:38:07Z</time>
      </trkpt>
      <trkpt lat="46.80006" lon="-2.06763">
        <ele>1</ele>
        <time>2018-01-13T22:39:07Z</time>
      </trkpt>
      <trkpt lat="46.80006" lon="-2.06764">
        <ele>1</ele>
        <time>2018-01-13T22:40:07Z</time>
      </trkpt>
      <trkpt lat="46.80007" lon="-2.06765">
        <ele>1</ele>
        <time>2018-01-13T22:41:07Z</time>
      </trkpt>
      <trkpt lat="46.80008" lon="-2.06766">
        <ele>1</ele>
        <time>2018-01-13T22:42:07Z</time>
      </trkpt>
      <trkpt lat="46.80008" lon="-2.06767">
        <ele>1</ele>
        <time>2018-01-13T22:43:07Z</time>
      </trkpt>
      <trkpt lat="46.80008" lon="-2.06768">
        <ele>1</ele>
        <time>2018-01-13T22:44:07Z</time>
      </trkpt>
      <trkpt lat="46.80009" lon="-2.06768">
        <ele>1</ele>
        <time>2018-01-13T22:45:07Z</time>
      </trkpt>
      <trkpt lat="46.80009" lon="-2.06769">
        <ele>1</ele>
        <time>2018-01-13T22:46:07Z</time>
      </trkpt>
      <trkpt lat="46.80009" lon="-2.0677">
        <ele>1</ele>
        <time>2018-01-13T22:47:07Z</time>
      </trkpt>
      <trkpt lat="46.80009" lon="-2.06771">
        <ele>1</ele>
        <time>2018-01-13T22:48:07Z</time>
      </trkpt>
      <trkpt lat="46.80009" lon="-2.06772">
        <ele>1</ele>
        <time>2018-01-13T22:49:07Z</time>
      </trkpt>
      <trkpt lat="46.80009" lon="-2.06773">
        <ele>1</ele>
        <time>2018-01-13T22:50:07Z</time>
      </trkpt>
      <trkpt lat="46.80009" lon="-2.06774">
        <ele>1</ele>
        <time>2018-01-13T22:51:07Z</time>
      </trkpt>
      <trkpt lat="46.80009" lon="-2.06775">
        <ele>1</ele>
        <time>2018-01-13T22:52:07Z</time>
      </trkpt>
      <trkpt lat="46.80009" lon="-2.06776">
        <ele>1</ele>
        <time>2018-01-13T22:53:07Z</time>
      </trkpt>
      <trkpt lat="46.80009" lon="-2.06777">
        <ele>1</ele>
        <time>2018-01-13T22:54:07Z</time>
      </trkpt>
      <trkpt lat="46.80008" lon="-2.06778">
        <ele>1</ele>
        <time>2018-01-13T22:55:07Z</time>
      </trkpt>
      <trkpt lat="46.80008" lon="-2.06779">
        <ele>1</ele>
        <time>2018-01-13T22:56:07Z</time>
      </trkpt>
      <trkpt lat="46.80008" lon="-2.0678">
        <ele>1</ele>
        <time>2018-01-13T22:57:07Z</time>
      </trkpt>
      <trkpt lat="46.80007" lon="-2.0678">
        <ele>1</ele>
        <time>2018-01-13T22:58:07Z</time>
      </trkpt>
      <trkpt lat="46.80007" lon="-2.06781">
        <ele>1</ele>
        <time>2018-01-13T22:59:07Z</time>
      </trkpt>
      <trkpt lat="46.80006" lon="-2.06782">
        <ele>1</ele>
        <time>2018-01-13T23:00:07Z</time>
      </trkpt>
      <trkpt lat="46.80006" lon="-2.06783">
        <ele>1</ele>
        <time>2018-01-13T23:01:07Z</time>
      </trkpt>
      <trkpt lat="46.80005" lon="-2.06783">
        <ele>1</ele>
        <time>2018-01-13T23:02:07Z</time>
      </trkpt>
      <trkpt lat="46.80005" lon="-2.06784">
        <ele>1</ele>
        <time>2018-01-13T23:03:07Z</time>
      </trkpt>
      <trkpt lat="46.80004" lon="-2.06784">
        <ele>1</ele>
        <time>2018-01-13T23:04:07Z</time>
      </trkpt>
      <trkpt lat="46.80004" lon="-2.06785">
        <ele>1</ele>
        <time>2018-01-13T23:05:07Z</time>
      </trkpt>
      <trkpt lat="46.80003" lon="-2.06785">
        <ele>1</ele>
        <time>2018-01-13T23:06:07Z</time>
      </trkpt>
      <trkpt lat="46.80002" lon="-2.06786">
        <ele>1</ele>
        <time>2018-01-13T23:07:07Z</time>
      </trkpt>
      <trkpt lat="46.80001" lon="-2.06786">
        <ele>1</ele>
        <time>2018-01-13T23:08:07Z</time>
      </trkpt>
      <trkpt lat="46.79998" lon="-2.06798">
        <ele>2.9</ele>
        <time>2018-01-13T23:09:07Z</time>
      </trkpt>
      <trkpt lat="46.79997" lon="-2.06804">
        <ele>2.9</ele>
        <time>2018-01-13T23:10:07Z</time>
      </trkpt>
      <trkpt lat="46.79997" lon="-2.06814">
        <ele>2.6</ele>
        <time>2018-01-13T23:11:07Z</time>
      </trkpt>
      <trkpt lat="46.79997" lon="-2.06818">
        <ele>2.5</ele>
        <time>2018-01-13T23:12:07Z</time>
      </trkpt>
      <trkpt lat="46.79997" lon="-2.06821">
        <ele>2.4</ele>
        <time>2018-01-13T23:13:07Z</time>
      </trkpt>
      <trkpt lat="46.79999" lon="-2.06827">
        <ele>2.2</ele>
        <time>2018-01-13T23:14:07Z</time>
      </trkpt>
      <trkpt lat="46.80016" lon="-2.06879">
        <ele>1.8</ele>
        <time>2018-01-13T23:15:07Z</time>
      </trkpt>
      <trkpt lat="46.80029" lon="-2.06922">
        <ele>1</ele>
        <time>2018-01-13T23:16:07Z</time>
      </trkpt>
      <trkpt lat="46.80037" lon="-2.06946">
        <ele>1</ele>
        <time>2018-01-13T23:17:07Z</time>
      </trkpt>
      <trkpt lat="46.80055" lon="-2.06992">
        <ele>1</ele>
        <time>2018-01-13T23:18:07Z</time>
      </trkpt>
      <trkpt lat="46.80065" lon="-2.07021">
        <ele>1</ele>
        <time>2018-01-13T23:19:07Z</time>
      </trkpt>
      <trkpt lat="46.80069" lon="-2.07033">
        <ele>1</ele>
        <time>2018-01-13T23:20:07Z</time>
      </trkpt>
      <trkpt lat="46.80072" lon="-2.07044">
        <ele>1</ele>
        <time>2018-01-13T23:21:07Z</time>
      </trkpt>
      <trkpt lat="46.80073" lon="-2.07051">
        <ele>2</ele>
        <time>2018-01-13T23:22:07Z</time>
      </trkpt>
      <trkpt lat="46.80073" lon="-2.07057">
        <ele>2</ele>
        <time>2018-01-13T23:23:07Z</time>
      </trkpt>
      <trkpt lat="46.80074" lon="-2.07069">
        <ele>2</ele>
        <time>2018-01-13T23:24:07Z</time>
      </trkpt>
      <trkpt lat="46.80075" lon="-2.07084">
        <ele>2</ele>
        <time>2018-01-13T23:25:07Z</time>
      </trkpt>
      <trkpt lat="46.80077" lon="-2.0713">
        <ele>1</ele>
        <time>2018-01-13T23:26:07Z</time>
      </trkpt>
      <trkpt lat="46.80079" lon="-2.07186">
        <ele>1</ele>
        <time>2018-01-13T23:27:07Z</time>
      </trkpt>
      <trkpt lat="46.8008" lon="-2.07199">
        <ele>1</ele>
        <time>2018-01-13T23:28:07Z</time>
      </trkpt>
      <trkpt lat="46.80081" lon="-2.07211">
        <ele>1</ele>
        <time>2018-01-13T23:29:07Z</time>
      </trkpt>
      <trkpt lat="46.80084" lon="-2.07233">
        <ele>1</ele>
        <time>2018-01-13T23:30:07Z</time>
      </trkpt>
      <trkpt lat="46.80087" lon="-2.07252">
        <ele>1</ele>
        <time>2018-01-13T23:31:07Z</time>
      </trkpt>
      <trkpt lat="46.80091" lon="-2.07275">
        <ele>1</ele>
        <time>2018-01-13T23:32:07Z</time>
      </trkpt>
      <trkpt lat="46.80094" lon="-2.07294">
        <ele>1</ele>
        <time>2018-01-13T23:33:07Z</time>
      </trkpt>
      <trkpt lat="46.80097" lon="-2.07331">
        <ele>1</ele>
        <time>2018-01-13T23:34:07Z</time>
      </trkpt>
      <trkpt lat="46.80098" lon="-2.07342">
        <ele>1</ele>
        <time>2018-01-13T23:35:07Z</time>
      </trkpt>
      <trkpt lat="46.80099" lon="-2.07352">
        <ele>1</ele>
        <time>2018-01-13T23:36:07Z</time>
      </trkpt>
      <trkpt lat="46.80107" lon="-2.07405">
        <ele>2</ele>
        <time>2018-01-13T23:37:07Z</time>
      </trkpt>
      <trkpt lat="46.80109" lon="-2.07424">
        <ele>3</ele>
        <time>2018-01-13T23:38:07Z</time>
      </trkpt>
      <trkpt lat="46.80111" lon="-2.07443">
        <ele>2</ele>
        <time>2018-01-13T23:39:07Z</time>
      </trkpt>
      <trkpt lat="46.80112" lon="-2.07472">
        <ele>2</ele>
        <time>2018-01-13T23:40:07Z</time>
      </trkpt>
      <trkpt lat="46.80111" lon="-2.07497">
        <ele>2</ele>
        <time>2018-01-13T23:41:07Z</time>
      </trkpt>
      <trkpt lat="46.80111" lon="-2.07517">
        <ele>1</ele>
        <time>2018-01-13T23:42:07Z</time>
      </trkpt>
      <trkpt lat="46.80113" lon="-2.07532">
        <ele>1</ele>
        <time>2018-01-13T23:43:07Z</time>
      </trkpt>
      <trkpt lat="46.8012" lon="-2.07568">
        <ele>1</ele>
        <time>2018-01-13T23:44:07Z</time>
      </trkpt>
      <trkpt lat="46.80125" lon="-2.076">
        <ele>1.5</ele>
        <time>2018-01-13T23:45:07Z</time>
      </trkpt>
      <trkpt lat="46.80132" lon="-2.07657">
        <ele>1.7</ele>
        <time>2018-01-13T23:46:07Z</time>
      </trkpt>
      <trkpt lat="46.80138" lon="-2.07719">
        <ele>1</ele>
        <time>2018-01-13T23:47:07Z</time>
      </trkpt>
      <trkpt lat="46.80142" lon="-2.07752">
        <ele>1</ele>
        <time>2018-01-13T23:48:07Z</time>
      </trkpt>
      <trkpt lat="46.80146" lon="-2.07771">
        <ele>1</ele>
        <time>2018-01-13T23:49:07Z</time>
      </trkpt>
      <trkpt lat="46.80155" lon="-2.07807">
        <ele>1.4</ele>
        <time>2018-01-13T23:50:07Z</time>
      </trkpt>
      <trkpt lat="46.80166" lon="-2.07841">
        <ele>2</ele>
        <time>2018-01-13T23:51:07Z</time>
      </trkpt>
      <trkpt lat="46.80182" lon="-2.07883">
        <ele>1</ele>
        <time>2018-01-13T23:52:07Z</time>
      </trkpt>
      <trkpt lat="46.80197" lon="-2.07922">
        <ele>1</ele>
        <time>2018-01-13T23:53:07Z</time>
      </trkpt>
      <trkpt lat="46.80206" lon="-2.07944">
        <ele>1</ele>
        <time>2018-01-13T23:54:07Z</time>
      </trkpt>
      <trkpt lat="46.80214" lon="-2.07957">
        <ele>1</ele>
        <time>2018-01-13T23:55:07Z</time>
      </trkpt>
      <trkpt lat="46.8022" lon="-2.07968">
        <ele>1</ele>
        <time>2018-01-13T23:56:07Z</time>
      </trkpt>
      <trkpt lat="46.80224" lon="-2.07975">
        <ele>1</ele>
        <time>2018-01-13T23:57:07Z</time>
      </trkpt>
      <trkpt lat="46.80231" lon="-2.07988">
        <ele>1</ele>
        <time>2018-01-13T23:58:07Z</time>
      </trkpt>
      <trkpt lat="46.80239" lon="-2.08005">
        <ele>2</ele>
        <time>2018-01-13T23:59:07Z</time>
      </trkpt>
      <trkpt lat="46.80243" lon="-2.08016">
        <ele>2</ele>
        <time>2018-01-14T00:00:07Z</time>
      </trkpt>
      <trkpt lat="46.80245" lon="-2.08027">
        <ele>2</ele>
        <time>2018-01-14T00:01:07Z</time>
      </trkpt>
      <trkpt lat="46.80247" lon="-2.08034">
        <ele>2</ele>
        <time>2018-01-14T00:02:07Z</time>
      </trkpt>
      <trkpt lat="46.80248" lon="-2.08044">
        <ele>2</ele>
        <time>2018-01-14T00:03:07Z</time>
      </trkpt>
      <trkpt lat="46.80249" lon="-2.08061">
        <ele>2</ele>
        <time>2018-01-14T00:04:07Z</time>
      </trkpt>
      <trkpt lat="46.8025" lon="-2.08104">
        <ele>2</ele>
        <time>2018-01-14T00:05:07Z</time>
      </trkpt>
      <trkpt lat="46.80252" lon="-2.08115">
        <ele>1.9</ele>
        <time>2018-01-14T00:06:07Z</time>
      </trkpt>
      <trkpt lat="46.80254" lon="-2.08125">
        <ele>1.5</ele>
        <time>2018-01-14T00:07:07Z</time>
      </trkpt>
      <trkpt lat="46.80256" lon="-2.08131">
        <ele>1</ele>
        <time>2018-01-14T00:08:07Z</time>
      </trkpt>
      <trkpt lat="46.8026" lon="-2.0814">
        <ele>1</ele>
        <time>2018-01-14T00:09:07Z</time>
      </trkpt>
      <trkpt lat="46.80274" lon="-2.08164">
        <ele>1</ele>
        <time>2018-01-14T00:10:07Z</time>
      </trkpt>
      <trkpt lat="46.8029" lon="-2.0819">
        <ele>1</ele>
        <time>2018-01-14T00:11:07Z</time>
      </trkpt>
      <trkpt lat="46.80296" lon="-2.08205">
        <ele>1</ele>
        <time>2018-01-14T00:12:07Z</time>
      </trkpt>
      <trkpt lat="46.80303" lon="-2.08225">
        <ele>2</ele>
        <time>2018-01-14T00:13:07Z</time>
      </trkpt>
      <trkpt lat="46.80306" lon="-2.08241">
        <ele>2</ele>
        <time>2018-01-14T00:14:07Z</time>
      </trkpt>
      <trkpt lat="46.80308" lon="-2.08256">
        <ele>2</ele>
        <time>2018-01-14T00:15:07Z</time>
      </trkpt>
      <trkpt lat="46.8031" lon="-2.08272">
        <ele>2</ele>
        <time>2018-01-14T00:16:07Z</time>
      </trkpt>
      <trkpt lat="46.80313" lon="-2.08306">
        <ele>2</ele>
        <time>2018-01-14T00:17:07Z</time>
      </trkpt>
      <trkpt lat="46.80316" lon="-2.08332">
        <ele>2</ele>
        <time>2018-01-14T00:18:07Z</time>
      </trkpt>
      <trkpt lat="46.80319" lon="-2.08352">
        <ele>2</ele>
        <time>2018-01-14T00:19:07Z</time>
      </trkpt>
      <trkpt lat="46.80324" lon="-2.08373">
        <ele>2</ele>
        <time>2018-01-14T00:20:07Z</time>
      </trkpt>
      <trkpt lat="46.80338" lon="-2.08432">
        <ele>2</ele>
        <time>2018-01-14T00:21:07Z</time>
      </trkpt>
      <trkpt lat="46.8034" lon="-2.08447">
        <ele>2</ele>
        <time>2018-01-14T00:22:07Z</time>
      </trkpt>
      <trkpt lat="46.80342" lon="-2.08457">
        <ele>2</ele>
        <time>2018-01-14T00:23:07Z</time>
      </trkpt>
      <trkpt lat="46.80342" lon="-2.08469">
        <ele>2</ele>
        <time>2018-01-14T00:24:07Z</time>
      </trkpt>
      <trkpt lat="46.80342" lon="-2.08485">
        <ele>2</ele>
        <time>2018-01-14T00:25:07Z</time>
      </trkpt>
      <trkpt lat="46.80342" lon="-2.08501">
        <ele>2</ele>
        <time>2018-01-14T00:26:07Z</time>
      </trkpt>
      <trkpt lat="46.80341" lon="-2.0851">
        <ele>2</ele>
        <time>2018-01-14T00:27:07Z</time>
      </trkpt>
      <trkpt lat="46.80344" lon="-2.08557">
        <ele>2</ele>
        <time>2018-01-14T00:28:07Z</time>
      </trkpt>
      <trkpt lat="46.80348" lon="-2.08583">
        <ele>2</ele>
        <time>2018-01-14T00:29:07Z</time>
      </trkpt>
      <trkpt lat="46.80352" lon="-2.08607">
        <ele>2</ele>
        <time>2018-01-14T00:30:07Z</time>
      </trkpt>
      <trkpt lat="46.80369" lon="-2.08698">
        <ele>2</ele>
        <time>2018-01-14T00:31:07Z</time>
      </trkpt>
      <trkpt lat="46.80371" lon="-2.08712">
        <ele>2</ele>
        <time>2018-01-14T00:32:07Z</time>
      </trkpt>
      <trkpt lat="46.80371" lon="-2.08722">
        <ele>2</ele>
        <time>2018-01-14T00:33:07Z</time>
      </trkpt>
      <trkpt lat="46.80371" lon="-2.08734">
        <ele>2</ele>
        <time>2018-01-14T00:34:07Z</time>
      </trkpt>
      <trkpt lat="46.80371" lon="-2.08747">
        <ele>2</ele>
        <time>2018-01-14T00:35:07Z</time>
      </trkpt>
      <trkpt lat="46.80369" lon="-2.08758">
        <ele>2</ele>
        <time>2018-01-14T00:36:07Z</time>
      </trkpt>
      <trkpt lat="46.80362" lon="-2.08791">
        <ele>2</ele>
        <time>2018-01-14T00:37:07Z</time>
      </trkpt>
      <trkpt lat="46.80361" lon="-2.08815">
        <ele>2</ele>
        <time>2018-01-14T00:38:07Z</time>
      </trkpt>
      <trkpt lat="46.80361" lon="-2.08826">
        <ele>2</ele>
        <time>2018-01-14T00:39:07Z</time>
      </trkpt>
      <trkpt lat="46.80363" lon="-2.08836">
        <ele>2</ele>
        <time>2018-01-14T00:40:07Z</time>
      </trkpt>
      <trkpt lat="46.80365" lon="-2.08849">
        <ele>2</ele>
        <time>2018-01-14T00:41:07Z</time>
      </trkpt>
      <trkpt lat="46.80368" lon="-2.08858">
        <ele>3</ele>
        <time>2018-01-14T00:42:07Z</time>
      </trkpt>
      <trkpt lat="46.80373" lon="-2.08871">
        <ele>3</ele>
        <time>2018-01-14T00:43:07Z</time>
      </trkpt>
      <trkpt lat="46.80379" lon="-2.08884">
        <ele>3</ele>
        <time>2018-01-14T00:44:07Z</time>
      </trkpt>
      <trkpt lat="46.80383" lon="-2.08894">
        <ele>3</ele>
        <time>2018-01-14T00:45:07Z</time>
      </trkpt>
      <trkpt lat="46.80386" lon="-2.08906">
        <ele>3</ele>
        <time>2018-01-14T00:46:07Z</time>
      </trkpt>
      <trkpt lat="46.80387" lon="-2.08918">
        <ele>3</ele>
        <time>2018-01-14T00:47:07Z</time>
      </trkpt>
      <trkpt lat="46.80389" lon="-2.08934">
        <ele>3</ele>
        <time>2018-01-14T00:48:07Z</time>
      </trkpt>
      <trkpt lat="46.80391" lon="-2.08958">
        <ele>3</ele>
        <time>2018-01-14T00:49:07Z</time>
      </trkpt>
      <trkpt lat="46.80393" lon="-2.08976">
        <ele>2</ele>
        <time>2018-01-14T00:50:07Z</time>
      </trkpt>
      <trkpt lat="46.80396" lon="-2.08988">
        <ele>2</ele>
        <time>2018-01-14T00:51:07Z</time>
      </trkpt>
      <trkpt lat="46.80408" lon="-2.09028">
        <ele>2</ele>
        <time>2018-01-14T00:52:07Z</time>
      </trkpt>
      <trkpt lat="46.80423" lon="-2.09072">
        <ele>2</ele>
        <time>2018-01-14T00:53:07Z</time>
      </trkpt>
      <trkpt lat="46.80448" lon="-2.09144">
        <ele>2</ele>
        <time>2018-01-14T00:54:07Z</time>
      </trkpt>
      <trkpt lat="46.80475" lon="-2.09205">
        <ele>2</ele>
        <time>2018-01-14T00:55:07Z</time>
      </trkpt>
      <trkpt lat="46.80519" lon="-2.09297">
        <ele>2</ele>
        <time>2018-01-14T00:56:07Z</time>
      </trkpt>
      <trkpt lat="46.80554" lon="-2.09372">
        <ele>2</ele>
        <time>2018-01-14T00:57:07Z</time>
      </trkpt>
      <trkpt lat="46.80588" lon="-2.09438">
        <ele>2</ele>
        <time>2018-01-14T00:58:07Z</time>
      </trkpt>
      <trkpt lat="46.80588" lon="-2.09438">
        <ele>2</ele>
        <time>2018-01-14T00:59:07Z</time>
      </trkpt>
      <trkpt lat="46.80595" lon="-2.09435">
        <ele>2</ele>
        <time>2018-01-14T01:00:07Z</time>
      </trkpt>
      <trkpt lat="46.80595" lon="-2.09435">
        <ele>2</ele>
        <time>2018-01-14T01:01:07Z</time>
      </trkpt>
      <trkpt lat="46.806" lon="-2.09444">
        <ele>2</ele>
        <time>2018-01-14T01:02:07Z</time>
      </trkpt>
      <trkpt lat="46.80621" lon="-2.09479">
        <ele>2</ele>
        <time>2018-01-14T01:03:07Z</time>
      </trkpt>
      <trkpt lat="46.80634" lon="-2.09501">
        <ele>2</ele>
        <time>2018-01-14T01:04:07Z</time>
      </trkpt>
      <trkpt lat="46.8066" lon="-2.09528">
        <ele>2</ele>
        <time>2018-01-14T01:05:07Z</time>
      </trkpt>
      <trkpt lat="46.80682" lon="-2.09549">
        <ele>1</ele>
        <time>2018-01-14T01:06:07Z</time>
      </trkpt>
      <trkpt lat="46.80693" lon="-2.09565">
        <ele>1</ele>
        <time>2018-01-14T01:07:07Z</time>
      </trkpt>
      <trkpt lat="46.80695" lon="-2.09568">
        <ele>1</ele>
        <time>2018-01-14T01:08:07Z</time>
      </trkpt>
      <trkpt lat="46.80716" lon="-2.09614">
        <ele>1</ele>
        <time>2018-01-14T01:09:07Z</time>
      </trkpt>
      <trkpt lat="46.80743" lon="-2.09668">
        <ele>1</ele>
        <time>2018-01-14T01:10:07Z</time>
      </trkpt>
      <trkpt lat="46.80778" lon="-2.0974">
        <ele>2</ele>
        <time>2018-01-14T01:11:07Z</time>
      </trkpt>
      <trkpt lat="46.80818" lon="-2.0982">
        <ele>1</ele>
        <time>2018-01-14T01:12:07Z</time>
      </trkpt>
      <trkpt lat="46.80849" lon="-2.09877">
        <ele>1.8</ele>
        <time>2018-01-14T01:13:07Z</time>
      </trkpt>
      <trkpt lat="46.80862" lon="-2.09906">
        <ele>2</ele>
        <time>2018-01-14T01:14:07Z</time>
      </trkpt>
      <trkpt lat="46.80885" lon="-2.09965">
        <ele>1</ele>
        <time>2018-01-14T01:15:07Z</time>
      </trkpt>
      <trkpt lat="46.80896" lon="-2.09992">
        <ele>2</ele>
        <time>2018-01-14T01:16:07Z</time>
      </trkpt>
      <trkpt lat="46.80925" lon="-2.10049">
        <ele>1</ele>
        <time>2018-01-14T01:17:07Z</time>
      </trkpt>
      <trkpt lat="46.80947" lon="-2.10089">
        <ele>1</ele>
        <time>2018-01-14T01:18:07Z</time>
      </trkpt>
      <trkpt lat="46.80973" lon="-2.10139">
        <ele>1</ele>
        <time>2018-01-14T01:19:07Z</time>
      </trkpt>
      <trkpt lat="46.80988" lon="-2.10167">
        <ele>1</ele>
        <time>2018-01-14T01:20:07Z</time>
      </trkpt>
      <trkpt lat="46.80999" lon="-2.10184">
        <ele>1</ele>
        <time>2018-01-14T01:21:07Z</time>
      </trkpt>
      <trkpt lat="46.81015" lon="-2.10203">
        <ele>1</ele>
        <time>2018-01-14T01:22:07Z</time>
      </trkpt>
      <trkpt lat="46.81034" lon="-2.10222">
        <ele>1</ele>
        <time>2018-01-14T01:23:07Z</time>
      </trkpt>
      <trkpt lat="46.81048" lon="-2.10241">
        <ele>1</ele>
        <time>2018-01-14T01:24:07Z</time>
      </trkpt>
      <trkpt lat="46.81056" lon="-2.10261">
        <ele>1</ele>
        <time>2018-01-14T01:25:07Z</time>
      </trkpt>
      <trkpt lat="46.81064" lon="-2.10284">
        <ele>1</ele>
        <time>2018-01-14T01:26:07Z</time>
      </trkpt>
      <trkpt lat="46.81071" lon="-2.10311">
        <ele>2</ele>
        <time>2018-01-14T01:27:07Z</time>
      </trkpt>
      <trkpt lat="46.81082" lon="-2.10346">
        <ele>2</ele>
        <time>2018-01-14T01:28:07Z</time>
      </trkpt>
      <trkpt lat="46.81095" lon="-2.10383">
        <ele>2</ele>
        <time>2018-01-14T01:29:07Z</time>
      </trkpt>
      <trkpt lat="46.81114" lon="-2.10421">
        <ele>2</ele>
        <time>2018-01-14T01:30:07Z</time>
      </trkpt>
      <trkpt lat="46.81142" lon="-2.10473">
        <ele>1</ele>
        <time>2018-01-14T01:31:07Z</time>
      </trkpt>
      <trkpt lat="46.81159" lon="-2.10507">
        <ele>1</ele>
        <time>2018-01-14T01:32:07Z</time>
      </trkpt>
      <trkpt lat="46.81171" lon="-2.10527">
        <ele>1</ele>
        <time>2018-01-14T01:33:07Z</time>
      </trkpt>
      <trkpt lat="46.81189" lon="-2.10551">
        <ele>2</ele>
        <time>2018-01-14T01:34:07Z</time>
      </trkpt>
      <trkpt lat="46.81226" lon="-2.10589">
        <ele>2</ele>
        <time>2018-01-14T01:35:07Z</time>
      </trkpt>
      <trkpt lat="46.81247" lon="-2.10609">
        <ele>1</ele>
        <time>2018-01-14T01:36:07Z</time>
      </trkpt>
      <trkpt lat="46.8127" lon="-2.10627">
        <ele>1</ele>
        <time>2018-01-14T01:37:07Z</time>
      </trkpt>
      <trkpt lat="46.81293" lon="-2.10644">
        <ele>1</ele>
        <time>2018-01-14T01:38:07Z</time>
      </trkpt>
      <trkpt lat="46.81321" lon="-2.10667">
        <ele>2</ele>
        <time>2018-01-14T01:39:07Z</time>
      </trkpt>
      <trkpt lat="46.81341" lon="-2.10681">
        <ele>2</ele>
        <time>2018-01-14T01:40:07Z</time>
      </trkpt>
      <trkpt lat="46.81344" lon="-2.10684">
        <ele>2</ele>
        <time>2018-01-14T01:41:07Z</time>
      </trkpt>
      <trkpt lat="46.81358" lon="-2.10694">
        <ele>2</ele>
        <time>2018-01-14T01:42:07Z</time>
      </trkpt>
      <trkpt lat="46.81369" lon="-2.10702">
        <ele>2</ele>
        <time>2018-01-14T01:43:07Z</time>
      </trkpt>
      <trkpt lat="46.81388" lon="-2.10717">
        <ele>1</ele>
        <time>2018-01-14T01:44:07Z</time>
      </trkpt>
      <trkpt lat="46.81404" lon="-2.1073">
        <ele>1</ele>
        <time>2018-01-14T01:45:07Z</time>
      </trkpt>
      <trkpt lat="46.81422" lon="-2.10745">
        <ele>1</ele>
        <time>2018-01-14T01:46:07Z</time>
      </trkpt>
      <trkpt lat="46.81425" lon="-2.10747">
        <ele>1</ele>
        <time>2018-01-14T01:47:07Z</time>
      </trkpt>
      <trkpt lat="46.81437" lon="-2.10757">
        <ele>1</ele>
        <time>2018-01-14T01:48:07Z</time>
      </trkpt>
      <trkpt lat="46.81452" lon="-2.10773">
        <ele>1.7</ele>
        <time>2018-01-14T01:49:07Z</time>
      </trkpt>
      <trkpt lat="46.81463" lon="-2.10788">
        <ele>1.5</ele>
        <time>2018-01-14T01:50:07Z</time>
      </trkpt>
      <trkpt lat="46.81473" lon="-2.10802">
        <ele>1.9</ele>
        <time>2018-01-14T01:51:07Z</time>
      </trkpt>
      <trkpt lat="46.81482" lon="-2.10816">
        <ele>2</ele>
        <time>2018-01-14T01:52:07Z</time>
      </trkpt>
      <trkpt lat="46.81495" lon="-2.10831">
        <ele>2</ele>
        <time>2018-01-14T01:53:07Z</time>
      </trkpt>
      <trkpt lat="46.81509" lon="-2.10843">
        <ele>2</ele>
        <time>2018-01-14T01:54:07Z</time>
      </trkpt>
      <trkpt lat="46.81526" lon="-2.10852">
        <ele>2</ele>
        <time>2018-01-14T01:55:07Z</time>
      </trkpt>
      <trkpt lat="46.8154" lon="-2.10858">
        <ele>2</ele>
        <time>2018-01-14T01:56:07Z</time>
      </trkpt>
      <trkpt lat="46.81556" lon="-2.10867">
        <ele>1.8</ele>
        <time>2018-01-14T01:57:07Z</time>
      </trkpt>
      <trkpt lat="46.8157" lon="-2.10878">
        <ele>1.5</ele>
        <time>2018-01-14T01:58:07Z</time>
      </trkpt>
      <trkpt lat="46.81581" lon="-2.10893">
        <ele>1.9</ele>
        <time>2018-01-14T01:59:07Z</time>
      </trkpt>
      <trkpt lat="46.81591" lon="-2.10913">
        <ele>2</ele>
        <time>2018-01-14T02:00:07Z</time>
      </trkpt>
      <trkpt lat="46.81601" lon="-2.10939">
        <ele>2</ele>
        <time>2018-01-14T02:01:07Z</time>
      </trkpt>
      <trkpt lat="46.81612" lon="-2.10962">
        <ele>1</ele>
        <time>2018-01-14T02:02:07Z</time>
      </trkpt>
      <trkpt lat="46.81623" lon="-2.10984">
        <ele>1</ele>
        <time>2018-01-14T02:03:07Z</time>
      </trkpt>
      <trkpt lat="46.8163" lon="-2.10997">
        <ele>1</ele>
        <time>2018-01-14T02:04:07Z</time>
      </trkpt>
      <trkpt lat="46.81643" lon="-2.11017">
        <ele>1</ele>
        <time>2018-01-14T02:05:07Z</time>
      </trkpt>
      <trkpt lat="46.81652" lon="-2.11032">
        <ele>1</ele>
        <time>2018-01-14T02:06:07Z</time>
      </trkpt>
      <trkpt lat="46.81664" lon="-2.11054">
        <ele>1.9</ele>
        <time>2018-01-14T02:07:07Z</time>
      </trkpt>
      <trkpt lat="46.81676" lon="-2.11076">
        <ele>1.4</ele>
        <time>2018-01-14T02:08:07Z</time>
      </trkpt>
      <trkpt lat="46.81686" lon="-2.11093">
        <ele>1.8</ele>
        <time>2018-01-14T02:09:07Z</time>
      </trkpt>
      <trkpt lat="46.81703" lon="-2.11109">
        <ele>1</ele>
        <time>2018-01-14T02:10:07Z</time>
      </trkpt>
      <trkpt lat="46.81712" lon="-2.11121">
        <ele>1</ele>
        <time>2018-01-14T02:11:07Z</time>
      </trkpt>
      <trkpt lat="46.81724" lon="-2.11139">
        <ele>1</ele>
        <time>2018-01-14T02:12:07Z</time>
      </trkpt>
      <trkpt lat="46.81731" lon="-2.1115">
        <ele>1</ele>
        <time>2018-01-14T02:13:07Z</time>
      </trkpt>
      <trkpt lat="46.81735" lon="-2.1116">
        <ele>2</ele>
        <time>2018-01-14T02:14:07Z</time>
      </trkpt>
      <trkpt lat="46.81737" lon="-2.11166">
        <ele>2</ele>
        <time>2018-01-14T02:15:07Z</time>
      </trkpt>
      <trkpt lat="46.81738" lon="-2.11173">
        <ele>2</ele>
        <time>2018-01-14T02:16:07Z</time>
      </trkpt>
      <trkpt lat="46.8174" lon="-2.1118">
        <ele>2</ele>
        <time>2018-01-14T02:17:07Z</time>
      </trkpt>
      <trkpt lat="46.81741" lon="-2.11189">
        <ele>2</ele>
        <time>2018-01-14T02:18:07Z</time>
      </trkpt>
      <trkpt lat="46.81743" lon="-2.11209">
        <ele>1</ele>
        <time>2018-01-14T02:19:07Z</time>
      </trkpt>
      <trkpt lat="46.81743" lon="-2.11209">
        <ele>1</ele>
        <time>2018-01-14T02:20:07Z</time>
      </trkpt>
      <trkpt lat="46.8175" lon="-2.11214">
        <ele>1</ele>
        <time>2018-01-14T02:21:07Z</time>
      </trkpt>
      <trkpt lat="46.81761" lon="-2.11222">
        <ele>1</ele>
        <time>2018-01-14T02:22:07Z</time>
      </trkpt>
      <trkpt lat="46.81775" lon="-2.11235">
        <ele>1</ele>
        <time>2018-01-14T02:23:07Z</time>
      </trkpt>
      <trkpt lat="46.81783" lon="-2.11249">
        <ele>1</ele>
        <time>2018-01-14T02:24:07Z</time>
      </trkpt>
      <trkpt lat="46.81787" lon="-2.11254">
        <ele>1</ele>
        <time>2018-01-14T02:25:07Z</time>
      </trkpt>
      <trkpt lat="46.81791" lon="-2.11268">
        <ele>1</ele>
        <time>2018-01-14T02:26:07Z</time>
      </trkpt>
      <trkpt lat="46.81791" lon="-2.11268">
        <ele>1</ele>
        <time>2018-01-14T02:27:07Z</time>
      </trkpt>
      <trkpt lat="46.81793" lon="-2.11277">
        <ele>1</ele>
        <time>2018-01-14T02:28:07Z</time>
      </trkpt>
      <trkpt lat="46.81795" lon="-2.11287">
        <ele>1</ele>
        <time>2018-01-14T02:29:07Z</time>
      </trkpt>
      <trkpt lat="46.81798" lon="-2.11325">
        <ele>1.2</ele>
        <time>2018-01-14T02:30:07Z</time>
      </trkpt>
      <trkpt lat="46.81803" lon="-2.11394">
        <ele>1.9</ele>
        <time>2018-01-14T02:31:07Z</time>
      </trkpt>
      <trkpt lat="46.81807" lon="-2.1143">
        <ele>1</ele>
        <time>2018-01-14T02:32:07Z</time>
      </trkpt>
      <trkpt lat="46.8181" lon="-2.11448">
        <ele>1</ele>
        <time>2018-01-14T02:33:07Z</time>
      </trkpt>
      <trkpt lat="46.81815" lon="-2.11461">
        <ele>1</ele>
        <time>2018-01-14T02:34:07Z</time>
      </trkpt>
      <trkpt lat="46.81821" lon="-2.11472">
        <ele>1</ele>
        <time>2018-01-14T02:35:07Z</time>
      </trkpt>
      <trkpt lat="46.81822" lon="-2.11474">
        <ele>1</ele>
        <time>2018-01-14T02:36:07Z</time>
      </trkpt>
      <trkpt lat="46.81829" lon="-2.11481">
        <ele>1</ele>
        <time>2018-01-14T02:37:07Z</time>
      </trkpt>
      <trkpt lat="46.81834" lon="-2.11484">
        <ele>1</ele>
        <time>2018-01-14T02:38:07Z</time>
      </trkpt>
      <trkpt lat="46.8185" lon="-2.1149">
        <ele>1</ele>
        <time>2018-01-14T02:39:07Z</time>
      </trkpt>
      <trkpt lat="46.81893" lon="-2.11498">
        <ele>1</ele>
        <time>2018-01-14T02:40:07Z</time>
      </trkpt>
      <trkpt lat="46.81932" lon="-2.11506">
        <ele>1</ele>
        <time>2018-01-14T02:41:07Z</time>
      </trkpt>
      <trkpt lat="46.81944" lon="-2.11509">
        <ele>2</ele>
        <time>2018-01-14T02:42:07Z</time>
      </trkpt>
      <trkpt lat="46.81959" lon="-2.11512">
        <ele>2</ele>
        <time>2018-01-14T02:43:07Z</time>
      </trkpt>
      <trkpt lat="46.81976" lon="-2.1152">
        <ele>2</ele>
        <time>2018-01-14T02:44:07Z</time>
      </trkpt>
      <trkpt lat="46.8199" lon="-2.11534">
        <ele>2</ele>
        <time>2018-01-14T02:45:07Z</time>
      </trkpt>
      <trkpt lat="46.82004" lon="-2.11552">
        <ele>2</ele>
        <time>2018-01-14T02:46:07Z</time>
      </trkpt>
      <trkpt lat="46.82027" lon="-2.11593">
        <ele>1</ele>
        <time>2018-01-14T02:47:07Z</time>
      </trkpt>
      <trkpt lat="46.82064" lon="-2.11662">
        <ele>1.7</ele>
        <time>2018-01-14T02:48:07Z</time>
      </trkpt>
      <trkpt lat="46.82091" lon="-2.11712">
        <ele>1.3</ele>
        <time>2018-01-14T02:49:07Z</time>
      </trkpt>
      <trkpt lat="46.82102" lon="-2.11729">
        <ele>1.2</ele>
        <time>2018-01-14T02:50:07Z</time>
      </trkpt>
      <trkpt lat="46.82113" lon="-2.11741">
        <ele>1.6</ele>
        <time>2018-01-14T02:51:07Z</time>
      </trkpt>
      <trkpt lat="46.82136" lon="-2.11763">
        <ele>1.5</ele>
        <time>2018-01-14T02:52:07Z</time>
      </trkpt>
      <trkpt lat="46.82147" lon="-2.11775">
        <ele>1.9</ele>
        <time>2018-01-14T02:53:07Z</time>
      </trkpt>
      <trkpt lat="46.82156" lon="-2.11792">
        <ele>2</ele>
        <time>2018-01-14T02:54:07Z</time>
      </trkpt>
      <trkpt lat="46.82173" lon="-2.11817">
        <ele>1</ele>
        <time>2018-01-14T02:55:07Z</time>
      </trkpt>
      <trkpt lat="46.82191" lon="-2.11843">
        <ele>1</ele>
        <time>2018-01-14T02:56:07Z</time>
      </trkpt>
      <trkpt lat="46.82206" lon="-2.11854">
        <ele>1</ele>
        <time>2018-01-14T02:57:07Z</time>
      </trkpt>
      <trkpt lat="46.82221" lon="-2.11863">
        <ele>1</ele>
        <time>2018-01-14T02:58:07Z</time>
      </trkpt>
      <trkpt lat="46.82231" lon="-2.11871">
        <ele>1</ele>
        <time>2018-01-14T02:59:07Z</time>
      </trkpt>
      <trkpt lat="46.8224" lon="-2.11881">
        <ele>1</ele>
        <time>2018-01-14T03:00:07Z</time>
      </trkpt>
      <trkpt lat="46.82248" lon="-2.11899">
        <ele>1.3</ele>
        <time>2018-01-14T03:01:07Z</time>
      </trkpt>
      <trkpt lat="46.82255" lon="-2.11927">
        <ele>2</ele>
        <time>2018-01-14T03:02:07Z</time>
      </trkpt>
      <trkpt lat="46.82263" lon="-2.11954">
        <ele>2</ele>
        <time>2018-01-14T03:03:07Z</time>
      </trkpt>
      <trkpt lat="46.82271" lon="-2.11968">
        <ele>2</ele>
        <time>2018-01-14T03:04:07Z</time>
      </trkpt>
      <trkpt lat="46.82283" lon="-2.11983">
        <ele>2</ele>
        <time>2018-01-14T03:05:07Z</time>
      </trkpt>
      <trkpt lat="46.82292" lon="-2.11996">
        <ele>2</ele>
        <time>2018-01-14T03:06:07Z</time>
      </trkpt>
      <trkpt lat="46.82303" lon="-2.12025">
        <ele>1.1</ele>
        <time>2018-01-14T03:07:07Z</time>
      </trkpt>
      <trkpt lat="46.82303" lon="-2.12025">
        <ele>1.1</ele>
        <time>2018-01-14T03:08:07Z</time>
      </trkpt>
      <trkpt lat="46.82303" lon="-2.12026">
        <ele>1.1</ele>
        <time>2018-01-14T03:09:07Z</time>
      </trkpt>
      <trkpt lat="46.82315" lon="-2.12069">
        <ele>2</ele>
        <time>2018-01-14T03:10:07Z</time>
      </trkpt>
      <trkpt lat="46.82327" lon="-2.12096">
        <ele>2</ele>
        <time>2018-01-14T03:11:07Z</time>
      </trkpt>
      <trkpt lat="46.82336" lon="-2.12111">
        <ele>1.9</ele>
        <time>2018-01-14T03:12:07Z</time>
      </trkpt>
      <trkpt lat="46.82346" lon="-2.12121">
        <ele>1.5</ele>
        <time>2018-01-14T03:13:07Z</time>
      </trkpt>
      <trkpt lat="46.82356" lon="-2.1213">
        <ele>1.6</ele>
        <time>2018-01-14T03:14:07Z</time>
      </trkpt>
      <trkpt lat="46.82369" lon="-2.12141">
        <ele>1.7</ele>
        <time>2018-01-14T03:15:07Z</time>
      </trkpt>
      <trkpt lat="46.82378" lon="-2.12157">
        <ele>1.4</ele>
        <time>2018-01-14T03:16:07Z</time>
      </trkpt>
      <trkpt lat="46.82386" lon="-2.1219">
        <ele>1.9</ele>
        <time>2018-01-14T03:17:07Z</time>
      </trkpt>
      <trkpt lat="46.824" lon="-2.12246">
        <ele>1.6</ele>
        <time>2018-01-14T03:18:07Z</time>
      </trkpt>
      <trkpt lat="46.82416" lon="-2.12316">
        <ele>2</ele>
        <time>2018-01-14T03:19:07Z</time>
      </trkpt>
      <trkpt lat="46.82422" lon="-2.12354">
        <ele>1.8</ele>
        <time>2018-01-14T03:20:07Z</time>
      </trkpt>
      <trkpt lat="46.82435" lon="-2.12466">
        <ele>1.1</ele>
        <time>2018-01-14T03:21:07Z</time>
      </trkpt>
      <trkpt lat="46.82445" lon="-2.12541">
        <ele>2</ele>
        <time>2018-01-14T03:22:07Z</time>
      </trkpt>
      <trkpt lat="46.82453" lon="-2.12589">
        <ele>1</ele>
        <time>2018-01-14T03:23:07Z</time>
      </trkpt>
      <trkpt lat="46.82471" lon="-2.12674">
        <ele>1</ele>
        <time>2018-01-14T03:24:07Z</time>
      </trkpt>
      <trkpt lat="46.82483" lon="-2.12722">
        <ele>2</ele>
        <time>2018-01-14T03:25:07Z</time>
      </trkpt>
      <trkpt lat="46.82488" lon="-2.12756">
        <ele>3</ele>
        <time>2018-01-14T03:26:07Z</time>
      </trkpt>
      <trkpt lat="46.8249" lon="-2.12801">
        <ele>2</ele>
        <time>2018-01-14T03:27:07Z</time>
      </trkpt>
      <trkpt lat="46.82492" lon="-2.12824">
        <ele>2</ele>
        <time>2018-01-14T03:28:07Z</time>
      </trkpt>
      <trkpt lat="46.82493" lon="-2.12866">
        <ele>2</ele>
        <time>2018-01-14T03:29:07Z</time>
      </trkpt>
      <trkpt lat="46.82492" lon="-2.1288">
        <ele>2</ele>
        <time>2018-01-14T03:30:07Z</time>
      </trkpt>
      <trkpt lat="46.82488" lon="-2.12916">
        <ele>2</ele>
        <time>2018-01-14T03:31:07Z</time>
      </trkpt>
      <trkpt lat="46.82484" lon="-2.12947">
        <ele>3</ele>
        <time>2018-01-14T03:32:07Z</time>
      </trkpt>
      <trkpt lat="46.82482" lon="-2.12957">
        <ele>3</ele>
        <time>2018-01-14T03:33:07Z</time>
      </trkpt>
      <trkpt lat="46.82478" lon="-2.12988">
        <ele>3</ele>
        <time>2018-01-14T03:34:07Z</time>
      </trkpt>
      <trkpt lat="46.82476" lon="-2.13012">
        <ele>3</ele>
        <time>2018-01-14T03:35:07Z</time>
      </trkpt>
      <trkpt lat="46.82475" lon="-2.13031">
        <ele>4</ele>
        <time>2018-01-14T03:36:07Z</time>
      </trkpt>
      <trkpt lat="46.82474" lon="-2.13064">
        <ele>4</ele>
        <time>2018-01-14T03:37:07Z</time>
      </trkpt>
      <trkpt lat="46.82474" lon="-2.1309">
        <ele>4</ele>
        <time>2018-01-14T03:38:07Z</time>
      </trkpt>
      <trkpt lat="46.82475" lon="-2.13102">
        <ele>4</ele>
        <time>2018-01-14T03:39:07Z</time>
      </trkpt>
      <trkpt lat="46.82475" lon="-2.13111">
        <ele>4</ele>
        <time>2018-01-14T03:40:07Z</time>
      </trkpt>
      <trkpt lat="46.82479" lon="-2.1316">
        <ele>4</ele>
        <time>2018-01-14T03:41:07Z</time>
      </trkpt>
      <trkpt lat="46.82479" lon="-2.1316">
        <ele>4</ele>
        <time>2018-01-14T03:42:07Z</time>
      </trkpt>
      <trkpt lat="46.8248" lon="-2.1316">
        <ele>4</ele>
        <time>2018-01-14T03:43:07Z</time>
      </trkpt>
      <trkpt lat="46.82481" lon="-2.1316">
        <ele>4</ele>
        <time>2018-01-14T03:44:07Z</time>
      </trkpt>
      <trkpt lat="46.82482" lon="-2.1316">
        <ele>4</ele>
        <time>2018-01-14T03:45:07Z</time>
      </trkpt>
      <trkpt lat="46.82482" lon="-2.13161">
        <ele>4</ele>
        <time>2018-01-14T03:46:07Z</time>
      </trkpt>
      <trkpt lat="46.82483" lon="-2.13161">
        <ele>4</ele>
        <time>2018-01-14T03:47:07Z</time>
      </trkpt>
      <trkpt lat="46.82484" lon="-2.13162">
        <ele>4</ele>
        <time>2018-01-14T03:48:07Z</time>
      </trkpt>
      <trkpt lat="46.82485" lon="-2.13163">
        <ele>4</ele>
        <time>2018-01-14T03:49:07Z</time>
      </trkpt>
      <trkpt lat="46.82485" lon="-2.13164">
        <ele>4</ele>
        <time>2018-01-14T03:50:07Z</time>
      </trkpt>
      <trkpt lat="46.82486" lon="-2.13164">
        <ele>4</ele>
        <time>2018-01-14T03:51:07Z</time>
      </trkpt>
      <trkpt lat="46.82486" lon="-2.13165">
        <ele>4</ele>
        <time>2018-01-14T03:52:07Z</time>
      </trkpt>
      <trkpt lat="46.82486" lon="-2.13166">
        <ele>4</ele>
        <time>2018-01-14T03:53:07Z</time>
      </trkpt>
      <trkpt lat="46.82487" lon="-2.13166">
        <ele>4</ele>
        <time>2018-01-14T03:54:07Z</time>
      </trkpt>
      <trkpt lat="46.82487" lon="-2.13167">
        <ele>4</ele>
        <time>2018-01-14T03:55:07Z</time>
      </trkpt>
      <trkpt lat="46.82487" lon="-2.13168">
        <ele>4</ele>
        <time>2018-01-14T03:56:07Z</time>
      </trkpt>
      <trkpt lat="46.82487" lon="-2.13169">
        <ele>4</ele>
        <time>2018-01-14T03:57:07Z</time>
      </trkpt>
      <trkpt lat="46.82487" lon="-2.1317">
        <ele>4</ele>
        <time>2018-01-14T03:58:07Z</time>
      </trkpt>
      <trkpt lat="46.82487" lon="-2.13171">
        <ele>4</ele>
        <time>2018-01-14T03:59:07Z</time>
      </trkpt>
      <trkpt lat="46.82487" lon="-2.13172">
        <ele>4</ele>
        <time>2018-01-14T04:00:07Z</time>
      </trkpt>
      <trkpt lat="46.82487" lon="-2.13173">
        <ele>4</ele>
        <time>2018-01-14T04:01:07Z</time>
      </trkpt>
      <trkpt lat="46.82487" lon="-2.13174">
        <ele>4</ele>
        <time>2018-01-14T04:02:07Z</time>
      </trkpt>
      <trkpt lat="46.82487" lon="-2.13175">
        <ele>4</ele>
        <time>2018-01-14T04:03:07Z</time>
      </trkpt>
      <trkpt lat="46.82487" lon="-2.13176">
        <ele>4</ele>
        <time>2018-01-14T04:04:07Z</time>
      </trkpt>
      <trkpt lat="46.82487" lon="-2.13177">
        <ele>4</ele>
        <time>2018-01-14T04:05:07Z</time>
      </trkpt>
      <trkpt lat="46.82486" lon="-2.13177">
        <ele>4</ele>
        <time>2018-01-14T04:06:07Z</time>
      </trkpt>
      <trkpt lat="46.82486" lon="-2.13178">
        <ele>4</ele>
        <time>2018-01-14T04:07:07Z</time>
      </trkpt>
      <trkpt lat="46.82486" lon="-2.13179">
        <ele>4</ele>
        <time>2018-01-14T04:08:07Z</time>
      </trkpt>
      <trkpt lat="46.82485" lon="-2.13179">
        <ele>4</ele>
        <time>2018-01-14T04:09:07Z</time>
      </trkpt>
      <trkpt lat="46.82485" lon="-2.1318">
        <ele>4</ele>
        <time>2018-01-14T04:10:07Z</time>
      </trkpt>
      <trkpt lat="46.82485" lon="-2.13181">
        <ele>4</ele>
        <time>2018-01-14T04:11:07Z</time>
      </trkpt>
      <trkpt lat="46.82484" lon="-2.13181">
        <ele>4</ele>
        <time>2018-01-14T04:12:07Z</time>
      </trkpt>
      <trkpt lat="46.82494" lon="-2.13182">
        <ele>4</ele>
        <time>2018-01-14T04:13:07Z</time>
      </trkpt>
      <trkpt lat="46.82505" lon="-2.13184">
        <ele>4</ele>
        <time>2018-01-14T04:14:07Z</time>
      </trkpt>
      <trkpt lat="46.82512" lon="-2.13185">
        <ele>4</ele>
        <time>2018-01-14T04:15:07Z</time>
      </trkpt>
      <trkpt lat="46.82541" lon="-2.13185">
        <ele>4</ele>
        <time>2018-01-14T04:16:07Z</time>
      </trkpt>
      <trkpt lat="46.82555" lon="-2.13186">
        <ele>4</ele>
        <time>2018-01-14T04:17:07Z</time>
      </trkpt>
      <trkpt lat="46.82564" lon="-2.13186">
        <ele>4</ele>
        <time>2018-01-14T04:18:07Z</time>
      </trkpt>
      <trkpt lat="46.82602" lon="-2.13185">
        <ele>5</ele>
        <time>2018-01-14T04:19:07Z</time>
      </trkpt>
      <trkpt lat="46.82636" lon="-2.13186">
        <ele>5</ele>
        <time>2018-01-14T04:20:07Z</time>
      </trkpt>
      <trkpt lat="46.82673" lon="-2.13186">
        <ele>6</ele>
        <time>2018-01-14T04:21:07Z</time>
      </trkpt>
      <trkpt lat="46.82704" lon="-2.13186">
        <ele>5</ele>
        <time>2018-01-14T04:22:07Z</time>
      </trkpt>
      <trkpt lat="46.82725" lon="-2.13186">
        <ele>5</ele>
        <time>2018-01-14T04:23:07Z</time>
      </trkpt>
      <trkpt lat="46.82728" lon="-2.13186">
        <ele>5</ele>
        <time>2018-01-14T04:24:07Z</time>
      </trkpt>
      <trkpt lat="46.82757" lon="-2.13186">
        <ele>4</ele>
        <time>2018-01-14T04:25:07Z</time>
      </trkpt>
      <trkpt lat="46.82765" lon="-2.13186">
        <ele>4</ele>
        <time>2018-01-14T04:26:07Z</time>
      </trkpt>
      <trkpt lat="46.82803" lon="-2.13187">
        <ele>4</ele>
        <time>2018-01-14T04:27:07Z</time>
      </trkpt>
      <trkpt lat="46.82825" lon="-2.13188">
        <ele>4</ele>
        <time>2018-01-14T04:28:07Z</time>
      </trkpt>
      <trkpt lat="46.82833" lon="-2.13188">
        <ele>5</ele>
        <time>2018-01-14T04:29:07Z</time>
      </trkpt>
      <trkpt lat="46.82854" lon="-2.13188">
        <ele>5</ele>
        <time>2018-01-14T04:30:07Z</time>
      </trkpt>
      <trkpt lat="46.8286" lon="-2.13188">
        <ele>5</ele>
        <time>2018-01-14T04:31:07Z</time>
      </trkpt>
      <trkpt lat="46.82899" lon="-2.13188">
        <ele>5</ele>
        <time>2018-01-14T04:32:07Z</time>
      </trkpt>
      <trkpt lat="46.82925" lon="-2.13187">
        <ele>6</ele>
        <time>2018-01-14T04:33:07Z</time>
      </trkpt>
      <trkpt lat="46.82951" lon="-2.13188">
        <ele>6</ele>
        <time>2018-01-14T04:34:07Z</time>
      </trkpt>
      <trkpt lat="46.82969" lon="-2.13187">
        <ele>6</ele>
        <time>2018-01-14T04:35:07Z</time>
      </trkpt>
      <trkpt lat="46.82977" lon="-2.13187">
        <ele>6</ele>
        <time>2018-01-14T04:36:07Z</time>
      </trkpt>
      <trkpt lat="46.82981" lon="-2.13184">
        <ele>6</ele>
        <time>2018-01-14T04:37:07Z</time>
      </trkpt>
      <trkpt lat="46.82987" lon="-2.1318">
        <ele>6</ele>
        <time>2018-01-14T04:38:07Z</time>
      </trkpt>
      <trkpt lat="46.8299" lon="-2.13178">
        <ele>6</ele>
        <time>2018-01-14T04:39:07Z</time>
      </trkpt>
      <trkpt lat="46.82993" lon="-2.13174">
        <ele>6</ele>
        <time>2018-01-14T04:40:07Z</time>
      </trkpt>
      <trkpt lat="46.82995" lon="-2.13169">
        <ele>6</ele>
        <time>2018-01-14T04:41:07Z</time>
      </trkpt>
      <trkpt lat="46.82995" lon="-2.13169">
        <ele>6</ele>
        <time>2018-01-14T04:42:07Z</time>
      </trkpt>
      <trkpt lat="46.82995" lon="-2.13168">
        <ele>6</ele>
        <time>2018-01-14T04:43:07Z</time>
      </trkpt>
      <trkpt lat="46.82995" lon="-2.13167">
        <ele>6</ele>
        <time>2018-01-14T04:44:07Z</time>
      </trkpt>
      <trkpt lat="46.82995" lon="-2.13166">
        <ele>6</ele>
        <time>2018-01-14T04:45:07Z</time>
      </trkpt>
      <trkpt lat="46.82996" lon="-2.13165">
        <ele>6</ele>
        <time>2018-01-14T04:46:07Z</time>
      </trkpt>
      <trkpt lat="46.82996" lon="-2.13164">
        <ele>6</ele>
        <time>2018-01-14T04:47:07Z</time>
      </trkpt>
      <trkpt lat="46.82996" lon="-2.13163">
        <ele>6</ele>
        <time>2018-01-14T04:48:07Z</time>
      </trkpt>
      <trkpt lat="46.82996" lon="-2.13162">
        <ele>6</ele>
        <time>2018-01-14T04:49:07Z</time>
      </trkpt>
      <trkpt lat="46.82996" lon="-2.13161">
        <ele>6</ele>
        <time>2018-01-14T04:50:07Z</time>
      </trkpt>
      <trkpt lat="46.82997" lon="-2.13161">
        <ele>6</ele>
        <time>2018-01-14T04:51:07Z</time>
      </trkpt>
      <trkpt lat="46.82997" lon="-2.1316">
        <ele>6</ele>
        <time>2018-01-14T04:52:07Z</time>
      </trkpt>
      <trkpt lat="46.82997" lon="-2.13159">
        <ele>6</ele>
        <time>2018-01-14T04:53:07Z</time>
      </trkpt>
      <trkpt lat="46.82998" lon="-2.13159">
        <ele>6</ele>
        <time>2018-01-14T04:54:07Z</time>
      </trkpt>
      <trkpt lat="46.82998" lon="-2.13158">
        <ele>6</ele>
        <time>2018-01-14T04:55:07Z</time>
      </trkpt>
      <trkpt lat="46.82998" lon="-2.13157">
        <ele>6</ele>
        <time>2018-01-14T04:56:07Z</time>
      </trkpt>
      <trkpt lat="46.82999" lon="-2.13157">
        <ele>6</ele>
        <time>2018-01-14T04:57:07Z</time>
      </trkpt>
      <trkpt lat="46.82999" lon="-2.13156">
        <ele>6</ele>
        <time>2018-01-14T04:58:07Z</time>
      </trkpt>
      <trkpt lat="46.83" lon="-2.13156">
        <ele>6</ele>
        <time>2018-01-14T04:59:07Z</time>
      </trkpt>
      <trkpt lat="46.83001" lon="-2.13155">
        <ele>6</ele>
        <time>2018-01-14T05:00:07Z</time>
      </trkpt>
      <trkpt lat="46.83002" lon="-2.13155">
        <ele>6</ele>
        <time>2018-01-14T05:01:07Z</time>
      </trkpt>
      <trkpt lat="46.83002" lon="-2.13154">
        <ele>6</ele>
        <time>2018-01-14T05:02:07Z</time>
      </trkpt>
      <trkpt lat="46.83003" lon="-2.13154">
        <ele>6</ele>
        <time>2018-01-14T05:03:07Z</time>
      </trkpt>
      <trkpt lat="46.83004" lon="-2.13154">
        <ele>6</ele>
        <time>2018-01-14T05:04:07Z</time>
      </trkpt>
      <trkpt lat="46.83005" lon="-2.13154">
        <ele>6</ele>
        <time>2018-01-14T05:05:07Z</time>
      </trkpt>
      <trkpt lat="46.83006" lon="-2.13154">
        <ele>6</ele>
        <time>2018-01-14T05:06:07Z</time>
      </trkpt>
      <trkpt lat="46.83007" lon="-2.13154">
        <ele>6</ele>
        <time>2018-01-14T05:07:07Z</time>
      </trkpt>
      <trkpt lat="46.83008" lon="-2.13154">
        <ele>6</ele>
        <time>2018-01-14T05:08:07Z</time>
      </trkpt>
      <trkpt lat="46.83008" lon="-2.13155">
        <ele>6</ele>
        <time>2018-01-14T05:09:07Z</time>
      </trkpt>
      <trkpt lat="46.83009" lon="-2.13155">
        <ele>6</ele>
        <time>2018-01-14T05:10:07Z</time>
      </trkpt>
      <trkpt lat="46.8301" lon="-2.13155">
        <ele>6</ele>
        <time>2018-01-14T05:11:07Z</time>
      </trkpt>
      <trkpt lat="46.8301" lon="-2.13156">
        <ele>6</ele>
        <time>2018-01-14T05:12:07Z</time>
      </trkpt>
      <trkpt lat="46.83013" lon="-2.13153">
        <ele>6</ele>
        <time>2018-01-14T05:13:07Z</time>
      </trkpt>
      <trkpt lat="46.83016" lon="-2.1315">
        <ele>6</ele>
        <time>2018-01-14T05:14:07Z</time>
      </trkpt>
      <trkpt lat="46.8302" lon="-2.13146">
        <ele>6</ele>
        <time>2018-01-14T05:15:07Z</time>
      </trkpt>
      <trkpt lat="46.83023" lon="-2.13141">
        <ele>5</ele>
        <time>2018-01-14T05:16:07Z</time>
      </trkpt>
      <trkpt lat="46.83028" lon="-2.13132">
        <ele>5</ele>
        <time>2018-01-14T05:17:07Z</time>
      </trkpt>
      <trkpt lat="46.8304" lon="-2.13105">
        <ele>5</ele>
        <time>2018-01-14T05:18:07Z</time>
      </trkpt>
      <trkpt lat="46.83049" lon="-2.13087">
        <ele>5</ele>
        <time>2018-01-14T05:19:07Z</time>
      </trkpt>
      <trkpt lat="46.83051" lon="-2.13082">
        <ele>5</ele>
        <time>2018-01-14T05:20:07Z</time>
      </trkpt>
      <trkpt lat="46.83053" lon="-2.13067">
        <ele>4</ele>
        <time>2018-01-14T05:21:07Z</time>
      </trkpt>
      <trkpt lat="46.83053" lon="-2.13067">
        <ele>4</ele>
        <time>2018-01-14T05:22:07Z</time>
      </trkpt>
      <trkpt lat="46.83052" lon="-2.13066">
        <ele>4</ele>
        <time>2018-01-14T05:23:07Z</time>
      </trkpt>
      <trkpt lat="46.83052" lon="-2.13065">
        <ele>4</ele>
        <time>2018-01-14T05:24:07Z</time>
      </trkpt>
      <trkpt lat="46.83052" lon="-2.13064">
        <ele>4</ele>
        <time>2018-01-14T05:25:07Z</time>
      </trkpt>
      <trkpt lat="46.83052" lon="-2.13063">
        <ele>4</ele>
        <time>2018-01-14T05:26:07Z</time>
      </trkpt>
      <trkpt lat="46.83052" lon="-2.13062">
        <ele>4</ele>
        <time>2018-01-14T05:27:07Z</time>
      </trkpt>
      <trkpt lat="46.83052" lon="-2.13061">
        <ele>4</ele>
        <time>2018-01-14T05:28:07Z</time>
      </trkpt>
      <trkpt lat="46.83051" lon="-2.1306">
        <ele>4</ele>
        <time>2018-01-14T05:29:07Z</time>
      </trkpt>
      <trkpt lat="46.83051" lon="-2.13059">
        <ele>4</ele>
        <time>2018-01-14T05:30:07Z</time>
      </trkpt>
      <trkpt lat="46.83051" lon="-2.13058">
        <ele>4</ele>
        <time>2018-01-14T05:31:07Z</time>
      </trkpt>
      <trkpt lat="46.83052" lon="-2.13057">
        <ele>4</ele>
        <time>2018-01-14T05:32:07Z</time>
      </trkpt>
      <trkpt lat="46.83052" lon="-2.13056">
        <ele>4</ele>
        <time>2018-01-14T05:33:07Z</time>
      </trkpt>
      <trkpt lat="46.83052" lon="-2.13055">
        <ele>4</ele>
        <time>2018-01-14T05:34:07Z</time>
      </trkpt>
      <trkpt lat="46.83052" lon="-2.13054">
        <ele>4</ele>
        <time>2018-01-14T05:35:07Z</time>
      </trkpt>
      <trkpt lat="46.83052" lon="-2.13053">
        <ele>4</ele>
        <time>2018-01-14T05:36:07Z</time>
      </trkpt>
      <trkpt lat="46.83052" lon="-2.13052">
        <ele>4</ele>
        <time>2018-01-14T05:37:07Z</time>
      </trkpt>
      <trkpt lat="46.83053" lon="-2.13051">
        <ele>4</ele>
        <time>2018-01-14T05:38:07Z</time>
      </trkpt>
      <trkpt lat="46.83053" lon="-2.1305">
        <ele>4</ele>
        <time>2018-01-14T05:39:07Z</time>
      </trkpt>
      <trkpt lat="46.83053" lon="-2.13049">
        <ele>4</ele>
        <time>2018-01-14T05:40:07Z</time>
      </trkpt>
      <trkpt lat="46.83054" lon="-2.13048">
        <ele>4</ele>
        <time>2018-01-14T05:41:07Z</time>
      </trkpt>
      <trkpt lat="46.83054" lon="-2.13047">
        <ele>4</ele>
        <time>2018-01-14T05:42:07Z</time>
      </trkpt>
      <trkpt lat="46.83055" lon="-2.13046">
        <ele>4</ele>
        <time>2018-01-14T05:43:07Z</time>
      </trkpt>
      <trkpt lat="46.83056" lon="-2.13045">
        <ele>4</ele>
        <time>2018-01-14T05:44:07Z</time>
      </trkpt>
      <trkpt lat="46.83056" lon="-2.13044">
        <ele>4</ele>
        <time>2018-01-14T05:45:07Z</time>
      </trkpt>
      <trkpt lat="46.83057" lon="-2.13044">
        <ele>4</ele>
        <time>2018-01-14T05:46:07Z</time>
      </trkpt>
      <trkpt lat="46.83058" lon="-2.13043">
        <ele>4</ele>
        <time>2018-01-14T05:47:07Z</time>
      </trkpt>
      <trkpt lat="46.83059" lon="-2.13042">
        <ele>4</ele>
        <time>2018-01-14T05:48:07Z</time>
      </trkpt>
      <trkpt lat="46.8306" lon="-2.13042">
        <ele>4</ele>
        <time>2018-01-14T05:49:07Z</time>
      </trkpt>
      <trkpt lat="46.83061" lon="-2.13041">
        <ele>4</ele>
        <time>2018-01-14T05:50:07Z</time>
      </trkpt>
      <trkpt lat="46.83062" lon="-2.13041">
        <ele>4</ele>
        <time>2018-01-14T05:51:07Z</time>
      </trkpt>
      <trkpt lat="46.83063" lon="-2.13041">
        <ele>4</ele>
        <time>2018-01-14T05:52:07Z</time>
      </trkpt>
      <trkpt lat="46.83064" lon="-2.1304">
        <ele>4</ele>
        <time>2018-01-14T05:53:07Z</time>
      </trkpt>
      <trkpt lat="46.83065" lon="-2.1304">
        <ele>4</ele>
        <time>2018-01-14T05:54:07Z</time>
      </trkpt>
      <trkpt lat="46.83066" lon="-2.1304">
        <ele>4</ele>
        <time>2018-01-14T05:55:07Z</time>
      </trkpt>
      <trkpt lat="46.83067" lon="-2.1304">
        <ele>4</ele>
        <time>2018-01-14T05:56:07Z</time>
      </trkpt>
      <trkpt lat="46.83068" lon="-2.1304">
        <ele>4</ele>
        <time>2018-01-14T05:57:07Z</time>
      </trkpt>
      <trkpt lat="46.83068" lon="-2.13041">
        <ele>4</ele>
        <time>2018-01-14T05:58:07Z</time>
      </trkpt>
      <trkpt lat="46.83069" lon="-2.13041">
        <ele>4</ele>
        <time>2018-01-14T05:59:07Z</time>
      </trkpt>
      <trkpt lat="46.8307" lon="-2.13041">
        <ele>4</ele>
        <time>2018-01-14T06:00:07Z</time>
      </trkpt>
      <trkpt lat="46.8307" lon="-2.13042">
        <ele>4</ele>
        <time>2018-01-14T06:01:07Z</time>
      </trkpt>
      <trkpt lat="46.83071" lon="-2.13042">
        <ele>4</ele>
        <time>2018-01-14T06:02:07Z</time>
      </trkpt>
      <trkpt lat="46.83072" lon="-2.13043">
        <ele>4</ele>
        <time>2018-01-14T06:03:07Z</time>
      </trkpt>
      <trkpt lat="46.83075" lon="-2.13043">
        <ele>4</ele>
        <time>2018-01-14T06:04:07Z</time>
      </trkpt>
      <trkpt lat="46.8308" lon="-2.13042">
        <ele>4</ele>
        <time>2018-01-14T06:05:07Z</time>
      </trkpt>
      <trkpt lat="46.83082" lon="-2.13042">
        <ele>4</ele>
        <time>2018-01-14T06:06:07Z</time>
      </trkpt>
      <trkpt lat="46.83085" lon="-2.13041">
        <ele>4</ele>
        <time>2018-01-14T06:07:07Z</time>
      </trkpt>
      <trkpt lat="46.83094" lon="-2.13035">
        <ele>4</ele>
        <time>2018-01-14T06:08:07Z</time>
      </trkpt>
      <trkpt lat="46.83109" lon="-2.13025">
        <ele>4</ele>
        <time>2018-01-14T06:09:07Z</time>
      </trkpt>
      <trkpt lat="46.83118" lon="-2.13019">
        <ele>4</ele>
        <time>2018-01-14T06:10:07Z</time>
      </trkpt>
      <trkpt lat="46.83146" lon="-2.13003">
        <ele>3</ele>
        <time>2018-01-14T06:11:07Z</time>
      </trkpt>
      <trkpt lat="46.83153" lon="-2.12999">
        <ele>3</ele>
        <time>2018-01-14T06:12:07Z</time>
      </trkpt>
      <trkpt lat="46.83197" lon="-2.12984">
        <ele>3</ele>
        <time>2018-01-14T06:13:07Z</time>
      </trkpt>
      <trkpt lat="46.83209" lon="-2.12969">
        <ele>3</ele>
        <time>2018-01-14T06:14:07Z</time>
      </trkpt>
      <trkpt lat="46.83209" lon="-2.12969">
        <ele>3</ele>
        <time>2018-01-14T06:15:07Z</time>
      </trkpt>
      <trkpt lat="46.83209" lon="-2.12968">
        <ele>3</ele>
        <time>2018-01-14T06:16:07Z</time>
      </trkpt>
      <trkpt lat="46.83209" lon="-2.12967">
        <ele>3</ele>
        <time>2018-01-14T06:17:07Z</time>
      </trkpt>
      <trkpt lat="46.83209" lon="-2.12966">
        <ele>3</ele>
        <time>2018-01-14T06:18:07Z</time>
      </trkpt>
      <trkpt lat="46.83209" lon="-2.12965">
        <ele>3</ele>
        <time>2018-01-14T06:19:07Z</time>
      </trkpt>
      <trkpt lat="46.83209" lon="-2.12964">
        <ele>3</ele>
        <time>2018-01-14T06:20:07Z</time>
      </trkpt>
      <trkpt lat="46.83209" lon="-2.12963">
        <ele>3</ele>
        <time>2018-01-14T06:21:07Z</time>
      </trkpt>
      <trkpt lat="46.83209" lon="-2.12962">
        <ele>3</ele>
        <time>2018-01-14T06:22:07Z</time>
      </trkpt>
      <trkpt lat="46.8321" lon="-2.12961">
        <ele>3</ele>
        <time>2018-01-14T06:23:07Z</time>
      </trkpt>
      <trkpt lat="46.8321" lon="-2.1296">
        <ele>3</ele>
        <time>2018-01-14T06:24:07Z</time>
      </trkpt>
      <trkpt lat="46.8321" lon="-2.12959">
        <ele>3</ele>
        <time>2018-01-14T06:25:07Z</time>
      </trkpt>
      <trkpt lat="46.83211" lon="-2.12959">
        <ele>3</ele>
        <time>2018-01-14T06:26:07Z</time>
      </trkpt>
      <trkpt lat="46.83211" lon="-2.12958">
        <ele>3</ele>
        <time>2018-01-14T06:27:07Z</time>
      </trkpt>
      <trkpt lat="46.83212" lon="-2.12957">
        <ele>3</ele>
        <time>2018-01-14T06:28:07Z</time>
      </trkpt>
      <trkpt lat="46.83212" lon="-2.12956">
        <ele>3</ele>
        <time>2018-01-14T06:29:07Z</time>
      </trkpt>
      <trkpt lat="46.83213" lon="-2.12956">
        <ele>3</ele>
        <time>2018-01-14T06:30:07Z</time>
      </trkpt>
      <trkpt lat="46.83213" lon="-2.12955">
        <ele>3</ele>
        <time>2018-01-14T06:31:07Z</time>
      </trkpt>
      <trkpt lat="46.83214" lon="-2.12955">
        <ele>3</ele>
        <time>2018-01-14T06:32:07Z</time>
      </trkpt>
      <trkpt lat="46.83214" lon="-2.12954">
        <ele>3</ele>
        <time>2018-01-14T06:33:07Z</time>
      </trkpt>
      <trkpt lat="46.83215" lon="-2.12954">
        <ele>3</ele>
        <time>2018-01-14T06:34:07Z</time>
      </trkpt>
      <trkpt lat="46.83215" lon="-2.12953">
        <ele>3</ele>
        <time>2018-01-14T06:35:07Z</time>
      </trkpt>
      <trkpt lat="46.83216" lon="-2.12953">
        <ele>3</ele>
        <time>2018-01-14T06:36:07Z</time>
      </trkpt>
      <trkpt lat="46.83225" lon="-2.12923">
        <ele>2</ele>
        <time>2018-01-14T06:37:07Z</time>
      </trkpt>
      <trkpt lat="46.83222" lon="-2.12905">
        <ele>2</ele>
        <time>2018-01-14T06:38:07Z</time>
      </trkpt>
      <trkpt lat="46.83219" lon="-2.1288">
        <ele>3</ele>
        <time>2018-01-14T06:39:07Z</time>
      </trkpt>
      <trkpt lat="46.83217" lon="-2.12845">
        <ele>3</ele>
        <time>2018-01-14T06:40:07Z</time>
      </trkpt>
      <trkpt lat="46.83216" lon="-2.12833">
        <ele>3</ele>
        <time>2018-01-14T06:41:07Z</time>
      </trkpt>
      <trkpt lat="46.83209" lon="-2.12771">
        <ele>2</ele>
        <time>2018-01-14T06:42:07Z</time>
      </trkpt>
      <trkpt lat="46.83208" lon="-2.12726">
        <ele>1</ele>
        <time>2018-01-14T06:43:07Z</time>
      </trkpt>
      <trkpt lat="46.83207" lon="-2.12711">
        <ele>1</ele>
        <time>2018-01-14T06:44:07Z</time>
      </trkpt>
      <trkpt lat="46.83208" lon="-2.12682">
        <ele>2</ele>
        <time>2018-01-14T06:45:07Z</time>
      </trkpt>
      <trkpt lat="46.83211" lon="-2.12659">
        <ele>2</ele>
        <time>2018-01-14T06:46:07Z</time>
      </trkpt>
      <trkpt lat="46.83212" lon="-2.12652">
        <ele>2</ele>
        <time>2018-01-14T06:47:07Z</time>
      </trkpt>
      <trkpt lat="46.83221" lon="-2.12617">
        <ele>1</ele>
        <time>2018-01-14T06:48:07Z</time>
      </trkpt>
      <trkpt lat="46.83235" lon="-2.12573">
        <ele>1</ele>
        <time>2018-01-14T06:49:07Z</time>
      </trkpt>
      <trkpt lat="46.83253" lon="-2.12518">
        <ele>1</ele>
        <time>2018-01-14T06:50:07Z</time>
      </trkpt>
      <trkpt lat="46.8327" lon="-2.12469">
        <ele>1</ele>
        <time>2018-01-14T06:51:07Z</time>
      </trkpt>
      <trkpt lat="46.83274" lon="-2.12455">
        <ele>1</ele>
        <time>2018-01-14T06:52:07Z</time>
      </trkpt>
      <trkpt lat="46.8329" lon="-2.1241">
        <ele>1</ele>
        <time>2018-01-14T06:53:07Z</time>
      </trkpt>
      <trkpt lat="46.833" lon="-2.12378">
        <ele>1</ele>
        <time>2018-01-14T06:54:07Z</time>
      </trkpt>
      <trkpt lat="46.83304" lon="-2.12367">
        <ele>1</ele>
        <time>2018-01-14T06:55:07Z</time>
      </trkpt>
      <trkpt lat="46.83315" lon="-2.12331">
        <ele>1</ele>
        <time>2018-01-14T06:56:07Z</time>
      </trkpt>
      <trkpt lat="46.83322" lon="-2.123">
        <ele>1</ele>
        <time>2018-01-14T06:57:07Z</time>
      </trkpt>
      <trkpt lat="46.83325" lon="-2.1228">
        <ele>1</ele>
        <time>2018-01-14T06:58:07Z</time>
      </trkpt>
      <trkpt lat="46.83327" lon="-2.12252">
        <ele>1</ele>
        <time>2018-01-14T06:59:07Z</time>
      </trkpt>
      <trkpt lat="46.83331" lon="-2.12219">
        <ele>2</ele>
        <time>2018-01-14T07:00:07Z</time>
      </trkpt>
      <trkpt lat="46.83333" lon="-2.12171">
        <ele>1.2</ele>
        <time>2018-01-14T07:01:07Z</time>
      </trkpt>
      <trkpt lat="46.83334" lon="-2.12159">
        <ele>1.3</ele>
        <time>2018-01-14T07:02:07Z</time>
      </trkpt>
      <trkpt lat="46.83334" lon="-2.12146">
        <ele>1.7</ele>
        <time>2018-01-14T07:03:07Z</time>
      </trkpt>
      <trkpt lat="46.83337" lon="-2.12083">
        <ele>1</ele>
        <time>2018-01-14T07:04:07Z</time>
      </trkpt>
      <trkpt lat="46.8334" lon="-2.12047">
        <ele>1</ele>
        <time>2018-01-14T07:05:07Z</time>
      </trkpt>
      <trkpt lat="46.83343" lon="-2.12021">
        <ele>1</ele>
        <time>2018-01-14T07:06:07Z</time>
      </trkpt>
      <trkpt lat="46.83347" lon="-2.12">
        <ele>1</ele>
        <time>2018-01-14T07:07:07Z</time>
      </trkpt>
      <trkpt lat="46.83352" lon="-2.11979">
        <ele>1</ele>
        <time>2018-01-14T07:08:07Z</time>
      </trkpt>
      <trkpt lat="46.8336" lon="-2.11956">
        <ele>1</ele>
        <time>2018-01-14T07:09:07Z</time>
      </trkpt>
      <trkpt lat="46.83376" lon="-2.11917">
        <ele>1</ele>
        <time>2018-01-14T07:10:07Z</time>
      </trkpt>
      <trkpt lat="46.83387" lon="-2.11888">
        <ele>1</ele>
        <time>2018-01-14T07:11:07Z</time>
      </trkpt>
      <trkpt lat="46.83402" lon="-2.11852">
        <ele>1</ele>
        <time>2018-01-14T07:12:07Z</time>
      </trkpt>
      <trkpt lat="46.83414" lon="-2.11827">
        <ele>1</ele>
        <time>2018-01-14T07:13:07Z</time>
      </trkpt>
      <trkpt lat="46.83427" lon="-2.11805">
        <ele>1</ele>
        <time>2018-01-14T07:14:07Z</time>
      </trkpt>
      <trkpt lat="46.83454" lon="-2.11761">
        <ele>1</ele>
        <time>2018-01-14T07:15:07Z</time>
      </trkpt>
      <trkpt lat="46.83474" lon="-2.11726">
        <ele>1</ele>
        <time>2018-01-14T07:16:07Z</time>
      </trkpt>
      <trkpt lat="46.83477" lon="-2.11721">
        <ele>1</ele>
        <time>2018-01-14T07:17:07Z</time>
      </trkpt>
      <trkpt lat="46.8348" lon="-2.11715">
        <ele>1</ele>
        <time>2018-01-14T07:18:07Z</time>
      </trkpt>
      <trkpt lat="46.83501" lon="-2.11687">
        <ele>2</ele>
        <time>2018-01-14T07:19:07Z</time>
      </trkpt>
      <trkpt lat="46.83508" lon="-2.11679">
        <ele>2</ele>
        <time>2018-01-14T07:20:07Z</time>
      </trkpt>
      <trkpt lat="46.83532" lon="-2.11662">
        <ele>1</ele>
        <time>2018-01-14T07:21:07Z</time>
      </trkpt>
      <trkpt lat="46.83544" lon="-2.11656">
        <ele>1</ele>
        <time>2018-01-14T07:22:07Z</time>
      </trkpt>
      <trkpt lat="46.83561" lon="-2.11649">
        <ele>1</ele>
        <time>2018-01-14T07:23:07Z</time>
      </trkpt>
      <trkpt lat="46.83571" lon="-2.11642">
        <ele>1</ele>
        <time>2018-01-14T07:24:07Z</time>
      </trkpt>
      <trkpt lat="46.83591" lon="-2.11621">
        <ele>2</ele>
        <time>2018-01-14T07:25:07Z</time>
      </trkpt>
      <trkpt lat="46.83609" lon="-2.11596">
        <ele>1</ele>
        <time>2018-01-14T07:26:07Z</time>
      </trkpt>
      <trkpt lat="46.8362" lon="-2.11575">
        <ele>1</ele>
        <time>2018-01-14T07:27:07Z</time>
      </trkpt>
      <trkpt lat="46.83625" lon="-2.11556">
        <ele>1</ele>
        <time>2018-01-14T07:28:07Z</time>
      </trkpt>
      <trkpt lat="46.83632" lon="-2.11521">
        <ele>1</ele>
        <time>2018-01-14T07:29:07Z</time>
      </trkpt>
      <trkpt lat="46.83641" lon="-2.11463">
        <ele>2</ele>
        <time>2018-01-14T07:30:07Z</time>
      </trkpt>
      <trkpt lat="46.83652" lon="-2.11396">
        <ele>1</ele>
        <time>2018-01-14T07:31:07Z</time>
      </trkpt>
      <trkpt lat="46.8366" lon="-2.11342">
        <ele>1</ele>
        <time>2018-01-14T07:32:07Z</time>
      </trkpt>
      <trkpt lat="46.83667" lon="-2.113">
        <ele>1</ele>
        <time>2018-01-14T07:33:07Z</time>
      </trkpt>
      <trkpt lat="46.83679" lon="-2.1122">
        <ele>1</ele>
        <time>2018-01-14T07:34:07Z</time>
      </trkpt>
      <trkpt lat="46.83696" lon="-2.11136">
        <ele>1</ele>
        <time>2018-01-14T07:35:07Z</time>
      </trkpt>
      <trkpt lat="46.83708" lon="-2.11099">
        <ele>1</ele>
        <time>2018-01-14T07:36:07Z</time>
      </trkpt>
      <trkpt lat="46.83713" lon="-2.11084">
        <ele>1</ele>
        <time>2018-01-14T07:37:07Z</time>
      </trkpt>
      <trkpt lat="46.83723" lon="-2.11061">
        <ele>1</ele>
        <time>2018-01-14T07:38:07Z</time>
      </trkpt>
      <trkpt lat="46.83737" lon="-2.11036">
        <ele>1</ele>
        <time>2018-01-14T07:39:07Z</time>
      </trkpt>
      <trkpt lat="46.83752" lon="-2.11016">
        <ele>1</ele>
        <time>2018-01-14T07:40:07Z</time>
      </trkpt>
      <trkpt lat="46.8376" lon="-2.11004">
        <ele>1</ele>
        <time>2018-01-14T07:41:07Z</time>
      </trkpt>
      <trkpt lat="46.83766" lon="-2.10992">
        <ele>1</ele>
        <time>2018-01-14T07:42:07Z</time>
      </trkpt>
      <trkpt lat="46.8377" lon="-2.10984">
        <ele>1</ele>
        <time>2018-01-14T07:43:07Z</time>
      </trkpt>
      <trkpt lat="46.83772" lon="-2.10976">
        <ele>1</ele>
        <time>2018-01-14T07:44:07Z</time>
      </trkpt>
      <trkpt lat="46.83778" lon="-2.10942">
        <ele>1</ele>
        <time>2018-01-14T07:45:07Z</time>
      </trkpt>
      <trkpt lat="46.83787" lon="-2.10883">
        <ele>1</ele>
        <time>2018-01-14T07:46:07Z</time>
      </trkpt>
      <trkpt lat="46.83801" lon="-2.10816">
        <ele>2</ele>
        <time>2018-01-14T07:47:07Z</time>
      </trkpt>
      <trkpt lat="46.83806" lon="-2.10775">
        <ele>1.9</ele>
        <time>2018-01-14T07:48:07Z</time>
      </trkpt>
      <trkpt lat="46.8381" lon="-2.10732">
        <ele>1.5</ele>
        <time>2018-01-14T07:49:07Z</time>
      </trkpt>
      <trkpt lat="46.83819" lon="-2.10684">
        <ele>2</ele>
        <time>2018-01-14T07:50:07Z</time>
      </trkpt>
      <trkpt lat="46.8383" lon="-2.1062">
        <ele>1.4</ele>
        <time>2018-01-14T07:51:07Z</time>
      </trkpt>
      <trkpt lat="46.83834" lon="-2.10598">
        <ele>1.5</ele>
        <time>2018-01-14T07:52:07Z</time>
      </trkpt>
      <trkpt lat="46.83832" lon="-2.10577">
        <ele>2</ele>
        <time>2018-01-14T07:53:07Z</time>
      </trkpt>
      <trkpt lat="46.83829" lon="-2.10567">
        <ele>2</ele>
        <time>2018-01-14T07:54:07Z</time>
      </trkpt>
      <trkpt lat="46.83815" lon="-2.10526">
        <ele>2</ele>
        <time>2018-01-14T07:55:07Z</time>
      </trkpt>
      <trkpt lat="46.83806" lon="-2.10504">
        <ele>2</ele>
        <time>2018-01-14T07:56:07Z</time>
      </trkpt>
      <trkpt lat="46.83803" lon="-2.10493">
        <ele>2</ele>
        <time>2018-01-14T07:57:07Z</time>
      </trkpt>
      <trkpt lat="46.838" lon="-2.10481">
        <ele>2</ele>
        <time>2018-01-14T07:58:07Z</time>
      </trkpt>
      <trkpt lat="46.83798" lon="-2.10469">
        <ele>2</ele>
        <time>2018-01-14T07:59:07Z</time>
      </trkpt>
      <trkpt lat="46.83795" lon="-2.10444">
        <ele>2</ele>
        <time>2018-01-14T08:00:07Z</time>
      </trkpt>
      <trkpt lat="46.83794" lon="-2.10426">
        <ele>2</ele>
        <time>2018-01-14T08:01:07Z</time>
      </trkpt>
      <trkpt lat="46.83793" lon="-2.10415">
        <ele>1</ele>
        <time>2018-01-14T08:02:07Z</time>
      </trkpt>
      <trkpt lat="46.83788" lon="-2.10347">
        <ele>2</ele>
        <time>2018-01-14T08:03:07Z</time>
      </trkpt>
      <trkpt lat="46.83784" lon="-2.10289">
        <ele>2</ele>
        <time>2018-01-14T08:04:07Z</time>
      </trkpt>
      <trkpt lat="46.83776" lon="-2.10205">
        <ele>2</ele>
        <time>2018-01-14T08:05:07Z</time>
      </trkpt>
      <trkpt lat="46.83766" lon="-2.10104">
        <ele>2</ele>
        <time>2018-01-14T08:06:07Z</time>
      </trkpt>
      <trkpt lat="46.83759" lon="-2.10035">
        <ele>5</ele>
        <time>2018-01-14T08:07:07Z</time>
      </trkpt>
      <trkpt lat="46.83755" lon="-2.09985">
        <ele>2</ele>
        <time>2018-01-14T08:08:07Z</time>
      </trkpt>
      <trkpt lat="46.83752" lon="-2.09965">
        <ele>2</ele>
        <time>2018-01-14T08:09:07Z</time>
      </trkpt>
      <trkpt lat="46.83751" lon="-2.0996">
        <ele>2</ele>
        <time>2018-01-14T08:10:07Z</time>
      </trkpt>
      <trkpt lat="46.83746" lon="-2.09952">
        <ele>2</ele>
        <time>2018-01-14T08:11:07Z</time>
      </trkpt>
      <trkpt lat="46.83742" lon="-2.09945">
        <ele>2</ele>
        <time>2018-01-14T08:12:07Z</time>
      </trkpt>
      <trkpt lat="46.83739" lon="-2.09942">
        <ele>2</ele>
        <time>2018-01-14T08:13:07Z</time>
      </trkpt>
      <trkpt lat="46.83715" lon="-2.09931">
        <ele>1</ele>
        <time>2018-01-14T08:14:07Z</time>
      </trkpt>
      <trkpt lat="46.83708" lon="-2.09928">
        <ele>1</ele>
        <time>2018-01-14T08:15:07Z</time>
      </trkpt>
      <trkpt lat="46.83703" lon="-2.09925">
        <ele>1</ele>
        <time>2018-01-14T08:16:07Z</time>
      </trkpt>
      <trkpt lat="46.83701" lon="-2.09924">
        <ele>1</ele>
        <time>2018-01-14T08:17:07Z</time>
      </trkpt>
      <trkpt lat="46.83692" lon="-2.09914">
        <ele>1</ele>
        <time>2018-01-14T08:18:07Z</time>
      </trkpt>
      <trkpt lat="46.83688" lon="-2.09908">
        <ele>1</ele>
        <time>2018-01-14T08:19:07Z</time>
      </trkpt>
      <trkpt lat="46.83677" lon="-2.09878">
        <ele>1</ele>
        <time>2018-01-14T08:20:07Z</time>
      </trkpt>
      <trkpt lat="46.83655" lon="-2.09808">
        <ele>1</ele>
        <time>2018-01-14T08:21:07Z</time>
      </trkpt>
      <trkpt lat="46.83619" lon="-2.09693">
        <ele>2</ele>
        <time>2018-01-14T08:22:07Z</time>
      </trkpt>
      <trkpt lat="46.83584" lon="-2.09577">
        <ele>2</ele>
        <time>2018-01-14T08:23:07Z</time>
      </trkpt>
      <trkpt lat="46.83574" lon="-2.09546">
        <ele>2</ele>
        <time>2018-01-14T08:24:07Z</time>
      </trkpt>
      <trkpt lat="46.83546" lon="-2.09454">
        <ele>1.8</ele>
        <time>2018-01-14T08:25:07Z</time>
      </trkpt>
      <trkpt lat="46.83526" lon="-2.09392">
        <ele>1.9</ele>
        <time>2018-01-14T08:26:07Z</time>
      </trkpt>
      <trkpt lat="46.83507" lon="-2.09341">
        <ele>1.2</ele>
        <time>2018-01-14T08:27:07Z</time>
      </trkpt>
      <trkpt lat="46.83481" lon="-2.09282">
        <ele>1</ele>
        <time>2018-01-14T08:28:07Z</time>
      </trkpt>
      <trkpt lat="46.8345" lon="-2.09216">
        <ele>1</ele>
        <time>2018-01-14T08:29:07Z</time>
      </trkpt>
      <trkpt lat="46.83433" lon="-2.09179">
        <ele>1</ele>
        <time>2018-01-14T08:30:07Z</time>
      </trkpt>
      <trkpt lat="46.8342" lon="-2.09151">
        <ele>1.6</ele>
        <time>2018-01-14T08:31:07Z</time>
      </trkpt>
      <trkpt lat="46.83408" lon="-2.09119">
        <ele>2</ele>
        <time>2018-01-14T08:32:07Z</time>
      </trkpt>
      <trkpt lat="46.83401" lon="-2.09096">
        <ele>1.7</ele>
        <time>2018-01-14T08:33:07Z</time>
      </trkpt>
      <trkpt lat="46.83391" lon="-2.09055">
        <ele>2</ele>
        <time>2018-01-14T08:34:07Z</time>
      </trkpt>
      <trkpt lat="46.83374" lon="-2.08982">
        <ele>2</ele>
        <time>2018-01-14T08:35:07Z</time>
      </trkpt>
      <trkpt lat="46.83359" lon="-2.08919">
        <ele>2</ele>
        <time>2018-01-14T08:36:07Z</time>
      </trkpt>
      <trkpt lat="46.83342" lon="-2.08851">
        <ele>1.3</ele>
        <time>2018-01-14T08:37:07Z</time>
      </trkpt>
      <trkpt lat="46.83327" lon="-2.08792">
        <ele>2</ele>
        <time>2018-01-14T08:38:07Z</time>
      </trkpt>
      <trkpt lat="46.83308" lon="-2.0871">
        <ele>1.9</ele>
        <time>2018-01-14T08:39:07Z</time>
      </trkpt>
      <trkpt lat="46.83304" lon="-2.08695">
        <ele>2</ele>
        <time>2018-01-14T08:40:07Z</time>
      </trkpt>
      <trkpt lat="46.83296" lon="-2.08661">
        <ele>2</ele>
        <time>2018-01-14T08:41:07Z</time>
      </trkpt>
      <trkpt lat="46.8328" lon="-2.08594">
        <ele>1.6</ele>
        <time>2018-01-14T08:42:07Z</time>
      </trkpt>
      <trkpt lat="46.8326" lon="-2.0851">
        <ele>2</ele>
        <time>2018-01-14T08:43:07Z</time>
      </trkpt>
      <trkpt lat="46.8325" lon="-2.08464">
        <ele>2</ele>
        <time>2018-01-14T08:44:07Z</time>
      </trkpt>
      <trkpt lat="46.83244" lon="-2.08434">
        <ele>2</ele>
        <time>2018-01-14T08:45:07Z</time>
      </trkpt>
      <trkpt lat="46.83244" lon="-2.08425">
        <ele>2</ele>
        <time>2018-01-14T08:46:07Z</time>
      </trkpt>
      <trkpt lat="46.83243" lon="-2.08417">
        <ele>2</ele>
        <time>2018-01-14T08:47:07Z</time>
      </trkpt>
      <trkpt lat="46.83244" lon="-2.08409">
        <ele>1.9</ele>
        <time>2018-01-14T08:48:07Z</time>
      </trkpt>
      <trkpt lat="46.83245" lon="-2.08401">
        <ele>1.9</ele>
        <time>2018-01-14T08:49:07Z</time>
      </trkpt>
      <trkpt lat="46.83248" lon="-2.08393">
        <ele>1.9</ele>
        <time>2018-01-14T08:50:07Z</time>
      </trkpt>
      <trkpt lat="46.83254" lon="-2.08382">
        <ele>1.8</ele>
        <time>2018-01-14T08:51:07Z</time>
      </trkpt>
      <trkpt lat="46.83267" lon="-2.0837">
        <ele>1.7</ele>
        <time>2018-01-14T08:52:07Z</time>
      </trkpt>
      <trkpt lat="46.83288" lon="-2.08353">
        <ele>1.9</ele>
        <time>2018-01-14T08:53:07Z</time>
      </trkpt>
      <trkpt lat="46.83306" lon="-2.0834">
        <ele>1.2</ele>
        <time>2018-01-14T08:54:07Z</time>
      </trkpt>
      <trkpt lat="46.83313" lon="-2.08336">
        <ele>1.1</ele>
        <time>2018-01-14T08:55:07Z</time>
      </trkpt>
      <trkpt lat="46.83319" lon="-2.08331">
        <ele>1</ele>
        <time>2018-01-14T08:56:07Z</time>
      </trkpt>
      <trkpt lat="46.83346" lon="-2.0831">
        <ele>1</ele>
        <time>2018-01-14T08:57:07Z</time>
      </trkpt>
      <trkpt lat="46.83359" lon="-2.08288">
        <ele>1</ele>
        <time>2018-01-14T08:58:07Z</time>
      </trkpt>
      <trkpt lat="46.83362" lon="-2.08279">
        <ele>1</ele>
        <time>2018-01-14T08:59:07Z</time>
      </trkpt>
      <trkpt lat="46.83364" lon="-2.0827">
        <ele>1</ele>
        <time>2018-01-14T09:00:07Z</time>
      </trkpt>
      <trkpt lat="46.83365" lon="-2.08257">
        <ele>1</ele>
        <time>2018-01-14T09:01:07Z</time>
      </trkpt>
      <trkpt lat="46.83365" lon="-2.08224">
        <ele>1.2</ele>
        <time>2018-01-14T09:02:07Z</time>
      </trkpt>
      <trkpt lat="46.83359" lon="-2.08155">
        <ele>2</ele>
        <time>2018-01-14T09:03:07Z</time>
      </trkpt>
      <trkpt lat="46.83353" lon="-2.0809">
        <ele>1</ele>
        <time>2018-01-14T09:04:07Z</time>
      </trkpt>
      <trkpt lat="46.83345" lon="-2.0798">
        <ele>2</ele>
        <time>2018-01-14T09:05:07Z</time>
      </trkpt>
      <trkpt lat="46.83339" lon="-2.07881">
        <ele>2</ele>
        <time>2018-01-14T09:06:07Z</time>
      </trkpt>
      <trkpt lat="46.8333" lon="-2.0778">
        <ele>1</ele>
        <time>2018-01-14T09:07:07Z</time>
      </trkpt>
      <trkpt lat="46.83324" lon="-2.07697">
        <ele>1</ele>
        <time>2018-01-14T09:08:07Z</time>
      </trkpt>
      <trkpt lat="46.8332" lon="-2.07637">
        <ele>1.5</ele>
        <time>2018-01-14T09:09:07Z</time>
      </trkpt>
      <trkpt lat="46.83317" lon="-2.07608">
        <ele>2</ele>
        <time>2018-01-14T09:10:07Z</time>
      </trkpt>
      <trkpt lat="46.83314" lon="-2.07562">
        <ele>2</ele>
        <time>2018-01-14T09:11:07Z</time>
      </trkpt>
      <trkpt lat="46.8331" lon="-2.07518">
        <ele>1.4</ele>
        <time>2018-01-14T09:12:07Z</time>
      </trkpt>
      <trkpt lat="46.83306" lon="-2.07496">
        <ele>2</ele>
        <time>2018-01-14T09:13:07Z</time>
      </trkpt>
      <trkpt lat="46.833" lon="-2.0746">
        <ele>2</ele>
        <time>2018-01-14T09:14:07Z</time>
      </trkpt>
      <trkpt lat="46.83294" lon="-2.07424">
        <ele>1</ele>
        <time>2018-01-14T09:15:07Z</time>
      </trkpt>
      <trkpt lat="46.83283" lon="-2.07369">
        <ele>1</ele>
        <time>2018-01-14T09:16:07Z</time>
      </trkpt>
      <trkpt lat="46.83273" lon="-2.07316">
        <ele>1</ele>
        <time>2018-01-14T09:17:07Z</time>
      </trkpt>
      <trkpt lat="46.83268" lon="-2.07295">
        <ele>1</ele>
        <time>2018-01-14T09:18:07Z</time>
      </trkpt>
      <trkpt lat="46.83259" lon="-2.07247">
        <ele>1</ele>
        <time>2018-01-14T09:19:07Z</time>
      </trkpt>
      <trkpt lat="46.83247" lon="-2.07186">
        <ele>2</ele>
        <time>2018-01-14T09:20:07Z</time>
      </trkpt>
      <trkpt lat="46.83234" lon="-2.0712">
        <ele>2</ele>
        <time>2018-01-14T09:21:07Z</time>
      </trkpt>
      <trkpt lat="46.83228" lon="-2.07085">
        <ele>2</ele>
        <time>2018-01-14T09:22:07Z</time>
      </trkpt>
      <trkpt lat="46.83227" lon="-2.07061">
        <ele>2</ele>
        <time>2018-01-14T09:23:07Z</time>
      </trkpt>
      <trkpt lat="46.83227" lon="-2.07029">
        <ele>2</ele>
        <time>2018-01-14T09:24:07Z</time>
      </trkpt>
      <trkpt lat="46.83228" lon="-2.06992">
        <ele>1.1</ele>
        <time>2018-01-14T09:25:07Z</time>
      </trkpt>
      <trkpt lat="46.83229" lon="-2.06945">
        <ele>2</ele>
        <time>2018-01-14T09:26:07Z</time>
      </trkpt>
      <trkpt lat="46.83228" lon="-2.06917">
        <ele>2</ele>
        <time>2018-01-14T09:27:07Z</time>
      </trkpt>
      <trkpt lat="46.83225" lon="-2.06896">
        <ele>2</ele>
        <time>2018-01-14T09:28:07Z</time>
      </trkpt>
      <trkpt lat="46.83219" lon="-2.06876">
        <ele>1.6</ele>
        <time>2018-01-14T09:29:07Z</time>
      </trkpt>
      <trkpt lat="46.83208" lon="-2.06853">
        <ele>1.7</ele>
        <time>2018-01-14T09:30:07Z</time>
      </trkpt>
      <trkpt lat="46.83191" lon="-2.06822">
        <ele>2</ele>
        <time>2018-01-14T09:31:07Z</time>
      </trkpt>
      <trkpt lat="46.83175" lon="-2.06792">
        <ele>2</ele>
        <time>2018-01-14T09:32:07Z</time>
      </trkpt>
      <trkpt lat="46.83163" lon="-2.06763">
        <ele>2</ele>
        <time>2018-01-14T09:33:07Z</time>
      </trkpt>
      <trkpt lat="46.83156" lon="-2.06734">
        <ele>1.6</ele>
        <time>2018-01-14T09:34:07Z</time>
      </trkpt>
      <trkpt lat="46.83152" lon="-2.06716">
        <ele>1.6</ele>
        <time>2018-01-14T09:35:07Z</time>
      </trkpt>
      <trkpt lat="46.8315" lon="-2.0671">
        <ele>1.8</ele>
        <time>2018-01-14T09:36:07Z</time>
      </trkpt>
      <trkpt lat="46.83149" lon="-2.06703">
        <ele>1.9</ele>
        <time>2018-01-14T09:37:07Z</time>
      </trkpt>
      <trkpt lat="46.83144" lon="-2.0668">
        <ele>1</ele>
        <time>2018-01-14T09:38:07Z</time>
      </trkpt>
      <trkpt lat="46.83133" lon="-2.06628">
        <ele>1</ele>
        <time>2018-01-14T09:39:07Z</time>
      </trkpt>
      <trkpt lat="46.83119" lon="-2.06568">
        <ele>1</ele>
        <time>2018-01-14T09:40:07Z</time>
      </trkpt>
      <trkpt lat="46.83111" lon="-2.06536">
        <ele>2</ele>
        <time>2018-01-14T09:41:07Z</time>
      </trkpt>
      <trkpt lat="46.83103" lon="-2.0651">
        <ele>2</ele>
        <time>2018-01-14T09:42:07Z</time>
      </trkpt>
      <trkpt lat="46.83085" lon="-2.06452">
        <ele>2</ele>
        <time>2018-01-14T09:43:07Z</time>
      </trkpt>
      <trkpt lat="46.8307" lon="-2.06407">
        <ele>1</ele>
        <time>2018-01-14T09:44:07Z</time>
      </trkpt>
      <trkpt lat="46.83069" lon="-2.06404">
        <ele>1</ele>
        <time>2018-01-14T09:45:07Z</time>
      </trkpt>
      <trkpt lat="46.83061" lon="-2.06382">
        <ele>1</ele>
        <time>2018-01-14T09:46:07Z</time>
      </trkpt>
      <trkpt lat="46.83053" lon="-2.06351">
        <ele>1</ele>
        <time>2018-01-14T09:47:07Z</time>
      </trkpt>
      <trkpt lat="46.83046" lon="-2.06325">
        <ele>1</ele>
        <time>2018-01-14T09:48:07Z</time>
      </trkpt>
      <trkpt lat="46.83034" lon="-2.06267">
        <ele>1</ele>
        <time>2018-01-14T09:49:07Z</time>
      </trkpt>
      <trkpt lat="46.83018" lon="-2.06184">
        <ele>1.6</ele>
        <time>2018-01-14T09:50:07Z</time>
      </trkpt>
      <trkpt lat="46.83007" lon="-2.0612">
        <ele>1.3</ele>
        <time>2018-01-14T09:51:07Z</time>
      </trkpt>
      <trkpt lat="46.83007" lon="-2.0612">
        <ele>1.3</ele>
        <time>2018-01-14T09:52:07Z</time>
      </trkpt>
      <trkpt lat="46.83041" lon="-2.06113">
        <ele>2</ele>
        <time>2018-01-14T09:53:07Z</time>
      </trkpt>
      <trkpt lat="46.83065" lon="-2.06109">
        <ele>2</ele>
        <time>2018-01-14T09:54:07Z</time>
      </trkpt>
      <trkpt lat="46.83074" lon="-2.06108">
        <ele>2</ele>
        <time>2018-01-14T09:55:07Z</time>
      </trkpt>
      <trkpt lat="46.83082" lon="-2.06107">
        <ele>2</ele>
        <time>2018-01-14T09:56:07Z</time>
      </trkpt>
      <trkpt lat="46.83092" lon="-2.06106">
        <ele>2.3</ele>
        <time>2018-01-14T09:57:07Z</time>
      </trkpt>
      <trkpt lat="46.83101" lon="-2.06106">
        <ele>2.5</ele>
        <time>2018-01-14T09:58:07Z</time>
      </trkpt>
      <trkpt lat="46.83108" lon="-2.06106">
        <ele>2.7</ele>
        <time>2018-01-14T09:59:07Z</time>
      </trkpt>
      <trkpt lat="46.83117" lon="-2.06107">
        <ele>2.9</ele>
        <time>2018-01-14T10:00:07Z</time>
      </trkpt>
      <trkpt lat="46.83124" lon="-2.06107">
        <ele>2.9</ele>
        <time>2018-01-14T10:01:07Z</time>
      </trkpt>
      <trkpt lat="46.83143" lon="-2.0611">
        <ele>3</ele>
        <time>2018-01-14T10:02:07Z</time>
      </trkpt>
      <trkpt lat="46.83146" lon="-2.06111">
        <ele>3</ele>
        <time>2018-01-14T10:03:07Z</time>
      </trkpt>
      <trkpt lat="46.83146" lon="-2.06111">
        <ele>3</ele>
        <time>2018-01-14T10:04:07Z</time>
      </trkpt>
      <trkpt lat="46.83149" lon="-2.0603">
        <ele>1</ele>
        <time>2018-01-14T10:05:07Z</time>
      </trkpt>
      <trkpt lat="46.83153" lon="-2.05933">
        <ele>1</ele>
        <time>2018-01-14T10:06:07Z</time>
      </trkpt>
      <trkpt lat="46.83156" lon="-2.05884">
        <ele>1</ele>
        <time>2018-01-14T10:07:07Z</time>
      </trkpt>
      <trkpt lat="46.83157" lon="-2.05848">
        <ele>1</ele>
        <time>2018-01-14T10:08:07Z</time>
      </trkpt>
      <trkpt lat="46.83157" lon="-2.05842">
        <ele>1</ele>
        <time>2018-01-14T10:09:07Z</time>
      </trkpt>
      <trkpt lat="46.83158" lon="-2.05836">
        <ele>1</ele>
        <time>2018-01-14T10:10:07Z</time>
      </trkpt>
      <trkpt lat="46.83157" lon="-2.05813">
        <ele>1.8</ele>
        <time>2018-01-14T10:11:07Z</time>
      </trkpt>
      <trkpt lat="46.83155" lon="-2.05764">
        <ele>2</ele>
        <time>2018-01-14T10:12:07Z</time>
      </trkpt>
      <trkpt lat="46.83154" lon="-2.05736">
        <ele>1.8</ele>
        <time>2018-01-14T10:13:07Z</time>
      </trkpt>
      <trkpt lat="46.83154" lon="-2.05736">
        <ele>1.8</ele>
        <time>2018-01-14T10:14:07Z</time>
      </trkpt>
      <trkpt lat="46.8315" lon="-2.05649">
        <ele>1</ele>
        <time>2018-01-14T10:15:07Z</time>
      </trkpt>
      <trkpt lat="46.83147" lon="-2.05566">
        <ele>2</ele>
        <time>2018-01-14T10:16:07Z</time>
      </trkpt>
      <trkpt lat="46.83144" lon="-2.05506">
        <ele>1</ele>
        <time>2018-01-14T10:17:07Z</time>
      </trkpt>
      <trkpt lat="46.83142" lon="-2.0544">
        <ele>1</ele>
        <time>2018-01-14T10:18:07Z</time>
      </trkpt>
      <trkpt lat="46.8314" lon="-2.05381">
        <ele>2</ele>
        <time>2018-01-14T10:19:07Z</time>
      </trkpt>
      <trkpt lat="46.83137" lon="-2.05339">
        <ele>1.9</ele>
        <time>2018-01-14T10:20:07Z</time>
      </trkpt>
      <trkpt lat="46.83134" lon="-2.05321">
        <ele>1.9</ele>
        <time>2018-01-14T10:21:07Z</time>
      </trkpt>
      <trkpt lat="46.83129" lon="-2.05301">
        <ele>2</ele>
        <time>2018-01-14T10:22:07Z</time>
      </trkpt>
      <trkpt lat="46.83119" lon="-2.05275">
        <ele>2</ele>
        <time>2018-01-14T10:23:07Z</time>
      </trkpt>
      <trkpt lat="46.831" lon="-2.05236">
        <ele>1.8</ele>
        <time>2018-01-14T10:24:07Z</time>
      </trkpt>
      <trkpt lat="46.83094" lon="-2.05224">
        <ele>1.4</ele>
        <time>2018-01-14T10:25:07Z</time>
      </trkpt>
      <trkpt lat="46.83088" lon="-2.05212">
        <ele>1.5</ele>
        <time>2018-01-14T10:26:07Z</time>
      </trkpt>
      <trkpt lat="46.83081" lon="-2.05199">
        <ele>1.8</ele>
        <time>2018-01-14T10:27:07Z</time>
      </trkpt>
      <trkpt lat="46.83069" lon="-2.05174">
        <ele>1.6</ele>
        <time>2018-01-14T10:28:07Z</time>
      </trkpt>
      <trkpt lat="46.83063" lon="-2.05158">
        <ele>1</ele>
        <time>2018-01-14T10:29:07Z</time>
      </trkpt>
      <trkpt lat="46.8305" lon="-2.05125">
        <ele>1</ele>
        <time>2018-01-14T10:30:07Z</time>
      </trkpt>
      <trkpt lat="46.83029" lon="-2.05046">
        <ele>1</ele>
        <time>2018-01-14T10:31:07Z</time>
      </trkpt>
      <trkpt lat="46.83011" lon="-2.04974">
        <ele>1</ele>
        <time>2018-01-14T10:32:07Z</time>
      </trkpt>
      <trkpt lat="46.82996" lon="-2.04915">
        <ele>2</ele>
        <time>2018-01-14T10:33:07Z</time>
      </trkpt>
      <trkpt lat="46.82971" lon="-2.04816">
        <ele>1</ele>
        <time>2018-01-14T10:34:07Z</time>
      </trkpt>
      <trkpt lat="46.82956" lon="-2.0476">
        <ele>2</ele>
        <time>2018-01-14T10:35:07Z</time>
      </trkpt>
      <trkpt lat="46.82931" lon="-2.04661">
        <ele>2</ele>
        <time>2018-01-14T10:36:07Z</time>
      </trkpt>
      <trkpt lat="46.82925" lon="-2.04637">
        <ele>2</ele>
        <time>2018-01-14T10:37:07Z</time>
      </trkpt>
      <trkpt lat="46.82918" lon="-2.04611">
        <ele>1</ele>
        <time>2018-01-14T10:38:07Z</time>
      </trkpt>
      <trkpt lat="46.82909" lon="-2.04578">
        <ele>1</ele>
        <time>2018-01-14T10:39:07Z</time>
      </trkpt>
      <trkpt lat="46.82898" lon="-2.04546">
        <ele>1</ele>
        <time>2018-01-14T10:40:07Z</time>
      </trkpt>
      <trkpt lat="46.82888" lon="-2.04515">
        <ele>1</ele>
        <time>2018-01-14T10:41:07Z</time>
      </trkpt>
      <trkpt lat="46.82881" lon="-2.04487">
        <ele>1</ele>
        <time>2018-01-14T10:42:07Z</time>
      </trkpt>
      <trkpt lat="46.82878" lon="-2.04474">
        <ele>1</ele>
        <time>2018-01-14T10:43:07Z</time>
      </trkpt>
      <trkpt lat="46.82876" lon="-2.04468">
        <ele>1</ele>
        <time>2018-01-14T10:44:07Z</time>
      </trkpt>
      <trkpt lat="46.8287" lon="-2.04438">
        <ele>1</ele>
        <time>2018-01-14T10:45:07Z</time>
      </trkpt>
      <trkpt lat="46.82865" lon="-2.0441">
        <ele>1.9</ele>
        <time>2018-01-14T10:46:07Z</time>
      </trkpt>
      <trkpt lat="46.8286" lon="-2.04382">
        <ele>2</ele>
        <time>2018-01-14T10:47:07Z</time>
      </trkpt>
      <trkpt lat="46.82855" lon="-2.0434">
        <ele>1.4</ele>
        <time>2018-01-14T10:48:07Z</time>
      </trkpt>
      <trkpt lat="46.8285" lon="-2.04306">
        <ele>2</ele>
        <time>2018-01-14T10:49:07Z</time>
      </trkpt>
      <trkpt lat="46.82843" lon="-2.0426">
        <ele>1.9</ele>
        <time>2018-01-14T10:50:07Z</time>
      </trkpt>
      <trkpt lat="46.82837" lon="-2.04216">
        <ele>1.2</ele>
        <time>2018-01-14T10:51:07Z</time>
      </trkpt>
      <trkpt lat="46.82831" lon="-2.04169">
        <ele>2</ele>
        <time>2018-01-14T10:52:07Z</time>
      </trkpt>
      <trkpt lat="46.82831" lon="-2.04141">
        <ele>2</ele>
        <time>2018-01-14T10:53:07Z</time>
      </trkpt>
      <trkpt lat="46.82832" lon="-2.0411">
        <ele>2</ele>
        <time>2018-01-14T10:54:07Z</time>
      </trkpt>
      <trkpt lat="46.82833" lon="-2.04074">
        <ele>1</ele>
        <time>2018-01-14T10:55:07Z</time>
      </trkpt>
      <trkpt lat="46.82834" lon="-2.04049">
        <ele>1</ele>
        <time>2018-01-14T10:56:07Z</time>
      </trkpt>
      <trkpt lat="46.82834" lon="-2.04018">
        <ele>1</ele>
        <time>2018-01-14T10:57:07Z</time>
      </trkpt>
      <trkpt lat="46.8283" lon="-2.03975">
        <ele>1</ele>
        <time>2018-01-14T10:58:07Z</time>
      </trkpt>
      <trkpt lat="46.82827" lon="-2.03953">
        <ele>1</ele>
        <time>2018-01-14T10:59:07Z</time>
      </trkpt>
      <trkpt lat="46.8282" lon="-2.03902">
        <ele>1.7</ele>
        <time>2018-01-14T11:00:07Z</time>
      </trkpt>
      <trkpt lat="46.82814" lon="-2.03866">
        <ele>1.9</ele>
        <time>2018-01-14T11:01:07Z</time>
      </trkpt>
      <trkpt lat="46.82806" lon="-2.03826">
        <ele>2</ele>
        <time>2018-01-14T11:02:07Z</time>
      </trkpt>
      <trkpt lat="46.82795" lon="-2.0379">
        <ele>2</ele>
        <time>2018-01-14T11:03:07Z</time>
      </trkpt>
      <trkpt lat="46.82784" lon="-2.03761">
        <ele>2</ele>
        <time>2018-01-14T11:04:07Z</time>
      </trkpt>
      <trkpt lat="46.82775" lon="-2.03737">
        <ele>2</ele>
        <time>2018-01-14T11:05:07Z</time>
      </trkpt>
      <trkpt lat="46.82763" lon="-2.03704">
        <ele>2</ele>
        <time>2018-01-14T11:06:07Z</time>
      </trkpt>
      <trkpt lat="46.82748" lon="-2.03666">
        <ele>2</ele>
        <time>2018-01-14T11:07:07Z</time>
      </trkpt>
      <trkpt lat="46.82732" lon="-2.03622">
        <ele>2</ele>
        <time>2018-01-14T11:08:07Z</time>
      </trkpt>
      <trkpt lat="46.82713" lon="-2.03577">
        <ele>1.7</ele>
        <time>2018-01-14T11:09:07Z</time>
      </trkpt>
      <trkpt lat="46.82699" lon="-2.03543">
        <ele>2</ele>
        <time>2018-01-14T11:10:07Z</time>
      </trkpt>
      <trkpt lat="46.82678" lon="-2.03493">
        <ele>1</ele>
        <time>2018-01-14T11:11:07Z</time>
      </trkpt>
      <trkpt lat="46.8267" lon="-2.03475">
        <ele>1</ele>
        <time>2018-01-14T11:12:07Z</time>
      </trkpt>
      <trkpt lat="46.82647" lon="-2.03417">
        <ele>1</ele>
        <time>2018-01-14T11:13:07Z</time>
      </trkpt>
      <trkpt lat="46.82624" lon="-2.03364">
        <ele>1.9</ele>
        <time>2018-01-14T11:14:07Z</time>
      </trkpt>
      <trkpt lat="46.82603" lon="-2.03315">
        <ele>1.5</ele>
        <time>2018-01-14T11:15:07Z</time>
      </trkpt>
      <trkpt lat="46.8259" lon="-2.03286">
        <ele>1.9</ele>
        <time>2018-01-14T11:16:07Z</time>
      </trkpt>
      <trkpt lat="46.82578" lon="-2.03258">
        <ele>1.4</ele>
        <time>2018-01-14T11:17:07Z</time>
      </trkpt>
      <trkpt lat="46.82564" lon="-2.03222">
        <ele>2</ele>
        <time>2018-01-14T11:18:07Z</time>
      </trkpt>
      <trkpt lat="46.82558" lon="-2.03207">
        <ele>1</ele>
        <time>2018-01-14T11:19:07Z</time>
      </trkpt>
      <trkpt lat="46.82551" lon="-2.03183">
        <ele>1</ele>
        <time>2018-01-14T11:20:07Z</time>
      </trkpt>
      <trkpt lat="46.82547" lon="-2.03159">
        <ele>1</ele>
        <time>2018-01-14T11:21:07Z</time>
      </trkpt>
      <trkpt lat="46.82543" lon="-2.03134">
        <ele>1</ele>
        <time>2018-01-14T11:22:07Z</time>
      </trkpt>
      <trkpt lat="46.82541" lon="-2.03115">
        <ele>1</ele>
        <time>2018-01-14T11:23:07Z</time>
      </trkpt>
      <trkpt lat="46.82538" lon="-2.03085">
        <ele>2</ele>
        <time>2018-01-14T11:24:07Z</time>
      </trkpt>
      <trkpt lat="46.82534" lon="-2.0305">
        <ele>2</ele>
        <time>2018-01-14T11:25:07Z</time>
      </trkpt>
      <trkpt lat="46.8253" lon="-2.03011">
        <ele>2</ele>
        <time>2018-01-14T11:26:07Z</time>
      </trkpt>
      <trkpt lat="46.82524" lon="-2.02965">
        <ele>2</ele>
        <time>2018-01-14T11:27:07Z</time>
      </trkpt>
      <trkpt lat="46.82519" lon="-2.0292">
        <ele>2</ele>
        <time>2018-01-14T11:28:07Z</time>
      </trkpt>
      <trkpt lat="46.82513" lon="-2.02867">
        <ele>1</ele>
        <time>2018-01-14T11:29:07Z</time>
      </trkpt>
      <trkpt lat="46.82509" lon="-2.02831">
        <ele>1</ele>
        <time>2018-01-14T11:30:07Z</time>
      </trkpt>
      <trkpt lat="46.82505" lon="-2.02794">
        <ele>1</ele>
        <time>2018-01-14T11:31:07Z</time>
      </trkpt>
      <trkpt lat="46.82504" lon="-2.0277">
        <ele>1</ele>
        <time>2018-01-14T11:32:07Z</time>
      </trkpt>
      <trkpt lat="46.82504" lon="-2.0275">
        <ele>1</ele>
        <time>2018-01-14T11:33:07Z</time>
      </trkpt>
      <trkpt lat="46.82507" lon="-2.02719">
        <ele>1</ele>
        <time>2018-01-14T11:34:07Z</time>
      </trkpt>
      <trkpt lat="46.82512" lon="-2.02694">
        <ele>1</ele>
        <time>2018-01-14T11:35:07Z</time>
      </trkpt>
      <trkpt lat="46.82516" lon="-2.02671">
        <ele>2</ele>
        <time>2018-01-14T11:36:07Z</time>
      </trkpt>
      <trkpt lat="46.82521" lon="-2.02645">
        <ele>1</ele>
        <time>2018-01-14T11:37:07Z</time>
      </trkpt>
      <trkpt lat="46.82526" lon="-2.02614">
        <ele>1</ele>
        <time>2018-01-14T11:38:07Z</time>
      </trkpt>
      <trkpt lat="46.82533" lon="-2.02576">
        <ele>1</ele>
        <time>2018-01-14T11:39:07Z</time>
      </trkpt>
      <trkpt lat="46.82538" lon="-2.0255">
        <ele>1</ele>
        <time>2018-01-14T11:40:07Z</time>
      </trkpt>
      <trkpt lat="46.82541" lon="-2.02529">
        <ele>1</ele>
        <time>2018-01-14T11:41:07Z</time>
      </trkpt>
      <trkpt lat="46.82542" lon="-2.02524">
        <ele>2</ele>
        <time>2018-01-14T11:42:07Z</time>
      </trkpt>
      <trkpt lat="46.82544" lon="-2.02504">
        <ele>2</ele>
        <time>2018-01-14T11:43:07Z</time>
      </trkpt>
      <trkpt lat="46.82544" lon="-2.02486">
        <ele>2</ele>
        <time>2018-01-14T11:44:07Z</time>
      </trkpt>
      <trkpt lat="46.82542" lon="-2.02463">
        <ele>2</ele>
        <time>2018-01-14T11:45:07Z</time>
      </trkpt>
      <trkpt lat="46.8254" lon="-2.02434">
        <ele>2</ele>
        <time>2018-01-14T11:46:07Z</time>
      </trkpt>
      <trkpt lat="46.82537" lon="-2.02407">
        <ele>2</ele>
        <time>2018-01-14T11:47:07Z</time>
      </trkpt>
      <trkpt lat="46.82534" lon="-2.02385">
        <ele>2</ele>
        <time>2018-01-14T11:48:07Z</time>
      </trkpt>
      <trkpt lat="46.82534" lon="-2.0238">
        <ele>2</ele>
        <time>2018-01-14T11:49:07Z</time>
      </trkpt>
      <trkpt lat="46.8253" lon="-2.02346">
        <ele>2</ele>
        <time>2018-01-14T11:50:07Z</time>
      </trkpt>
      <trkpt lat="46.82525" lon="-2.02309">
        <ele>2</ele>
        <time>2018-01-14T11:51:07Z</time>
      </trkpt>
      <trkpt lat="46.8252" lon="-2.02274">
        <ele>2</ele>
        <time>2018-01-14T11:52:07Z</time>
      </trkpt>
      <trkpt lat="46.82515" lon="-2.0224">
        <ele>1</ele>
        <time>2018-01-14T11:53:07Z</time>
      </trkpt>
      <trkpt lat="46.8251" lon="-2.02214">
        <ele>1</ele>
        <time>2018-01-14T11:54:07Z</time>
      </trkpt>
      <trkpt lat="46.82505" lon="-2.02194">
        <ele>2</ele>
        <time>2018-01-14T11:55:07Z</time>
      </trkpt>
      <trkpt lat="46.82499" lon="-2.02166">
        <ele>2</ele>
        <time>2018-01-14T11:56:07Z</time>
      </trkpt>
      <trkpt lat="46.82491" lon="-2.02135">
        <ele>1</ele>
        <time>2018-01-14T11:57:07Z</time>
      </trkpt>
      <trkpt lat="46.82483" lon="-2.02104">
        <ele>1</ele>
        <time>2018-01-14T11:58:07Z</time>
      </trkpt>
      <trkpt lat="46.82475" lon="-2.02072">
        <ele>2</ele>
        <time>2018-01-14T11:59:07Z</time>
      </trkpt>
      <trkpt lat="46.82465" lon="-2.02035">
        <ele>2</ele>
        <time>2018-01-14T12:00:07Z</time>
      </trkpt>
      <trkpt lat="46.82457" lon="-2.02016">
        <ele>2</ele>
        <time>2018-01-14T12:01:07Z</time>
      </trkpt>
      <trkpt lat="46.82449" lon="-2.02002">
        <ele>2</ele>
        <time>2018-01-14T12:02:07Z</time>
      </trkpt>
      <trkpt lat="46.82437" lon="-2.01986">
        <ele>1</ele>
        <time>2018-01-14T12:03:07Z</time>
      </trkpt>
      <trkpt lat="46.82421" lon="-2.01968">
        <ele>1</ele>
        <time>2018-01-14T12:04:07Z</time>
      </trkpt>
      <trkpt lat="46.82405" lon="-2.01948">
        <ele>1</ele>
        <time>2018-01-14T12:05:07Z</time>
      </trkpt>
      <trkpt lat="46.82387" lon="-2.01928">
        <ele>1</ele>
        <time>2018-01-14T12:06:07Z</time>
      </trkpt>
      <trkpt lat="46.8237" lon="-2.01908">
        <ele>2</ele>
        <time>2018-01-14T12:07:07Z</time>
      </trkpt>
      <trkpt lat="46.82353" lon="-2.0189">
        <ele>2</ele>
        <time>2018-01-14T12:08:07Z</time>
      </trkpt>
      <trkpt lat="46.82334" lon="-2.01866">
        <ele>1</ele>
        <time>2018-01-14T12:09:07Z</time>
      </trkpt>
      <trkpt lat="46.82321" lon="-2.01851">
        <ele>1</ele>
        <time>2018-01-14T12:10:07Z</time>
      </trkpt>
      <trkpt lat="46.82307" lon="-2.01834">
        <ele>1</ele>
        <time>2018-01-14T12:11:07Z</time>
      </trkpt>
      <trkpt lat="46.82297" lon="-2.01819">
        <ele>1</ele>
        <time>2018-01-14T12:12:07Z</time>
      </trkpt>
      <trkpt lat="46.82292" lon="-2.01807">
        <ele>1</ele>
        <time>2018-01-14T12:13:07Z</time>
      </trkpt>
      <trkpt lat="46.82291" lon="-2.01802">
        <ele>1</ele>
        <time>2018-01-14T12:14:07Z</time>
      </trkpt>
      <trkpt lat="46.82289" lon="-2.01796">
        <ele>1</ele>
        <time>2018-01-14T12:15:07Z</time>
      </trkpt>
      <trkpt lat="46.82288" lon="-2.01789">
        <ele>1</ele>
        <time>2018-01-14T12:16:07Z</time>
      </trkpt>
      <trkpt lat="46.82283" lon="-2.01758">
        <ele>2</ele>
        <time>2018-01-14T12:17:07Z</time>
      </trkpt>
      <trkpt lat="46.82279" lon="-2.01719">
        <ele>2</ele>
        <time>2018-01-14T12:18:07Z</time>
      </trkpt>
      <trkpt lat="46.82277" lon="-2.017">
        <ele>2</ele>
        <time>2018-01-14T12:19:07Z</time>
      </trkpt>
      <trkpt lat="46.82277" lon="-2.01691">
        <ele>2</ele>
        <time>2018-01-14T12:20:07Z</time>
      </trkpt>
      <trkpt lat="46.82277" lon="-2.01683">
        <ele>2</ele>
        <time>2018-01-14T12:21:07Z</time>
      </trkpt>
      <trkpt lat="46.82277" lon="-2.01677">
        <ele>2</ele>
        <time>2018-01-14T12:22:07Z</time>
      </trkpt>
      <trkpt lat="46.82278" lon="-2.01668">
        <ele>2</ele>
        <time>2018-01-14T12:23:07Z</time>
      </trkpt>
      <trkpt lat="46.8228" lon="-2.01658">
        <ele>2</ele>
        <time>2018-01-14T12:24:07Z</time>
      </trkpt>
      <trkpt lat="46.82285" lon="-2.01621">
        <ele>2</ele>
        <time>2018-01-14T12:25:07Z</time>
      </trkpt>
      <trkpt lat="46.82298" lon="-2.01546">
        <ele>2</ele>
        <time>2018-01-14T12:26:07Z</time>
      </trkpt>
      <trkpt lat="46.82311" lon="-2.01454">
        <ele>1</ele>
        <time>2018-01-14T12:27:07Z</time>
      </trkpt>
      <trkpt lat="46.82319" lon="-2.01404">
        <ele>2.3</ele>
        <time>2018-01-14T12:28:07Z</time>
      </trkpt>
      <trkpt lat="46.82323" lon="-2.01364">
        <ele>1.7</ele>
        <time>2018-01-14T12:29:07Z</time>
      </trkpt>
      <trkpt lat="46.82328" lon="-2.01296">
        <ele>1</ele>
        <time>2018-01-14T12:30:07Z</time>
      </trkpt>
      <trkpt lat="46.82332" lon="-2.01239">
        <ele>1</ele>
        <time>2018-01-14T12:31:07Z</time>
      </trkpt>
      <trkpt lat="46.82332" lon="-2.01235">
        <ele>1</ele>
        <time>2018-01-14T12:32:07Z</time>
      </trkpt>
      <trkpt lat="46.82335" lon="-2.01196">
        <ele>2</ele>
        <time>2018-01-14T12:33:07Z</time>
      </trkpt>
      <trkpt lat="46.82344" lon="-2.01086">
        <ele>1</ele>
        <time>2018-01-14T12:34:07Z</time>
      </trkpt>
      <trkpt lat="46.82344" lon="-2.01082">
        <ele>1</ele>
        <time>2018-01-14T12:35:07Z</time>
      </trkpt>
      <trkpt lat="46.8235" lon="-2.01012">
        <ele>1</ele>
        <time>2018-01-14T12:36:07Z</time>
      </trkpt>
      <trkpt lat="46.82358" lon="-2.00914">
        <ele>1.9</ele>
        <time>2018-01-14T12:37:07Z</time>
      </trkpt>
      <trkpt lat="46.82366" lon="-2.00809">
        <ele>1</ele>
        <time>2018-01-14T12:38:07Z</time>
      </trkpt>
      <trkpt lat="46.82368" lon="-2.00786">
        <ele>1</ele>
        <time>2018-01-14T12:39:07Z</time>
      </trkpt>
      <trkpt lat="46.82374" lon="-2.00709">
        <ele>1</ele>
        <time>2018-01-14T12:40:07Z</time>
      </trkpt>
      <trkpt lat="46.82383" lon="-2.00591">
        <ele>1</ele>
        <time>2018-01-14T12:41:07Z</time>
      </trkpt>
      <trkpt lat="46.82391" lon="-2.00497">
        <ele>2</ele>
        <time>2018-01-14T12:42:07Z</time>
      </trkpt>
      <trkpt lat="46.82396" lon="-2.00446">
        <ele>2</ele>
        <time>2018-01-14T12:43:07Z</time>
      </trkpt>
      <trkpt lat="46.82397" lon="-2.00424">
        <ele>2</ele>
        <time>2018-01-14T12:44:07Z</time>
      </trkpt>
      <trkpt lat="46.82398" lon="-2.00409">
        <ele>2</ele>
        <time>2018-01-14T12:45:07Z</time>
      </trkpt>
      <trkpt lat="46.824" lon="-2.00387">
        <ele>2</ele>
        <time>2018-01-14T12:46:07Z</time>
      </trkpt>
      <trkpt lat="46.82403" lon="-2.00348">
        <ele>1</ele>
        <time>2018-01-14T12:47:07Z</time>
      </trkpt>
      <trkpt lat="46.82407" lon="-2.00301">
        <ele>1</ele>
        <time>2018-01-14T12:48:07Z</time>
      </trkpt>
      <trkpt lat="46.8241" lon="-2.00258">
        <ele>2</ele>
        <time>2018-01-14T12:49:07Z</time>
      </trkpt>
      <trkpt lat="46.82414" lon="-2.00208">
        <ele>1</ele>
        <time>2018-01-14T12:50:07Z</time>
      </trkpt>
      <trkpt lat="46.82415" lon="-2.0019">
        <ele>1</ele>
        <time>2018-01-14T12:51:07Z</time>
      </trkpt>
      <trkpt lat="46.82418" lon="-2.00158">
        <ele>1</ele>
        <time>2018-01-14T12:52:07Z</time>
      </trkpt>
      <trkpt lat="46.8242" lon="-2.00134">
        <ele>1</ele>
        <time>2018-01-14T12:53:07Z</time>
      </trkpt>
      <trkpt lat="46.82423" lon="-2.00095">
        <ele>1</ele>
        <time>2018-01-14T12:54:07Z</time>
      </trkpt>
      <trkpt lat="46.82427" lon="-2.00059">
        <ele>1</ele>
        <time>2018-01-14T12:55:07Z</time>
      </trkpt>
      <trkpt lat="46.82429" lon="-2.00021">
        <ele>1.9</ele>
        <time>2018-01-14T12:56:07Z</time>
      </trkpt>
      <trkpt lat="46.82433" lon="-1.99987">
        <ele>1.4</ele>
        <time>2018-01-14T12:57:07Z</time>
      </trkpt>
      <trkpt lat="46.82435" lon="-1.9995">
        <ele>1.3</ele>
        <time>2018-01-14T12:58:07Z</time>
      </trkpt>
      <trkpt lat="46.82438" lon="-1.99916">
        <ele>1</ele>
        <time>2018-01-14T12:59:07Z</time>
      </trkpt>
      <trkpt lat="46.82439" lon="-1.99907">
        <ele>1</ele>
        <time>2018-01-14T13:00:07Z</time>
      </trkpt>
      <trkpt lat="46.8244" lon="-1.99885">
        <ele>1</ele>
        <time>2018-01-14T13:01:07Z</time>
      </trkpt>
      <trkpt lat="46.82442" lon="-1.99855">
        <ele>1</ele>
        <time>2018-01-14T13:02:07Z</time>
      </trkpt>
      <trkpt lat="46.82443" lon="-1.99829">
        <ele>1</ele>
        <time>2018-01-14T13:03:07Z</time>
      </trkpt>
      <trkpt lat="46.82444" lon="-1.99804">
        <ele>1</ele>
        <time>2018-01-14T13:04:07Z</time>
      </trkpt>
      <trkpt lat="46.82444" lon="-1.99788">
        <ele>1</ele>
        <time>2018-01-14T13:05:07Z</time>
      </trkpt>
      <trkpt lat="46.82443" lon="-1.9977">
        <ele>1</ele>
        <time>2018-01-14T13:06:07Z</time>
      </trkpt>
      <trkpt lat="46.82441" lon="-1.99755">
        <ele>1</ele>
        <time>2018-01-14T13:07:07Z</time>
      </trkpt>
      <trkpt lat="46.82439" lon="-1.99739">
        <ele>2</ele>
        <time>2018-01-14T13:08:07Z</time>
      </trkpt>
      <trkpt lat="46.82437" lon="-1.99723">
        <ele>2</ele>
        <time>2018-01-14T13:09:07Z</time>
      </trkpt>
      <trkpt lat="46.82436" lon="-1.99719">
        <ele>2</ele>
        <time>2018-01-14T13:10:07Z</time>
      </trkpt>
      <trkpt lat="46.82435" lon="-1.99705">
        <ele>2</ele>
        <time>2018-01-14T13:11:07Z</time>
      </trkpt>
      <trkpt lat="46.82432" lon="-1.9969">
        <ele>2</ele>
        <time>2018-01-14T13:12:07Z</time>
      </trkpt>
      <trkpt lat="46.82431" lon="-1.99676">
        <ele>2</ele>
        <time>2018-01-14T13:13:07Z</time>
      </trkpt>
      <trkpt lat="46.8243" lon="-1.99663">
        <ele>2</ele>
        <time>2018-01-14T13:14:07Z</time>
      </trkpt>
      <trkpt lat="46.8243" lon="-1.99654">
        <ele>2</ele>
        <time>2018-01-14T13:15:07Z</time>
      </trkpt>
      <trkpt lat="46.8243" lon="-1.99649">
        <ele>1</ele>
        <time>2018-01-14T13:16:07Z</time>
      </trkpt>
      <trkpt lat="46.82428" lon="-1.99634">
        <ele>1</ele>
        <time>2018-01-14T13:17:07Z</time>
      </trkpt>
      <trkpt lat="46.82428" lon="-1.99625">
        <ele>1</ele>
        <time>2018-01-14T13:18:07Z</time>
      </trkpt>
      <trkpt lat="46.82427" lon="-1.99614">
        <ele>1</ele>
        <time>2018-01-14T13:19:07Z</time>
      </trkpt>
      <trkpt lat="46.82427" lon="-1.99605">
        <ele>1</ele>
        <time>2018-01-14T13:20:07Z</time>
      </trkpt>
      <trkpt lat="46.82426" lon="-1.99596">
        <ele>2</ele>
        <time>2018-01-14T13:21:07Z</time>
      </trkpt>
      <trkpt lat="46.82426" lon="-1.99589">
        <ele>2</ele>
        <time>2018-01-14T13:22:07Z</time>
      </trkpt>
      <trkpt lat="46.82426" lon="-1.99589">
        <ele>2</ele>
        <time>2018-01-14T13:23:07Z</time>
      </trkpt>
      <trkpt lat="46.82426" lon="-1.99588">
        <ele>2</ele>
        <time>2018-01-14T13:24:07Z</time>
      </trkpt>
      <trkpt lat="46.82425" lon="-1.99587">
        <ele>2</ele>
        <time>2018-01-14T13:25:07Z</time>
      </trkpt>
      <trkpt lat="46.82425" lon="-1.99586">
        <ele>2</ele>
        <time>2018-01-14T13:26:07Z</time>
      </trkpt>
      <trkpt lat="46.82424" lon="-1.99585">
        <ele>2</ele>
        <time>2018-01-14T13:27:07Z</time>
      </trkpt>
      <trkpt lat="46.82424" lon="-1.99584">
        <ele>2</ele>
        <time>2018-01-14T13:28:07Z</time>
      </trkpt>
      <trkpt lat="46.82424" lon="-1.99583">
        <ele>2</ele>
        <time>2018-01-14T13:29:07Z</time>
      </trkpt>
      <trkpt lat="46.82423" lon="-1.99582">
        <ele>2</ele>
        <time>2018-01-14T13:30:07Z</time>
      </trkpt>
      <trkpt lat="46.82423" lon="-1.99581">
        <ele>2</ele>
        <time>2018-01-14T13:31:07Z</time>
      </trkpt>
      <trkpt lat="46.82423" lon="-1.9958">
        <ele>2</ele>
        <time>2018-01-14T13:32:07Z</time>
      </trkpt>
      <trkpt lat="46.8242" lon="-1.99577">
        <ele>2</ele>
        <time>2018-01-14T13:33:07Z</time>
      </trkpt>
      <trkpt lat="46.82411" lon="-1.99571">
        <ele>2</ele>
        <time>2018-01-14T13:34:07Z</time>
      </trkpt>
      <trkpt lat="46.82407" lon="-1.99568">
        <ele>2</ele>
        <time>2018-01-14T13:35:07Z</time>
      </trkpt>
      <trkpt lat="46.82403" lon="-1.99565">
        <ele>2</ele>
        <time>2018-01-14T13:36:07Z</time>
      </trkpt>
      <trkpt lat="46.82391" lon="-1.99559">
        <ele>1</ele>
        <time>2018-01-14T13:37:07Z</time>
      </trkpt>
      <trkpt lat="46.82371" lon="-1.99547">
        <ele>1</ele>
        <time>2018-01-14T13:38:07Z</time>
      </trkpt>
      <trkpt lat="46.82366" lon="-1.99544">
        <ele>1</ele>
        <time>2018-01-14T13:39:07Z</time>
      </trkpt>
      <trkpt lat="46.82352" lon="-1.9954">
        <ele>1</ele>
        <time>2018-01-14T13:40:07Z</time>
      </trkpt>
      <trkpt lat="46.82341" lon="-1.99533">
        <ele>1</ele>
        <time>2018-01-14T13:41:07Z</time>
      </trkpt>
      <trkpt lat="46.82326" lon="-1.99524">
        <ele>2</ele>
        <time>2018-01-14T13:42:07Z</time>
      </trkpt>
      <trkpt lat="46.82305" lon="-1.9951">
        <ele>2</ele>
        <time>2018-01-14T13:43:07Z</time>
      </trkpt>
      <trkpt lat="46.82286" lon="-1.99496">
        <ele>2</ele>
        <time>2018-01-14T13:44:07Z</time>
      </trkpt>
      <trkpt lat="46.82278" lon="-1.99491">
        <ele>2</ele>
        <time>2018-01-14T13:45:07Z</time>
      </trkpt>
      <trkpt lat="46.82271" lon="-1.99486">
        <ele>2</ele>
        <time>2018-01-14T13:46:07Z</time>
      </trkpt>
      <trkpt lat="46.82265" lon="-1.99482">
        <ele>2</ele>
        <time>2018-01-14T13:47:07Z</time>
      </trkpt>
      <trkpt lat="46.82264" lon="-1.99481">
        <ele>2</ele>
        <time>2018-01-14T13:48:07Z</time>
      </trkpt>
      <trkpt lat="46.82252" lon="-1.99472">
        <ele>2</ele>
        <time>2018-01-14T13:49:07Z</time>
      </trkpt>
      <trkpt lat="46.82229" lon="-1.99454">
        <ele>2</ele>
        <time>2018-01-14T13:50:07Z</time>
      </trkpt>
      <trkpt lat="46.82221" lon="-1.99448">
        <ele>2</ele>
        <time>2018-01-14T13:51:07Z</time>
      </trkpt>
      <trkpt lat="46.82201" lon="-1.99433">
        <ele>2</ele>
        <time>2018-01-14T13:52:07Z</time>
      </trkpt>
      <trkpt lat="46.82193" lon="-1.99427">
        <ele>1</ele>
        <time>2018-01-14T13:53:07Z</time>
      </trkpt>
      <trkpt lat="46.82177" lon="-1.99416">
        <ele>1</ele>
        <time>2018-01-14T13:54:07Z</time>
      </trkpt>
      <trkpt lat="46.82165" lon="-1.99409">
        <ele>1</ele>
        <time>2018-01-14T13:55:07Z</time>
      </trkpt>
      <trkpt lat="46.82159" lon="-1.99405">
        <ele>1</ele>
        <time>2018-01-14T13:56:07Z</time>
      </trkpt>
      <trkpt lat="46.82141" lon="-1.99391">
        <ele>1</ele>
        <time>2018-01-14T13:57:07Z</time>
      </trkpt>
      <trkpt lat="46.82127" lon="-1.99382">
        <ele>1</ele>
        <time>2018-01-14T13:58:07Z</time>
      </trkpt>
      <trkpt lat="46.8212" lon="-1.99379">
        <ele>1</ele>
        <time>2018-01-14T13:59:07Z</time>
      </trkpt>
      <trkpt lat="46.82116" lon="-1.99376">
        <ele>1</ele>
        <time>2018-01-14T14:00:07Z</time>
      </trkpt>
      <trkpt lat="46.82109" lon="-1.99373">
        <ele>1</ele>
        <time>2018-01-14T14:01:07Z</time>
      </trkpt>
      <trkpt lat="46.82103" lon="-1.99371">
        <ele>1</ele>
        <time>2018-01-14T14:02:07Z</time>
      </trkpt>
      <trkpt lat="46.82092" lon="-1.99366">
        <ele>1</ele>
        <time>2018-01-14T14:03:07Z</time>
      </trkpt>
      <trkpt lat="46.82064" lon="-1.99358">
        <ele>1</ele>
        <time>2018-01-14T14:04:07Z</time>
      </trkpt>
      <trkpt lat="46.82026" lon="-1.99347">
        <ele>2</ele>
        <time>2018-01-14T14:05:07Z</time>
      </trkpt>
      <trkpt lat="46.82024" lon="-1.99346">
        <ele>2</ele>
        <time>2018-01-14T14:06:07Z</time>
      </trkpt>
      <trkpt lat="46.82009" lon="-1.99341">
        <ele>2</ele>
        <time>2018-01-14T14:07:07Z</time>
      </trkpt>
      <trkpt lat="46.82001" lon="-1.99337">
        <ele>2</ele>
        <time>2018-01-14T14:08:07Z</time>
      </trkpt>
      <trkpt lat="46.81959" lon="-1.99318">
        <ele>2</ele>
        <time>2018-01-14T14:09:07Z</time>
      </trkpt>
      <trkpt lat="46.81957" lon="-1.99317">
        <ele>2</ele>
        <time>2018-01-14T14:10:07Z</time>
      </trkpt>
      <trkpt lat="46.8194" lon="-1.99309">
        <ele>2</ele>
        <time>2018-01-14T14:11:07Z</time>
      </trkpt>
      <trkpt lat="46.81938" lon="-1.99308">
        <ele>2</ele>
        <time>2018-01-14T14:12:07Z</time>
      </trkpt>
      <trkpt lat="46.8193" lon="-1.99305">
        <ele>2</ele>
        <time>2018-01-14T14:13:07Z</time>
      </trkpt>
      <trkpt lat="46.81912" lon="-1.99305">
        <ele>2</ele>
        <time>2018-01-14T14:14:07Z</time>
      </trkpt>
      <trkpt lat="46.81911" lon="-1.99306">
        <ele>2</ele>
        <time>2018-01-14T14:15:07Z</time>
      </trkpt>
      <trkpt lat="46.81911" lon="-1.99307">
        <ele>2</ele>
        <time>2018-01-14T14:16:07Z</time>
      </trkpt>
      <trkpt lat="46.8191" lon="-1.99307">
        <ele>2</ele>
        <time>2018-01-14T14:17:07Z</time>
      </trkpt>
      <trkpt lat="46.8191" lon="-1.99308">
        <ele>2</ele>
        <time>2018-01-14T14:18:07Z</time>
      </trkpt>
      <trkpt lat="46.81909" lon="-1.99308">
        <ele>2</ele>
        <time>2018-01-14T14:19:07Z</time>
      </trkpt>
      <trkpt lat="46.81908" lon="-1.99309">
        <ele>2</ele>
        <time>2018-01-14T14:20:07Z</time>
      </trkpt>
      <trkpt lat="46.81907" lon="-1.99309">
        <ele>2</ele>
        <time>2018-01-14T14:21:07Z</time>
      </trkpt>
      <trkpt lat="46.81906" lon="-1.99309">
        <ele>2</ele>
        <time>2018-01-14T14:22:07Z</time>
      </trkpt>
      <trkpt lat="46.81906" lon="-1.9931">
        <ele>2</ele>
        <time>2018-01-14T14:23:07Z</time>
      </trkpt>
      <trkpt lat="46.81905" lon="-1.9931">
        <ele>2</ele>
        <time>2018-01-14T14:24:07Z</time>
      </trkpt>
      <trkpt lat="46.81904" lon="-1.9931">
        <ele>2</ele>
        <time>2018-01-14T14:25:07Z</time>
      </trkpt>
      <trkpt lat="46.81904" lon="-1.99309">
        <ele>2</ele>
        <time>2018-01-14T14:26:07Z</time>
      </trkpt>
      <trkpt lat="46.81903" lon="-1.99309">
        <ele>2</ele>
        <time>2018-01-14T14:27:07Z</time>
      </trkpt>
      <trkpt lat="46.81902" lon="-1.99309">
        <ele>2</ele>
        <time>2018-01-14T14:28:07Z</time>
      </trkpt>
      <trkpt lat="46.81901" lon="-1.99309">
        <ele>2</ele>
        <time>2018-01-14T14:29:07Z</time>
      </trkpt>
      <trkpt lat="46.81901" lon="-1.99308">
        <ele>2</ele>
        <time>2018-01-14T14:30:07Z</time>
      </trkpt>
      <trkpt lat="46.819" lon="-1.99308">
        <ele>2</ele>
        <time>2018-01-14T14:31:07Z</time>
      </trkpt>
      <trkpt lat="46.819" lon="-1.99307">
        <ele>2</ele>
        <time>2018-01-14T14:32:07Z</time>
      </trkpt>
      <trkpt lat="46.81899" lon="-1.99307">
        <ele>2</ele>
        <time>2018-01-14T14:33:07Z</time>
      </trkpt>
      <trkpt lat="46.81899" lon="-1.99306">
        <ele>2</ele>
        <time>2018-01-14T14:34:07Z</time>
      </trkpt>
      <trkpt lat="46.81898" lon="-1.99306">
        <ele>2</ele>
        <time>2018-01-14T14:35:07Z</time>
      </trkpt>
      <trkpt lat="46.81898" lon="-1.99305">
        <ele>2</ele>
        <time>2018-01-14T14:36:07Z</time>
      </trkpt>
      <trkpt lat="46.81897" lon="-1.99304">
        <ele>2</ele>
        <time>2018-01-14T14:37:07Z</time>
      </trkpt>
      <trkpt lat="46.81897" lon="-1.99303">
        <ele>2</ele>
        <time>2018-01-14T14:38:07Z</time>
      </trkpt>
      <trkpt lat="46.81897" lon="-1.99302">
        <ele>2</ele>
        <time>2018-01-14T14:39:07Z</time>
      </trkpt>
      <trkpt lat="46.81896" lon="-1.99302">
        <ele>2</ele>
        <time>2018-01-14T14:40:07Z</time>
      </trkpt>
      <trkpt lat="46.81896" lon="-1.99301">
        <ele>2</ele>
        <time>2018-01-14T14:41:07Z</time>
      </trkpt>
      <trkpt lat="46.81896" lon="-1.993">
        <ele>2</ele>
        <time>2018-01-14T14:42:07Z</time>
      </trkpt>
      <trkpt lat="46.81896" lon="-1.99299">
        <ele>2</ele>
        <time>2018-01-14T14:43:07Z</time>
      </trkpt>
      <trkpt lat="46.81896" lon="-1.99298">
        <ele>2</ele>
        <time>2018-01-14T14:44:07Z</time>
      </trkpt>
      <trkpt lat="46.81896" lon="-1.99297">
        <ele>2</ele>
        <time>2018-01-14T14:45:07Z</time>
      </trkpt>
      <trkpt lat="46.81878" lon="-1.99285">
        <ele>2</ele>
        <time>2018-01-14T14:46:07Z</time>
      </trkpt>
      <trkpt lat="46.81874" lon="-1.99282">
        <ele>2</ele>
        <time>2018-01-14T14:47:07Z</time>
      </trkpt>
      <trkpt lat="46.81869" lon="-1.99278">
        <ele>2</ele>
        <time>2018-01-14T14:48:07Z</time>
      </trkpt>
      <trkpt lat="46.81835" lon="-1.99268">
        <ele>2</ele>
        <time>2018-01-14T14:49:07Z</time>
      </trkpt>
      <trkpt lat="46.81802" lon="-1.99259">
        <ele>2</ele>
        <time>2018-01-14T14:50:07Z</time>
      </trkpt>
      <trkpt lat="46.81748" lon="-1.99246">
        <ele>1</ele>
        <time>2018-01-14T14:51:07Z</time>
      </trkpt>
      <trkpt lat="46.81733" lon="-1.99241">
        <ele>1</ele>
        <time>2018-01-14T14:52:07Z</time>
      </trkpt>
      <trkpt lat="46.81702" lon="-1.99235">
        <ele>1</ele>
        <time>2018-01-14T14:53:07Z</time>
      </trkpt>
      <trkpt lat="46.81696" lon="-1.99234">
        <ele>2</ele>
        <time>2018-01-14T14:54:07Z</time>
      </trkpt>
      <trkpt lat="46.81672" lon="-1.99226">
        <ele>2</ele>
        <time>2018-01-14T14:55:07Z</time>
      </trkpt>
      <trkpt lat="46.8165" lon="-1.99216">
        <ele>2</ele>
        <time>2018-01-14T14:56:07Z</time>
      </trkpt>
      <trkpt lat="46.81645" lon="-1.99214">
        <ele>2</ele>
        <time>2018-01-14T14:57:07Z</time>
      </trkpt>
      <trkpt lat="46.81631" lon="-1.99207">
        <ele>2</ele>
        <time>2018-01-14T14:58:07Z</time>
      </trkpt>
      <trkpt lat="46.81604" lon="-1.99187">
        <ele>1</ele>
        <time>2018-01-14T14:59:07Z</time>
      </trkpt>
      <trkpt lat="46.81574" lon="-1.99159">
        <ele>1</ele>
        <time>2018-01-14T15:00:07Z</time>
      </trkpt>
      <trkpt lat="46.81544" lon="-1.99129">
        <ele>2</ele>
        <time>2018-01-14T15:01:07Z</time>
      </trkpt>
      <trkpt lat="46.81527" lon="-1.9911">
        <ele>2</ele>
        <time>2018-01-14T15:02:07Z</time>
      </trkpt>
      <trkpt lat="46.81522" lon="-1.99104">
        <ele>2</ele>
        <time>2018-01-14T15:03:07Z</time>
      </trkpt>
      <trkpt lat="46.81496" lon="-1.9908">
        <ele>3</ele>
        <time>2018-01-14T15:04:07Z</time>
      </trkpt>
      <trkpt lat="46.81461" lon="-1.99046">
        <ele>2</ele>
        <time>2018-01-14T15:05:07Z</time>
      </trkpt>
      <trkpt lat="46.81427" lon="-1.99014">
        <ele>2</ele>
        <time>2018-01-14T15:06:07Z</time>
      </trkpt>
      <trkpt lat="46.81385" lon="-1.98973">
        <ele>2</ele>
        <time>2018-01-14T15:07:07Z</time>
      </trkpt>
      <trkpt lat="46.8135" lon="-1.98938">
        <ele>2</ele>
        <time>2018-01-14T15:08:07Z</time>
      </trkpt>
      <trkpt lat="46.81297" lon="-1.98885">
        <ele>1</ele>
        <time>2018-01-14T15:09:07Z</time>
      </trkpt>
      <trkpt lat="46.81282" lon="-1.9887">
        <ele>1</ele>
        <time>2018-01-14T15:10:07Z</time>
      </trkpt>
      <trkpt lat="46.81251" lon="-1.98841">
        <ele>2</ele>
        <time>2018-01-14T15:11:07Z</time>
      </trkpt>
      <trkpt lat="46.81244" lon="-1.98835">
        <ele>1.8</ele>
        <time>2018-01-14T15:12:07Z</time>
      </trkpt>
      <trkpt lat="46.81234" lon="-1.98828">
        <ele>1.4</ele>
        <time>2018-01-14T15:13:07Z</time>
      </trkpt>
      <trkpt lat="46.81225" lon="-1.98822">
        <ele>1.1</ele>
        <time>2018-01-14T15:14:07Z</time>
      </trkpt>
      <trkpt lat="46.81212" lon="-1.98819">
        <ele>1.4</ele>
        <time>2018-01-14T15:15:07Z</time>
      </trkpt>
      <trkpt lat="46.81197" lon="-1.98819">
        <ele>1.9</ele>
        <time>2018-01-14T15:16:07Z</time>
      </trkpt>
      <trkpt lat="46.81188" lon="-1.98823">
        <ele>2</ele>
        <time>2018-01-14T15:17:07Z</time>
      </trkpt>
      <trkpt lat="46.81183" lon="-1.98825">
        <ele>2</ele>
        <time>2018-01-14T15:18:07Z</time>
      </trkpt>
      <trkpt lat="46.81176" lon="-1.98831">
        <ele>2</ele>
        <time>2018-01-14T15:19:07Z</time>
      </trkpt>
      <trkpt lat="46.81165" lon="-1.98844">
        <ele>1</ele>
        <time>2018-01-14T15:20:07Z</time>
      </trkpt>
      <trkpt lat="46.81149" lon="-1.98867">
        <ele>1</ele>
        <time>2018-01-14T15:21:07Z</time>
      </trkpt>
      <trkpt lat="46.81132" lon="-1.98892">
        <ele>1</ele>
        <time>2018-01-14T15:22:07Z</time>
      </trkpt>
      <trkpt lat="46.81124" lon="-1.98903">
        <ele>1</ele>
        <time>2018-01-14T15:23:07Z</time>
      </trkpt>
      <trkpt lat="46.81115" lon="-1.9891">
        <ele>1</ele>
        <time>2018-01-14T15:24:07Z</time>
      </trkpt>
      <trkpt lat="46.81109" lon="-1.98916">
        <ele>1</ele>
        <time>2018-01-14T15:25:07Z</time>
      </trkpt>
      <trkpt lat="46.81102" lon="-1.98915">
        <ele>1</ele>
        <time>2018-01-14T15:26:07Z</time>
      </trkpt>
      <trkpt lat="46.81092" lon="-1.98916">
        <ele>1</ele>
        <time>2018-01-14T15:27:07Z</time>
      </trkpt>
      <trkpt lat="46.81082" lon="-1.98915">
        <ele>1</ele>
        <time>2018-01-14T15:28:07Z</time>
      </trkpt>
      <trkpt lat="46.81076" lon="-1.98914">
        <ele>1</ele>
        <time>2018-01-14T15:29:07Z</time>
      </trkpt>
      <trkpt lat="46.81063" lon="-1.98909">
        <ele>1</ele>
        <time>2018-01-14T15:30:07Z</time>
      </trkpt>
      <trkpt lat="46.81049" lon="-1.98901">
        <ele>1</ele>
        <time>2018-01-14T15:31:07Z</time>
      </trkpt>
      <trkpt lat="46.81029" lon="-1.98885">
        <ele>1</ele>
        <time>2018-01-14T15:32:07Z</time>
      </trkpt>
      <trkpt lat="46.81011" lon="-1.98871">
        <ele>1</ele>
        <time>2018-01-14T15:33:07Z</time>
      </trkpt>
      <trkpt lat="46.80982" lon="-1.98848">
        <ele>2</ele>
        <time>2018-01-14T15:34:07Z</time>
      </trkpt>
      <trkpt lat="46.80932" lon="-1.98808">
        <ele>1</ele>
        <time>2018-01-14T15:35:07Z</time>
      </trkpt>
      <trkpt lat="46.80874" lon="-1.98762">
        <ele>1</ele>
        <time>2018-01-14T15:36:07Z</time>
      </trkpt>
      <trkpt lat="46.80823" lon="-1.98721">
        <ele>1.6</ele>
        <time>2018-01-14T15:37:07Z</time>
      </trkpt>
      <trkpt lat="46.80799" lon="-1.98696">
        <ele>2</ele>
        <time>2018-01-14T15:38:07Z</time>
      </trkpt>
      <trkpt lat="46.80741" lon="-1.98633">
        <ele>2</ele>
        <time>2018-01-14T15:39:07Z</time>
      </trkpt>
      <trkpt lat="46.80691" lon="-1.98577">
        <ele>1</ele>
        <time>2018-01-14T15:40:07Z</time>
      </trkpt>
      <trkpt lat="46.80628" lon="-1.9851">
        <ele>1</ele>
        <time>2018-01-14T15:41:07Z</time>
      </trkpt>
      <trkpt lat="46.8053" lon="-1.98408">
        <ele>2</ele>
        <time>2018-01-14T15:42:07Z</time>
      </trkpt>
      <trkpt lat="46.80522" lon="-1.98399">
        <ele>2.1</ele>
        <time>2018-01-14T15:43:07Z</time>
      </trkpt>
      <trkpt lat="46.80483" lon="-1.98363">
        <ele>1</ele>
        <time>2018-01-14T15:44:07Z</time>
      </trkpt>
      <trkpt lat="46.80479" lon="-1.98366">
        <ele>1</ele>
        <time>2018-01-14T15:45:07Z</time>
      </trkpt>
      <trkpt lat="46.80476" lon="-1.98368">
        <ele>1</ele>
        <time>2018-01-14T15:46:07Z</time>
      </trkpt>
      <trkpt lat="46.80472" lon="-1.98368">
        <ele>1</ele>
        <time>2018-01-14T15:47:07Z</time>
      </trkpt>
      <trkpt lat="46.80469" lon="-1.98368">
        <ele>1</ele>
        <time>2018-01-14T15:48:07Z</time>
      </trkpt>
      <trkpt lat="46.80465" lon="-1.98365">
        <ele>1</ele>
        <time>2018-01-14T15:49:07Z</time>
      </trkpt>
      <trkpt lat="46.80463" lon="-1.98363">
        <ele>1</ele>
        <time>2018-01-14T15:50:07Z</time>
      </trkpt>
      <trkpt lat="46.80461" lon="-1.9836">
        <ele>1</ele>
        <time>2018-01-14T15:51:07Z</time>
      </trkpt>
      <trkpt lat="46.80459" lon="-1.98357">
        <ele>1</ele>
        <time>2018-01-14T15:52:07Z</time>
      </trkpt>
      <trkpt lat="46.80457" lon="-1.9835">
        <ele>1</ele>
        <time>2018-01-14T15:53:07Z</time>
      </trkpt>
      <trkpt lat="46.80457" lon="-1.98345">
        <ele>1</ele>
        <time>2018-01-14T15:54:07Z</time>
      </trkpt>
      <trkpt lat="46.80457" lon="-1.98342">
        <ele>1</ele>
        <time>2018-01-14T15:55:07Z</time>
      </trkpt>
      <trkpt lat="46.80438" lon="-1.98312">
        <ele>1</ele>
        <time>2018-01-14T15:56:07Z</time>
      </trkpt>
      <trkpt lat="46.80426" lon="-1.98291">
        <ele>1</ele>
        <time>2018-01-14T15:57:07Z</time>
      </trkpt>
      <trkpt lat="46.80387" lon="-1.98245">
        <ele>2</ele>
        <time>2018-01-14T15:58:07Z</time>
      </trkpt>
      <trkpt lat="46.80368" lon="-1.98222">
        <ele>2</ele>
        <time>2018-01-14T15:59:07Z</time>
      </trkpt>
      <trkpt lat="46.80368" lon="-1.98222">
        <ele>2</ele>
        <time>2018-01-14T16:00:07Z</time>
      </trkpt>
      <trkpt lat="46.80413" lon="-1.98157">
        <ele>2</ele>
        <time>2018-01-14T16:01:07Z</time>
      </trkpt>
      <trkpt lat="46.80479" lon="-1.98066">
        <ele>1</ele>
        <time>2018-01-14T16:02:07Z</time>
      </trkpt>
      <trkpt lat="46.80497" lon="-1.98037">
        <ele>1</ele>
        <time>2018-01-14T16:03:07Z</time>
      </trkpt>
      <trkpt lat="46.80513" lon="-1.98009">
        <ele>1</ele>
        <time>2018-01-14T16:04:07Z</time>
      </trkpt>
      <trkpt lat="46.80525" lon="-1.97978">
        <ele>1</ele>
        <time>2018-01-14T16:05:07Z</time>
      </trkpt>
      <trkpt lat="46.80528" lon="-1.97968">
        <ele>1</ele>
        <time>2018-01-14T16:06:07Z</time>
      </trkpt>
      <trkpt lat="46.80549" lon="-1.97909">
        <ele>1</ele>
        <time>2018-01-14T16:07:07Z</time>
      </trkpt>
      <trkpt lat="46.80571" lon="-1.97842">
        <ele>1</ele>
        <time>2018-01-14T16:08:07Z</time>
      </trkpt>
      <trkpt lat="46.80583" lon="-1.97807">
        <ele>1</ele>
        <time>2018-01-14T16:09:07Z</time>
      </trkpt>
      <trkpt lat="46.80593" lon="-1.97774">
        <ele>1</ele>
        <time>2018-01-14T16:10:07Z</time>
      </trkpt>
      <trkpt lat="46.80602" lon="-1.97728">
        <ele>1</ele>
        <time>2018-01-14T16:11:07Z</time>
      </trkpt>
      <trkpt lat="46.80607" lon="-1.97705">
        <ele>1</ele>
        <time>2018-01-14T16:12:07Z</time>
      </trkpt>
      <trkpt lat="46.80611" lon="-1.97672">
        <ele>1</ele>
        <time>2018-01-14T16:13:07Z</time>
      </trkpt>
      <trkpt lat="46.80612" lon="-1.97659">
        <ele>1</ele>
        <time>2018-01-14T16:14:07Z</time>
      </trkpt>
      <trkpt lat="46.80615" lon="-1.97615">
        <ele>1</ele>
        <time>2018-01-14T16:15:07Z</time>
      </trkpt>
      <trkpt lat="46.80614" lon="-1.97596">
        <ele>1</ele>
        <time>2018-01-14T16:16:07Z</time>
      </trkpt>
      <trkpt lat="46.80612" lon="-1.97567">
        <ele>1</ele>
        <time>2018-01-14T16:17:07Z</time>
      </trkpt>
      <trkpt lat="46.8061" lon="-1.97549">
        <ele>1</ele>
        <time>2018-01-14T16:18:07Z</time>
      </trkpt>
      <trkpt lat="46.80607" lon="-1.97531">
        <ele>1</ele>
        <time>2018-01-14T16:19:07Z</time>
      </trkpt>
      <trkpt lat="46.80603" lon="-1.97512">
        <ele>1</ele>
        <time>2018-01-14T16:20:07Z</time>
      </trkpt>
      <trkpt lat="46.80599" lon="-1.97498">
        <ele>2</ele>
        <time>2018-01-14T16:21:07Z</time>
      </trkpt>
      <trkpt lat="46.80585" lon="-1.97457">
        <ele>2</ele>
        <time>2018-01-14T16:22:07Z</time>
      </trkpt>
      <trkpt lat="46.80554" lon="-1.97385">
        <ele>2</ele>
        <time>2018-01-14T16:23:07Z</time>
      </trkpt>
      <trkpt lat="46.80537" lon="-1.97346">
        <ele>1</ele>
        <time>2018-01-14T16:24:07Z</time>
      </trkpt>
      <trkpt lat="46.80527" lon="-1.97318">
        <ele>1</ele>
        <time>2018-01-14T16:25:07Z</time>
      </trkpt>
      <trkpt lat="46.80524" lon="-1.97308">
        <ele>1</ele>
        <time>2018-01-14T16:26:07Z</time>
      </trkpt>
      <trkpt lat="46.80356" lon="-1.96583">
        <ele>2</ele>
        <time>2018-01-14T16:27:07Z</time>
      </trkpt>
      <trkpt lat="46.80354" lon="-1.96574">
        <ele>2</ele>
        <time>2018-01-14T16:28:07Z</time>
      </trkpt>
      <trkpt lat="46.80352" lon="-1.96566">
        <ele>2</ele>
        <time>2018-01-14T16:29:07Z</time>
      </trkpt>
      <trkpt lat="46.80343" lon="-1.96535">
        <ele>3</ele>
        <time>2018-01-14T16:30:07Z</time>
      </trkpt>
      <trkpt lat="46.80333" lon="-1.96502">
        <ele>3</ele>
        <time>2018-01-14T16:31:07Z</time>
      </trkpt>
      <trkpt lat="46.80323" lon="-1.96471">
        <ele>2</ele>
        <time>2018-01-14T16:32:07Z</time>
      </trkpt>
      <trkpt lat="46.80311" lon="-1.96432">
        <ele>2</ele>
        <time>2018-01-14T16:33:07Z</time>
      </trkpt>
      <trkpt lat="46.80298" lon="-1.96393">
        <ele>1</ele>
        <time>2018-01-14T16:34:07Z</time>
      </trkpt>
      <trkpt lat="46.80289" lon="-1.96365">
        <ele>1</ele>
        <time>2018-01-14T16:35:07Z</time>
      </trkpt>
      <trkpt lat="46.80282" lon="-1.96344">
        <ele>1</ele>
        <time>2018-01-14T16:36:07Z</time>
      </trkpt>
      <trkpt lat="46.8027" lon="-1.96305">
        <ele>1</ele>
        <time>2018-01-14T16:37:07Z</time>
      </trkpt>
      <trkpt lat="46.80265" lon="-1.96289">
        <ele>1</ele>
        <time>2018-01-14T16:38:07Z</time>
      </trkpt>
      <trkpt lat="46.80258" lon="-1.96268">
        <ele>1</ele>
        <time>2018-01-14T16:39:07Z</time>
      </trkpt>
      <trkpt lat="46.8025" lon="-1.96237">
        <ele>1</ele>
        <time>2018-01-14T16:40:07Z</time>
      </trkpt>
      <trkpt lat="46.80244" lon="-1.96202">
        <ele>2</ele>
        <time>2018-01-14T16:41:07Z</time>
      </trkpt>
      <trkpt lat="46.80242" lon="-1.9617">
        <ele>2</ele>
        <time>2018-01-14T16:42:07Z</time>
      </trkpt>
      <trkpt lat="46.80241" lon="-1.96142">
        <ele>1</ele>
        <time>2018-01-14T16:43:07Z</time>
      </trkpt>
      <trkpt lat="46.80242" lon="-1.96122">
        <ele>1</ele>
        <time>2018-01-14T16:44:07Z</time>
      </trkpt>
      <trkpt lat="46.80244" lon="-1.96102">
        <ele>1</ele>
        <time>2018-01-14T16:45:07Z</time>
      </trkpt>
      <trkpt lat="46.80248" lon="-1.96048">
        <ele>2</ele>
        <time>2018-01-14T16:46:07Z</time>
      </trkpt>
      <trkpt lat="46.80254" lon="-1.95975">
        <ele>2</ele>
        <time>2018-01-14T16:47:07Z</time>
      </trkpt>
      <trkpt lat="46.8026" lon="-1.95909">
        <ele>1</ele>
        <time>2018-01-14T16:48:07Z</time>
      </trkpt>
      <trkpt lat="46.80264" lon="-1.95854">
        <ele>1</ele>
        <time>2018-01-14T16:49:07Z</time>
      </trkpt>
      <trkpt lat="46.80266" lon="-1.95828">
        <ele>1</ele>
        <time>2018-01-14T16:50:07Z</time>
      </trkpt>
      <trkpt lat="46.80268" lon="-1.95806">
        <ele>1</ele>
        <time>2018-01-14T16:51:07Z</time>
      </trkpt>
      <trkpt lat="46.80271" lon="-1.95781">
        <ele>1</ele>
        <time>2018-01-14T16:52:07Z</time>
      </trkpt>
      <trkpt lat="46.80275" lon="-1.95756">
        <ele>1</ele>
        <time>2018-01-14T16:53:07Z</time>
      </trkpt>
      <trkpt lat="46.8028" lon="-1.95733">
        <ele>1</ele>
        <time>2018-01-14T16:54:07Z</time>
      </trkpt>
      <trkpt lat="46.80285" lon="-1.95713">
        <ele>1</ele>
        <time>2018-01-14T16:55:07Z</time>
      </trkpt>
      <trkpt lat="46.80288" lon="-1.95704">
        <ele>1</ele>
        <time>2018-01-14T16:56:07Z</time>
      </trkpt>
      <trkpt lat="46.80291" lon="-1.95697">
        <ele>1</ele>
        <time>2018-01-14T16:57:07Z</time>
      </trkpt>
      <trkpt lat="46.80297" lon="-1.95677">
        <ele>1</ele>
        <time>2018-01-14T16:58:07Z</time>
      </trkpt>
      <trkpt lat="46.8031" lon="-1.95636">
        <ele>2</ele>
        <time>2018-01-14T16:59:07Z</time>
      </trkpt>
      <trkpt lat="46.80323" lon="-1.95594">
        <ele>1.8</ele>
        <time>2018-01-14T17:00:07Z</time>
      </trkpt>
      <trkpt lat="46.80339" lon="-1.95545">
        <ele>1.8</ele>
        <time>2018-01-14T17:01:07Z</time>
      </trkpt>
      <trkpt lat="46.80355" lon="-1.95493">
        <ele>1.3</ele>
        <time>2018-01-14T17:02:07Z</time>
      </trkpt>
      <trkpt lat="46.80373" lon="-1.95436">
        <ele>1.3</ele>
        <time>2018-01-14T17:03:07Z</time>
      </trkpt>
      <trkpt lat="46.80389" lon="-1.95384">
        <ele>1</ele>
        <time>2018-01-14T17:04:07Z</time>
      </trkpt>
      <trkpt lat="46.80403" lon="-1.9534">
        <ele>1</ele>
        <time>2018-01-14T17:05:07Z</time>
      </trkpt>
      <trkpt lat="46.80411" lon="-1.95312">
        <ele>1.8</ele>
        <time>2018-01-14T17:06:07Z</time>
      </trkpt>
      <trkpt lat="46.80419" lon="-1.95289">
        <ele>2</ele>
        <time>2018-01-14T17:07:07Z</time>
      </trkpt>
      <trkpt lat="46.80427" lon="-1.95265">
        <ele>1.8</ele>
        <time>2018-01-14T17:08:07Z</time>
      </trkpt>
      <trkpt lat="46.80436" lon="-1.95231">
        <ele>1.3</ele>
        <time>2018-01-14T17:09:07Z</time>
      </trkpt>
      <trkpt lat="46.80452" lon="-1.9518">
        <ele>1.9</ele>
        <time>2018-01-14T17:10:07Z</time>
      </trkpt>
      <trkpt lat="46.80465" lon="-1.95136">
        <ele>1</ele>
        <time>2018-01-14T17:11:07Z</time>
      </trkpt>
      <trkpt lat="46.80477" lon="-1.95099">
        <ele>2</ele>
        <time>2018-01-14T17:12:07Z</time>
      </trkpt>
      <trkpt lat="46.80489" lon="-1.95069">
        <ele>2</ele>
        <time>2018-01-14T17:13:07Z</time>
      </trkpt>
      <trkpt lat="46.80499" lon="-1.95041">
        <ele>1</ele>
        <time>2018-01-14T17:14:07Z</time>
      </trkpt>
      <trkpt lat="46.80512" lon="-1.95008">
        <ele>1</ele>
        <time>2018-01-14T17:15:07Z</time>
      </trkpt>
      <trkpt lat="46.80523" lon="-1.9498">
        <ele>1</ele>
        <time>2018-01-14T17:16:07Z</time>
      </trkpt>
      <trkpt lat="46.80536" lon="-1.94945">
        <ele>2</ele>
        <time>2018-01-14T17:17:07Z</time>
      </trkpt>
      <trkpt lat="46.8055" lon="-1.94908">
        <ele>1</ele>
        <time>2018-01-14T17:18:07Z</time>
      </trkpt>
      <trkpt lat="46.80561" lon="-1.9488">
        <ele>1</ele>
        <time>2018-01-14T17:19:07Z</time>
      </trkpt>
      <trkpt lat="46.80566" lon="-1.94868">
        <ele>1</ele>
        <time>2018-01-14T17:20:07Z</time>
      </trkpt>
      <trkpt lat="46.80568" lon="-1.94861">
        <ele>1</ele>
        <time>2018-01-14T17:21:07Z</time>
      </trkpt>
      <trkpt lat="46.80578" lon="-1.94832">
        <ele>1</ele>
        <time>2018-01-14T17:22:07Z</time>
      </trkpt>
      <trkpt lat="46.80584" lon="-1.94805">
        <ele>1</ele>
        <time>2018-01-14T17:23:07Z</time>
      </trkpt>
      <trkpt lat="46.80588" lon="-1.94779">
        <ele>1</ele>
        <time>2018-01-14T17:24:07Z</time>
      </trkpt>
      <trkpt lat="46.8059" lon="-1.94754">
        <ele>1</ele>
        <time>2018-01-14T17:25:07Z</time>
      </trkpt>
      <trkpt lat="46.8059" lon="-1.94749">
        <ele>2</ele>
        <time>2018-01-14T17:26:07Z</time>
      </trkpt>
      <trkpt lat="46.80593" lon="-1.94712">
        <ele>1</ele>
        <time>2018-01-14T17:27:07Z</time>
      </trkpt>
      <trkpt lat="46.80596" lon="-1.94663">
        <ele>1</ele>
        <time>2018-01-14T17:28:07Z</time>
      </trkpt>
      <trkpt lat="46.806" lon="-1.94613">
        <ele>1</ele>
        <time>2018-01-14T17:29:07Z</time>
      </trkpt>
      <trkpt lat="46.80603" lon="-1.94575">
        <ele>1.2</ele>
        <time>2018-01-14T17:30:07Z</time>
      </trkpt>
      <trkpt lat="46.80608" lon="-1.94516">
        <ele>2</ele>
        <time>2018-01-14T17:31:07Z</time>
      </trkpt>
      <trkpt lat="46.80612" lon="-1.94462">
        <ele>2</ele>
        <time>2018-01-14T17:32:07Z</time>
      </trkpt>
      <trkpt lat="46.80614" lon="-1.94432">
        <ele>2</ele>
        <time>2018-01-14T17:33:07Z</time>
      </trkpt>
      <trkpt lat="46.80618" lon="-1.94386">
        <ele>1.8</ele>
        <time>2018-01-14T17:34:07Z</time>
      </trkpt>
      <trkpt lat="46.80621" lon="-1.94336">
        <ele>2</ele>
        <time>2018-01-14T17:35:07Z</time>
      </trkpt>
      <trkpt lat="46.80625" lon="-1.94294">
        <ele>2</ele>
        <time>2018-01-14T17:36:07Z</time>
      </trkpt>
      <trkpt lat="46.80629" lon="-1.94244">
        <ele>1</ele>
        <time>2018-01-14T17:37:07Z</time>
      </trkpt>
      <trkpt lat="46.80633" lon="-1.9419">
        <ele>1</ele>
        <time>2018-01-14T17:38:07Z</time>
      </trkpt>
      <trkpt lat="46.80635" lon="-1.9416">
        <ele>1</ele>
        <time>2018-01-14T17:39:07Z</time>
      </trkpt>
      <trkpt lat="46.80638" lon="-1.94119">
        <ele>1</ele>
        <time>2018-01-14T17:40:07Z</time>
      </trkpt>
      <trkpt lat="46.80642" lon="-1.94074">
        <ele>1</ele>
        <time>2018-01-14T17:41:07Z</time>
      </trkpt>
      <trkpt lat="46.80645" lon="-1.94036">
        <ele>1</ele>
        <time>2018-01-14T17:42:07Z</time>
      </trkpt>
      <trkpt lat="46.80647" lon="-1.94004">
        <ele>1</ele>
        <time>2018-01-14T17:43:07Z</time>
      </trkpt>
      <trkpt lat="46.8065" lon="-1.93966">
        <ele>1</ele>
        <time>2018-01-14T17:44:07Z</time>
      </trkpt>
      <trkpt lat="46.80653" lon="-1.93929">
        <ele>1</ele>
        <time>2018-01-14T17:45:07Z</time>
      </trkpt>
      <trkpt lat="46.80657" lon="-1.93896">
        <ele>1</ele>
        <time>2018-01-14T17:46:07Z</time>
      </trkpt>
      <trkpt lat="46.80661" lon="-1.93872">
        <ele>1.6</ele>
        <time>2018-01-14T17:47:07Z</time>
      </trkpt>
      <trkpt lat="46.80666" lon="-1.93852">
        <ele>2</ele>
        <time>2018-01-14T17:48:07Z</time>
      </trkpt>
      <trkpt lat="46.80671" lon="-1.93836">
        <ele>2</ele>
        <time>2018-01-14T17:49:07Z</time>
      </trkpt>
      <trkpt lat="46.80677" lon="-1.93821">
        <ele>1.8</ele>
        <time>2018-01-14T17:50:07Z</time>
      </trkpt>
      <trkpt lat="46.8068" lon="-1.93812">
        <ele>1.6</ele>
        <time>2018-01-14T17:51:07Z</time>
      </trkpt>
      <trkpt lat="46.80691" lon="-1.93785">
        <ele>1</ele>
        <time>2018-01-14T17:52:07Z</time>
      </trkpt>
      <trkpt lat="46.807" lon="-1.93766">
        <ele>1</ele>
        <time>2018-01-14T17:53:07Z</time>
      </trkpt>
      <trkpt lat="46.80711" lon="-1.93739">
        <ele>1</ele>
        <time>2018-01-14T17:54:07Z</time>
      </trkpt>
      <trkpt lat="46.80725" lon="-1.93706">
        <ele>2</ele>
        <time>2018-01-14T17:55:07Z</time>
      </trkpt>
      <trkpt lat="46.80738" lon="-1.93674">
        <ele>2</ele>
        <time>2018-01-14T17:56:07Z</time>
      </trkpt>
      <trkpt lat="46.80751" lon="-1.93641">
        <ele>2</ele>
        <time>2018-01-14T17:57:07Z</time>
      </trkpt>
      <trkpt lat="46.80759" lon="-1.93616">
        <ele>2</ele>
        <time>2018-01-14T17:58:07Z</time>
      </trkpt>
      <trkpt lat="46.8076" lon="-1.93608">
        <ele>2</ele>
        <time>2018-01-14T17:59:07Z</time>
      </trkpt>
      <trkpt lat="46.80763" lon="-1.93592">
        <ele>2</ele>
        <time>2018-01-14T18:00:07Z</time>
      </trkpt>
      <trkpt lat="46.80764" lon="-1.93577">
        <ele>2</ele>
        <time>2018-01-14T18:01:07Z</time>
      </trkpt>
      <trkpt lat="46.80766" lon="-1.9355">
        <ele>1</ele>
        <time>2018-01-14T18:02:07Z</time>
      </trkpt>
      <trkpt lat="46.80767" lon="-1.93516">
        <ele>1</ele>
        <time>2018-01-14T18:03:07Z</time>
      </trkpt>
      <trkpt lat="46.80768" lon="-1.93481">
        <ele>1</ele>
        <time>2018-01-14T18:04:07Z</time>
      </trkpt>
      <trkpt lat="46.80769" lon="-1.93455">
        <ele>1</ele>
        <time>2018-01-14T18:05:07Z</time>
      </trkpt>
      <trkpt lat="46.80771" lon="-1.93409">
        <ele>1</ele>
        <time>2018-01-14T18:06:07Z</time>
      </trkpt>
      <trkpt lat="46.80772" lon="-1.93378">
        <ele>1</ele>
        <time>2018-01-14T18:07:07Z</time>
      </trkpt>
      <trkpt lat="46.80773" lon="-1.93346">
        <ele>1</ele>
        <time>2018-01-14T18:08:07Z</time>
      </trkpt>
      <trkpt lat="46.80774" lon="-1.93304">
        <ele>1</ele>
        <time>2018-01-14T18:09:07Z</time>
      </trkpt>
      <trkpt lat="46.80775" lon="-1.93249">
        <ele>1.9</ele>
        <time>2018-01-14T18:10:07Z</time>
      </trkpt>
      <trkpt lat="46.80776" lon="-1.93224">
        <ele>2</ele>
        <time>2018-01-14T18:11:07Z</time>
      </trkpt>
      <trkpt lat="46.80778" lon="-1.93203">
        <ele>2</ele>
        <time>2018-01-14T18:12:07Z</time>
      </trkpt>
      <trkpt lat="46.80781" lon="-1.93183">
        <ele>2</ele>
        <time>2018-01-14T18:13:07Z</time>
      </trkpt>
      <trkpt lat="46.80785" lon="-1.93165">
        <ele>2</ele>
        <time>2018-01-14T18:14:07Z</time>
      </trkpt>
      <trkpt lat="46.80789" lon="-1.93147">
        <ele>1.6</ele>
        <time>2018-01-14T18:15:07Z</time>
      </trkpt>
      <trkpt lat="46.80793" lon="-1.93132">
        <ele>1.4</ele>
        <time>2018-01-14T18:16:07Z</time>
      </trkpt>
      <trkpt lat="46.80797" lon="-1.93117">
        <ele>1.1</ele>
        <time>2018-01-14T18:17:07Z</time>
      </trkpt>
      <trkpt lat="46.80798" lon="-1.93115">
        <ele>1.1</ele>
        <time>2018-01-14T18:18:07Z</time>
      </trkpt>
      <trkpt lat="46.80799" lon="-1.9311">
        <ele>1.1</ele>
        <time>2018-01-14T18:19:07Z</time>
      </trkpt>
      <trkpt lat="46.80802" lon="-1.93104">
        <ele>1.5</ele>
        <time>2018-01-14T18:20:07Z</time>
      </trkpt>
      <trkpt lat="46.80805" lon="-1.93096">
        <ele>2.1</ele>
        <time>2018-01-14T18:21:07Z</time>
      </trkpt>
      <trkpt lat="46.80814" lon="-1.93072">
        <ele>1</ele>
        <time>2018-01-14T18:22:07Z</time>
      </trkpt>
      <trkpt lat="46.80836" lon="-1.9301">
        <ele>1</ele>
        <time>2018-01-14T18:23:07Z</time>
      </trkpt>
      <trkpt lat="46.80857" lon="-1.92955">
        <ele>1</ele>
        <time>2018-01-14T18:24:07Z</time>
      </trkpt>
      <trkpt lat="46.80868" lon="-1.92922">
        <ele>1</ele>
        <time>2018-01-14T18:25:07Z</time>
      </trkpt>
      <trkpt lat="46.80875" lon="-1.92901">
        <ele>1</ele>
        <time>2018-01-14T18:26:07Z</time>
      </trkpt>
      <trkpt lat="46.8088" lon="-1.92882">
        <ele>1</ele>
        <time>2018-01-14T18:27:07Z</time>
      </trkpt>
      <trkpt lat="46.80883" lon="-1.92863">
        <ele>1</ele>
        <time>2018-01-14T18:28:07Z</time>
      </trkpt>
      <trkpt lat="46.80885" lon="-1.92842">
        <ele>1</ele>
        <time>2018-01-14T18:29:07Z</time>
      </trkpt>
      <trkpt lat="46.80886" lon="-1.92822">
        <ele>1</ele>
        <time>2018-01-14T18:30:07Z</time>
      </trkpt>
      <trkpt lat="46.80885" lon="-1.92799">
        <ele>1</ele>
        <time>2018-01-14T18:31:07Z</time>
      </trkpt>
      <trkpt lat="46.80881" lon="-1.92775">
        <ele>1</ele>
        <time>2018-01-14T18:32:07Z</time>
      </trkpt>
      <trkpt lat="46.80874" lon="-1.92747">
        <ele>1</ele>
        <time>2018-01-14T18:33:07Z</time>
      </trkpt>
      <trkpt lat="46.80864" lon="-1.92712">
        <ele>1</ele>
        <time>2018-01-14T18:34:07Z</time>
      </trkpt>
      <trkpt lat="46.80854" lon="-1.92678">
        <ele>1</ele>
        <time>2018-01-14T18:35:07Z</time>
      </trkpt>
      <trkpt lat="46.8085" lon="-1.92663">
        <ele>1.4</ele>
        <time>2018-01-14T18:36:07Z</time>
      </trkpt>
      <trkpt lat="46.80848" lon="-1.92648">
        <ele>1.5</ele>
        <time>2018-01-14T18:37:07Z</time>
      </trkpt>
      <trkpt lat="46.80846" lon="-1.92633">
        <ele>1.6</ele>
        <time>2018-01-14T18:38:07Z</time>
      </trkpt>
      <trkpt lat="46.80845" lon="-1.92618">
        <ele>1.9</ele>
        <time>2018-01-14T18:39:07Z</time>
      </trkpt>
      <trkpt lat="46.80845" lon="-1.92603">
        <ele>2.2</ele>
        <time>2018-01-14T18:40:07Z</time>
      </trkpt>
      <trkpt lat="46.80849" lon="-1.92548">
        <ele>1</ele>
        <time>2018-01-14T18:41:07Z</time>
      </trkpt>
      <trkpt lat="46.8085" lon="-1.92539">
        <ele>1</ele>
        <time>2018-01-14T18:42:07Z</time>
      </trkpt>
      <trkpt lat="46.80852" lon="-1.925">
        <ele>2</ele>
        <time>2018-01-14T18:43:07Z</time>
      </trkpt>
      <trkpt lat="46.80853" lon="-1.92478">
        <ele>2</ele>
        <time>2018-01-14T18:44:07Z</time>
      </trkpt>
      <trkpt lat="46.80853" lon="-1.92462">
        <ele>3</ele>
        <time>2018-01-14T18:45:07Z</time>
      </trkpt>
      <trkpt lat="46.80853" lon="-1.92459">
        <ele>3</ele>
        <time>2018-01-14T18:46:07Z</time>
      </trkpt>
      <trkpt lat="46.80852" lon="-1.92442">
        <ele>3</ele>
        <time>2018-01-14T18:47:07Z</time>
      </trkpt>
      <trkpt lat="46.80851" lon="-1.92424">
        <ele>4</ele>
        <time>2018-01-14T18:48:07Z</time>
      </trkpt>
      <trkpt lat="46.80848" lon="-1.92404">
        <ele>4</ele>
        <time>2018-01-14T18:49:07Z</time>
      </trkpt>
      <trkpt lat="46.80844" lon="-1.92383">
        <ele>4</ele>
        <time>2018-01-14T18:50:07Z</time>
      </trkpt>
      <trkpt lat="46.80839" lon="-1.92364">
        <ele>5</ele>
        <time>2018-01-14T18:51:07Z</time>
      </trkpt>
      <trkpt lat="46.80831" lon="-1.92338">
        <ele>5</ele>
        <time>2018-01-14T18:52:07Z</time>
      </trkpt>
      <trkpt lat="46.80828" lon="-1.92327">
        <ele>5</ele>
        <time>2018-01-14T18:53:07Z</time>
      </trkpt>
      <trkpt lat="46.80824" lon="-1.92313">
        <ele>5</ele>
        <time>2018-01-14T18:54:07Z</time>
      </trkpt>
      <trkpt lat="46.80818" lon="-1.92297">
        <ele>5</ele>
        <time>2018-01-14T18:55:07Z</time>
      </trkpt>
      <trkpt lat="46.8081" lon="-1.92272">
        <ele>5</ele>
        <time>2018-01-14T18:56:07Z</time>
      </trkpt>
      <trkpt lat="46.80802" lon="-1.92248">
        <ele>5</ele>
        <time>2018-01-14T18:57:07Z</time>
      </trkpt>
      <trkpt lat="46.80796" lon="-1.92232">
        <ele>5</ele>
        <time>2018-01-14T18:58:07Z</time>
      </trkpt>
      <trkpt lat="46.80789" lon="-1.92216">
        <ele>4</ele>
        <time>2018-01-14T18:59:07Z</time>
      </trkpt>
      <trkpt lat="46.80781" lon="-1.92196">
        <ele>4</ele>
        <time>2018-01-14T19:00:07Z</time>
      </trkpt>
      <trkpt lat="46.80775" lon="-1.9218">
        <ele>4</ele>
        <time>2018-01-14T19:01:07Z</time>
      </trkpt>
      <trkpt lat="46.80773" lon="-1.92177">
        <ele>4</ele>
        <time>2018-01-14T19:02:07Z</time>
      </trkpt>
      <trkpt lat="46.80767" lon="-1.92165">
        <ele>4</ele>
        <time>2018-01-14T19:03:07Z</time>
      </trkpt>
      <trkpt lat="46.80734" lon="-1.92103">
        <ele>4</ele>
        <time>2018-01-14T19:04:07Z</time>
      </trkpt>
      <trkpt lat="46.807" lon="-1.92035">
        <ele>4</ele>
        <time>2018-01-14T19:05:07Z</time>
      </trkpt>
      <trkpt lat="46.80676" lon="-1.91991">
        <ele>4</ele>
        <time>2018-01-14T19:06:07Z</time>
      </trkpt>
      <trkpt lat="46.80652" lon="-1.91948">
        <ele>5</ele>
        <time>2018-01-14T19:07:07Z</time>
      </trkpt>
      <trkpt lat="46.8064" lon="-1.91921">
        <ele>5</ele>
        <time>2018-01-14T19:08:07Z</time>
      </trkpt>
      <trkpt lat="46.80634" lon="-1.91902">
        <ele>5</ele>
        <time>2018-01-14T19:09:07Z</time>
      </trkpt>
      <trkpt lat="46.80627" lon="-1.91883">
        <ele>5</ele>
        <time>2018-01-14T19:10:07Z</time>
      </trkpt>
      <trkpt lat="46.80621" lon="-1.91862">
        <ele>5</ele>
        <time>2018-01-14T19:11:07Z</time>
      </trkpt>
      <trkpt lat="46.8062" lon="-1.91857">
        <ele>5</ele>
        <time>2018-01-14T19:12:07Z</time>
      </trkpt>
      <trkpt lat="46.80617" lon="-1.91842">
        <ele>5</ele>
        <time>2018-01-14T19:13:07Z</time>
      </trkpt>
      <trkpt lat="46.80613" lon="-1.91824">
        <ele>5</ele>
        <time>2018-01-14T19:14:07Z</time>
      </trkpt>
      <trkpt lat="46.8061" lon="-1.91803">
        <ele>5</ele>
        <time>2018-01-14T19:15:07Z</time>
      </trkpt>
      <trkpt lat="46.80607" lon="-1.91785">
        <ele>5</ele>
        <time>2018-01-14T19:16:07Z</time>
      </trkpt>
      <trkpt lat="46.80604" lon="-1.91749">
        <ele>5</ele>
        <time>2018-01-14T19:17:07Z</time>
      </trkpt>
      <trkpt lat="46.806" lon="-1.91717">
        <ele>5</ele>
        <time>2018-01-14T19:18:07Z</time>
      </trkpt>
      <trkpt lat="46.80596" lon="-1.91699">
        <ele>5</ele>
        <time>2018-01-14T19:19:07Z</time>
      </trkpt>
      <trkpt lat="46.80591" lon="-1.91683">
        <ele>6</ele>
        <time>2018-01-14T19:20:07Z</time>
      </trkpt>
      <trkpt lat="46.80585" lon="-1.91669">
        <ele>6</ele>
        <time>2018-01-14T19:21:07Z</time>
      </trkpt>
      <trkpt lat="46.80582" lon="-1.91662">
        <ele>6</ele>
        <time>2018-01-14T19:22:07Z</time>
      </trkpt>
      <trkpt lat="46.80575" lon="-1.91647">
        <ele>6</ele>
        <time>2018-01-14T19:23:07Z</time>
      </trkpt>
      <trkpt lat="46.80569" lon="-1.91638">
        <ele>6</ele>
        <time>2018-01-14T19:24:07Z</time>
      </trkpt>
      <trkpt lat="46.80555" lon="-1.91623">
        <ele>7</ele>
        <time>2018-01-14T19:25:07Z</time>
      </trkpt>
      <trkpt lat="46.80542" lon="-1.91609">
        <ele>7</ele>
        <time>2018-01-14T19:26:07Z</time>
      </trkpt>
      <trkpt lat="46.8051" lon="-1.91583">
        <ele>8</ele>
        <time>2018-01-14T19:27:07Z</time>
      </trkpt>
      <trkpt lat="46.80488" lon="-1.91562">
        <ele>8</ele>
        <time>2018-01-14T19:28:07Z</time>
      </trkpt>
      <trkpt lat="46.80475" lon="-1.91547">
        <ele>8</ele>
        <time>2018-01-14T19:29:07Z</time>
      </trkpt>
      <trkpt lat="46.80458" lon="-1.91527">
        <ele>8</ele>
        <time>2018-01-14T19:30:07Z</time>
      </trkpt>
      <trkpt lat="46.80412" lon="-1.91464">
        <ele>8</ele>
        <time>2018-01-14T19:31:07Z</time>
      </trkpt>
      <trkpt lat="46.80398" lon="-1.91445">
        <ele>8</ele>
        <time>2018-01-14T19:32:07Z</time>
      </trkpt>
      <trkpt lat="46.80384" lon="-1.91425">
        <ele>8</ele>
        <time>2018-01-14T19:33:07Z</time>
      </trkpt>
      <trkpt lat="46.80366" lon="-1.91399">
        <ele>8</ele>
        <time>2018-01-14T19:34:07Z</time>
      </trkpt>
      <trkpt lat="46.80354" lon="-1.91379">
        <ele>8</ele>
        <time>2018-01-14T19:35:07Z</time>
      </trkpt>
      <trkpt lat="46.80351" lon="-1.91372">
        <ele>8</ele>
        <time>2018-01-14T19:36:07Z</time>
      </trkpt>
      <trkpt lat="46.80346" lon="-1.91361">
        <ele>8</ele>
        <time>2018-01-14T19:37:07Z</time>
      </trkpt>
      <trkpt lat="46.80339" lon="-1.91346">
        <ele>8</ele>
        <time>2018-01-14T19:38:07Z</time>
      </trkpt>
      <trkpt lat="46.80333" lon="-1.91328">
        <ele>8</ele>
        <time>2018-01-14T19:39:07Z</time>
      </trkpt>
      <trkpt lat="46.80327" lon="-1.9131">
        <ele>8</ele>
        <time>2018-01-14T19:40:07Z</time>
      </trkpt>
      <trkpt lat="46.80323" lon="-1.91291">
        <ele>8</ele>
        <time>2018-01-14T19:41:07Z</time>
      </trkpt>
      <trkpt lat="46.80321" lon="-1.91277">
        <ele>8</ele>
        <time>2018-01-14T19:42:07Z</time>
      </trkpt>
      <trkpt lat="46.80318" lon="-1.91265">
        <ele>8</ele>
        <time>2018-01-14T19:43:07Z</time>
      </trkpt>
      <trkpt lat="46.80318" lon="-1.9126">
        <ele>8</ele>
        <time>2018-01-14T19:44:07Z</time>
      </trkpt>
      <trkpt lat="46.80315" lon="-1.91235">
        <ele>8</ele>
        <time>2018-01-14T19:45:07Z</time>
      </trkpt>
      <trkpt lat="46.80307" lon="-1.9116">
        <ele>8</ele>
        <time>2018-01-14T19:46:07Z</time>
      </trkpt>
      <trkpt lat="46.80298" lon="-1.91077">
        <ele>9</ele>
        <time>2018-01-14T19:47:07Z</time>
      </trkpt>
      <trkpt lat="46.80298" lon="-1.91076">
        <ele>9</ele>
        <time>2018-01-14T19:48:07Z</time>
      </trkpt>
      <trkpt lat="46.80295" lon="-1.91048">
        <ele>10</ele>
        <time>2018-01-14T19:49:07Z</time>
      </trkpt>
      <trkpt lat="46.80292" lon="-1.91027">
        <ele>11</ele>
        <time>2018-01-14T19:50:07Z</time>
      </trkpt>
      <trkpt lat="46.80288" lon="-1.90998">
        <ele>11</ele>
        <time>2018-01-14T19:51:07Z</time>
      </trkpt>
      <trkpt lat="46.80288" lon="-1.90996">
        <ele>12</ele>
        <time>2018-01-14T19:52:07Z</time>
      </trkpt>
      <trkpt lat="46.80285" lon="-1.9098">
        <ele>12</ele>
        <time>2018-01-14T19:53:07Z</time>
      </trkpt>
      <trkpt lat="46.8028" lon="-1.90962">
        <ele>12</ele>
        <time>2018-01-14T19:54:07Z</time>
      </trkpt>
      <trkpt lat="46.80276" lon="-1.90948">
        <ele>12</ele>
        <time>2018-01-14T19:55:07Z</time>
      </trkpt>
      <trkpt lat="46.80273" lon="-1.9094">
        <ele>12</ele>
        <time>2018-01-14T19:56:07Z</time>
      </trkpt>
      <trkpt lat="46.80272" lon="-1.90939">
        <ele>12</ele>
        <time>2018-01-14T19:57:07Z</time>
      </trkpt>
      <trkpt lat="46.80267" lon="-1.90923">
        <ele>12</ele>
        <time>2018-01-14T19:58:07Z</time>
      </trkpt>
      <trkpt lat="46.80267" lon="-1.90923">
        <ele>12</ele>
        <time>2018-01-14T19:59:07Z</time>
      </trkpt>
      <trkpt lat="46.80271" lon="-1.9091">
        <ele>12</ele>
        <time>2018-01-14T20:00:07Z</time>
      </trkpt>
      <trkpt lat="46.80271" lon="-1.90899">
        <ele>12</ele>
        <time>2018-01-14T20:01:07Z</time>
      </trkpt>
      <trkpt lat="46.80268" lon="-1.90855">
        <ele>12</ele>
        <time>2018-01-14T20:02:07Z</time>
      </trkpt>
      <trkpt lat="46.80264" lon="-1.90802">
        <ele>12</ele>
        <time>2018-01-14T20:03:07Z</time>
      </trkpt>
      <trkpt lat="46.80261" lon="-1.90764">
        <ele>12</ele>
        <time>2018-01-14T20:04:07Z</time>
      </trkpt>
      <trkpt lat="46.8026" lon="-1.90727">
        <ele>13</ele>
        <time>2018-01-14T20:05:07Z</time>
      </trkpt>
      <trkpt lat="46.80258" lon="-1.90693">
        <ele>13</ele>
        <time>2018-01-14T20:06:07Z</time>
      </trkpt>
      <trkpt lat="46.80257" lon="-1.90671">
        <ele>14</ele>
        <time>2018-01-14T20:07:07Z</time>
      </trkpt>
      <trkpt lat="46.80256" lon="-1.90649">
        <ele>14</ele>
        <time>2018-01-14T20:08:07Z</time>
      </trkpt>
      <trkpt lat="46.80248" lon="-1.90557">
        <ele>15</ele>
        <time>2018-01-14T20:09:07Z</time>
      </trkpt>
      <trkpt lat="46.80243" lon="-1.90501">
        <ele>15</ele>
        <time>2018-01-14T20:10:07Z</time>
      </trkpt>
      <trkpt lat="46.80241" lon="-1.90472">
        <ele>15</ele>
        <time>2018-01-14T20:11:07Z</time>
      </trkpt>
      <trkpt lat="46.80241" lon="-1.9047">
        <ele>15</ele>
        <time>2018-01-14T20:12:07Z</time>
      </trkpt>
      <trkpt lat="46.80241" lon="-1.90463">
        <ele>15</ele>
        <time>2018-01-14T20:13:07Z</time>
      </trkpt>
      <trkpt lat="46.8024" lon="-1.90445">
        <ele>16</ele>
        <time>2018-01-14T20:14:07Z</time>
      </trkpt>
      <trkpt lat="46.8024" lon="-1.90425">
        <ele>16</ele>
        <time>2018-01-14T20:15:07Z</time>
      </trkpt>
      <trkpt lat="46.8024" lon="-1.90393">
        <ele>16</ele>
        <time>2018-01-14T20:16:07Z</time>
      </trkpt>
      <trkpt lat="46.80241" lon="-1.90357">
        <ele>17</ele>
        <time>2018-01-14T20:17:07Z</time>
      </trkpt>
      <trkpt lat="46.80249" lon="-1.90235">
        <ele>17</ele>
        <time>2018-01-14T20:18:07Z</time>
      </trkpt>
      <trkpt lat="46.80254" lon="-1.90187">
        <ele>17</ele>
        <time>2018-01-14T20:19:07Z</time>
      </trkpt>
      <trkpt lat="46.80259" lon="-1.90155">
        <ele>17</ele>
        <time>2018-01-14T20:20:07Z</time>
      </trkpt>
      <trkpt lat="46.80263" lon="-1.90128">
        <ele>18</ele>
        <time>2018-01-14T20:21:07Z</time>
      </trkpt>
      <trkpt lat="46.8027" lon="-1.90099">
        <ele>18</ele>
        <time>2018-01-14T20:22:07Z</time>
      </trkpt>
      <trkpt lat="46.80282" lon="-1.90045">
        <ele>19</ele>
        <time>2018-01-14T20:23:07Z</time>
      </trkpt>
      <trkpt lat="46.80286" lon="-1.90028">
        <ele>20</ele>
        <time>2018-01-14T20:24:07Z</time>
      </trkpt>
      <trkpt lat="46.80297" lon="-1.89985">
        <ele>20</ele>
        <time>2018-01-14T20:25:07Z</time>
      </trkpt>
      <trkpt lat="46.80314" lon="-1.89916">
        <ele>19</ele>
        <time>2018-01-14T20:26:07Z</time>
      </trkpt>
      <trkpt lat="46.80321" lon="-1.89887">
        <ele>19</ele>
        <time>2018-01-14T20:27:07Z</time>
      </trkpt>
      <trkpt lat="46.80346" lon="-1.89785">
        <ele>19</ele>
        <time>2018-01-14T20:28:07Z</time>
      </trkpt>
      <trkpt lat="46.80353" lon="-1.89758">
        <ele>18</ele>
        <time>2018-01-14T20:29:07Z</time>
      </trkpt>
      <trkpt lat="46.80363" lon="-1.89715">
        <ele>19</ele>
        <time>2018-01-14T20:30:07Z</time>
      </trkpt>
      <trkpt lat="46.80372" lon="-1.89679">
        <ele>19</ele>
        <time>2018-01-14T20:31:07Z</time>
      </trkpt>
      <trkpt lat="46.80372" lon="-1.89657">
        <ele>19</ele>
        <time>2018-01-14T20:32:07Z</time>
      </trkpt>
      <trkpt lat="46.80372" lon="-1.89657">
        <ele>19</ele>
        <time>2018-01-14T20:33:07Z</time>
      </trkpt>
      <trkpt lat="46.80372" lon="-1.89656">
        <ele>19</ele>
        <time>2018-01-14T20:34:07Z</time>
      </trkpt>
      <trkpt lat="46.8037" lon="-1.89654">
        <ele>19</ele>
        <time>2018-01-14T20:35:07Z</time>
      </trkpt>
      <trkpt lat="46.8037" lon="-1.89652">
        <ele>19</ele>
        <time>2018-01-14T20:36:07Z</time>
      </trkpt>
      <trkpt lat="46.80369" lon="-1.89648">
        <ele>19</ele>
        <time>2018-01-14T20:37:07Z</time>
      </trkpt>
      <trkpt lat="46.80369" lon="-1.89644">
        <ele>19</ele>
        <time>2018-01-14T20:38:07Z</time>
      </trkpt>
      <trkpt lat="46.8037" lon="-1.89641">
        <ele>20</ele>
        <time>2018-01-14T20:39:07Z</time>
      </trkpt>
      <trkpt lat="46.80371" lon="-1.89637">
        <ele>20</ele>
        <time>2018-01-14T20:40:07Z</time>
      </trkpt>
      <trkpt lat="46.80373" lon="-1.89635">
        <ele>20</ele>
        <time>2018-01-14T20:41:07Z</time>
      </trkpt>
      <trkpt lat="46.80375" lon="-1.89634">
        <ele>20</ele>
        <time>2018-01-14T20:42:07Z</time>
      </trkpt>
      <trkpt lat="46.80378" lon="-1.89633">
        <ele>20</ele>
        <time>2018-01-14T20:43:07Z</time>
      </trkpt>
      <trkpt lat="46.80392" lon="-1.89614">
        <ele>20</ele>
        <time>2018-01-14T20:44:07Z</time>
      </trkpt>
      <trkpt lat="46.80416" lon="-1.89563">
        <ele>21</ele>
        <time>2018-01-14T20:45:07Z</time>
      </trkpt>
      <trkpt lat="46.80428" lon="-1.8954">
        <ele>21</ele>
        <time>2018-01-14T20:46:07Z</time>
      </trkpt>
      <trkpt lat="46.80437" lon="-1.8952">
        <ele>20</ele>
        <time>2018-01-14T20:47:07Z</time>
      </trkpt>
      <trkpt lat="46.80454" lon="-1.89484">
        <ele>20</ele>
        <time>2018-01-14T20:48:07Z</time>
      </trkpt>
      <trkpt lat="46.80467" lon="-1.89459">
        <ele>20</ele>
        <time>2018-01-14T20:49:07Z</time>
      </trkpt>
      <trkpt lat="46.80467" lon="-1.89457">
        <ele>20</ele>
        <time>2018-01-14T20:50:07Z</time>
      </trkpt>
      <trkpt lat="46.80475" lon="-1.8944">
        <ele>21</ele>
        <time>2018-01-14T20:51:07Z</time>
      </trkpt>
      <trkpt lat="46.80475" lon="-1.89438">
        <ele>21</ele>
        <time>2018-01-14T20:52:07Z</time>
      </trkpt>
      <trkpt lat="46.80483" lon="-1.89418">
        <ele>21</ele>
        <time>2018-01-14T20:53:07Z</time>
      </trkpt>
      <trkpt lat="46.80492" lon="-1.89397">
        <ele>21</ele>
        <time>2018-01-14T20:54:07Z</time>
      </trkpt>
      <trkpt lat="46.805" lon="-1.89376">
        <ele>21</ele>
        <time>2018-01-14T20:55:07Z</time>
      </trkpt>
      <trkpt lat="46.80506" lon="-1.89356">
        <ele>22</ele>
        <time>2018-01-14T20:56:07Z</time>
      </trkpt>
      <trkpt lat="46.80511" lon="-1.89342">
        <ele>22</ele>
        <time>2018-01-14T20:57:07Z</time>
      </trkpt>
      <trkpt lat="46.80519" lon="-1.89312">
        <ele>22</ele>
        <time>2018-01-14T20:58:07Z</time>
      </trkpt>
      <trkpt lat="46.80527" lon="-1.89283">
        <ele>22</ele>
        <time>2018-01-14T20:59:07Z</time>
      </trkpt>
      <trkpt lat="46.80532" lon="-1.89265">
        <ele>22</ele>
        <time>2018-01-14T21:00:07Z</time>
      </trkpt>
      <trkpt lat="46.80537" lon="-1.89245">
        <ele>22</ele>
        <time>2018-01-14T21:01:07Z</time>
      </trkpt>
      <trkpt lat="46.8054" lon="-1.89227">
        <ele>22</ele>
        <time>2018-01-14T21:02:07Z</time>
      </trkpt>
      <trkpt lat="46.80542" lon="-1.89221">
        <ele>22</ele>
        <time>2018-01-14T21:03:07Z</time>
      </trkpt>
      <trkpt lat="46.80545" lon="-1.89196">
        <ele>22</ele>
        <time>2018-01-14T21:04:07Z</time>
      </trkpt>
      <trkpt lat="46.80551" lon="-1.89144">
        <ele>21</ele>
        <time>2018-01-14T21:05:07Z</time>
      </trkpt>
      <trkpt lat="46.80557" lon="-1.89097">
        <ele>21</ele>
        <time>2018-01-14T21:06:07Z</time>
      </trkpt>
      <trkpt lat="46.80563" lon="-1.89045">
        <ele>20</ele>
        <time>2018-01-14T21:07:07Z</time>
      </trkpt>
      <trkpt lat="46.80566" lon="-1.89011">
        <ele>20</ele>
        <time>2018-01-14T21:08:07Z</time>
      </trkpt>
      <trkpt lat="46.80567" lon="-1.88992">
        <ele>20</ele>
        <time>2018-01-14T21:09:07Z</time>
      </trkpt>
      <trkpt lat="46.80566" lon="-1.88977">
        <ele>20</ele>
        <time>2018-01-14T21:10:07Z</time>
      </trkpt>
      <trkpt lat="46.80564" lon="-1.88963">
        <ele>20</ele>
        <time>2018-01-14T21:11:07Z</time>
      </trkpt>
      <trkpt lat="46.80561" lon="-1.88953">
        <ele>20</ele>
        <time>2018-01-14T21:12:07Z</time>
      </trkpt>
      <trkpt lat="46.80556" lon="-1.88938">
        <ele>20</ele>
        <time>2018-01-14T21:13:07Z</time>
      </trkpt>
      <trkpt lat="46.80541" lon="-1.88904">
        <ele>19</ele>
        <time>2018-01-14T21:14:07Z</time>
      </trkpt>
      <trkpt lat="46.80533" lon="-1.88887">
        <ele>19</ele>
        <time>2018-01-14T21:15:07Z</time>
      </trkpt>
      <trkpt lat="46.80533" lon="-1.88887">
        <ele>19</ele>
        <time>2018-01-14T21:16:07Z</time>
      </trkpt>
      <trkpt lat="46.80543" lon="-1.88874">
        <ele>19</ele>
        <time>2018-01-14T21:17:07Z</time>
      </trkpt>
      <trkpt lat="46.80552" lon="-1.88862">
        <ele>19</ele>
        <time>2018-01-14T21:18:07Z</time>
      </trkpt>
      <trkpt lat="46.80557" lon="-1.88852">
        <ele>19</ele>
        <time>2018-01-14T21:19:07Z</time>
      </trkpt>
      <trkpt lat="46.80562" lon="-1.88839">
        <ele>19</ele>
        <time>2018-01-14T21:20:07Z</time>
      </trkpt>
      <trkpt lat="46.80566" lon="-1.88821">
        <ele>18</ele>
        <time>2018-01-14T21:21:07Z</time>
      </trkpt>
      <trkpt lat="46.80568" lon="-1.88808">
        <ele>18</ele>
        <time>2018-01-14T21:22:07Z</time>
      </trkpt>
      <trkpt lat="46.80569" lon="-1.88794">
        <ele>17</ele>
        <time>2018-01-14T21:23:07Z</time>
      </trkpt>
      <trkpt lat="46.80569" lon="-1.88763">
        <ele>16</ele>
        <time>2018-01-14T21:24:07Z</time>
      </trkpt>
      <trkpt lat="46.80568" lon="-1.88688">
        <ele>15</ele>
        <time>2018-01-14T21:25:07Z</time>
      </trkpt>
      <trkpt lat="46.80565" lon="-1.88597">
        <ele>14</ele>
        <time>2018-01-14T21:26:07Z</time>
      </trkpt>
      <trkpt lat="46.80565" lon="-1.8859">
        <ele>14</ele>
        <time>2018-01-14T21:27:07Z</time>
      </trkpt>
      <trkpt lat="46.80564" lon="-1.88536">
        <ele>14</ele>
        <time>2018-01-14T21:28:07Z</time>
      </trkpt>
      <trkpt lat="46.80561" lon="-1.88435">
        <ele>12</ele>
        <time>2018-01-14T21:29:07Z</time>
      </trkpt>
      <trkpt lat="46.8056" lon="-1.88356">
        <ele>11</ele>
        <time>2018-01-14T21:30:07Z</time>
      </trkpt>
      <trkpt lat="46.80561" lon="-1.88299">
        <ele>11</ele>
        <time>2018-01-14T21:31:07Z</time>
      </trkpt>
      <trkpt lat="46.80562" lon="-1.88271">
        <ele>12</ele>
        <time>2018-01-14T21:32:07Z</time>
      </trkpt>
      <trkpt lat="46.80565" lon="-1.8825">
        <ele>12</ele>
        <time>2018-01-14T21:33:07Z</time>
      </trkpt>
      <trkpt lat="46.80568" lon="-1.88229">
        <ele>13</ele>
        <time>2018-01-14T21:34:07Z</time>
      </trkpt>
      <trkpt lat="46.80575" lon="-1.88198">
        <ele>13</ele>
        <time>2018-01-14T21:35:07Z</time>
      </trkpt>
      <trkpt lat="46.8059" lon="-1.88125">
        <ele>15</ele>
        <time>2018-01-14T21:36:07Z</time>
      </trkpt>
      <trkpt lat="46.80595" lon="-1.88101">
        <ele>16</ele>
        <time>2018-01-14T21:37:07Z</time>
      </trkpt>
      <trkpt lat="46.806" lon="-1.88076">
        <ele>16</ele>
        <time>2018-01-14T21:38:07Z</time>
      </trkpt>
      <trkpt lat="46.80599" lon="-1.88067">
        <ele>16</ele>
        <time>2018-01-14T21:39:07Z</time>
      </trkpt>
      <trkpt lat="46.80599" lon="-1.88061">
        <ele>16</ele>
        <time>2018-01-14T21:40:07Z</time>
      </trkpt>
      <trkpt lat="46.80597" lon="-1.88056">
        <ele>16</ele>
        <time>2018-01-14T21:41:07Z</time>
      </trkpt>
      <trkpt lat="46.80595" lon="-1.88048">
        <ele>17</ele>
        <time>2018-01-14T21:42:07Z</time>
      </trkpt>
      <trkpt lat="46.80595" lon="-1.88048">
        <ele>17</ele>
        <time>2018-01-14T21:43:07Z</time>
      </trkpt>
      <trkpt lat="46.80593" lon="-1.88041">
        <ele>17</ele>
        <time>2018-01-14T21:44:07Z</time>
      </trkpt>
      <trkpt lat="46.80588" lon="-1.88029">
        <ele>17</ele>
        <time>2018-01-14T21:45:07Z</time>
      </trkpt>
      <trkpt lat="46.80585" lon="-1.88022">
        <ele>18</ele>
        <time>2018-01-14T21:46:07Z</time>
      </trkpt>
      <trkpt lat="46.80581" lon="-1.8801">
        <ele>18</ele>
        <time>2018-01-14T21:47:07Z</time>
      </trkpt>
      <trkpt lat="46.80568" lon="-1.87999">
        <ele>18</ele>
        <time>2018-01-14T21:48:07Z</time>
      </trkpt>
      <trkpt lat="46.80561" lon="-1.87991">
        <ele>19</ele>
        <time>2018-01-14T21:49:07Z</time>
      </trkpt>
      <trkpt lat="46.80538" lon="-1.87944">
        <ele>20</ele>
        <time>2018-01-14T21:50:07Z</time>
      </trkpt>
      <trkpt lat="46.80524" lon="-1.87916">
        <ele>20</ele>
        <time>2018-01-14T21:51:07Z</time>
      </trkpt>
      <trkpt lat="46.80517" lon="-1.87901">
        <ele>20</ele>
        <time>2018-01-14T21:52:07Z</time>
      </trkpt>
      <trkpt lat="46.80509" lon="-1.87883">
        <ele>20</ele>
        <time>2018-01-14T21:53:07Z</time>
      </trkpt>
      <trkpt lat="46.80501" lon="-1.87862">
        <ele>20</ele>
        <time>2018-01-14T21:54:07Z</time>
      </trkpt>
      <trkpt lat="46.80495" lon="-1.87845">
        <ele>20</ele>
        <time>2018-01-14T21:55:07Z</time>
      </trkpt>
      <trkpt lat="46.80483" lon="-1.87808">
        <ele>20</ele>
        <time>2018-01-14T21:56:07Z</time>
      </trkpt>
      <trkpt lat="46.8046" lon="-1.8773">
        <ele>21</ele>
        <time>2018-01-14T21:57:07Z</time>
      </trkpt>
      <trkpt lat="46.80446" lon="-1.87685">
        <ele>21</ele>
        <time>2018-01-14T21:58:07Z</time>
      </trkpt>
      <trkpt lat="46.80435" lon="-1.87652">
        <ele>21</ele>
        <time>2018-01-14T21:59:07Z</time>
      </trkpt>
      <trkpt lat="46.8043" lon="-1.87635">
        <ele>20</ele>
        <time>2018-01-14T22:00:07Z</time>
      </trkpt>
      <trkpt lat="46.80423" lon="-1.87618">
        <ele>20</ele>
        <time>2018-01-14T22:01:07Z</time>
      </trkpt>
      <trkpt lat="46.80415" lon="-1.87602">
        <ele>20</ele>
        <time>2018-01-14T22:02:07Z</time>
      </trkpt>
      <trkpt lat="46.80408" lon="-1.87588">
        <ele>20</ele>
        <time>2018-01-14T22:03:07Z</time>
      </trkpt>
      <trkpt lat="46.80401" lon="-1.87575">
        <ele>20</ele>
        <time>2018-01-14T22:04:07Z</time>
      </trkpt>
      <trkpt lat="46.80388" lon="-1.8755">
        <ele>21</ele>
        <time>2018-01-14T22:05:07Z</time>
      </trkpt>
      <trkpt lat="46.80377" lon="-1.87527">
        <ele>21</ele>
        <time>2018-01-14T22:06:07Z</time>
      </trkpt>
      <trkpt lat="46.80364" lon="-1.87497">
        <ele>20</ele>
        <time>2018-01-14T22:07:07Z</time>
      </trkpt>
      <trkpt lat="46.80352" lon="-1.87465">
        <ele>20</ele>
        <time>2018-01-14T22:08:07Z</time>
      </trkpt>
      <trkpt lat="46.80343" lon="-1.87438">
        <ele>20</ele>
        <time>2018-01-14T22:09:07Z</time>
      </trkpt>
      <trkpt lat="46.80335" lon="-1.87415">
        <ele>20</ele>
        <time>2018-01-14T22:10:07Z</time>
      </trkpt>
      <trkpt lat="46.80329" lon="-1.87396">
        <ele>20</ele>
        <time>2018-01-14T22:11:07Z</time>
      </trkpt>
      <trkpt lat="46.80325" lon="-1.87377">
        <ele>20</ele>
        <time>2018-01-14T22:12:07Z</time>
      </trkpt>
      <trkpt lat="46.8032" lon="-1.87353">
        <ele>20</ele>
        <time>2018-01-14T22:13:07Z</time>
      </trkpt>
      <trkpt lat="46.80317" lon="-1.87327">
        <ele>20</ele>
        <time>2018-01-14T22:14:07Z</time>
      </trkpt>
      <trkpt lat="46.80316" lon="-1.87298">
        <ele>20</ele>
        <time>2018-01-14T22:15:07Z</time>
      </trkpt>
      <trkpt lat="46.80314" lon="-1.87266">
        <ele>21</ele>
        <time>2018-01-14T22:16:07Z</time>
      </trkpt>
      <trkpt lat="46.80312" lon="-1.87236">
        <ele>22</ele>
        <time>2018-01-14T22:17:07Z</time>
      </trkpt>
      <trkpt lat="46.80312" lon="-1.87219">
        <ele>22</ele>
        <time>2018-01-14T22:18:07Z</time>
      </trkpt>
      <trkpt lat="46.80312" lon="-1.87209">
        <ele>22</ele>
        <time>2018-01-14T22:19:07Z</time>
      </trkpt>
      <trkpt lat="46.80312" lon="-1.87197">
        <ele>22</ele>
        <time>2018-01-14T22:20:07Z</time>
      </trkpt>
      <trkpt lat="46.80313" lon="-1.87176">
        <ele>22</ele>
        <time>2018-01-14T22:21:07Z</time>
      </trkpt>
      <trkpt lat="46.80315" lon="-1.87159">
        <ele>22</ele>
        <time>2018-01-14T22:22:07Z</time>
      </trkpt>
      <trkpt lat="46.80316" lon="-1.87143">
        <ele>22</ele>
        <time>2018-01-14T22:23:07Z</time>
      </trkpt>
      <trkpt lat="46.80319" lon="-1.87106">
        <ele>21</ele>
        <time>2018-01-14T22:24:07Z</time>
      </trkpt>
      <trkpt lat="46.80321" lon="-1.87093">
        <ele>21</ele>
        <time>2018-01-14T22:25:07Z</time>
      </trkpt>
      <trkpt lat="46.80325" lon="-1.87048">
        <ele>22</ele>
        <time>2018-01-14T22:26:07Z</time>
      </trkpt>
      <trkpt lat="46.8033" lon="-1.86981">
        <ele>22</ele>
        <time>2018-01-14T22:27:07Z</time>
      </trkpt>
      <trkpt lat="46.80334" lon="-1.86927">
        <ele>21</ele>
        <time>2018-01-14T22:28:07Z</time>
      </trkpt>
      <trkpt lat="46.80338" lon="-1.86873">
        <ele>21</ele>
        <time>2018-01-14T22:29:07Z</time>
      </trkpt>
      <trkpt lat="46.8034" lon="-1.86845">
        <ele>20</ele>
        <time>2018-01-14T22:30:07Z</time>
      </trkpt>
      <trkpt lat="46.8034" lon="-1.86839">
        <ele>20</ele>
        <time>2018-01-14T22:31:07Z</time>
      </trkpt>
      <trkpt lat="46.8034" lon="-1.86834">
        <ele>20</ele>
        <time>2018-01-14T22:32:07Z</time>
      </trkpt>
      <trkpt lat="46.80339" lon="-1.86831">
        <ele>20</ele>
        <time>2018-01-14T22:33:07Z</time>
      </trkpt>
      <trkpt lat="46.80338" lon="-1.86825">
        <ele>21</ele>
        <time>2018-01-14T22:34:07Z</time>
      </trkpt>
      <trkpt lat="46.80338" lon="-1.86825">
        <ele>21</ele>
        <time>2018-01-14T22:35:07Z</time>
      </trkpt>
      <trkpt lat="46.80336" lon="-1.86823">
        <ele>20</ele>
        <time>2018-01-14T22:36:07Z</time>
      </trkpt>
      <trkpt lat="46.80334" lon="-1.86822">
        <ele>20</ele>
        <time>2018-01-14T22:37:07Z</time>
      </trkpt>
      <trkpt lat="46.80329" lon="-1.8682">
        <ele>20</ele>
        <time>2018-01-14T22:38:07Z</time>
      </trkpt>
      <trkpt lat="46.80321" lon="-1.86817">
        <ele>21</ele>
        <time>2018-01-14T22:39:07Z</time>
      </trkpt>
      <trkpt lat="46.8027" lon="-1.868">
        <ele>21</ele>
        <time>2018-01-14T22:40:07Z</time>
      </trkpt>
      <trkpt lat="46.80221" lon="-1.86784">
        <ele>22</ele>
        <time>2018-01-14T22:41:07Z</time>
      </trkpt>
      <trkpt lat="46.80172" lon="-1.86768">
        <ele>24</ele>
        <time>2018-01-14T22:42:07Z</time>
      </trkpt>
      <trkpt lat="46.80158" lon="-1.86764">
        <ele>24</ele>
        <time>2018-01-14T22:43:07Z</time>
      </trkpt>
      <trkpt lat="46.80134" lon="-1.86756">
        <ele>23</ele>
        <time>2018-01-14T22:44:07Z</time>
      </trkpt>
      <trkpt lat="46.80117" lon="-1.86751">
        <ele>23</ele>
        <time>2018-01-14T22:45:07Z</time>
      </trkpt>
      <trkpt lat="46.80103" lon="-1.86748">
        <ele>22</ele>
        <time>2018-01-14T22:46:07Z</time>
      </trkpt>
      <trkpt lat="46.80064" lon="-1.8674">
        <ele>20</ele>
        <time>2018-01-14T22:47:07Z</time>
      </trkpt>
      <trkpt lat="46.80019" lon="-1.86732">
        <ele>17</ele>
        <time>2018-01-14T22:48:07Z</time>
      </trkpt>
      <trkpt lat="46.79987" lon="-1.86724">
        <ele>15</ele>
        <time>2018-01-14T22:49:07Z</time>
      </trkpt>
      <trkpt lat="46.79976" lon="-1.8672">
        <ele>14</ele>
        <time>2018-01-14T22:50:07Z</time>
      </trkpt>
      <trkpt lat="46.7997" lon="-1.86717">
        <ele>14</ele>
        <time>2018-01-14T22:51:07Z</time>
      </trkpt>
      <trkpt lat="46.79964" lon="-1.86712">
        <ele>13</ele>
        <time>2018-01-14T22:52:07Z</time>
      </trkpt>
      <trkpt lat="46.79956" lon="-1.86704">
        <ele>13</ele>
        <time>2018-01-14T22:53:07Z</time>
      </trkpt>
      <trkpt lat="46.7994" lon="-1.86682">
        <ele>12</ele>
        <time>2018-01-14T22:54:07Z</time>
      </trkpt>
      <trkpt lat="46.79893" lon="-1.8662">
        <ele>9</ele>
        <time>2018-01-14T22:55:07Z</time>
      </trkpt>
      <trkpt lat="46.79862" lon="-1.86578">
        <ele>8</ele>
        <time>2018-01-14T22:56:07Z</time>
      </trkpt>
      <trkpt lat="46.79837" lon="-1.86546">
        <ele>7</ele>
        <time>2018-01-14T22:57:07Z</time>
      </trkpt>
      <trkpt lat="46.79826" lon="-1.86529">
        <ele>7</ele>
        <time>2018-01-14T22:58:07Z</time>
      </trkpt>
      <trkpt lat="46.79812" lon="-1.86508">
        <ele>7</ele>
        <time>2018-01-14T22:59:07Z</time>
      </trkpt>
      <trkpt lat="46.79774" lon="-1.86444">
        <ele>7</ele>
        <time>2018-01-14T23:00:07Z</time>
      </trkpt>
      <trkpt lat="46.79737" lon="-1.86384">
        <ele>8</ele>
        <time>2018-01-14T23:01:07Z</time>
      </trkpt>
      <trkpt lat="46.79731" lon="-1.86371">
        <ele>8</ele>
        <time>2018-01-14T23:02:07Z</time>
      </trkpt>
      <trkpt lat="46.79719" lon="-1.86337">
        <ele>9</ele>
        <time>2018-01-14T23:03:07Z</time>
      </trkpt>
      <trkpt lat="46.79708" lon="-1.86306">
        <ele>9</ele>
        <time>2018-01-14T23:04:07Z</time>
      </trkpt>
      <trkpt lat="46.79699" lon="-1.86287">
        <ele>9</ele>
        <time>2018-01-14T23:05:07Z</time>
      </trkpt>
      <trkpt lat="46.79684" lon="-1.86259">
        <ele>10</ele>
        <time>2018-01-14T23:06:07Z</time>
      </trkpt>
      <trkpt lat="46.79673" lon="-1.8624">
        <ele>10</ele>
        <time>2018-01-14T23:07:07Z</time>
      </trkpt>
      <trkpt lat="46.79654" lon="-1.86212">
        <ele>12</ele>
        <time>2018-01-14T23:08:07Z</time>
      </trkpt>
      <trkpt lat="46.79622" lon="-1.86162">
        <ele>13</ele>
        <time>2018-01-14T23:09:07Z</time>
      </trkpt>
      <trkpt lat="46.79605" lon="-1.86134">
        <ele>13</ele>
        <time>2018-01-14T23:10:07Z</time>
      </trkpt>
      <trkpt lat="46.79589" lon="-1.86111">
        <ele>13</ele>
        <time>2018-01-14T23:11:07Z</time>
      </trkpt>
      <trkpt lat="46.79572" lon="-1.86085">
        <ele>13</ele>
        <time>2018-01-14T23:12:07Z</time>
      </trkpt>
      <trkpt lat="46.7954" lon="-1.86044">
        <ele>13</ele>
        <time>2018-01-14T23:13:07Z</time>
      </trkpt>
      <trkpt lat="46.79524" lon="-1.8602">
        <ele>14</ele>
        <time>2018-01-14T23:14:07Z</time>
      </trkpt>
      <trkpt lat="46.79515" lon="-1.86006">
        <ele>14</ele>
        <time>2018-01-14T23:15:07Z</time>
      </trkpt>
      <trkpt lat="46.79506" lon="-1.85989">
        <ele>15</ele>
        <time>2018-01-14T23:16:07Z</time>
      </trkpt>
      <trkpt lat="46.795" lon="-1.85975">
        <ele>15</ele>
        <time>2018-01-14T23:17:07Z</time>
      </trkpt>
      <trkpt lat="46.79488" lon="-1.85935">
        <ele>15</ele>
        <time>2018-01-14T23:18:07Z</time>
      </trkpt>
      <trkpt lat="46.79478" lon="-1.85914">
        <ele>15</ele>
        <time>2018-01-14T23:19:07Z</time>
      </trkpt>
      <trkpt lat="46.79471" lon="-1.859">
        <ele>15</ele>
        <time>2018-01-14T23:20:07Z</time>
      </trkpt>
      <trkpt lat="46.79464" lon="-1.85888">
        <ele>14</ele>
        <time>2018-01-14T23:21:07Z</time>
      </trkpt>
      <trkpt lat="46.79443" lon="-1.85856">
        <ele>14</ele>
        <time>2018-01-14T23:22:07Z</time>
      </trkpt>
      <trkpt lat="46.79401" lon="-1.85794">
        <ele>15</ele>
        <time>2018-01-14T23:23:07Z</time>
      </trkpt>
      <trkpt lat="46.79392" lon="-1.85782">
        <ele>15</ele>
        <time>2018-01-14T23:24:07Z</time>
      </trkpt>
      <trkpt lat="46.7938" lon="-1.85767">
        <ele>16</ele>
        <time>2018-01-14T23:25:07Z</time>
      </trkpt>
      <trkpt lat="46.79367" lon="-1.85754">
        <ele>16</ele>
        <time>2018-01-14T23:26:07Z</time>
      </trkpt>
      <trkpt lat="46.79347" lon="-1.85733">
        <ele>16</ele>
        <time>2018-01-14T23:27:07Z</time>
      </trkpt>
      <trkpt lat="46.79318" lon="-1.85702">
        <ele>16</ele>
        <time>2018-01-14T23:28:07Z</time>
      </trkpt>
      <trkpt lat="46.79297" lon="-1.85681">
        <ele>15</ele>
        <time>2018-01-14T23:29:07Z</time>
      </trkpt>
      <trkpt lat="46.79282" lon="-1.85666">
        <ele>15</ele>
        <time>2018-01-14T23:30:07Z</time>
      </trkpt>
      <trkpt lat="46.79274" lon="-1.8566">
        <ele>15</ele>
        <time>2018-01-14T23:31:07Z</time>
      </trkpt>
      <trkpt lat="46.79267" lon="-1.85657">
        <ele>15</ele>
        <time>2018-01-14T23:32:07Z</time>
      </trkpt>
      <trkpt lat="46.7926" lon="-1.85656">
        <ele>15</ele>
        <time>2018-01-14T23:33:07Z</time>
      </trkpt>
      <trkpt lat="46.79253" lon="-1.85656">
        <ele>15</ele>
        <time>2018-01-14T23:34:07Z</time>
      </trkpt>
      <trkpt lat="46.79246" lon="-1.8566">
        <ele>15</ele>
        <time>2018-01-14T23:35:07Z</time>
      </trkpt>
      <trkpt lat="46.79246" lon="-1.8566">
        <ele>15</ele>
        <time>2018-01-14T23:36:07Z</time>
      </trkpt>
      <trkpt lat="46.79246" lon="-1.85641">
        <ele>15</ele>
        <time>2018-01-14T23:37:07Z</time>
      </trkpt>
      <trkpt lat="46.79246" lon="-1.85629">
        <ele>15</ele>
        <time>2018-01-14T23:38:07Z</time>
      </trkpt>
      <trkpt lat="46.7925" lon="-1.85602">
        <ele>15</ele>
        <time>2018-01-14T23:39:07Z</time>
      </trkpt>
      <trkpt lat="46.79259" lon="-1.85562">
        <ele>15</ele>
        <time>2018-01-14T23:40:07Z</time>
      </trkpt>
      <trkpt lat="46.79274" lon="-1.85506">
        <ele>15</ele>
        <time>2018-01-14T23:41:07Z</time>
      </trkpt>
      <trkpt lat="46.79278" lon="-1.85492">
        <ele>15</ele>
        <time>2018-01-14T23:42:07Z</time>
      </trkpt>
      <trkpt lat="46.79284" lon="-1.85468">
        <ele>15</ele>
        <time>2018-01-14T23:43:07Z</time>
      </trkpt>
      <trkpt lat="46.79292" lon="-1.85441">
        <ele>15</ele>
        <time>2018-01-14T23:44:07Z</time>
      </trkpt>
      <trkpt lat="46.793" lon="-1.85407">
        <ele>16</ele>
        <time>2018-01-14T23:45:07Z</time>
      </trkpt>
      <trkpt lat="46.79306" lon="-1.85385">
        <ele>16</ele>
        <time>2018-01-14T23:46:07Z</time>
      </trkpt>
      <trkpt lat="46.79311" lon="-1.85368">
        <ele>17</ele>
        <time>2018-01-14T23:47:07Z</time>
      </trkpt>
      <trkpt lat="46.79316" lon="-1.85351">
        <ele>17</ele>
        <time>2018-01-14T23:48:07Z</time>
      </trkpt>
      <trkpt lat="46.79323" lon="-1.85331">
        <ele>17</ele>
        <time>2018-01-14T23:49:07Z</time>
      </trkpt>
      <trkpt lat="46.79329" lon="-1.85309">
        <ele>16</ele>
        <time>2018-01-14T23:50:07Z</time>
      </trkpt>
      <trkpt lat="46.79341" lon="-1.85274">
        <ele>16</ele>
        <time>2018-01-14T23:51:07Z</time>
      </trkpt>
      <trkpt lat="46.79348" lon="-1.85252">
        <ele>15</ele>
        <time>2018-01-14T23:52:07Z</time>
      </trkpt>
      <trkpt lat="46.79349" lon="-1.85249">
        <ele>15</ele>
        <time>2018-01-14T23:53:07Z</time>
      </trkpt>
      <trkpt lat="46.79358" lon="-1.85221">
        <ele>15</ele>
        <time>2018-01-14T23:54:07Z</time>
      </trkpt>
      <trkpt lat="46.79389" lon="-1.85127">
        <ele>15</ele>
        <time>2018-01-14T23:55:07Z</time>
      </trkpt>
      <trkpt lat="46.79408" lon="-1.85067">
        <ele>15</ele>
        <time>2018-01-14T23:56:07Z</time>
      </trkpt>
      <trkpt lat="46.79428" lon="-1.85005">
        <ele>15</ele>
        <time>2018-01-14T23:57:07Z</time>
      </trkpt>
      <trkpt lat="46.79437" lon="-1.84976">
        <ele>15</ele>
        <time>2018-01-14T23:58:07Z</time>
      </trkpt>
      <trkpt lat="46.79442" lon="-1.8496">
        <ele>14</ele>
        <time>2018-01-14T23:59:07Z</time>
      </trkpt>
      <trkpt lat="46.79445" lon="-1.84949">
        <ele>14</ele>
        <time>2018-01-15T00:00:07Z</time>
      </trkpt>
      <trkpt lat="46.79448" lon="-1.84935">
        <ele>14</ele>
        <time>2018-01-15T00:01:07Z</time>
      </trkpt>
      <trkpt lat="46.79451" lon="-1.8492">
        <ele>14</ele>
        <time>2018-01-15T00:02:07Z</time>
      </trkpt>
      <trkpt lat="46.79456" lon="-1.84893">
        <ele>14</ele>
        <time>2018-01-15T00:03:07Z</time>
      </trkpt>
      <trkpt lat="46.79466" lon="-1.8484">
        <ele>15</ele>
        <time>2018-01-15T00:04:07Z</time>
      </trkpt>
      <trkpt lat="46.79477" lon="-1.84777">
        <ele>15</ele>
        <time>2018-01-15T00:05:07Z</time>
      </trkpt>
      <trkpt lat="46.7948" lon="-1.84761">
        <ele>15</ele>
        <time>2018-01-15T00:06:07Z</time>
      </trkpt>
      <trkpt lat="46.7948" lon="-1.84746">
        <ele>15</ele>
        <time>2018-01-15T00:07:07Z</time>
      </trkpt>
      <trkpt lat="46.79481" lon="-1.84733">
        <ele>15</ele>
        <time>2018-01-15T00:08:07Z</time>
      </trkpt>
      <trkpt lat="46.79481" lon="-1.84726">
        <ele>15</ele>
        <time>2018-01-15T00:09:07Z</time>
      </trkpt>
      <trkpt lat="46.7948" lon="-1.84711">
        <ele>15</ele>
        <time>2018-01-15T00:10:07Z</time>
      </trkpt>
      <trkpt lat="46.79478" lon="-1.84692">
        <ele>15</ele>
        <time>2018-01-15T00:11:07Z</time>
      </trkpt>
      <trkpt lat="46.79475" lon="-1.84659">
        <ele>14</ele>
        <time>2018-01-15T00:12:07Z</time>
      </trkpt>
      <trkpt lat="46.79472" lon="-1.84636">
        <ele>14</ele>
        <time>2018-01-15T00:13:07Z</time>
      </trkpt>
      <trkpt lat="46.79468" lon="-1.84611">
        <ele>14</ele>
        <time>2018-01-15T00:14:07Z</time>
      </trkpt>
      <trkpt lat="46.79466" lon="-1.8458">
        <ele>14</ele>
        <time>2018-01-15T00:15:07Z</time>
      </trkpt>
      <trkpt lat="46.79466" lon="-1.84541">
        <ele>13</ele>
        <time>2018-01-15T00:16:07Z</time>
      </trkpt>
      <trkpt lat="46.79465" lon="-1.84522">
        <ele>13</ele>
        <time>2018-01-15T00:17:07Z</time>
      </trkpt>
      <trkpt lat="46.79465" lon="-1.84506">
        <ele>13</ele>
        <time>2018-01-15T00:18:07Z</time>
      </trkpt>
      <trkpt lat="46.79466" lon="-1.84492">
        <ele>13</ele>
        <time>2018-01-15T00:19:07Z</time>
      </trkpt>
      <trkpt lat="46.79467" lon="-1.84472">
        <ele>13</ele>
        <time>2018-01-15T00:20:07Z</time>
      </trkpt>
      <trkpt lat="46.79469" lon="-1.84457">
        <ele>13</ele>
        <time>2018-01-15T00:21:07Z</time>
      </trkpt>
      <trkpt lat="46.79474" lon="-1.84435">
        <ele>14</ele>
        <time>2018-01-15T00:22:07Z</time>
      </trkpt>
      <trkpt lat="46.79487" lon="-1.84381">
        <ele>15</ele>
        <time>2018-01-15T00:23:07Z</time>
      </trkpt>
      <trkpt lat="46.79494" lon="-1.84354">
        <ele>16</ele>
        <time>2018-01-15T00:24:07Z</time>
      </trkpt>
      <trkpt lat="46.79507" lon="-1.84308">
        <ele>16</ele>
        <time>2018-01-15T00:25:07Z</time>
      </trkpt>
      <trkpt lat="46.79522" lon="-1.84262">
        <ele>16</ele>
        <time>2018-01-15T00:26:07Z</time>
      </trkpt>
      <trkpt lat="46.79531" lon="-1.84236">
        <ele>16</ele>
        <time>2018-01-15T00:27:07Z</time>
      </trkpt>
      <trkpt lat="46.79534" lon="-1.84227">
        <ele>16</ele>
        <time>2018-01-15T00:28:07Z</time>
      </trkpt>
      <trkpt lat="46.79536" lon="-1.84215">
        <ele>16</ele>
        <time>2018-01-15T00:29:07Z</time>
      </trkpt>
      <trkpt lat="46.79537" lon="-1.84202">
        <ele>16</ele>
        <time>2018-01-15T00:30:07Z</time>
      </trkpt>
      <trkpt lat="46.79536" lon="-1.84189">
        <ele>16</ele>
        <time>2018-01-15T00:31:07Z</time>
      </trkpt>
      <trkpt lat="46.79533" lon="-1.84168">
        <ele>16</ele>
        <time>2018-01-15T00:32:07Z</time>
      </trkpt>
      <trkpt lat="46.79531" lon="-1.84146">
        <ele>16</ele>
        <time>2018-01-15T00:33:07Z</time>
      </trkpt>
      <trkpt lat="46.79528" lon="-1.84134">
        <ele>16</ele>
        <time>2018-01-15T00:34:07Z</time>
      </trkpt>
      <trkpt lat="46.79525" lon="-1.84121">
        <ele>17</ele>
        <time>2018-01-15T00:35:07Z</time>
      </trkpt>
      <trkpt lat="46.79519" lon="-1.84102">
        <ele>17</ele>
        <time>2018-01-15T00:36:07Z</time>
      </trkpt>
      <trkpt lat="46.79508" lon="-1.84068">
        <ele>17</ele>
        <time>2018-01-15T00:37:07Z</time>
      </trkpt>
      <trkpt lat="46.79505" lon="-1.8406">
        <ele>18</ele>
        <time>2018-01-15T00:38:07Z</time>
      </trkpt>
      <trkpt lat="46.79502" lon="-1.84043">
        <ele>18</ele>
        <time>2018-01-15T00:39:07Z</time>
      </trkpt>
      <trkpt lat="46.79499" lon="-1.84028">
        <ele>18</ele>
        <time>2018-01-15T00:40:07Z</time>
      </trkpt>
      <trkpt lat="46.79495" lon="-1.84">
        <ele>19</ele>
        <time>2018-01-15T00:41:07Z</time>
      </trkpt>
      <trkpt lat="46.79489" lon="-1.83944">
        <ele>19</ele>
        <time>2018-01-15T00:42:07Z</time>
      </trkpt>
      <trkpt lat="46.79484" lon="-1.83891">
        <ele>18</ele>
        <time>2018-01-15T00:43:07Z</time>
      </trkpt>
      <trkpt lat="46.79482" lon="-1.83872">
        <ele>18</ele>
        <time>2018-01-15T00:44:07Z</time>
      </trkpt>
      <trkpt lat="46.7948" lon="-1.83851">
        <ele>18</ele>
        <time>2018-01-15T00:45:07Z</time>
      </trkpt>
      <trkpt lat="46.79479" lon="-1.83827">
        <ele>18</ele>
        <time>2018-01-15T00:46:07Z</time>
      </trkpt>
      <trkpt lat="46.79477" lon="-1.8377">
        <ele>19</ele>
        <time>2018-01-15T00:47:07Z</time>
      </trkpt>
      <trkpt lat="46.79471" lon="-1.83673">
        <ele>20</ele>
        <time>2018-01-15T00:48:07Z</time>
      </trkpt>
      <trkpt lat="46.7947" lon="-1.83628">
        <ele>20</ele>
        <time>2018-01-15T00:49:07Z</time>
      </trkpt>
      <trkpt lat="46.79469" lon="-1.83589">
        <ele>21</ele>
        <time>2018-01-15T00:50:07Z</time>
      </trkpt>
      <trkpt lat="46.79468" lon="-1.83572">
        <ele>21</ele>
        <time>2018-01-15T00:51:07Z</time>
      </trkpt>
      <trkpt lat="46.79469" lon="-1.83557">
        <ele>21</ele>
        <time>2018-01-15T00:52:07Z</time>
      </trkpt>
      <trkpt lat="46.79469" lon="-1.83557">
        <ele>21</ele>
        <time>2018-01-15T00:53:07Z</time>
      </trkpt>
      <trkpt lat="46.79445" lon="-1.8355">
        <ele>21</ele>
        <time>2018-01-15T00:54:07Z</time>
      </trkpt>
      <trkpt lat="46.79415" lon="-1.83541">
        <ele>21</ele>
        <time>2018-01-15T00:55:07Z</time>
      </trkpt>
      <trkpt lat="46.79396" lon="-1.83535">
        <ele>21</ele>
        <time>2018-01-15T00:56:07Z</time>
      </trkpt>
      <trkpt lat="46.79384" lon="-1.8353">
        <ele>21</ele>
        <time>2018-01-15T00:57:07Z</time>
      </trkpt>
      <trkpt lat="46.79375" lon="-1.83526">
        <ele>21</ele>
        <time>2018-01-15T00:58:07Z</time>
      </trkpt>
      <trkpt lat="46.79366" lon="-1.83521">
        <ele>21</ele>
        <time>2018-01-15T00:59:07Z</time>
      </trkpt>
      <trkpt lat="46.7936" lon="-1.83517">
        <ele>21</ele>
        <time>2018-01-15T01:00:07Z</time>
      </trkpt>
      <trkpt lat="46.79347" lon="-1.83506">
        <ele>21</ele>
        <time>2018-01-15T01:01:07Z</time>
      </trkpt>
      <trkpt lat="46.79341" lon="-1.83501">
        <ele>21</ele>
        <time>2018-01-15T01:02:07Z</time>
      </trkpt>
      <trkpt lat="46.79323" lon="-1.83485">
        <ele>21</ele>
        <time>2018-01-15T01:03:07Z</time>
      </trkpt>
      <trkpt lat="46.79303" lon="-1.83473">
        <ele>21</ele>
        <time>2018-01-15T01:04:07Z</time>
      </trkpt>
      <trkpt lat="46.79291" lon="-1.83465">
        <ele>21</ele>
        <time>2018-01-15T01:05:07Z</time>
      </trkpt>
      <trkpt lat="46.7928" lon="-1.83455">
        <ele>21</ele>
        <time>2018-01-15T01:06:07Z</time>
      </trkpt>
      <trkpt lat="46.79273" lon="-1.83448">
        <ele>21</ele>
        <time>2018-01-15T01:07:07Z</time>
      </trkpt>
      <trkpt lat="46.79269" lon="-1.83442">
        <ele>21</ele>
        <time>2018-01-15T01:08:07Z</time>
      </trkpt>
      <trkpt lat="46.79262" lon="-1.83434">
        <ele>21</ele>
        <time>2018-01-15T01:09:07Z</time>
      </trkpt>
      <trkpt lat="46.79259" lon="-1.83429">
        <ele>22</ele>
        <time>2018-01-15T01:10:07Z</time>
      </trkpt>
      <trkpt lat="46.79257" lon="-1.83426">
        <ele>22</ele>
        <time>2018-01-15T01:11:07Z</time>
      </trkpt>
      <trkpt lat="46.79254" lon="-1.83422">
        <ele>22</ele>
        <time>2018-01-15T01:12:07Z</time>
      </trkpt>
      <trkpt lat="46.79249" lon="-1.83416">
        <ele>22</ele>
        <time>2018-01-15T01:13:07Z</time>
      </trkpt>
      <trkpt lat="46.79244" lon="-1.8341">
        <ele>22</ele>
        <time>2018-01-15T01:14:07Z</time>
      </trkpt>
      <trkpt lat="46.79237" lon="-1.83405">
        <ele>21</ele>
        <time>2018-01-15T01:15:07Z</time>
      </trkpt>
      <trkpt lat="46.79225" lon="-1.83399">
        <ele>21</ele>
        <time>2018-01-15T01:16:07Z</time>
      </trkpt>
      <trkpt lat="46.79214" lon="-1.83397">
        <ele>20</ele>
        <time>2018-01-15T01:17:07Z</time>
      </trkpt>
      <trkpt lat="46.79203" lon="-1.83394">
        <ele>19</ele>
        <time>2018-01-15T01:18:07Z</time>
      </trkpt>
      <trkpt lat="46.7919" lon="-1.83392">
        <ele>19</ele>
        <time>2018-01-15T01:19:07Z</time>
      </trkpt>
      <trkpt lat="46.79141" lon="-1.83385">
        <ele>16</ele>
        <time>2018-01-15T01:20:07Z</time>
      </trkpt>
      <trkpt lat="46.79112" lon="-1.83379">
        <ele>14</ele>
        <time>2018-01-15T01:21:07Z</time>
      </trkpt>
      <trkpt lat="46.7909" lon="-1.83376">
        <ele>13</ele>
        <time>2018-01-15T01:22:07Z</time>
      </trkpt>
      <trkpt lat="46.79089" lon="-1.83376">
        <ele>13</ele>
        <time>2018-01-15T01:23:07Z</time>
      </trkpt>
      <trkpt lat="46.7906" lon="-1.8337">
        <ele>14</ele>
        <time>2018-01-15T01:24:07Z</time>
      </trkpt>
      <trkpt lat="46.79005" lon="-1.83359">
        <ele>17</ele>
        <time>2018-01-15T01:25:07Z</time>
      </trkpt>
      <trkpt lat="46.78977" lon="-1.83352">
        <ele>18</ele>
        <time>2018-01-15T01:26:07Z</time>
      </trkpt>
      <trkpt lat="46.7896" lon="-1.83347">
        <ele>19</ele>
        <time>2018-01-15T01:27:07Z</time>
      </trkpt>
      <trkpt lat="46.78936" lon="-1.83339">
        <ele>19</ele>
        <time>2018-01-15T01:28:07Z</time>
      </trkpt>
      <trkpt lat="46.78913" lon="-1.83328">
        <ele>20</ele>
        <time>2018-01-15T01:29:07Z</time>
      </trkpt>
      <trkpt lat="46.789" lon="-1.8332">
        <ele>20</ele>
        <time>2018-01-15T01:30:07Z</time>
      </trkpt>
      <trkpt lat="46.78888" lon="-1.83311">
        <ele>20</ele>
        <time>2018-01-15T01:31:07Z</time>
      </trkpt>
      <trkpt lat="46.78866" lon="-1.83293">
        <ele>21</ele>
        <time>2018-01-15T01:32:07Z</time>
      </trkpt>
      <trkpt lat="46.78856" lon="-1.83285">
        <ele>21</ele>
        <time>2018-01-15T01:33:07Z</time>
      </trkpt>
      <trkpt lat="46.78849" lon="-1.83279">
        <ele>21</ele>
        <time>2018-01-15T01:34:07Z</time>
      </trkpt>
      <trkpt lat="46.78841" lon="-1.83276">
        <ele>21</ele>
        <time>2018-01-15T01:35:07Z</time>
      </trkpt>
      <trkpt lat="46.78834" lon="-1.83274">
        <ele>21</ele>
        <time>2018-01-15T01:36:07Z</time>
      </trkpt>
      <trkpt lat="46.7882" lon="-1.83273">
        <ele>21</ele>
        <time>2018-01-15T01:37:07Z</time>
      </trkpt>
      <trkpt lat="46.78804" lon="-1.83272">
        <ele>21</ele>
        <time>2018-01-15T01:38:07Z</time>
      </trkpt>
      <trkpt lat="46.78796" lon="-1.83271">
        <ele>22</ele>
        <time>2018-01-15T01:39:07Z</time>
      </trkpt>
      <trkpt lat="46.78796" lon="-1.83271">
        <ele>22</ele>
        <time>2018-01-15T01:40:07Z</time>
      </trkpt>
      <trkpt lat="46.78794" lon="-1.8327">
        <ele>22</ele>
        <time>2018-01-15T01:41:07Z</time>
      </trkpt>
      <trkpt lat="46.78783" lon="-1.83265">
        <ele>22</ele>
        <time>2018-01-15T01:42:07Z</time>
      </trkpt>
      <trkpt lat="46.78742" lon="-1.83245">
        <ele>22</ele>
        <time>2018-01-15T01:43:07Z</time>
      </trkpt>
      <trkpt lat="46.78681" lon="-1.83213">
        <ele>23</ele>
        <time>2018-01-15T01:44:07Z</time>
      </trkpt>
      <trkpt lat="46.78655" lon="-1.83199">
        <ele>23</ele>
        <time>2018-01-15T01:45:07Z</time>
      </trkpt>
      <trkpt lat="46.78643" lon="-1.83193">
        <ele>23</ele>
        <time>2018-01-15T01:46:07Z</time>
      </trkpt>
      <trkpt lat="46.78642" lon="-1.83193">
        <ele>23</ele>
        <time>2018-01-15T01:47:07Z</time>
      </trkpt>
      <trkpt lat="46.78632" lon="-1.83188">
        <ele>23</ele>
        <time>2018-01-15T01:48:07Z</time>
      </trkpt>
      <trkpt lat="46.78618" lon="-1.83181">
        <ele>23</ele>
        <time>2018-01-15T01:49:07Z</time>
      </trkpt>
      <trkpt lat="46.78607" lon="-1.83177">
        <ele>23</ele>
        <time>2018-01-15T01:50:07Z</time>
      </trkpt>
      <trkpt lat="46.78596" lon="-1.83174">
        <ele>23</ele>
        <time>2018-01-15T01:51:07Z</time>
      </trkpt>
      <trkpt lat="46.78585" lon="-1.83171">
        <ele>23</ele>
        <time>2018-01-15T01:52:07Z</time>
      </trkpt>
      <trkpt lat="46.78558" lon="-1.83163">
        <ele>24</ele>
        <time>2018-01-15T01:53:07Z</time>
      </trkpt>
      <trkpt lat="46.78487" lon="-1.83144">
        <ele>26</ele>
        <time>2018-01-15T01:54:07Z</time>
      </trkpt>
      <trkpt lat="46.78418" lon="-1.83126">
        <ele>27</ele>
        <time>2018-01-15T01:55:07Z</time>
      </trkpt>
      <trkpt lat="46.78381" lon="-1.83116">
        <ele>27</ele>
        <time>2018-01-15T01:56:07Z</time>
      </trkpt>
      <trkpt lat="46.7836" lon="-1.83111">
        <ele>27</ele>
        <time>2018-01-15T01:57:07Z</time>
      </trkpt>
      <trkpt lat="46.78348" lon="-1.83108">
        <ele>27</ele>
        <time>2018-01-15T01:58:07Z</time>
      </trkpt>
      <trkpt lat="46.7834" lon="-1.83107">
        <ele>27</ele>
        <time>2018-01-15T01:59:07Z</time>
      </trkpt>
      <trkpt lat="46.78331" lon="-1.83107">
        <ele>27</ele>
        <time>2018-01-15T02:00:07Z</time>
      </trkpt>
      <trkpt lat="46.78314" lon="-1.83106">
        <ele>27</ele>
        <time>2018-01-15T02:01:07Z</time>
      </trkpt>
      <trkpt lat="46.78314" lon="-1.83106">
        <ele>27</ele>
        <time>2018-01-15T02:02:07Z</time>
      </trkpt>
      <trkpt lat="46.78284" lon="-1.83106">
        <ele>27</ele>
        <time>2018-01-15T02:03:07Z</time>
      </trkpt>
      <trkpt lat="46.78251" lon="-1.83105">
        <ele>27</ele>
        <time>2018-01-15T02:04:07Z</time>
      </trkpt>
      <trkpt lat="46.78236" lon="-1.83104">
        <ele>27</ele>
        <time>2018-01-15T02:05:07Z</time>
      </trkpt>
      <trkpt lat="46.78226" lon="-1.83101">
        <ele>27</ele>
        <time>2018-01-15T02:06:07Z</time>
      </trkpt>
      <trkpt lat="46.78219" lon="-1.83096">
        <ele>27</ele>
        <time>2018-01-15T02:07:07Z</time>
      </trkpt>
      <trkpt lat="46.78211" lon="-1.83089">
        <ele>26</ele>
        <time>2018-01-15T02:08:07Z</time>
      </trkpt>
      <trkpt lat="46.78203" lon="-1.83077">
        <ele>27</ele>
        <time>2018-01-15T02:09:07Z</time>
      </trkpt>
      <trkpt lat="46.78168" lon="-1.83018">
        <ele>27</ele>
        <time>2018-01-15T02:10:07Z</time>
      </trkpt>
      <trkpt lat="46.78152" lon="-1.82991">
        <ele>27</ele>
        <time>2018-01-15T02:11:07Z</time>
      </trkpt>
      <trkpt lat="46.78142" lon="-1.82979">
        <ele>27</ele>
        <time>2018-01-15T02:12:07Z</time>
      </trkpt>
      <trkpt lat="46.78133" lon="-1.82984">
        <ele>27</ele>
        <time>2018-01-15T02:13:07Z</time>
      </trkpt>
      <trkpt lat="46.78113" lon="-1.82996">
        <ele>26</ele>
        <time>2018-01-15T02:14:07Z</time>
      </trkpt>
      <trkpt lat="46.7811" lon="-1.82998">
        <ele>26</ele>
        <time>2018-01-15T02:15:07Z</time>
      </trkpt>
      <trkpt lat="46.78095" lon="-1.83009">
        <ele>26</ele>
        <time>2018-01-15T02:16:07Z</time>
      </trkpt>
      <trkpt lat="46.78094" lon="-1.83011">
        <ele>26</ele>
        <time>2018-01-15T02:17:07Z</time>
      </trkpt>
      <trkpt lat="46.78094" lon="-1.83011">
        <ele>26</ele>
        <time>2018-01-15T02:18:07Z</time>
      </trkpt>
      <trkpt lat="46.78072" lon="-1.83027">
        <ele>25</ele>
        <time>2018-01-15T02:19:07Z</time>
      </trkpt>
      <trkpt lat="46.78045" lon="-1.83048">
        <ele>24</ele>
        <time>2018-01-15T02:20:07Z</time>
      </trkpt>
      <trkpt lat="46.77994" lon="-1.83087">
        <ele>22</ele>
        <time>2018-01-15T02:21:07Z</time>
      </trkpt>
      <trkpt lat="46.77978" lon="-1.83099">
        <ele>21</ele>
        <time>2018-01-15T02:22:07Z</time>
      </trkpt>
      <trkpt lat="46.77968" lon="-1.83105">
        <ele>21</ele>
        <time>2018-01-15T02:23:07Z</time>
      </trkpt>
      <trkpt lat="46.77958" lon="-1.8311">
        <ele>21</ele>
        <time>2018-01-15T02:24:07Z</time>
      </trkpt>
      <trkpt lat="46.77944" lon="-1.83114">
        <ele>21</ele>
        <time>2018-01-15T02:25:07Z</time>
      </trkpt>
      <trkpt lat="46.77925" lon="-1.83117">
        <ele>21</ele>
        <time>2018-01-15T02:26:07Z</time>
      </trkpt>
      <trkpt lat="46.779" lon="-1.8312">
        <ele>21</ele>
        <time>2018-01-15T02:27:07Z</time>
      </trkpt>
      <trkpt lat="46.77869" lon="-1.83123">
        <ele>21</ele>
        <time>2018-01-15T02:28:07Z</time>
      </trkpt>
      <trkpt lat="46.77869" lon="-1.83123">
        <ele>21</ele>
        <time>2018-01-15T02:29:07Z</time>
      </trkpt>
      <trkpt lat="46.77811" lon="-1.83128">
        <ele>22</ele>
        <time>2018-01-15T02:30:07Z</time>
      </trkpt>
      <trkpt lat="46.77764" lon="-1.83133">
        <ele>23</ele>
        <time>2018-01-15T02:31:07Z</time>
      </trkpt>
      <trkpt lat="46.77729" lon="-1.83137">
        <ele>24</ele>
        <time>2018-01-15T02:32:07Z</time>
      </trkpt>
      <trkpt lat="46.77698" lon="-1.83141">
        <ele>25</ele>
        <time>2018-01-15T02:33:07Z</time>
      </trkpt>
      <trkpt lat="46.77665" lon="-1.83144">
        <ele>26</ele>
        <time>2018-01-15T02:34:07Z</time>
      </trkpt>
      <trkpt lat="46.77644" lon="-1.83146">
        <ele>26</ele>
        <time>2018-01-15T02:35:07Z</time>
      </trkpt>
      <trkpt lat="46.77633" lon="-1.83148">
        <ele>26</ele>
        <time>2018-01-15T02:36:07Z</time>
      </trkpt>
      <trkpt lat="46.77624" lon="-1.8315">
        <ele>27</ele>
        <time>2018-01-15T02:37:07Z</time>
      </trkpt>
      <trkpt lat="46.77615" lon="-1.83153">
        <ele>27</ele>
        <time>2018-01-15T02:38:07Z</time>
      </trkpt>
      <trkpt lat="46.77608" lon="-1.83157">
        <ele>27</ele>
        <time>2018-01-15T02:39:07Z</time>
      </trkpt>
      <trkpt lat="46.776" lon="-1.83162">
        <ele>27</ele>
        <time>2018-01-15T02:40:07Z</time>
      </trkpt>
      <trkpt lat="46.77592" lon="-1.83169">
        <ele>27</ele>
        <time>2018-01-15T02:41:07Z</time>
      </trkpt>
      <trkpt lat="46.77573" lon="-1.83185">
        <ele>27</ele>
        <time>2018-01-15T02:42:07Z</time>
      </trkpt>
      <trkpt lat="46.77565" lon="-1.83191">
        <ele>27</ele>
        <time>2018-01-15T02:43:07Z</time>
      </trkpt>
      <trkpt lat="46.77556" lon="-1.83196">
        <ele>27</ele>
        <time>2018-01-15T02:44:07Z</time>
      </trkpt>
      <trkpt lat="46.77544" lon="-1.83202">
        <ele>27</ele>
        <time>2018-01-15T02:45:07Z</time>
      </trkpt>
      <trkpt lat="46.77523" lon="-1.83209">
        <ele>28</ele>
        <time>2018-01-15T02:46:07Z</time>
      </trkpt>
      <trkpt lat="46.77496" lon="-1.83219">
        <ele>28</ele>
        <time>2018-01-15T02:47:07Z</time>
      </trkpt>
      <trkpt lat="46.77468" lon="-1.83229">
        <ele>27</ele>
        <time>2018-01-15T02:48:07Z</time>
      </trkpt>
      <trkpt lat="46.7744" lon="-1.83239">
        <ele>27</ele>
        <time>2018-01-15T02:49:07Z</time>
      </trkpt>
      <trkpt lat="46.77416" lon="-1.83247">
        <ele>27</ele>
        <time>2018-01-15T02:50:07Z</time>
      </trkpt>
      <trkpt lat="46.77404" lon="-1.8325">
        <ele>27</ele>
        <time>2018-01-15T02:51:07Z</time>
      </trkpt>
      <trkpt lat="46.77395" lon="-1.83249">
        <ele>27</ele>
        <time>2018-01-15T02:52:07Z</time>
      </trkpt>
      <trkpt lat="46.77383" lon="-1.83247">
        <ele>27</ele>
        <time>2018-01-15T02:53:07Z</time>
      </trkpt>
      <trkpt lat="46.77371" lon="-1.83243">
        <ele>28</ele>
        <time>2018-01-15T02:54:07Z</time>
      </trkpt>
      <trkpt lat="46.77359" lon="-1.83241">
        <ele>28</ele>
        <time>2018-01-15T02:55:07Z</time>
      </trkpt>
      <trkpt lat="46.77358" lon="-1.83241">
        <ele>28</ele>
        <time>2018-01-15T02:56:07Z</time>
      </trkpt>
      <trkpt lat="46.77348" lon="-1.8324">
        <ele>28</ele>
        <time>2018-01-15T02:57:07Z</time>
      </trkpt>
      <trkpt lat="46.77339" lon="-1.83241">
        <ele>28</ele>
        <time>2018-01-15T02:58:07Z</time>
      </trkpt>
      <trkpt lat="46.77321" lon="-1.83242">
        <ele>28</ele>
        <time>2018-01-15T02:59:07Z</time>
      </trkpt>
      <trkpt lat="46.77304" lon="-1.83244">
        <ele>28</ele>
        <time>2018-01-15T03:00:07Z</time>
      </trkpt>
      <trkpt lat="46.77285" lon="-1.83248">
        <ele>27</ele>
        <time>2018-01-15T03:01:07Z</time>
      </trkpt>
      <trkpt lat="46.77271" lon="-1.83249">
        <ele>27</ele>
        <time>2018-01-15T03:02:07Z</time>
      </trkpt>
      <trkpt lat="46.77252" lon="-1.83248">
        <ele>27</ele>
        <time>2018-01-15T03:03:07Z</time>
      </trkpt>
      <trkpt lat="46.77236" lon="-1.83247">
        <ele>27</ele>
        <time>2018-01-15T03:04:07Z</time>
      </trkpt>
      <trkpt lat="46.77223" lon="-1.83247">
        <ele>27</ele>
        <time>2018-01-15T03:05:07Z</time>
      </trkpt>
      <trkpt lat="46.77211" lon="-1.83248">
        <ele>27</ele>
        <time>2018-01-15T03:06:07Z</time>
      </trkpt>
      <trkpt lat="46.77193" lon="-1.83253">
        <ele>27</ele>
        <time>2018-01-15T03:07:07Z</time>
      </trkpt>
      <trkpt lat="46.77168" lon="-1.83261">
        <ele>27</ele>
        <time>2018-01-15T03:08:07Z</time>
      </trkpt>
      <trkpt lat="46.77139" lon="-1.83272">
        <ele>27</ele>
        <time>2018-01-15T03:09:07Z</time>
      </trkpt>
      <trkpt lat="46.77125" lon="-1.83277">
        <ele>26</ele>
        <time>2018-01-15T03:10:07Z</time>
      </trkpt>
      <trkpt lat="46.77114" lon="-1.83281">
        <ele>26</ele>
        <time>2018-01-15T03:11:07Z</time>
      </trkpt>
      <trkpt lat="46.77105" lon="-1.83285">
        <ele>26</ele>
        <time>2018-01-15T03:12:07Z</time>
      </trkpt>
      <trkpt lat="46.77098" lon="-1.83289">
        <ele>25</ele>
        <time>2018-01-15T03:13:07Z</time>
      </trkpt>
      <trkpt lat="46.7709" lon="-1.83294">
        <ele>25</ele>
        <time>2018-01-15T03:14:07Z</time>
      </trkpt>
      <trkpt lat="46.77083" lon="-1.83301">
        <ele>25</ele>
        <time>2018-01-15T03:15:07Z</time>
      </trkpt>
      <trkpt lat="46.77078" lon="-1.83306">
        <ele>25</ele>
        <time>2018-01-15T03:16:07Z</time>
      </trkpt>
      <trkpt lat="46.77072" lon="-1.83311">
        <ele>25</ele>
        <time>2018-01-15T03:17:07Z</time>
      </trkpt>
      <trkpt lat="46.77054" lon="-1.83332">
        <ele>24</ele>
        <time>2018-01-15T03:18:07Z</time>
      </trkpt>
      <trkpt lat="46.77039" lon="-1.83351">
        <ele>24</ele>
        <time>2018-01-15T03:19:07Z</time>
      </trkpt>
      <trkpt lat="46.77025" lon="-1.83367">
        <ele>24</ele>
        <time>2018-01-15T03:20:07Z</time>
      </trkpt>
      <trkpt lat="46.77018" lon="-1.83375">
        <ele>24</ele>
        <time>2018-01-15T03:21:07Z</time>
      </trkpt>
      <trkpt lat="46.7701" lon="-1.83382">
        <ele>23</ele>
        <time>2018-01-15T03:22:07Z</time>
      </trkpt>
      <trkpt lat="46.77" lon="-1.83389">
        <ele>23</ele>
        <time>2018-01-15T03:23:07Z</time>
      </trkpt>
      <trkpt lat="46.76986" lon="-1.83398">
        <ele>22</ele>
        <time>2018-01-15T03:24:07Z</time>
      </trkpt>
      <trkpt lat="46.76979" lon="-1.83403">
        <ele>22</ele>
        <time>2018-01-15T03:25:07Z</time>
      </trkpt>
      <trkpt lat="46.76961" lon="-1.83413">
        <ele>22</ele>
        <time>2018-01-15T03:26:07Z</time>
      </trkpt>
      <trkpt lat="46.76926" lon="-1.83434">
        <ele>20</ele>
        <time>2018-01-15T03:27:07Z</time>
      </trkpt>
      <trkpt lat="46.76903" lon="-1.83447">
        <ele>20</ele>
        <time>2018-01-15T03:28:07Z</time>
      </trkpt>
      <trkpt lat="46.76893" lon="-1.83452">
        <ele>20</ele>
        <time>2018-01-15T03:29:07Z</time>
      </trkpt>
      <trkpt lat="46.76884" lon="-1.83455">
        <ele>20</ele>
        <time>2018-01-15T03:30:07Z</time>
      </trkpt>
      <trkpt lat="46.76875" lon="-1.83455">
        <ele>20</ele>
        <time>2018-01-15T03:31:07Z</time>
      </trkpt>
      <trkpt lat="46.76866" lon="-1.83455">
        <ele>20</ele>
        <time>2018-01-15T03:32:07Z</time>
      </trkpt>
      <trkpt lat="46.76862" lon="-1.83454">
        <ele>20</ele>
        <time>2018-01-15T03:33:07Z</time>
      </trkpt>
      <trkpt lat="46.76861" lon="-1.83454">
        <ele>20</ele>
        <time>2018-01-15T03:34:07Z</time>
      </trkpt>
      <trkpt lat="46.7685" lon="-1.8345">
        <ele>20</ele>
        <time>2018-01-15T03:35:07Z</time>
      </trkpt>
      <trkpt lat="46.76836" lon="-1.83445">
        <ele>20</ele>
        <time>2018-01-15T03:36:07Z</time>
      </trkpt>
      <trkpt lat="46.76818" lon="-1.83438">
        <ele>20</ele>
        <time>2018-01-15T03:37:07Z</time>
      </trkpt>
      <trkpt lat="46.76808" lon="-1.83434">
        <ele>20</ele>
        <time>2018-01-15T03:38:07Z</time>
      </trkpt>
      <trkpt lat="46.76797" lon="-1.83429">
        <ele>20</ele>
        <time>2018-01-15T03:39:07Z</time>
      </trkpt>
      <trkpt lat="46.76785" lon="-1.83423">
        <ele>19</ele>
        <time>2018-01-15T03:40:07Z</time>
      </trkpt>
      <trkpt lat="46.76774" lon="-1.83414">
        <ele>19</ele>
        <time>2018-01-15T03:41:07Z</time>
      </trkpt>
      <trkpt lat="46.76755" lon="-1.83402">
        <ele>19</ele>
        <time>2018-01-15T03:42:07Z</time>
      </trkpt>
      <trkpt lat="46.76731" lon="-1.83384">
        <ele>19</ele>
        <time>2018-01-15T03:43:07Z</time>
      </trkpt>
      <trkpt lat="46.76707" lon="-1.83368">
        <ele>19</ele>
        <time>2018-01-15T03:44:07Z</time>
      </trkpt>
      <trkpt lat="46.76707" lon="-1.83368">
        <ele>19</ele>
        <time>2018-01-15T03:45:07Z</time>
      </trkpt>
      <trkpt lat="46.76704" lon="-1.83374">
        <ele>19</ele>
        <time>2018-01-15T03:46:07Z</time>
      </trkpt>
      <trkpt lat="46.76697" lon="-1.83383">
        <ele>19</ele>
        <time>2018-01-15T03:47:07Z</time>
      </trkpt>
      <trkpt lat="46.76689" lon="-1.83393">
        <ele>19</ele>
        <time>2018-01-15T03:48:07Z</time>
      </trkpt>
      <trkpt lat="46.76677" lon="-1.8341">
        <ele>19</ele>
        <time>2018-01-15T03:49:07Z</time>
      </trkpt>
      <trkpt lat="46.7667" lon="-1.83418">
        <ele>19</ele>
        <time>2018-01-15T03:50:07Z</time>
      </trkpt>
      <trkpt lat="46.76662" lon="-1.83427">
        <ele>19</ele>
        <time>2018-01-15T03:51:07Z</time>
      </trkpt>
      <trkpt lat="46.76653" lon="-1.83436">
        <ele>19</ele>
        <time>2018-01-15T03:52:07Z</time>
      </trkpt>
      <trkpt lat="46.76644" lon="-1.83445">
        <ele>19</ele>
        <time>2018-01-15T03:53:07Z</time>
      </trkpt>
      <trkpt lat="46.76636" lon="-1.83452">
        <ele>18</ele>
        <time>2018-01-15T03:54:07Z</time>
      </trkpt>
      <trkpt lat="46.76625" lon="-1.83462">
        <ele>18</ele>
        <time>2018-01-15T03:55:07Z</time>
      </trkpt>
      <trkpt lat="46.76611" lon="-1.83473">
        <ele>18</ele>
        <time>2018-01-15T03:56:07Z</time>
      </trkpt>
      <trkpt lat="46.76595" lon="-1.83484">
        <ele>17</ele>
        <time>2018-01-15T03:57:07Z</time>
      </trkpt>
      <trkpt lat="46.76564" lon="-1.83504">
        <ele>17</ele>
        <time>2018-01-15T03:58:07Z</time>
      </trkpt>
      <trkpt lat="46.76521" lon="-1.8353">
        <ele>16</ele>
        <time>2018-01-15T03:59:07Z</time>
      </trkpt>
      <trkpt lat="46.76482" lon="-1.83552">
        <ele>16</ele>
        <time>2018-01-15T04:00:07Z</time>
      </trkpt>
      <trkpt lat="46.76475" lon="-1.83556">
        <ele>17</ele>
        <time>2018-01-15T04:01:07Z</time>
      </trkpt>
      <trkpt lat="46.76458" lon="-1.83565">
        <ele>17</ele>
        <time>2018-01-15T04:02:07Z</time>
      </trkpt>
      <trkpt lat="46.7645" lon="-1.8357">
        <ele>17</ele>
        <time>2018-01-15T04:03:07Z</time>
      </trkpt>
      <trkpt lat="46.76438" lon="-1.83577">
        <ele>18</ele>
        <time>2018-01-15T04:04:07Z</time>
      </trkpt>
      <trkpt lat="46.7642" lon="-1.83588">
        <ele>18</ele>
        <time>2018-01-15T04:05:07Z</time>
      </trkpt>
      <trkpt lat="46.76395" lon="-1.83603">
        <ele>18</ele>
        <time>2018-01-15T04:06:07Z</time>
      </trkpt>
      <trkpt lat="46.7638" lon="-1.83613">
        <ele>18</ele>
        <time>2018-01-15T04:07:07Z</time>
      </trkpt>
      <trkpt lat="46.76366" lon="-1.83622">
        <ele>18</ele>
        <time>2018-01-15T04:08:07Z</time>
      </trkpt>
      <trkpt lat="46.76356" lon="-1.8363">
        <ele>18</ele>
        <time>2018-01-15T04:09:07Z</time>
      </trkpt>
      <trkpt lat="46.76348" lon="-1.83636">
        <ele>19</ele>
        <time>2018-01-15T04:10:07Z</time>
      </trkpt>
      <trkpt lat="46.76338" lon="-1.83644">
        <ele>19</ele>
        <time>2018-01-15T04:11:07Z</time>
      </trkpt>
      <trkpt lat="46.76327" lon="-1.83652">
        <ele>19</ele>
        <time>2018-01-15T04:12:07Z</time>
      </trkpt>
      <trkpt lat="46.76316" lon="-1.83658">
        <ele>19</ele>
        <time>2018-01-15T04:13:07Z</time>
      </trkpt>
      <trkpt lat="46.76305" lon="-1.83662">
        <ele>19</ele>
        <time>2018-01-15T04:14:07Z</time>
      </trkpt>
      <trkpt lat="46.76292" lon="-1.83667">
        <ele>19</ele>
        <time>2018-01-15T04:15:07Z</time>
      </trkpt>
      <trkpt lat="46.76279" lon="-1.8367">
        <ele>19</ele>
        <time>2018-01-15T04:16:07Z</time>
      </trkpt>
      <trkpt lat="46.7627" lon="-1.83671">
        <ele>19</ele>
        <time>2018-01-15T04:17:07Z</time>
      </trkpt>
      <trkpt lat="46.76263" lon="-1.83671">
        <ele>19</ele>
        <time>2018-01-15T04:18:07Z</time>
      </trkpt>
      <trkpt lat="46.7626" lon="-1.83671">
        <ele>19</ele>
        <time>2018-01-15T04:19:07Z</time>
      </trkpt>
      <trkpt lat="46.76251" lon="-1.83668">
        <ele>19</ele>
        <time>2018-01-15T04:20:07Z</time>
      </trkpt>
      <trkpt lat="46.76247" lon="-1.83667">
        <ele>19</ele>
        <time>2018-01-15T04:21:07Z</time>
      </trkpt>
      <trkpt lat="46.76247" lon="-1.83667">
        <ele>19</ele>
        <time>2018-01-15T04:22:07Z</time>
      </trkpt>
      <trkpt lat="46.76245" lon="-1.83656">
        <ele>19</ele>
        <time>2018-01-15T04:23:07Z</time>
      </trkpt>
      <trkpt lat="46.76244" lon="-1.83645">
        <ele>18</ele>
        <time>2018-01-15T04:24:07Z</time>
      </trkpt>
      <trkpt lat="46.76242" lon="-1.83635">
        <ele>18</ele>
        <time>2018-01-15T04:25:07Z</time>
      </trkpt>
      <trkpt lat="46.76241" lon="-1.83628">
        <ele>18</ele>
        <time>2018-01-15T04:26:07Z</time>
      </trkpt>
      <trkpt lat="46.76236" lon="-1.83607">
        <ele>18</ele>
        <time>2018-01-15T04:27:07Z</time>
      </trkpt>
      <trkpt lat="46.76235" lon="-1.83602">
        <ele>18</ele>
        <time>2018-01-15T04:28:07Z</time>
      </trkpt>
      <trkpt lat="46.76232" lon="-1.83593">
        <ele>17</ele>
        <time>2018-01-15T04:29:07Z</time>
      </trkpt>
      <trkpt lat="46.76229" lon="-1.83581">
        <ele>17</ele>
        <time>2018-01-15T04:30:07Z</time>
      </trkpt>
      <trkpt lat="46.76223" lon="-1.83558">
        <ele>17</ele>
        <time>2018-01-15T04:31:07Z</time>
      </trkpt>
      <trkpt lat="46.76221" lon="-1.83549">
        <ele>17</ele>
        <time>2018-01-15T04:32:07Z</time>
      </trkpt>
      <trkpt lat="46.76211" lon="-1.8351">
        <ele>17</ele>
        <time>2018-01-15T04:33:07Z</time>
      </trkpt>
      <trkpt lat="46.76199" lon="-1.83463">
        <ele>17</ele>
        <time>2018-01-15T04:34:07Z</time>
      </trkpt>
      <trkpt lat="46.76187" lon="-1.83416">
        <ele>17</ele>
        <time>2018-01-15T04:35:07Z</time>
      </trkpt>
      <trkpt lat="46.76182" lon="-1.834">
        <ele>17</ele>
        <time>2018-01-15T04:36:07Z</time>
      </trkpt>
      <trkpt lat="46.76165" lon="-1.83332">
        <ele>16</ele>
        <time>2018-01-15T04:37:07Z</time>
      </trkpt>
      <trkpt lat="46.76155" lon="-1.83296">
        <ele>15</ele>
        <time>2018-01-15T04:38:07Z</time>
      </trkpt>
      <trkpt lat="46.76147" lon="-1.83267">
        <ele>15</ele>
        <time>2018-01-15T04:39:07Z</time>
      </trkpt>
      <trkpt lat="46.76137" lon="-1.83226">
        <ele>14</ele>
        <time>2018-01-15T04:40:07Z</time>
      </trkpt>
      <trkpt lat="46.76134" lon="-1.83214">
        <ele>14</ele>
        <time>2018-01-15T04:41:07Z</time>
      </trkpt>
      <trkpt lat="46.76126" lon="-1.83183">
        <ele>13</ele>
        <time>2018-01-15T04:42:07Z</time>
      </trkpt>
      <trkpt lat="46.76113" lon="-1.83134">
        <ele>13</ele>
        <time>2018-01-15T04:43:07Z</time>
      </trkpt>
      <trkpt lat="46.76103" lon="-1.83097">
        <ele>13</ele>
        <time>2018-01-15T04:44:07Z</time>
      </trkpt>
      <trkpt lat="46.76093" lon="-1.83059">
        <ele>12</ele>
        <time>2018-01-15T04:45:07Z</time>
      </trkpt>
      <trkpt lat="46.76083" lon="-1.8302">
        <ele>11</ele>
        <time>2018-01-15T04:46:07Z</time>
      </trkpt>
      <trkpt lat="46.76069" lon="-1.82964">
        <ele>9</ele>
        <time>2018-01-15T04:47:07Z</time>
      </trkpt>
      <trkpt lat="46.76062" lon="-1.82937">
        <ele>8</ele>
        <time>2018-01-15T04:48:07Z</time>
      </trkpt>
      <trkpt lat="46.76055" lon="-1.82908">
        <ele>7</ele>
        <time>2018-01-15T04:49:07Z</time>
      </trkpt>
      <trkpt lat="46.76041" lon="-1.82855">
        <ele>8</ele>
        <time>2018-01-15T04:50:07Z</time>
      </trkpt>
      <trkpt lat="46.76032" lon="-1.82816">
        <ele>8</ele>
        <time>2018-01-15T04:51:07Z</time>
      </trkpt>
      <trkpt lat="46.76023" lon="-1.82781">
        <ele>8</ele>
        <time>2018-01-15T04:52:07Z</time>
      </trkpt>
      <trkpt lat="46.76021" lon="-1.82775">
        <ele>8</ele>
        <time>2018-01-15T04:53:07Z</time>
      </trkpt>
      <trkpt lat="46.7601" lon="-1.82731">
        <ele>8</ele>
        <time>2018-01-15T04:54:07Z</time>
      </trkpt>
      <trkpt lat="46.76007" lon="-1.8272">
        <ele>8</ele>
        <time>2018-01-15T04:55:07Z</time>
      </trkpt>
      <trkpt lat="46.75996" lon="-1.82677">
        <ele>8</ele>
        <time>2018-01-15T04:56:07Z</time>
      </trkpt>
      <trkpt lat="46.7598" lon="-1.82616">
        <ele>8</ele>
        <time>2018-01-15T04:57:07Z</time>
      </trkpt>
      <trkpt lat="46.75964" lon="-1.82552">
        <ele>8</ele>
        <time>2018-01-15T04:58:07Z</time>
      </trkpt>
      <trkpt lat="46.75946" lon="-1.82477">
        <ele>7</ele>
        <time>2018-01-15T04:59:07Z</time>
      </trkpt>
      <trkpt lat="46.75923" lon="-1.82387">
        <ele>7</ele>
        <time>2018-01-15T05:00:07Z</time>
      </trkpt>
      <trkpt lat="46.75913" lon="-1.82347">
        <ele>7</ele>
        <time>2018-01-15T05:01:07Z</time>
      </trkpt>
      <trkpt lat="46.75908" lon="-1.82329">
        <ele>7</ele>
        <time>2018-01-15T05:02:07Z</time>
      </trkpt>
      <trkpt lat="46.75905" lon="-1.82318">
        <ele>7</ele>
        <time>2018-01-15T05:03:07Z</time>
      </trkpt>
      <trkpt lat="46.759" lon="-1.82298">
        <ele>7</ele>
        <time>2018-01-15T05:04:07Z</time>
      </trkpt>
      <trkpt lat="46.75897" lon="-1.82285">
        <ele>7</ele>
        <time>2018-01-15T05:05:07Z</time>
      </trkpt>
      <trkpt lat="46.75893" lon="-1.82273">
        <ele>7</ele>
        <time>2018-01-15T05:06:07Z</time>
      </trkpt>
      <trkpt lat="46.75889" lon="-1.82262">
        <ele>7</ele>
        <time>2018-01-15T05:07:07Z</time>
      </trkpt>
      <trkpt lat="46.75886" lon="-1.82253">
        <ele>7</ele>
        <time>2018-01-15T05:08:07Z</time>
      </trkpt>
      <trkpt lat="46.75884" lon="-1.82249">
        <ele>7</ele>
        <time>2018-01-15T05:09:07Z</time>
      </trkpt>
      <trkpt lat="46.75883" lon="-1.82246">
        <ele>7</ele>
        <time>2018-01-15T05:10:07Z</time>
      </trkpt>
      <trkpt lat="46.75877" lon="-1.8223">
        <ele>7</ele>
        <time>2018-01-15T05:11:07Z</time>
      </trkpt>
      <trkpt lat="46.75867" lon="-1.82208">
        <ele>7</ele>
        <time>2018-01-15T05:12:07Z</time>
      </trkpt>
      <trkpt lat="46.75858" lon="-1.82191">
        <ele>7</ele>
        <time>2018-01-15T05:13:07Z</time>
      </trkpt>
      <trkpt lat="46.7585" lon="-1.82177">
        <ele>7</ele>
        <time>2018-01-15T05:14:07Z</time>
      </trkpt>
      <trkpt lat="46.7584" lon="-1.82159">
        <ele>7</ele>
        <time>2018-01-15T05:15:07Z</time>
      </trkpt>
      <trkpt lat="46.7583" lon="-1.82144">
        <ele>7</ele>
        <time>2018-01-15T05:16:07Z</time>
      </trkpt>
      <trkpt lat="46.75824" lon="-1.82136">
        <ele>7</ele>
        <time>2018-01-15T05:17:07Z</time>
      </trkpt>
      <trkpt lat="46.75815" lon="-1.82124">
        <ele>7</ele>
        <time>2018-01-15T05:18:07Z</time>
      </trkpt>
      <trkpt lat="46.75806" lon="-1.82114">
        <ele>7</ele>
        <time>2018-01-15T05:19:07Z</time>
      </trkpt>
      <trkpt lat="46.75796" lon="-1.82103">
        <ele>7</ele>
        <time>2018-01-15T05:20:07Z</time>
      </trkpt>
      <trkpt lat="46.75783" lon="-1.8209">
        <ele>7</ele>
        <time>2018-01-15T05:21:07Z</time>
      </trkpt>
      <trkpt lat="46.75767" lon="-1.82077">
        <ele>7</ele>
        <time>2018-01-15T05:22:07Z</time>
      </trkpt>
      <trkpt lat="46.75739" lon="-1.82054">
        <ele>7</ele>
        <time>2018-01-15T05:23:07Z</time>
      </trkpt>
      <trkpt lat="46.75704" lon="-1.82024">
        <ele>6</ele>
        <time>2018-01-15T05:24:07Z</time>
      </trkpt>
      <trkpt lat="46.75644" lon="-1.81975">
        <ele>6</ele>
        <time>2018-01-15T05:25:07Z</time>
      </trkpt>
      <trkpt lat="46.75614" lon="-1.81951">
        <ele>6</ele>
        <time>2018-01-15T05:26:07Z</time>
      </trkpt>
      <trkpt lat="46.75582" lon="-1.81925">
        <ele>7</ele>
        <time>2018-01-15T05:27:07Z</time>
      </trkpt>
      <trkpt lat="46.7555" lon="-1.81896">
        <ele>8</ele>
        <time>2018-01-15T05:28:07Z</time>
      </trkpt>
      <trkpt lat="46.75541" lon="-1.81887">
        <ele>8</ele>
        <time>2018-01-15T05:29:07Z</time>
      </trkpt>
      <trkpt lat="46.75533" lon="-1.81879">
        <ele>8</ele>
        <time>2018-01-15T05:30:07Z</time>
      </trkpt>
      <trkpt lat="46.75525" lon="-1.81869">
        <ele>8</ele>
        <time>2018-01-15T05:31:07Z</time>
      </trkpt>
      <trkpt lat="46.75516" lon="-1.81858">
        <ele>9</ele>
        <time>2018-01-15T05:32:07Z</time>
      </trkpt>
      <trkpt lat="46.75509" lon="-1.8185">
        <ele>9</ele>
        <time>2018-01-15T05:33:07Z</time>
      </trkpt>
      <trkpt lat="46.75502" lon="-1.8184">
        <ele>9</ele>
        <time>2018-01-15T05:34:07Z</time>
      </trkpt>
      <trkpt lat="46.75493" lon="-1.81829">
        <ele>9</ele>
        <time>2018-01-15T05:35:07Z</time>
      </trkpt>
      <trkpt lat="46.75484" lon="-1.81816">
        <ele>9</ele>
        <time>2018-01-15T05:36:07Z</time>
      </trkpt>
      <trkpt lat="46.75474" lon="-1.81802">
        <ele>9</ele>
        <time>2018-01-15T05:37:07Z</time>
      </trkpt>
      <trkpt lat="46.75467" lon="-1.8179">
        <ele>9</ele>
        <time>2018-01-15T05:38:07Z</time>
      </trkpt>
      <trkpt lat="46.7546" lon="-1.81778">
        <ele>9</ele>
        <time>2018-01-15T05:39:07Z</time>
      </trkpt>
      <trkpt lat="46.75456" lon="-1.81772">
        <ele>9</ele>
        <time>2018-01-15T05:40:07Z</time>
      </trkpt>
      <trkpt lat="46.75447" lon="-1.81754">
        <ele>9</ele>
        <time>2018-01-15T05:41:07Z</time>
      </trkpt>
      <trkpt lat="46.75429" lon="-1.81716">
        <ele>9</ele>
        <time>2018-01-15T05:42:07Z</time>
      </trkpt>
      <trkpt lat="46.75399" lon="-1.81648">
        <ele>9</ele>
        <time>2018-01-15T05:43:07Z</time>
      </trkpt>
      <trkpt lat="46.75378" lon="-1.81599">
        <ele>9</ele>
        <time>2018-01-15T05:44:07Z</time>
      </trkpt>
      <trkpt lat="46.75354" lon="-1.81545">
        <ele>8</ele>
        <time>2018-01-15T05:45:07Z</time>
      </trkpt>
      <trkpt lat="46.7533" lon="-1.81491">
        <ele>9</ele>
        <time>2018-01-15T05:46:07Z</time>
      </trkpt>
      <trkpt lat="46.75311" lon="-1.81446">
        <ele>9</ele>
        <time>2018-01-15T05:47:07Z</time>
      </trkpt>
      <trkpt lat="46.75278" lon="-1.81373">
        <ele>10</ele>
        <time>2018-01-15T05:48:07Z</time>
      </trkpt>
      <trkpt lat="46.75272" lon="-1.81358">
        <ele>10</ele>
        <time>2018-01-15T05:49:07Z</time>
      </trkpt>
      <trkpt lat="46.75256" lon="-1.81322">
        <ele>10</ele>
        <time>2018-01-15T05:50:07Z</time>
      </trkpt>
      <trkpt lat="46.75244" lon="-1.81293">
        <ele>10</ele>
        <time>2018-01-15T05:51:07Z</time>
      </trkpt>
      <trkpt lat="46.75226" lon="-1.81242">
        <ele>10</ele>
        <time>2018-01-15T05:52:07Z</time>
      </trkpt>
      <trkpt lat="46.7522" lon="-1.81224">
        <ele>10</ele>
        <time>2018-01-15T05:53:07Z</time>
      </trkpt>
      <trkpt lat="46.75215" lon="-1.81201">
        <ele>10</ele>
        <time>2018-01-15T05:54:07Z</time>
      </trkpt>
      <trkpt lat="46.7521" lon="-1.81184">
        <ele>10</ele>
        <time>2018-01-15T05:55:07Z</time>
      </trkpt>
      <trkpt lat="46.75207" lon="-1.81169">
        <ele>10</ele>
        <time>2018-01-15T05:56:07Z</time>
      </trkpt>
      <trkpt lat="46.75204" lon="-1.81152">
        <ele>10</ele>
        <time>2018-01-15T05:57:07Z</time>
      </trkpt>
      <trkpt lat="46.752" lon="-1.81132">
        <ele>10</ele>
        <time>2018-01-15T05:58:07Z</time>
      </trkpt>
      <trkpt lat="46.75195" lon="-1.81098">
        <ele>10</ele>
        <time>2018-01-15T05:59:07Z</time>
      </trkpt>
      <trkpt lat="46.75185" lon="-1.81037">
        <ele>10</ele>
        <time>2018-01-15T06:00:07Z</time>
      </trkpt>
      <trkpt lat="46.75169" lon="-1.80939">
        <ele>11</ele>
        <time>2018-01-15T06:01:07Z</time>
      </trkpt>
      <trkpt lat="46.75157" lon="-1.80862">
        <ele>11</ele>
        <time>2018-01-15T06:02:07Z</time>
      </trkpt>
      <trkpt lat="46.75144" lon="-1.80784">
        <ele>11</ele>
        <time>2018-01-15T06:03:07Z</time>
      </trkpt>
      <trkpt lat="46.75135" lon="-1.8073">
        <ele>11</ele>
        <time>2018-01-15T06:04:07Z</time>
      </trkpt>
      <trkpt lat="46.7513" lon="-1.80699">
        <ele>11</ele>
        <time>2018-01-15T06:05:07Z</time>
      </trkpt>
      <trkpt lat="46.75127" lon="-1.80676">
        <ele>11</ele>
        <time>2018-01-15T06:06:07Z</time>
      </trkpt>
      <trkpt lat="46.75115" lon="-1.80604">
        <ele>13</ele>
        <time>2018-01-15T06:07:07Z</time>
      </trkpt>
      <trkpt lat="46.75113" lon="-1.80589">
        <ele>14</ele>
        <time>2018-01-15T06:08:07Z</time>
      </trkpt>
      <trkpt lat="46.75102" lon="-1.80526">
        <ele>14</ele>
        <time>2018-01-15T06:09:07Z</time>
      </trkpt>
      <trkpt lat="46.75097" lon="-1.80489">
        <ele>15</ele>
        <time>2018-01-15T06:10:07Z</time>
      </trkpt>
      <trkpt lat="46.75088" lon="-1.80437">
        <ele>14</ele>
        <time>2018-01-15T06:11:07Z</time>
      </trkpt>
      <trkpt lat="46.75079" lon="-1.8038">
        <ele>15</ele>
        <time>2018-01-15T06:12:07Z</time>
      </trkpt>
      <trkpt lat="46.75066" lon="-1.803">
        <ele>16</ele>
        <time>2018-01-15T06:13:07Z</time>
      </trkpt>
      <trkpt lat="46.75066" lon="-1.80298">
        <ele>16</ele>
        <time>2018-01-15T06:14:07Z</time>
      </trkpt>
      <trkpt lat="46.75059" lon="-1.80247">
        <ele>16</ele>
        <time>2018-01-15T06:15:07Z</time>
      </trkpt>
      <trkpt lat="46.75055" lon="-1.80218">
        <ele>15</ele>
        <time>2018-01-15T06:16:07Z</time>
      </trkpt>
      <trkpt lat="46.75048" lon="-1.8018">
        <ele>13</ele>
        <time>2018-01-15T06:17:07Z</time>
      </trkpt>
      <trkpt lat="46.75039" lon="-1.80127">
        <ele>12</ele>
        <time>2018-01-15T06:18:07Z</time>
      </trkpt>
      <trkpt lat="46.75039" lon="-1.80125">
        <ele>12</ele>
        <time>2018-01-15T06:19:07Z</time>
      </trkpt>
      <trkpt lat="46.75034" lon="-1.80092">
        <ele>12</ele>
        <time>2018-01-15T06:20:07Z</time>
      </trkpt>
      <trkpt lat="46.75026" lon="-1.80044">
        <ele>13</ele>
        <time>2018-01-15T06:21:07Z</time>
      </trkpt>
      <trkpt lat="46.75021" lon="-1.80014">
        <ele>13</ele>
        <time>2018-01-15T06:22:07Z</time>
      </trkpt>
      <trkpt lat="46.75017" lon="-1.79991">
        <ele>13</ele>
        <time>2018-01-15T06:23:07Z</time>
      </trkpt>
      <trkpt lat="46.75011" lon="-1.79963">
        <ele>12</ele>
        <time>2018-01-15T06:24:07Z</time>
      </trkpt>
      <trkpt lat="46.75004" lon="-1.79943">
        <ele>12</ele>
        <time>2018-01-15T06:25:07Z</time>
      </trkpt>
      <trkpt lat="46.74997" lon="-1.79926">
        <ele>11</ele>
        <time>2018-01-15T06:26:07Z</time>
      </trkpt>
      <trkpt lat="46.74988" lon="-1.79908">
        <ele>10</ele>
        <time>2018-01-15T06:27:07Z</time>
      </trkpt>
      <trkpt lat="46.74981" lon="-1.79895">
        <ele>10</ele>
        <time>2018-01-15T06:28:07Z</time>
      </trkpt>
      <trkpt lat="46.74974" lon="-1.79884">
        <ele>9</ele>
        <time>2018-01-15T06:29:07Z</time>
      </trkpt>
      <trkpt lat="46.74954" lon="-1.79854">
        <ele>7</ele>
        <time>2018-01-15T06:30:07Z</time>
      </trkpt>
      <trkpt lat="46.74927" lon="-1.79817">
        <ele>6</ele>
        <time>2018-01-15T06:31:07Z</time>
      </trkpt>
      <trkpt lat="46.74895" lon="-1.79771">
        <ele>6</ele>
        <time>2018-01-15T06:32:07Z</time>
      </trkpt>
      <trkpt lat="46.74887" lon="-1.79761">
        <ele>6</ele>
        <time>2018-01-15T06:33:07Z</time>
      </trkpt>
      <trkpt lat="46.7488" lon="-1.79751">
        <ele>6</ele>
        <time>2018-01-15T06:34:07Z</time>
      </trkpt>
      <trkpt lat="46.74873" lon="-1.79744">
        <ele>6</ele>
        <time>2018-01-15T06:35:07Z</time>
      </trkpt>
      <trkpt lat="46.74866" lon="-1.79737">
        <ele>6</ele>
        <time>2018-01-15T06:36:07Z</time>
      </trkpt>
      <trkpt lat="46.74857" lon="-1.79731">
        <ele>6</ele>
        <time>2018-01-15T06:37:07Z</time>
      </trkpt>
      <trkpt lat="46.74849" lon="-1.79726">
        <ele>6</ele>
        <time>2018-01-15T06:38:07Z</time>
      </trkpt>
      <trkpt lat="46.74838" lon="-1.79723">
        <ele>6</ele>
        <time>2018-01-15T06:39:07Z</time>
      </trkpt>
      <trkpt lat="46.74836" lon="-1.79722">
        <ele>6</ele>
        <time>2018-01-15T06:40:07Z</time>
      </trkpt>
      <trkpt lat="46.74831" lon="-1.7972">
        <ele>6</ele>
        <time>2018-01-15T06:41:07Z</time>
      </trkpt>
      <trkpt lat="46.74825" lon="-1.79719">
        <ele>7</ele>
        <time>2018-01-15T06:42:07Z</time>
      </trkpt>
      <trkpt lat="46.74816" lon="-1.79716">
        <ele>7</ele>
        <time>2018-01-15T06:43:07Z</time>
      </trkpt>
      <trkpt lat="46.74807" lon="-1.79714">
        <ele>7</ele>
        <time>2018-01-15T06:44:07Z</time>
      </trkpt>
      <trkpt lat="46.74801" lon="-1.79712">
        <ele>7</ele>
        <time>2018-01-15T06:45:07Z</time>
      </trkpt>
      <trkpt lat="46.74785" lon="-1.79706">
        <ele>8</ele>
        <time>2018-01-15T06:46:07Z</time>
      </trkpt>
      <trkpt lat="46.74784" lon="-1.79705">
        <ele>8</ele>
        <time>2018-01-15T06:47:07Z</time>
      </trkpt>
      <trkpt lat="46.74774" lon="-1.79701">
        <ele>8</ele>
        <time>2018-01-15T06:48:07Z</time>
      </trkpt>
      <trkpt lat="46.74766" lon="-1.79697">
        <ele>9</ele>
        <time>2018-01-15T06:49:07Z</time>
      </trkpt>
      <trkpt lat="46.74757" lon="-1.79692">
        <ele>9</ele>
        <time>2018-01-15T06:50:07Z</time>
      </trkpt>
      <trkpt lat="46.74751" lon="-1.79688">
        <ele>9</ele>
        <time>2018-01-15T06:51:07Z</time>
      </trkpt>
      <trkpt lat="46.74738" lon="-1.79679">
        <ele>10</ele>
        <time>2018-01-15T06:52:07Z</time>
      </trkpt>
      <trkpt lat="46.74714" lon="-1.79662">
        <ele>12</ele>
        <time>2018-01-15T06:53:07Z</time>
      </trkpt>
      <trkpt lat="46.74687" lon="-1.79641">
        <ele>13</ele>
        <time>2018-01-15T06:54:07Z</time>
      </trkpt>
      <trkpt lat="46.74682" lon="-1.79636">
        <ele>13</ele>
        <time>2018-01-15T06:55:07Z</time>
      </trkpt>
      <trkpt lat="46.74653" lon="-1.79613">
        <ele>14</ele>
        <time>2018-01-15T06:56:07Z</time>
      </trkpt>
      <trkpt lat="46.74636" lon="-1.79599">
        <ele>14</ele>
        <time>2018-01-15T06:57:07Z</time>
      </trkpt>
      <trkpt lat="46.74636" lon="-1.79599">
        <ele>14</ele>
        <time>2018-01-15T06:58:07Z</time>
      </trkpt>
      <trkpt lat="46.74635" lon="-1.79626">
        <ele>15</ele>
        <time>2018-01-15T06:59:07Z</time>
      </trkpt>
      <trkpt lat="46.74633" lon="-1.79673">
        <ele>15</ele>
        <time>2018-01-15T07:00:07Z</time>
      </trkpt>
      <trkpt lat="46.74629" lon="-1.79734">
        <ele>14</ele>
        <time>2018-01-15T07:01:07Z</time>
      </trkpt>
      <trkpt lat="46.74628" lon="-1.79751">
        <ele>13</ele>
        <time>2018-01-15T07:02:07Z</time>
      </trkpt>
      <trkpt lat="46.74628" lon="-1.79758">
        <ele>13</ele>
        <time>2018-01-15T07:03:07Z</time>
      </trkpt>
      <trkpt lat="46.74627" lon="-1.79761">
        <ele>14</ele>
        <time>2018-01-15T07:04:07Z</time>
      </trkpt>
      <trkpt lat="46.74624" lon="-1.79768">
        <ele>14</ele>
        <time>2018-01-15T07:05:07Z</time>
      </trkpt>
      <trkpt lat="46.74622" lon="-1.79774">
        <ele>14</ele>
        <time>2018-01-15T07:06:07Z</time>
      </trkpt>
      <trkpt lat="46.74621" lon="-1.79775">
        <ele>14</ele>
        <time>2018-01-15T07:07:07Z</time>
      </trkpt>
      <trkpt lat="46.74616" lon="-1.79788">
        <ele>14</ele>
        <time>2018-01-15T07:08:07Z</time>
      </trkpt>
      <trkpt lat="46.74612" lon="-1.79796">
        <ele>15</ele>
        <time>2018-01-15T07:09:07Z</time>
      </trkpt>
      <trkpt lat="46.74612" lon="-1.79796">
        <ele>15</ele>
        <time>2018-01-15T07:10:07Z</time>
      </trkpt>
      <trkpt lat="46.74619" lon="-1.79836">
        <ele>15</ele>
        <time>2018-01-15T07:11:07Z</time>
      </trkpt>
      <trkpt lat="46.74621" lon="-1.79854">
        <ele>15</ele>
        <time>2018-01-15T07:12:07Z</time>
      </trkpt>
      <trkpt lat="46.74621" lon="-1.79856">
        <ele>15</ele>
        <time>2018-01-15T07:13:07Z</time>
      </trkpt>
      <trkpt lat="46.74621" lon="-1.79869">
        <ele>15</ele>
        <time>2018-01-15T07:14:07Z</time>
      </trkpt>
      <trkpt lat="46.74621" lon="-1.79889">
        <ele>15</ele>
        <time>2018-01-15T07:15:07Z</time>
      </trkpt>
      <trkpt lat="46.74618" lon="-1.79939">
        <ele>15</ele>
        <time>2018-01-15T07:16:07Z</time>
      </trkpt>
      <trkpt lat="46.74613" lon="-1.80001">
        <ele>16</ele>
        <time>2018-01-15T07:17:07Z</time>
      </trkpt>
      <trkpt lat="46.74608" lon="-1.80068">
        <ele>17</ele>
        <time>2018-01-15T07:18:07Z</time>
      </trkpt>
      <trkpt lat="46.74606" lon="-1.80097">
        <ele>17</ele>
        <time>2018-01-15T07:19:07Z</time>
      </trkpt>
      <trkpt lat="46.74603" lon="-1.80116">
        <ele>17</ele>
        <time>2018-01-15T07:20:07Z</time>
      </trkpt>
      <trkpt lat="46.74601" lon="-1.80134">
        <ele>17</ele>
        <time>2018-01-15T07:21:07Z</time>
      </trkpt>
      <trkpt lat="46.74599" lon="-1.80149">
        <ele>17</ele>
        <time>2018-01-15T07:22:07Z</time>
      </trkpt>
      <trkpt lat="46.74598" lon="-1.80155">
        <ele>17</ele>
        <time>2018-01-15T07:23:07Z</time>
      </trkpt>
      <trkpt lat="46.74594" lon="-1.8017">
        <ele>17</ele>
        <time>2018-01-15T07:24:07Z</time>
      </trkpt>
      <trkpt lat="46.74591" lon="-1.80184">
        <ele>17</ele>
        <time>2018-01-15T07:25:07Z</time>
      </trkpt>
      <trkpt lat="46.74587" lon="-1.80197">
        <ele>17</ele>
        <time>2018-01-15T07:26:07Z</time>
      </trkpt>
      <trkpt lat="46.74582" lon="-1.80208">
        <ele>18</ele>
        <time>2018-01-15T07:27:07Z</time>
      </trkpt>
      <trkpt lat="46.74576" lon="-1.80223">
        <ele>18</ele>
        <time>2018-01-15T07:28:07Z</time>
      </trkpt>
      <trkpt lat="46.74569" lon="-1.80237">
        <ele>18</ele>
        <time>2018-01-15T07:29:07Z</time>
      </trkpt>
      <trkpt lat="46.74557" lon="-1.80255">
        <ele>18</ele>
        <time>2018-01-15T07:30:07Z</time>
      </trkpt>
      <trkpt lat="46.7454" lon="-1.80281">
        <ele>18</ele>
        <time>2018-01-15T07:31:07Z</time>
      </trkpt>
      <trkpt lat="46.74516" lon="-1.80316">
        <ele>18</ele>
        <time>2018-01-15T07:32:07Z</time>
      </trkpt>
      <trkpt lat="46.74508" lon="-1.80327">
        <ele>18</ele>
        <time>2018-01-15T07:33:07Z</time>
      </trkpt>
      <trkpt lat="46.7448" lon="-1.80369">
        <ele>19</ele>
        <time>2018-01-15T07:34:07Z</time>
      </trkpt>
      <trkpt lat="46.7445" lon="-1.80413">
        <ele>20</ele>
        <time>2018-01-15T07:35:07Z</time>
      </trkpt>
      <trkpt lat="46.74446" lon="-1.80418">
        <ele>20</ele>
        <time>2018-01-15T07:36:07Z</time>
      </trkpt>
      <trkpt lat="46.74401" lon="-1.80483">
        <ele>20</ele>
        <time>2018-01-15T07:37:07Z</time>
      </trkpt>
      <trkpt lat="46.7435" lon="-1.80557">
        <ele>20</ele>
        <time>2018-01-15T07:38:07Z</time>
      </trkpt>
      <trkpt lat="46.74303" lon="-1.80624">
        <ele>19</ele>
        <time>2018-01-15T07:39:07Z</time>
      </trkpt>
      <trkpt lat="46.74295" lon="-1.80636">
        <ele>19</ele>
        <time>2018-01-15T07:40:07Z</time>
      </trkpt>
      <trkpt lat="46.74281" lon="-1.80656">
        <ele>19</ele>
        <time>2018-01-15T07:41:07Z</time>
      </trkpt>
      <trkpt lat="46.74254" lon="-1.80694">
        <ele>19</ele>
        <time>2018-01-15T07:42:07Z</time>
      </trkpt>
      <trkpt lat="46.74233" lon="-1.80727">
        <ele>19</ele>
        <time>2018-01-15T07:43:07Z</time>
      </trkpt>
      <trkpt lat="46.74226" lon="-1.8074">
        <ele>19</ele>
        <time>2018-01-15T07:44:07Z</time>
      </trkpt>
      <trkpt lat="46.7422" lon="-1.80751">
        <ele>19</ele>
        <time>2018-01-15T07:45:07Z</time>
      </trkpt>
      <trkpt lat="46.74215" lon="-1.80761">
        <ele>19</ele>
        <time>2018-01-15T07:46:07Z</time>
      </trkpt>
      <trkpt lat="46.7421" lon="-1.80775">
        <ele>20</ele>
        <time>2018-01-15T07:47:07Z</time>
      </trkpt>
      <trkpt lat="46.74204" lon="-1.80789">
        <ele>20</ele>
        <time>2018-01-15T07:48:07Z</time>
      </trkpt>
      <trkpt lat="46.74198" lon="-1.80806">
        <ele>20</ele>
        <time>2018-01-15T07:49:07Z</time>
      </trkpt>
      <trkpt lat="46.74191" lon="-1.80825">
        <ele>20</ele>
        <time>2018-01-15T07:50:07Z</time>
      </trkpt>
      <trkpt lat="46.74185" lon="-1.80851">
        <ele>21</ele>
        <time>2018-01-15T07:51:07Z</time>
      </trkpt>
      <trkpt lat="46.74183" lon="-1.8086">
        <ele>21</ele>
        <time>2018-01-15T07:52:07Z</time>
      </trkpt>
      <trkpt lat="46.74182" lon="-1.80866">
        <ele>21</ele>
        <time>2018-01-15T07:53:07Z</time>
      </trkpt>
      <trkpt lat="46.7417" lon="-1.80911">
        <ele>21</ele>
        <time>2018-01-15T07:54:07Z</time>
      </trkpt>
      <trkpt lat="46.74158" lon="-1.8096">
        <ele>21</ele>
        <time>2018-01-15T07:55:07Z</time>
      </trkpt>
      <trkpt lat="46.74145" lon="-1.81014">
        <ele>21</ele>
        <time>2018-01-15T07:56:07Z</time>
      </trkpt>
      <trkpt lat="46.74133" lon="-1.81068">
        <ele>22</ele>
        <time>2018-01-15T07:57:07Z</time>
      </trkpt>
      <trkpt lat="46.74123" lon="-1.8111">
        <ele>22</ele>
        <time>2018-01-15T07:58:07Z</time>
      </trkpt>
      <trkpt lat="46.74112" lon="-1.8116">
        <ele>22</ele>
        <time>2018-01-15T07:59:07Z</time>
      </trkpt>
      <trkpt lat="46.74099" lon="-1.81217">
        <ele>22</ele>
        <time>2018-01-15T08:00:07Z</time>
      </trkpt>
      <trkpt lat="46.7409" lon="-1.81255">
        <ele>23</ele>
        <time>2018-01-15T08:01:07Z</time>
      </trkpt>
      <trkpt lat="46.74084" lon="-1.8128">
        <ele>23</ele>
        <time>2018-01-15T08:02:07Z</time>
      </trkpt>
      <trkpt lat="46.74078" lon="-1.81305">
        <ele>23</ele>
        <time>2018-01-15T08:03:07Z</time>
      </trkpt>
      <trkpt lat="46.74074" lon="-1.8132">
        <ele>23</ele>
        <time>2018-01-15T08:04:07Z</time>
      </trkpt>
      <trkpt lat="46.74072" lon="-1.81333">
        <ele>23</ele>
        <time>2018-01-15T08:05:07Z</time>
      </trkpt>
      <trkpt lat="46.7407" lon="-1.81348">
        <ele>23</ele>
        <time>2018-01-15T08:06:07Z</time>
      </trkpt>
      <trkpt lat="46.74069" lon="-1.81362">
        <ele>23</ele>
        <time>2018-01-15T08:07:07Z</time>
      </trkpt>
      <trkpt lat="46.74068" lon="-1.81377">
        <ele>23</ele>
        <time>2018-01-15T08:08:07Z</time>
      </trkpt>
      <trkpt lat="46.74068" lon="-1.81396">
        <ele>22</ele>
        <time>2018-01-15T08:09:07Z</time>
      </trkpt>
      <trkpt lat="46.74069" lon="-1.81428">
        <ele>22</ele>
        <time>2018-01-15T08:10:07Z</time>
      </trkpt>
      <trkpt lat="46.74075" lon="-1.8158">
        <ele>21</ele>
        <time>2018-01-15T08:11:07Z</time>
      </trkpt>
      <trkpt lat="46.7408" lon="-1.81702">
        <ele>20</ele>
        <time>2018-01-15T08:12:07Z</time>
      </trkpt>
      <trkpt lat="46.74083" lon="-1.81811">
        <ele>18</ele>
        <time>2018-01-15T08:13:07Z</time>
      </trkpt>
      <trkpt lat="46.74083" lon="-1.81834">
        <ele>18</ele>
        <time>2018-01-15T08:14:07Z</time>
      </trkpt>
      <trkpt lat="46.74084" lon="-1.81849">
        <ele>18</ele>
        <time>2018-01-15T08:15:07Z</time>
      </trkpt>
      <trkpt lat="46.74085" lon="-1.81863">
        <ele>17</ele>
        <time>2018-01-15T08:16:07Z</time>
      </trkpt>
      <trkpt lat="46.74086" lon="-1.81876">
        <ele>17</ele>
        <time>2018-01-15T08:17:07Z</time>
      </trkpt>
      <trkpt lat="46.74089" lon="-1.81896">
        <ele>16</ele>
        <time>2018-01-15T08:18:07Z</time>
      </trkpt>
      <trkpt lat="46.74092" lon="-1.81917">
        <ele>16</ele>
        <time>2018-01-15T08:19:07Z</time>
      </trkpt>
      <trkpt lat="46.74096" lon="-1.81936">
        <ele>16</ele>
        <time>2018-01-15T08:20:07Z</time>
      </trkpt>
      <trkpt lat="46.74099" lon="-1.81956">
        <ele>16</ele>
        <time>2018-01-15T08:21:07Z</time>
      </trkpt>
      <trkpt lat="46.74109" lon="-1.8201">
        <ele>16</ele>
        <time>2018-01-15T08:22:07Z</time>
      </trkpt>
      <trkpt lat="46.74113" lon="-1.82032">
        <ele>16</ele>
        <time>2018-01-15T08:23:07Z</time>
      </trkpt>
      <trkpt lat="46.74115" lon="-1.82049">
        <ele>16</ele>
        <time>2018-01-15T08:24:07Z</time>
      </trkpt>
      <trkpt lat="46.74116" lon="-1.82065">
        <ele>16</ele>
        <time>2018-01-15T08:25:07Z</time>
      </trkpt>
      <trkpt lat="46.74115" lon="-1.82078">
        <ele>16</ele>
        <time>2018-01-15T08:26:07Z</time>
      </trkpt>
      <trkpt lat="46.74114" lon="-1.82089">
        <ele>16</ele>
        <time>2018-01-15T08:27:07Z</time>
      </trkpt>
      <trkpt lat="46.74114" lon="-1.82089">
        <ele>16</ele>
        <time>2018-01-15T08:28:07Z</time>
      </trkpt>
      <trkpt lat="46.74115" lon="-1.8209">
        <ele>16</ele>
        <time>2018-01-15T08:29:07Z</time>
      </trkpt>
      <trkpt lat="46.74116" lon="-1.82091">
        <ele>16</ele>
        <time>2018-01-15T08:30:07Z</time>
      </trkpt>
      <trkpt lat="46.74117" lon="-1.82093">
        <ele>16</ele>
        <time>2018-01-15T08:31:07Z</time>
      </trkpt>
      <trkpt lat="46.74118" lon="-1.82094">
        <ele>16</ele>
        <time>2018-01-15T08:32:07Z</time>
      </trkpt>
      <trkpt lat="46.74118" lon="-1.82096">
        <ele>16</ele>
        <time>2018-01-15T08:33:07Z</time>
      </trkpt>
      <trkpt lat="46.74118" lon="-1.82098">
        <ele>16</ele>
        <time>2018-01-15T08:34:07Z</time>
      </trkpt>
      <trkpt lat="46.74117" lon="-1.82101">
        <ele>16</ele>
        <time>2018-01-15T08:35:07Z</time>
      </trkpt>
      <trkpt lat="46.74117" lon="-1.82102">
        <ele>16</ele>
        <time>2018-01-15T08:36:07Z</time>
      </trkpt>
      <trkpt lat="46.74116" lon="-1.82104">
        <ele>16</ele>
        <time>2018-01-15T08:37:07Z</time>
      </trkpt>
      <trkpt lat="46.74115" lon="-1.82105">
        <ele>16</ele>
        <time>2018-01-15T08:38:07Z</time>
      </trkpt>
      <trkpt lat="46.74114" lon="-1.82106">
        <ele>16</ele>
        <time>2018-01-15T08:39:07Z</time>
      </trkpt>
      <trkpt lat="46.74113" lon="-1.82107">
        <ele>16</ele>
        <time>2018-01-15T08:40:07Z</time>
      </trkpt>
      <trkpt lat="46.74111" lon="-1.82107">
        <ele>16</ele>
        <time>2018-01-15T08:41:07Z</time>
      </trkpt>
      <trkpt lat="46.7411" lon="-1.82106">
        <ele>16</ele>
        <time>2018-01-15T08:42:07Z</time>
      </trkpt>
      <trkpt lat="46.74109" lon="-1.82105">
        <ele>16</ele>
        <time>2018-01-15T08:43:07Z</time>
      </trkpt>
      <trkpt lat="46.74108" lon="-1.82104">
        <ele>16</ele>
        <time>2018-01-15T08:44:07Z</time>
      </trkpt>
      <trkpt lat="46.74107" lon="-1.82102">
        <ele>16</ele>
        <time>2018-01-15T08:45:07Z</time>
      </trkpt>
      <trkpt lat="46.74104" lon="-1.82105">
        <ele>17</ele>
        <time>2018-01-15T08:46:07Z</time>
      </trkpt>
      <trkpt lat="46.74099" lon="-1.82108">
        <ele>17</ele>
        <time>2018-01-15T08:47:07Z</time>
      </trkpt>
      <trkpt lat="46.74094" lon="-1.8211">
        <ele>17</ele>
        <time>2018-01-15T08:48:07Z</time>
      </trkpt>
      <trkpt lat="46.74078" lon="-1.82118">
        <ele>17</ele>
        <time>2018-01-15T08:49:07Z</time>
      </trkpt>
      <trkpt lat="46.74074" lon="-1.82121">
        <ele>17</ele>
        <time>2018-01-15T08:50:07Z</time>
      </trkpt>
      <trkpt lat="46.74057" lon="-1.8213">
        <ele>17</ele>
        <time>2018-01-15T08:51:07Z</time>
      </trkpt>
      <trkpt lat="46.74033" lon="-1.82145">
        <ele>17</ele>
        <time>2018-01-15T08:52:07Z</time>
      </trkpt>
      <trkpt lat="46.74029" lon="-1.82148">
        <ele>17</ele>
        <time>2018-01-15T08:53:07Z</time>
      </trkpt>
      <trkpt lat="46.74019" lon="-1.82154">
        <ele>17</ele>
        <time>2018-01-15T08:54:07Z</time>
      </trkpt>
      <trkpt lat="46.74012" lon="-1.8216">
        <ele>17</ele>
        <time>2018-01-15T08:55:07Z</time>
      </trkpt>
      <trkpt lat="46.74009" lon="-1.82164">
        <ele>17</ele>
        <time>2018-01-15T08:56:07Z</time>
      </trkpt>
      <trkpt lat="46.74007" lon="-1.82171">
        <ele>17</ele>
        <time>2018-01-15T08:57:07Z</time>
      </trkpt>
      <trkpt lat="46.73997" lon="-1.82214">
        <ele>16</ele>
        <time>2018-01-15T08:58:07Z</time>
      </trkpt>
      <trkpt lat="46.73986" lon="-1.82257">
        <ele>16</ele>
        <time>2018-01-15T08:59:07Z</time>
      </trkpt>
      <trkpt lat="46.73982" lon="-1.82273">
        <ele>15</ele>
        <time>2018-01-15T09:00:07Z</time>
      </trkpt>
      <trkpt lat="46.73978" lon="-1.82285">
        <ele>15</ele>
        <time>2018-01-15T09:01:07Z</time>
      </trkpt>
      <trkpt lat="46.73974" lon="-1.82298">
        <ele>15</ele>
        <time>2018-01-15T09:02:07Z</time>
      </trkpt>
      <trkpt lat="46.73972" lon="-1.82302">
        <ele>15</ele>
        <time>2018-01-15T09:03:07Z</time>
      </trkpt>
      <trkpt lat="46.73971" lon="-1.82307">
        <ele>15</ele>
        <time>2018-01-15T09:04:07Z</time>
      </trkpt>
      <trkpt lat="46.7397" lon="-1.82309">
        <ele>15</ele>
        <time>2018-01-15T09:05:07Z</time>
      </trkpt>
      <trkpt lat="46.73968" lon="-1.82314">
        <ele>15</ele>
        <time>2018-01-15T09:06:07Z</time>
      </trkpt>
      <trkpt lat="46.73966" lon="-1.82319">
        <ele>14</ele>
        <time>2018-01-15T09:07:07Z</time>
      </trkpt>
      <trkpt lat="46.73964" lon="-1.82325">
        <ele>14</ele>
        <time>2018-01-15T09:08:07Z</time>
      </trkpt>
      <trkpt lat="46.73964" lon="-1.82325">
        <ele>14</ele>
        <time>2018-01-15T09:09:07Z</time>
      </trkpt>
      <trkpt lat="46.73964" lon="-1.82326">
        <ele>14</ele>
        <time>2018-01-15T09:10:07Z</time>
      </trkpt>
      <trkpt lat="46.73964" lon="-1.82329">
        <ele>14</ele>
        <time>2018-01-15T09:11:07Z</time>
      </trkpt>
      <trkpt lat="46.73964" lon="-1.82332">
        <ele>14</ele>
        <time>2018-01-15T09:12:07Z</time>
      </trkpt>
      <trkpt lat="46.73963" lon="-1.82335">
        <ele>14</ele>
        <time>2018-01-15T09:13:07Z</time>
      </trkpt>
      <trkpt lat="46.73962" lon="-1.82337">
        <ele>14</ele>
        <time>2018-01-15T09:14:07Z</time>
      </trkpt>
      <trkpt lat="46.73961" lon="-1.82339">
        <ele>14</ele>
        <time>2018-01-15T09:15:07Z</time>
      </trkpt>
      <trkpt lat="46.73959" lon="-1.8234">
        <ele>14</ele>
        <time>2018-01-15T09:16:07Z</time>
      </trkpt>
      <trkpt lat="46.73959" lon="-1.8235">
        <ele>14</ele>
        <time>2018-01-15T09:17:07Z</time>
      </trkpt>
      <trkpt lat="46.73958" lon="-1.82361">
        <ele>14</ele>
        <time>2018-01-15T09:18:07Z</time>
      </trkpt>
      <trkpt lat="46.73955" lon="-1.82374">
        <ele>13</ele>
        <time>2018-01-15T09:19:07Z</time>
      </trkpt>
      <trkpt lat="46.73951" lon="-1.82393">
        <ele>13</ele>
        <time>2018-01-15T09:20:07Z</time>
      </trkpt>
      <trkpt lat="46.73945" lon="-1.82415">
        <ele>13</ele>
        <time>2018-01-15T09:21:07Z</time>
      </trkpt>
      <trkpt lat="46.73936" lon="-1.82451">
        <ele>12</ele>
        <time>2018-01-15T09:22:07Z</time>
      </trkpt>
      <trkpt lat="46.73926" lon="-1.82489">
        <ele>11</ele>
        <time>2018-01-15T09:23:07Z</time>
      </trkpt>
      <trkpt lat="46.73911" lon="-1.82546">
        <ele>10</ele>
        <time>2018-01-15T09:24:07Z</time>
      </trkpt>
      <trkpt lat="46.73903" lon="-1.82577">
        <ele>9</ele>
        <time>2018-01-15T09:25:07Z</time>
      </trkpt>
      <trkpt lat="46.73897" lon="-1.82601">
        <ele>9</ele>
        <time>2018-01-15T09:26:07Z</time>
      </trkpt>
      <trkpt lat="46.73889" lon="-1.82629">
        <ele>10</ele>
        <time>2018-01-15T09:27:07Z</time>
      </trkpt>
      <trkpt lat="46.73878" lon="-1.82674">
        <ele>11</ele>
        <time>2018-01-15T09:28:07Z</time>
      </trkpt>
      <trkpt lat="46.7386" lon="-1.82741">
        <ele>12</ele>
        <time>2018-01-15T09:29:07Z</time>
      </trkpt>
      <trkpt lat="46.73848" lon="-1.82786">
        <ele>14</ele>
        <time>2018-01-15T09:30:07Z</time>
      </trkpt>
      <trkpt lat="46.73847" lon="-1.82788">
        <ele>14</ele>
        <time>2018-01-15T09:31:07Z</time>
      </trkpt>
      <trkpt lat="46.73839" lon="-1.82823">
        <ele>16</ele>
        <time>2018-01-15T09:32:07Z</time>
      </trkpt>
      <trkpt lat="46.73835" lon="-1.82839">
        <ele>16</ele>
        <time>2018-01-15T09:33:07Z</time>
      </trkpt>
      <trkpt lat="46.7383" lon="-1.82855">
        <ele>16</ele>
        <time>2018-01-15T09:34:07Z</time>
      </trkpt>
      <trkpt lat="46.73826" lon="-1.82869">
        <ele>17</ele>
        <time>2018-01-15T09:35:07Z</time>
      </trkpt>
      <trkpt lat="46.73822" lon="-1.82882">
        <ele>17</ele>
        <time>2018-01-15T09:36:07Z</time>
      </trkpt>
      <trkpt lat="46.73818" lon="-1.82893">
        <ele>17</ele>
        <time>2018-01-15T09:37:07Z</time>
      </trkpt>
      <trkpt lat="46.73814" lon="-1.82901">
        <ele>17</ele>
        <time>2018-01-15T09:38:07Z</time>
      </trkpt>
      <trkpt lat="46.73807" lon="-1.82914">
        <ele>17</ele>
        <time>2018-01-15T09:39:07Z</time>
      </trkpt>
      <trkpt lat="46.73799" lon="-1.82926">
        <ele>17</ele>
        <time>2018-01-15T09:40:07Z</time>
      </trkpt>
      <trkpt lat="46.73788" lon="-1.82939">
        <ele>18</ele>
        <time>2018-01-15T09:41:07Z</time>
      </trkpt>
      <trkpt lat="46.73776" lon="-1.82951">
        <ele>18</ele>
        <time>2018-01-15T09:42:07Z</time>
      </trkpt>
      <trkpt lat="46.73751" lon="-1.82972">
        <ele>19</ele>
        <time>2018-01-15T09:43:07Z</time>
      </trkpt>
      <trkpt lat="46.73715" lon="-1.83">
        <ele>20</ele>
        <time>2018-01-15T09:44:07Z</time>
      </trkpt>
      <trkpt lat="46.73676" lon="-1.83028">
        <ele>21</ele>
        <time>2018-01-15T09:45:07Z</time>
      </trkpt>
      <trkpt lat="46.73658" lon="-1.8304">
        <ele>21</ele>
        <time>2018-01-15T09:46:07Z</time>
      </trkpt>
      <trkpt lat="46.73647" lon="-1.83048">
        <ele>21</ele>
        <time>2018-01-15T09:47:07Z</time>
      </trkpt>
      <trkpt lat="46.73637" lon="-1.83058">
        <ele>21</ele>
        <time>2018-01-15T09:48:07Z</time>
      </trkpt>
      <trkpt lat="46.73632" lon="-1.83063">
        <ele>21</ele>
        <time>2018-01-15T09:49:07Z</time>
      </trkpt>
      <trkpt lat="46.73629" lon="-1.83067">
        <ele>21</ele>
        <time>2018-01-15T09:50:07Z</time>
      </trkpt>
      <trkpt lat="46.73622" lon="-1.83077">
        <ele>21</ele>
        <time>2018-01-15T09:51:07Z</time>
      </trkpt>
      <trkpt lat="46.73615" lon="-1.83087">
        <ele>20</ele>
        <time>2018-01-15T09:52:07Z</time>
      </trkpt>
      <trkpt lat="46.7361" lon="-1.83097">
        <ele>20</ele>
        <time>2018-01-15T09:53:07Z</time>
      </trkpt>
      <trkpt lat="46.73608" lon="-1.83101">
        <ele>20</ele>
        <time>2018-01-15T09:54:07Z</time>
      </trkpt>
      <trkpt lat="46.73603" lon="-1.83115">
        <ele>20</ele>
        <time>2018-01-15T09:55:07Z</time>
      </trkpt>
      <trkpt lat="46.73597" lon="-1.8313">
        <ele>20</ele>
        <time>2018-01-15T09:56:07Z</time>
      </trkpt>
      <trkpt lat="46.73594" lon="-1.83142">
        <ele>20</ele>
        <time>2018-01-15T09:57:07Z</time>
      </trkpt>
      <trkpt lat="46.73591" lon="-1.83152">
        <ele>20</ele>
        <time>2018-01-15T09:58:07Z</time>
      </trkpt>
      <trkpt lat="46.73586" lon="-1.83173">
        <ele>20</ele>
        <time>2018-01-15T09:59:07Z</time>
      </trkpt>
      <trkpt lat="46.73579" lon="-1.83201">
        <ele>20</ele>
        <time>2018-01-15T10:00:07Z</time>
      </trkpt>
      <trkpt lat="46.73578" lon="-1.83204">
        <ele>20</ele>
        <time>2018-01-15T10:01:07Z</time>
      </trkpt>
      <trkpt lat="46.73568" lon="-1.83245">
        <ele>21</ele>
        <time>2018-01-15T10:02:07Z</time>
      </trkpt>
      <trkpt lat="46.73563" lon="-1.83266">
        <ele>21</ele>
        <time>2018-01-15T10:03:07Z</time>
      </trkpt>
      <trkpt lat="46.7356" lon="-1.83276">
        <ele>21</ele>
        <time>2018-01-15T10:04:07Z</time>
      </trkpt>
      <trkpt lat="46.73559" lon="-1.83282">
        <ele>21</ele>
        <time>2018-01-15T10:05:07Z</time>
      </trkpt>
      <trkpt lat="46.73554" lon="-1.83296">
        <ele>21</ele>
        <time>2018-01-15T10:06:07Z</time>
      </trkpt>
      <trkpt lat="46.73548" lon="-1.83311">
        <ele>21</ele>
        <time>2018-01-15T10:07:07Z</time>
      </trkpt>
      <trkpt lat="46.7354" lon="-1.83328">
        <ele>21</ele>
        <time>2018-01-15T10:08:07Z</time>
      </trkpt>
      <trkpt lat="46.73532" lon="-1.83342">
        <ele>21</ele>
        <time>2018-01-15T10:09:07Z</time>
      </trkpt>
      <trkpt lat="46.73522" lon="-1.83358">
        <ele>21</ele>
        <time>2018-01-15T10:10:07Z</time>
      </trkpt>
      <trkpt lat="46.73478" lon="-1.83413">
        <ele>22</ele>
        <time>2018-01-15T10:11:07Z</time>
      </trkpt>
      <trkpt lat="46.73451" lon="-1.83447">
        <ele>22</ele>
        <time>2018-01-15T10:12:07Z</time>
      </trkpt>
      <trkpt lat="46.73438" lon="-1.83464">
        <ele>22</ele>
        <time>2018-01-15T10:13:07Z</time>
      </trkpt>
      <trkpt lat="46.73428" lon="-1.83479">
        <ele>22</ele>
        <time>2018-01-15T10:14:07Z</time>
      </trkpt>
      <trkpt lat="46.73422" lon="-1.83491">
        <ele>22</ele>
        <time>2018-01-15T10:15:07Z</time>
      </trkpt>
      <trkpt lat="46.73419" lon="-1.83496">
        <ele>22</ele>
        <time>2018-01-15T10:16:07Z</time>
      </trkpt>
      <trkpt lat="46.73413" lon="-1.83508">
        <ele>22</ele>
        <time>2018-01-15T10:17:07Z</time>
      </trkpt>
      <trkpt lat="46.73408" lon="-1.83521">
        <ele>22</ele>
        <time>2018-01-15T10:18:07Z</time>
      </trkpt>
      <trkpt lat="46.73404" lon="-1.83535">
        <ele>22</ele>
        <time>2018-01-15T10:19:07Z</time>
      </trkpt>
      <trkpt lat="46.73398" lon="-1.83555">
        <ele>21</ele>
        <time>2018-01-15T10:20:07Z</time>
      </trkpt>
      <trkpt lat="46.73395" lon="-1.83571">
        <ele>21</ele>
        <time>2018-01-15T10:21:07Z</time>
      </trkpt>
      <trkpt lat="46.73391" lon="-1.83594">
        <ele>21</ele>
        <time>2018-01-15T10:22:07Z</time>
      </trkpt>
      <trkpt lat="46.73391" lon="-1.83596">
        <ele>21</ele>
        <time>2018-01-15T10:23:07Z</time>
      </trkpt>
      <trkpt lat="46.73388" lon="-1.83618">
        <ele>21</ele>
        <time>2018-01-15T10:24:07Z</time>
      </trkpt>
      <trkpt lat="46.73387" lon="-1.83626">
        <ele>21</ele>
        <time>2018-01-15T10:25:07Z</time>
      </trkpt>
      <trkpt lat="46.73382" lon="-1.83667">
        <ele>21</ele>
        <time>2018-01-15T10:26:07Z</time>
      </trkpt>
      <trkpt lat="46.73375" lon="-1.8372">
        <ele>20</ele>
        <time>2018-01-15T10:27:07Z</time>
      </trkpt>
      <trkpt lat="46.73374" lon="-1.83726">
        <ele>20</ele>
        <time>2018-01-15T10:28:07Z</time>
      </trkpt>
      <trkpt lat="46.73368" lon="-1.83778">
        <ele>20</ele>
        <time>2018-01-15T10:29:07Z</time>
      </trkpt>
      <trkpt lat="46.73364" lon="-1.83811">
        <ele>20</ele>
        <time>2018-01-15T10:30:07Z</time>
      </trkpt>
      <trkpt lat="46.73361" lon="-1.83842">
        <ele>20</ele>
        <time>2018-01-15T10:31:07Z</time>
      </trkpt>
      <trkpt lat="46.7336" lon="-1.83867">
        <ele>20</ele>
        <time>2018-01-15T10:32:07Z</time>
      </trkpt>
      <trkpt lat="46.73359" lon="-1.8389">
        <ele>20</ele>
        <time>2018-01-15T10:33:07Z</time>
      </trkpt>
      <trkpt lat="46.73359" lon="-1.83933">
        <ele>20</ele>
        <time>2018-01-15T10:34:07Z</time>
      </trkpt>
      <trkpt lat="46.7336" lon="-1.83992">
        <ele>20</ele>
        <time>2018-01-15T10:35:07Z</time>
      </trkpt>
      <trkpt lat="46.73361" lon="-1.84068">
        <ele>21</ele>
        <time>2018-01-15T10:36:07Z</time>
      </trkpt>
      <trkpt lat="46.73362" lon="-1.84127">
        <ele>21</ele>
        <time>2018-01-15T10:37:07Z</time>
      </trkpt>
      <trkpt lat="46.73363" lon="-1.84201">
        <ele>21</ele>
        <time>2018-01-15T10:38:07Z</time>
      </trkpt>
      <trkpt lat="46.73363" lon="-1.84237">
        <ele>21</ele>
        <time>2018-01-15T10:39:07Z</time>
      </trkpt>
      <trkpt lat="46.73363" lon="-1.84257">
        <ele>21</ele>
        <time>2018-01-15T10:40:07Z</time>
      </trkpt>
      <trkpt lat="46.73363" lon="-1.8428">
        <ele>21</ele>
        <time>2018-01-15T10:41:07Z</time>
      </trkpt>
      <trkpt lat="46.73363" lon="-1.84294">
        <ele>20</ele>
        <time>2018-01-15T10:42:07Z</time>
      </trkpt>
      <trkpt lat="46.73362" lon="-1.8431">
        <ele>20</ele>
        <time>2018-01-15T10:43:07Z</time>
      </trkpt>
      <trkpt lat="46.73362" lon="-1.84325">
        <ele>20</ele>
        <time>2018-01-15T10:44:07Z</time>
      </trkpt>
      <trkpt lat="46.7336" lon="-1.84337">
        <ele>20</ele>
        <time>2018-01-15T10:45:07Z</time>
      </trkpt>
      <trkpt lat="46.73358" lon="-1.84353">
        <ele>20</ele>
        <time>2018-01-15T10:46:07Z</time>
      </trkpt>
      <trkpt lat="46.73356" lon="-1.84369">
        <ele>20</ele>
        <time>2018-01-15T10:47:07Z</time>
      </trkpt>
      <trkpt lat="46.73351" lon="-1.84399">
        <ele>19</ele>
        <time>2018-01-15T10:48:07Z</time>
      </trkpt>
      <trkpt lat="46.73346" lon="-1.84431">
        <ele>19</ele>
        <time>2018-01-15T10:49:07Z</time>
      </trkpt>
      <trkpt lat="46.73337" lon="-1.84483">
        <ele>20</ele>
        <time>2018-01-15T10:50:07Z</time>
      </trkpt>
      <trkpt lat="46.73324" lon="-1.84555">
        <ele>21</ele>
        <time>2018-01-15T10:51:07Z</time>
      </trkpt>
      <trkpt lat="46.73311" lon="-1.84629">
        <ele>21</ele>
        <time>2018-01-15T10:52:07Z</time>
      </trkpt>
      <trkpt lat="46.73306" lon="-1.84653">
        <ele>20</ele>
        <time>2018-01-15T10:53:07Z</time>
      </trkpt>
      <trkpt lat="46.73301" lon="-1.84673">
        <ele>20</ele>
        <time>2018-01-15T10:54:07Z</time>
      </trkpt>
      <trkpt lat="46.73296" lon="-1.84697">
        <ele>20</ele>
        <time>2018-01-15T10:55:07Z</time>
      </trkpt>
      <trkpt lat="46.7329" lon="-1.84716">
        <ele>19</ele>
        <time>2018-01-15T10:56:07Z</time>
      </trkpt>
      <trkpt lat="46.73281" lon="-1.84742">
        <ele>19</ele>
        <time>2018-01-15T10:57:07Z</time>
      </trkpt>
      <trkpt lat="46.73257" lon="-1.84813">
        <ele>20</ele>
        <time>2018-01-15T10:58:07Z</time>
      </trkpt>
      <trkpt lat="46.73232" lon="-1.84885">
        <ele>20</ele>
        <time>2018-01-15T10:59:07Z</time>
      </trkpt>
      <trkpt lat="46.73206" lon="-1.8496">
        <ele>19</ele>
        <time>2018-01-15T11:00:07Z</time>
      </trkpt>
      <trkpt lat="46.73182" lon="-1.85028">
        <ele>19</ele>
        <time>2018-01-15T11:01:07Z</time>
      </trkpt>
      <trkpt lat="46.73165" lon="-1.85077">
        <ele>18</ele>
        <time>2018-01-15T11:02:07Z</time>
      </trkpt>
      <trkpt lat="46.73153" lon="-1.85112">
        <ele>18</ele>
        <time>2018-01-15T11:03:07Z</time>
      </trkpt>
      <trkpt lat="46.73125" lon="-1.85192">
        <ele>17</ele>
        <time>2018-01-15T11:04:07Z</time>
      </trkpt>
      <trkpt lat="46.73106" lon="-1.85246">
        <ele>14</ele>
        <time>2018-01-15T11:05:07Z</time>
      </trkpt>
      <trkpt lat="46.73094" lon="-1.8528">
        <ele>13</ele>
        <time>2018-01-15T11:06:07Z</time>
      </trkpt>
      <trkpt lat="46.73076" lon="-1.85329">
        <ele>11</ele>
        <time>2018-01-15T11:07:07Z</time>
      </trkpt>
      <trkpt lat="46.73066" lon="-1.85362">
        <ele>11</ele>
        <time>2018-01-15T11:08:07Z</time>
      </trkpt>
      <trkpt lat="46.73059" lon="-1.85384">
        <ele>11</ele>
        <time>2018-01-15T11:09:07Z</time>
      </trkpt>
      <trkpt lat="46.73056" lon="-1.85399">
        <ele>11</ele>
        <time>2018-01-15T11:10:07Z</time>
      </trkpt>
      <trkpt lat="46.73054" lon="-1.85413">
        <ele>11</ele>
        <time>2018-01-15T11:11:07Z</time>
      </trkpt>
      <trkpt lat="46.73053" lon="-1.85427">
        <ele>11</ele>
        <time>2018-01-15T11:12:07Z</time>
      </trkpt>
      <trkpt lat="46.73051" lon="-1.85439">
        <ele>11</ele>
        <time>2018-01-15T11:13:07Z</time>
      </trkpt>
      <trkpt lat="46.73051" lon="-1.85456">
        <ele>12</ele>
        <time>2018-01-15T11:14:07Z</time>
      </trkpt>
      <trkpt lat="46.7305" lon="-1.85471">
        <ele>12</ele>
        <time>2018-01-15T11:15:07Z</time>
      </trkpt>
      <trkpt lat="46.73051" lon="-1.85486">
        <ele>12</ele>
        <time>2018-01-15T11:16:07Z</time>
      </trkpt>
      <trkpt lat="46.73051" lon="-1.85501">
        <ele>12</ele>
        <time>2018-01-15T11:17:07Z</time>
      </trkpt>
      <trkpt lat="46.73053" lon="-1.85515">
        <ele>12</ele>
        <time>2018-01-15T11:18:07Z</time>
      </trkpt>
      <trkpt lat="46.73055" lon="-1.85538">
        <ele>12</ele>
        <time>2018-01-15T11:19:07Z</time>
      </trkpt>
      <trkpt lat="46.73056" lon="-1.85546">
        <ele>12</ele>
        <time>2018-01-15T11:20:07Z</time>
      </trkpt>
      <trkpt lat="46.7306" lon="-1.85579">
        <ele>12</ele>
        <time>2018-01-15T11:21:07Z</time>
      </trkpt>
      <trkpt lat="46.73061" lon="-1.85588">
        <ele>12</ele>
        <time>2018-01-15T11:22:07Z</time>
      </trkpt>
      <trkpt lat="46.73067" lon="-1.85628">
        <ele>12</ele>
        <time>2018-01-15T11:23:07Z</time>
      </trkpt>
      <trkpt lat="46.73071" lon="-1.85665">
        <ele>11</ele>
        <time>2018-01-15T11:24:07Z</time>
      </trkpt>
      <trkpt lat="46.73075" lon="-1.85694">
        <ele>12</ele>
        <time>2018-01-15T11:25:07Z</time>
      </trkpt>
      <trkpt lat="46.73079" lon="-1.85723">
        <ele>12</ele>
        <time>2018-01-15T11:26:07Z</time>
      </trkpt>
      <trkpt lat="46.73081" lon="-1.85738">
        <ele>12</ele>
        <time>2018-01-15T11:27:07Z</time>
      </trkpt>
      <trkpt lat="46.73084" lon="-1.85756">
        <ele>12</ele>
        <time>2018-01-15T11:28:07Z</time>
      </trkpt>
      <trkpt lat="46.73087" lon="-1.85769">
        <ele>12</ele>
        <time>2018-01-15T11:29:07Z</time>
      </trkpt>
      <trkpt lat="46.7309" lon="-1.85791">
        <ele>11</ele>
        <time>2018-01-15T11:30:07Z</time>
      </trkpt>
      <trkpt lat="46.73101" lon="-1.85837">
        <ele>10</ele>
        <time>2018-01-15T11:31:07Z</time>
      </trkpt>
      <trkpt lat="46.73119" lon="-1.85908">
        <ele>10</ele>
        <time>2018-01-15T11:32:07Z</time>
      </trkpt>
      <trkpt lat="46.73131" lon="-1.85958">
        <ele>10</ele>
        <time>2018-01-15T11:33:07Z</time>
      </trkpt>
      <trkpt lat="46.73136" lon="-1.85988">
        <ele>11</ele>
        <time>2018-01-15T11:34:07Z</time>
      </trkpt>
      <trkpt lat="46.73139" lon="-1.86009">
        <ele>11</ele>
        <time>2018-01-15T11:35:07Z</time>
      </trkpt>
      <trkpt lat="46.73141" lon="-1.8603">
        <ele>11</ele>
        <time>2018-01-15T11:36:07Z</time>
      </trkpt>
      <trkpt lat="46.73142" lon="-1.86052">
        <ele>11</ele>
        <time>2018-01-15T11:37:07Z</time>
      </trkpt>
      <trkpt lat="46.73142" lon="-1.86074">
        <ele>11</ele>
        <time>2018-01-15T11:38:07Z</time>
      </trkpt>
      <trkpt lat="46.73142" lon="-1.86101">
        <ele>11</ele>
        <time>2018-01-15T11:39:07Z</time>
      </trkpt>
      <trkpt lat="46.73141" lon="-1.86123">
        <ele>11</ele>
        <time>2018-01-15T11:40:07Z</time>
      </trkpt>
      <trkpt lat="46.7314" lon="-1.86155">
        <ele>11</ele>
        <time>2018-01-15T11:41:07Z</time>
      </trkpt>
      <trkpt lat="46.73137" lon="-1.86284">
        <ele>10</ele>
        <time>2018-01-15T11:42:07Z</time>
      </trkpt>
      <trkpt lat="46.73136" lon="-1.86309">
        <ele>10</ele>
        <time>2018-01-15T11:43:07Z</time>
      </trkpt>
      <trkpt lat="46.73134" lon="-1.86386">
        <ele>9</ele>
        <time>2018-01-15T11:44:07Z</time>
      </trkpt>
      <trkpt lat="46.73133" lon="-1.86467">
        <ele>10</ele>
        <time>2018-01-15T11:45:07Z</time>
      </trkpt>
      <trkpt lat="46.73133" lon="-1.86486">
        <ele>10</ele>
        <time>2018-01-15T11:46:07Z</time>
      </trkpt>
      <trkpt lat="46.73133" lon="-1.8651">
        <ele>10</ele>
        <time>2018-01-15T11:47:07Z</time>
      </trkpt>
      <trkpt lat="46.73133" lon="-1.86528">
        <ele>11</ele>
        <time>2018-01-15T11:48:07Z</time>
      </trkpt>
      <trkpt lat="46.73135" lon="-1.86543">
        <ele>11</ele>
        <time>2018-01-15T11:49:07Z</time>
      </trkpt>
      <trkpt lat="46.73136" lon="-1.86555">
        <ele>11</ele>
        <time>2018-01-15T11:50:07Z</time>
      </trkpt>
      <trkpt lat="46.73139" lon="-1.86573">
        <ele>11</ele>
        <time>2018-01-15T11:51:07Z</time>
      </trkpt>
      <trkpt lat="46.73145" lon="-1.86608">
        <ele>10</ele>
        <time>2018-01-15T11:52:07Z</time>
      </trkpt>
      <trkpt lat="46.73154" lon="-1.86672">
        <ele>8</ele>
        <time>2018-01-15T11:53:07Z</time>
      </trkpt>
      <trkpt lat="46.73162" lon="-1.86716">
        <ele>7</ele>
        <time>2018-01-15T11:54:07Z</time>
      </trkpt>
      <trkpt lat="46.73167" lon="-1.86748">
        <ele>6</ele>
        <time>2018-01-15T11:55:07Z</time>
      </trkpt>
      <trkpt lat="46.7318" lon="-1.86831">
        <ele>7</ele>
        <time>2018-01-15T11:56:07Z</time>
      </trkpt>
      <trkpt lat="46.73191" lon="-1.86902">
        <ele>8</ele>
        <time>2018-01-15T11:57:07Z</time>
      </trkpt>
      <trkpt lat="46.73198" lon="-1.86945">
        <ele>8</ele>
        <time>2018-01-15T11:58:07Z</time>
      </trkpt>
      <trkpt lat="46.73202" lon="-1.86972">
        <ele>9</ele>
        <time>2018-01-15T11:59:07Z</time>
      </trkpt>
      <trkpt lat="46.73203" lon="-1.86984">
        <ele>9</ele>
        <time>2018-01-15T12:00:07Z</time>
      </trkpt>
      <trkpt lat="46.73204" lon="-1.87006">
        <ele>10</ele>
        <time>2018-01-15T12:01:07Z</time>
      </trkpt>
      <trkpt lat="46.73206" lon="-1.87034">
        <ele>10</ele>
        <time>2018-01-15T12:02:07Z</time>
      </trkpt>
      <trkpt lat="46.73208" lon="-1.87069">
        <ele>10</ele>
        <time>2018-01-15T12:03:07Z</time>
      </trkpt>
      <trkpt lat="46.7321" lon="-1.871">
        <ele>11</ele>
        <time>2018-01-15T12:04:07Z</time>
      </trkpt>
      <trkpt lat="46.73211" lon="-1.87109">
        <ele>11</ele>
        <time>2018-01-15T12:05:07Z</time>
      </trkpt>
      <trkpt lat="46.73212" lon="-1.87121">
        <ele>11</ele>
        <time>2018-01-15T12:06:07Z</time>
      </trkpt>
      <trkpt lat="46.73213" lon="-1.87129">
        <ele>11</ele>
        <time>2018-01-15T12:07:07Z</time>
      </trkpt>
      <trkpt lat="46.73214" lon="-1.87142">
        <ele>11</ele>
        <time>2018-01-15T12:08:07Z</time>
      </trkpt>
      <trkpt lat="46.73213" lon="-1.87152">
        <ele>11</ele>
        <time>2018-01-15T12:09:07Z</time>
      </trkpt>
      <trkpt lat="46.73213" lon="-1.87152">
        <ele>11</ele>
        <time>2018-01-15T12:10:07Z</time>
      </trkpt>
      <trkpt lat="46.73214" lon="-1.87152">
        <ele>11</ele>
        <time>2018-01-15T12:11:07Z</time>
      </trkpt>
      <trkpt lat="46.73214" lon="-1.87153">
        <ele>11</ele>
        <time>2018-01-15T12:12:07Z</time>
      </trkpt>
      <trkpt lat="46.73215" lon="-1.87154">
        <ele>11</ele>
        <time>2018-01-15T12:13:07Z</time>
      </trkpt>
      <trkpt lat="46.73215" lon="-1.87155">
        <ele>11</ele>
        <time>2018-01-15T12:14:07Z</time>
      </trkpt>
      <trkpt lat="46.73216" lon="-1.87156">
        <ele>11</ele>
        <time>2018-01-15T12:15:07Z</time>
      </trkpt>
      <trkpt lat="46.73216" lon="-1.87157">
        <ele>11</ele>
        <time>2018-01-15T12:16:07Z</time>
      </trkpt>
      <trkpt lat="46.73217" lon="-1.87158">
        <ele>11</ele>
        <time>2018-01-15T12:17:07Z</time>
      </trkpt>
      <trkpt lat="46.73217" lon="-1.87159">
        <ele>11</ele>
        <time>2018-01-15T12:18:07Z</time>
      </trkpt>
      <trkpt lat="46.73218" lon="-1.87162">
        <ele>11</ele>
        <time>2018-01-15T12:19:07Z</time>
      </trkpt>
      <trkpt lat="46.73219" lon="-1.87165">
        <ele>11</ele>
        <time>2018-01-15T12:20:07Z</time>
      </trkpt>
      <trkpt lat="46.7322" lon="-1.87168">
        <ele>11</ele>
        <time>2018-01-15T12:21:07Z</time>
      </trkpt>
      <trkpt lat="46.7322" lon="-1.87171">
        <ele>11</ele>
        <time>2018-01-15T12:22:07Z</time>
      </trkpt>
      <trkpt lat="46.7322" lon="-1.87174">
        <ele>11</ele>
        <time>2018-01-15T12:23:07Z</time>
      </trkpt>
      <trkpt lat="46.7322" lon="-1.87177">
        <ele>11</ele>
        <time>2018-01-15T12:24:07Z</time>
      </trkpt>
      <trkpt lat="46.7322" lon="-1.8718">
        <ele>11</ele>
        <time>2018-01-15T12:25:07Z</time>
      </trkpt>
      <trkpt lat="46.7322" lon="-1.87183">
        <ele>11</ele>
        <time>2018-01-15T12:26:07Z</time>
      </trkpt>
      <trkpt lat="46.73218" lon="-1.87188">
        <ele>11</ele>
        <time>2018-01-15T12:27:07Z</time>
      </trkpt>
      <trkpt lat="46.73217" lon="-1.87191">
        <ele>11</ele>
        <time>2018-01-15T12:28:07Z</time>
      </trkpt>
      <trkpt lat="46.73215" lon="-1.87193">
        <ele>11</ele>
        <time>2018-01-15T12:29:07Z</time>
      </trkpt>
      <trkpt lat="46.73214" lon="-1.87195">
        <ele>11</ele>
        <time>2018-01-15T12:30:07Z</time>
      </trkpt>
      <trkpt lat="46.73212" lon="-1.87197">
        <ele>11</ele>
        <time>2018-01-15T12:31:07Z</time>
      </trkpt>
      <trkpt lat="46.7321" lon="-1.87198">
        <ele>11</ele>
        <time>2018-01-15T12:32:07Z</time>
      </trkpt>
      <trkpt lat="46.73209" lon="-1.872">
        <ele>11</ele>
        <time>2018-01-15T12:33:07Z</time>
      </trkpt>
      <trkpt lat="46.73207" lon="-1.87201">
        <ele>11</ele>
        <time>2018-01-15T12:34:07Z</time>
      </trkpt>
      <trkpt lat="46.73205" lon="-1.87202">
        <ele>11</ele>
        <time>2018-01-15T12:35:07Z</time>
      </trkpt>
      <trkpt lat="46.73201" lon="-1.87202">
        <ele>12</ele>
        <time>2018-01-15T12:36:07Z</time>
      </trkpt>
      <trkpt lat="46.73198" lon="-1.87205">
        <ele>12</ele>
        <time>2018-01-15T12:37:07Z</time>
      </trkpt>
      <trkpt lat="46.73196" lon="-1.8721">
        <ele>12</ele>
        <time>2018-01-15T12:38:07Z</time>
      </trkpt>
      <trkpt lat="46.73193" lon="-1.87216">
        <ele>12</ele>
        <time>2018-01-15T12:39:07Z</time>
      </trkpt>
      <trkpt lat="46.7319" lon="-1.87223">
        <ele>12</ele>
        <time>2018-01-15T12:40:07Z</time>
      </trkpt>
      <trkpt lat="46.73187" lon="-1.87232">
        <ele>12</ele>
        <time>2018-01-15T12:41:07Z</time>
      </trkpt>
      <trkpt lat="46.73181" lon="-1.87246">
        <ele>12</ele>
        <time>2018-01-15T12:42:07Z</time>
      </trkpt>
      <trkpt lat="46.73176" lon="-1.87254">
        <ele>12</ele>
        <time>2018-01-15T12:43:07Z</time>
      </trkpt>
      <trkpt lat="46.73159" lon="-1.87307">
        <ele>12</ele>
        <time>2018-01-15T12:44:07Z</time>
      </trkpt>
      <trkpt lat="46.73146" lon="-1.87348">
        <ele>12</ele>
        <time>2018-01-15T12:45:07Z</time>
      </trkpt>
      <trkpt lat="46.73146" lon="-1.87348">
        <ele>12</ele>
        <time>2018-01-15T12:46:07Z</time>
      </trkpt>
      <trkpt lat="46.73132" lon="-1.87393">
        <ele>12</ele>
        <time>2018-01-15T12:47:07Z</time>
      </trkpt>
      <trkpt lat="46.73092" lon="-1.87524">
        <ele>11</ele>
        <time>2018-01-15T12:48:07Z</time>
      </trkpt>
      <trkpt lat="46.73084" lon="-1.87547">
        <ele>11</ele>
        <time>2018-01-15T12:49:07Z</time>
      </trkpt>
      <trkpt lat="46.73071" lon="-1.87591">
        <ele>11</ele>
        <time>2018-01-15T12:50:07Z</time>
      </trkpt>
      <trkpt lat="46.73069" lon="-1.87597">
        <ele>11</ele>
        <time>2018-01-15T12:51:07Z</time>
      </trkpt>
      <trkpt lat="46.73065" lon="-1.87612">
        <ele>11</ele>
        <time>2018-01-15T12:52:07Z</time>
      </trkpt>
      <trkpt lat="46.73054" lon="-1.87646">
        <ele>11</ele>
        <time>2018-01-15T12:53:07Z</time>
      </trkpt>
      <trkpt lat="46.73053" lon="-1.87652">
        <ele>11</ele>
        <time>2018-01-15T12:54:07Z</time>
      </trkpt>
      <trkpt lat="46.73035" lon="-1.87711">
        <ele>11</ele>
        <time>2018-01-15T12:55:07Z</time>
      </trkpt>
      <trkpt lat="46.73029" lon="-1.87731">
        <ele>11</ele>
        <time>2018-01-15T12:56:07Z</time>
      </trkpt>
      <trkpt lat="46.73023" lon="-1.87749">
        <ele>11</ele>
        <time>2018-01-15T12:57:07Z</time>
      </trkpt>
      <trkpt lat="46.73014" lon="-1.87779">
        <ele>11</ele>
        <time>2018-01-15T12:58:07Z</time>
      </trkpt>
      <trkpt lat="46.73004" lon="-1.87808">
        <ele>11</ele>
        <time>2018-01-15T12:59:07Z</time>
      </trkpt>
      <trkpt lat="46.73" lon="-1.87814">
        <ele>11</ele>
        <time>2018-01-15T13:00:07Z</time>
      </trkpt>
      <trkpt lat="46.7299" lon="-1.87843">
        <ele>11</ele>
        <time>2018-01-15T13:01:07Z</time>
      </trkpt>
      <trkpt lat="46.72982" lon="-1.87863">
        <ele>11</ele>
        <time>2018-01-15T13:02:07Z</time>
      </trkpt>
      <trkpt lat="46.72971" lon="-1.8789">
        <ele>11</ele>
        <time>2018-01-15T13:03:07Z</time>
      </trkpt>
      <trkpt lat="46.72957" lon="-1.87915">
        <ele>12</ele>
        <time>2018-01-15T13:04:07Z</time>
      </trkpt>
      <trkpt lat="46.72942" lon="-1.87939">
        <ele>12</ele>
        <time>2018-01-15T13:05:07Z</time>
      </trkpt>
      <trkpt lat="46.72931" lon="-1.87954">
        <ele>12</ele>
        <time>2018-01-15T13:06:07Z</time>
      </trkpt>
      <trkpt lat="46.72915" lon="-1.87978">
        <ele>12</ele>
        <time>2018-01-15T13:07:07Z</time>
      </trkpt>
      <trkpt lat="46.72903" lon="-1.87993">
        <ele>12</ele>
        <time>2018-01-15T13:08:07Z</time>
      </trkpt>
      <trkpt lat="46.72901" lon="-1.87996">
        <ele>12</ele>
        <time>2018-01-15T13:09:07Z</time>
      </trkpt>
      <trkpt lat="46.72877" lon="-1.88029">
        <ele>12</ele>
        <time>2018-01-15T13:10:07Z</time>
      </trkpt>
      <trkpt lat="46.72857" lon="-1.88056">
        <ele>12</ele>
        <time>2018-01-15T13:11:07Z</time>
      </trkpt>
      <trkpt lat="46.72845" lon="-1.88074">
        <ele>12</ele>
        <time>2018-01-15T13:12:07Z</time>
      </trkpt>
      <trkpt lat="46.72822" lon="-1.88105">
        <ele>12</ele>
        <time>2018-01-15T13:13:07Z</time>
      </trkpt>
      <trkpt lat="46.72797" lon="-1.88139">
        <ele>10</ele>
        <time>2018-01-15T13:14:07Z</time>
      </trkpt>
      <trkpt lat="46.7278" lon="-1.88165">
        <ele>9</ele>
        <time>2018-01-15T13:15:07Z</time>
      </trkpt>
      <trkpt lat="46.72774" lon="-1.88175">
        <ele>9</ele>
        <time>2018-01-15T13:16:07Z</time>
      </trkpt>
      <trkpt lat="46.72758" lon="-1.88205">
        <ele>8</ele>
        <time>2018-01-15T13:17:07Z</time>
      </trkpt>
      <trkpt lat="46.72753" lon="-1.88214">
        <ele>8</ele>
        <time>2018-01-15T13:18:07Z</time>
      </trkpt>
      <trkpt lat="46.72743" lon="-1.88234">
        <ele>8</ele>
        <time>2018-01-15T13:19:07Z</time>
      </trkpt>
      <trkpt lat="46.72729" lon="-1.88265">
        <ele>7</ele>
        <time>2018-01-15T13:20:07Z</time>
      </trkpt>
      <trkpt lat="46.72718" lon="-1.88298">
        <ele>6</ele>
        <time>2018-01-15T13:21:07Z</time>
      </trkpt>
      <trkpt lat="46.72708" lon="-1.88329">
        <ele>5</ele>
        <time>2018-01-15T13:22:07Z</time>
      </trkpt>
      <trkpt lat="46.72701" lon="-1.88354">
        <ele>5</ele>
        <time>2018-01-15T13:23:07Z</time>
      </trkpt>
      <trkpt lat="46.72694" lon="-1.88384">
        <ele>5</ele>
        <time>2018-01-15T13:24:07Z</time>
      </trkpt>
      <trkpt lat="46.72689" lon="-1.88405">
        <ele>5</ele>
        <time>2018-01-15T13:25:07Z</time>
      </trkpt>
      <trkpt lat="46.72688" lon="-1.88414">
        <ele>5</ele>
        <time>2018-01-15T13:26:07Z</time>
      </trkpt>
      <trkpt lat="46.72687" lon="-1.88419">
        <ele>5</ele>
        <time>2018-01-15T13:27:07Z</time>
      </trkpt>
      <trkpt lat="46.72686" lon="-1.88428">
        <ele>5</ele>
        <time>2018-01-15T13:28:07Z</time>
      </trkpt>
      <trkpt lat="46.72682" lon="-1.88474">
        <ele>4</ele>
        <time>2018-01-15T13:29:07Z</time>
      </trkpt>
      <trkpt lat="46.72678" lon="-1.88523">
        <ele>4</ele>
        <time>2018-01-15T13:30:07Z</time>
      </trkpt>
      <trkpt lat="46.72673" lon="-1.88584">
        <ele>5</ele>
        <time>2018-01-15T13:31:07Z</time>
      </trkpt>
      <trkpt lat="46.72669" lon="-1.88627">
        <ele>5</ele>
        <time>2018-01-15T13:32:07Z</time>
      </trkpt>
      <trkpt lat="46.72667" lon="-1.88649">
        <ele>6</ele>
        <time>2018-01-15T13:33:07Z</time>
      </trkpt>
      <trkpt lat="46.72657" lon="-1.88762">
        <ele>6</ele>
        <time>2018-01-15T13:34:07Z</time>
      </trkpt>
      <trkpt lat="46.7265" lon="-1.88821">
        <ele>6</ele>
        <time>2018-01-15T13:35:07Z</time>
      </trkpt>
      <trkpt lat="46.72641" lon="-1.88904">
        <ele>6</ele>
        <time>2018-01-15T13:36:07Z</time>
      </trkpt>
      <trkpt lat="46.72634" lon="-1.88962">
        <ele>6</ele>
        <time>2018-01-15T13:37:07Z</time>
      </trkpt>
      <trkpt lat="46.72624" lon="-1.89045">
        <ele>6</ele>
        <time>2018-01-15T13:38:07Z</time>
      </trkpt>
      <trkpt lat="46.72615" lon="-1.89119">
        <ele>6</ele>
        <time>2018-01-15T13:39:07Z</time>
      </trkpt>
      <trkpt lat="46.72611" lon="-1.89151">
        <ele>6</ele>
        <time>2018-01-15T13:40:07Z</time>
      </trkpt>
      <trkpt lat="46.72603" lon="-1.89203">
        <ele>6</ele>
        <time>2018-01-15T13:41:07Z</time>
      </trkpt>
      <trkpt lat="46.72595" lon="-1.89253">
        <ele>5</ele>
        <time>2018-01-15T13:42:07Z</time>
      </trkpt>
      <trkpt lat="46.72586" lon="-1.89297">
        <ele>5</ele>
        <time>2018-01-15T13:43:07Z</time>
      </trkpt>
      <trkpt lat="46.72578" lon="-1.89344">
        <ele>5</ele>
        <time>2018-01-15T13:44:07Z</time>
      </trkpt>
      <trkpt lat="46.72573" lon="-1.89367">
        <ele>5</ele>
        <time>2018-01-15T13:45:07Z</time>
      </trkpt>
      <trkpt lat="46.72573" lon="-1.89373">
        <ele>5</ele>
        <time>2018-01-15T13:46:07Z</time>
      </trkpt>
      <trkpt lat="46.72559" lon="-1.89419">
        <ele>4</ele>
        <time>2018-01-15T13:47:07Z</time>
      </trkpt>
      <trkpt lat="46.72558" lon="-1.89421">
        <ele>4</ele>
        <time>2018-01-15T13:48:07Z</time>
      </trkpt>
      <trkpt lat="46.72554" lon="-1.89428">
        <ele>4</ele>
        <time>2018-01-15T13:49:07Z</time>
      </trkpt>
      <trkpt lat="46.72545" lon="-1.89447">
        <ele>4</ele>
        <time>2018-01-15T13:50:07Z</time>
      </trkpt>
      <trkpt lat="46.72526" lon="-1.89486">
        <ele>4</ele>
        <time>2018-01-15T13:51:07Z</time>
      </trkpt>
      <trkpt lat="46.72523" lon="-1.89491">
        <ele>4</ele>
        <time>2018-01-15T13:52:07Z</time>
      </trkpt>
      <trkpt lat="46.72505" lon="-1.89518">
        <ele>4</ele>
        <time>2018-01-15T13:53:07Z</time>
      </trkpt>
      <trkpt lat="46.72502" lon="-1.89523">
        <ele>4</ele>
        <time>2018-01-15T13:54:07Z</time>
      </trkpt>
      <trkpt lat="46.72488" lon="-1.89543">
        <ele>4</ele>
        <time>2018-01-15T13:55:07Z</time>
      </trkpt>
      <trkpt lat="46.72488" lon="-1.89544">
        <ele>4</ele>
        <time>2018-01-15T13:56:07Z</time>
      </trkpt>
      <trkpt lat="46.72488" lon="-1.89545">
        <ele>4</ele>
        <time>2018-01-15T13:57:07Z</time>
      </trkpt>
      <trkpt lat="46.72488" lon="-1.89546">
        <ele>4</ele>
        <time>2018-01-15T13:58:07Z</time>
      </trkpt>
      <trkpt lat="46.72487" lon="-1.89546">
        <ele>4</ele>
        <time>2018-01-15T13:59:07Z</time>
      </trkpt>
      <trkpt lat="46.72487" lon="-1.89547">
        <ele>4</ele>
        <time>2018-01-15T14:00:07Z</time>
      </trkpt>
      <trkpt lat="46.72487" lon="-1.89548">
        <ele>4</ele>
        <time>2018-01-15T14:01:07Z</time>
      </trkpt>
      <trkpt lat="46.72486" lon="-1.89549">
        <ele>4</ele>
        <time>2018-01-15T14:02:07Z</time>
      </trkpt>
      <trkpt lat="46.72486" lon="-1.8955">
        <ele>4</ele>
        <time>2018-01-15T14:03:07Z</time>
      </trkpt>
      <trkpt lat="46.72485" lon="-1.8955">
        <ele>4</ele>
        <time>2018-01-15T14:04:07Z</time>
      </trkpt>
      <trkpt lat="46.72485" lon="-1.89551">
        <ele>4</ele>
        <time>2018-01-15T14:05:07Z</time>
      </trkpt>
      <trkpt lat="46.72484" lon="-1.89551">
        <ele>4</ele>
        <time>2018-01-15T14:06:07Z</time>
      </trkpt>
      <trkpt lat="46.72483" lon="-1.89552">
        <ele>4</ele>
        <time>2018-01-15T14:07:07Z</time>
      </trkpt>
      <trkpt lat="46.72482" lon="-1.89552">
        <ele>4</ele>
        <time>2018-01-15T14:08:07Z</time>
      </trkpt>
      <trkpt lat="46.7248" lon="-1.89555">
        <ele>4</ele>
        <time>2018-01-15T14:09:07Z</time>
      </trkpt>
      <trkpt lat="46.7247" lon="-1.8957">
        <ele>4</ele>
        <time>2018-01-15T14:10:07Z</time>
      </trkpt>
      <trkpt lat="46.72462" lon="-1.89583">
        <ele>4</ele>
        <time>2018-01-15T14:11:07Z</time>
      </trkpt>
      <trkpt lat="46.7246" lon="-1.89586">
        <ele>3</ele>
        <time>2018-01-15T14:12:07Z</time>
      </trkpt>
      <trkpt lat="46.72455" lon="-1.89591">
        <ele>3</ele>
        <time>2018-01-15T14:13:07Z</time>
      </trkpt>
      <trkpt lat="46.72442" lon="-1.89608">
        <ele>3</ele>
        <time>2018-01-15T14:14:07Z</time>
      </trkpt>
      <trkpt lat="46.72427" lon="-1.89625">
        <ele>3</ele>
        <time>2018-01-15T14:15:07Z</time>
      </trkpt>
      <trkpt lat="46.72424" lon="-1.89628">
        <ele>3</ele>
        <time>2018-01-15T14:16:07Z</time>
      </trkpt>
      <trkpt lat="46.72402" lon="-1.89652">
        <ele>3</ele>
        <time>2018-01-15T14:17:07Z</time>
      </trkpt>
      <trkpt lat="46.72372" lon="-1.89674">
        <ele>4</ele>
        <time>2018-01-15T14:18:07Z</time>
      </trkpt>
      <trkpt lat="46.72253" lon="-1.8977">
        <ele>7</ele>
        <time>2018-01-15T14:19:07Z</time>
      </trkpt>
      <trkpt lat="46.72225" lon="-1.89792">
        <ele>7</ele>
        <time>2018-01-15T14:20:07Z</time>
      </trkpt>
      <trkpt lat="46.72203" lon="-1.89809">
        <ele>8</ele>
        <time>2018-01-15T14:21:07Z</time>
      </trkpt>
      <trkpt lat="46.72178" lon="-1.8983">
        <ele>9</ele>
        <time>2018-01-15T14:22:07Z</time>
      </trkpt>
      <trkpt lat="46.72143" lon="-1.89859">
        <ele>9</ele>
        <time>2018-01-15T14:23:07Z</time>
      </trkpt>
      <trkpt lat="46.72119" lon="-1.89878">
        <ele>8</ele>
        <time>2018-01-15T14:24:07Z</time>
      </trkpt>
      <trkpt lat="46.72084" lon="-1.89908">
        <ele>7</ele>
        <time>2018-01-15T14:25:07Z</time>
      </trkpt>
      <trkpt lat="46.72056" lon="-1.8993">
        <ele>7</ele>
        <time>2018-01-15T14:26:07Z</time>
      </trkpt>
      <trkpt lat="46.72042" lon="-1.89942">
        <ele>7</ele>
        <time>2018-01-15T14:27:07Z</time>
      </trkpt>
      <trkpt lat="46.72037" lon="-1.89948">
        <ele>7</ele>
        <time>2018-01-15T14:28:07Z</time>
      </trkpt>
      <trkpt lat="46.72029" lon="-1.8996">
        <ele>7</ele>
        <time>2018-01-15T14:29:07Z</time>
      </trkpt>
      <trkpt lat="46.7202" lon="-1.89975">
        <ele>7</ele>
        <time>2018-01-15T14:30:07Z</time>
      </trkpt>
      <trkpt lat="46.72013" lon="-1.89987">
        <ele>6</ele>
        <time>2018-01-15T14:31:07Z</time>
      </trkpt>
      <trkpt lat="46.72002" lon="-1.90007">
        <ele>6</ele>
        <time>2018-01-15T14:32:07Z</time>
      </trkpt>
      <trkpt lat="46.7199" lon="-1.90031">
        <ele>6</ele>
        <time>2018-01-15T14:33:07Z</time>
      </trkpt>
      <trkpt lat="46.71979" lon="-1.9005">
        <ele>6</ele>
        <time>2018-01-15T14:34:07Z</time>
      </trkpt>
      <trkpt lat="46.71973" lon="-1.90062">
        <ele>6</ele>
        <time>2018-01-15T14:35:07Z</time>
      </trkpt>
      <trkpt lat="46.71968" lon="-1.9008">
        <ele>6</ele>
        <time>2018-01-15T14:36:07Z</time>
      </trkpt>
      <trkpt lat="46.71965" lon="-1.90106">
        <ele>6</ele>
        <time>2018-01-15T14:37:07Z</time>
      </trkpt>
      <trkpt lat="46.71962" lon="-1.90125">
        <ele>6</ele>
        <time>2018-01-15T14:38:07Z</time>
      </trkpt>
      <trkpt lat="46.71959" lon="-1.90153">
        <ele>6</ele>
        <time>2018-01-15T14:39:07Z</time>
      </trkpt>
      <trkpt lat="46.71958" lon="-1.90176">
        <ele>6</ele>
        <time>2018-01-15T14:40:07Z</time>
      </trkpt>
      <trkpt lat="46.71956" lon="-1.90191">
        <ele>6</ele>
        <time>2018-01-15T14:41:07Z</time>
      </trkpt>
      <trkpt lat="46.71953" lon="-1.90201">
        <ele>6</ele>
        <time>2018-01-15T14:42:07Z</time>
      </trkpt>
      <trkpt lat="46.71953" lon="-1.90203">
        <ele>6</ele>
        <time>2018-01-15T14:43:07Z</time>
      </trkpt>
      <trkpt lat="46.71949" lon="-1.90211">
        <ele>6</ele>
        <time>2018-01-15T14:44:07Z</time>
      </trkpt>
      <trkpt lat="46.71946" lon="-1.90218">
        <ele>6</ele>
        <time>2018-01-15T14:45:07Z</time>
      </trkpt>
      <trkpt lat="46.71941" lon="-1.90227">
        <ele>6</ele>
        <time>2018-01-15T14:46:07Z</time>
      </trkpt>
      <trkpt lat="46.71934" lon="-1.90235">
        <ele>6</ele>
        <time>2018-01-15T14:47:07Z</time>
      </trkpt>
      <trkpt lat="46.71927" lon="-1.9024">
        <ele>6</ele>
        <time>2018-01-15T14:48:07Z</time>
      </trkpt>
      <trkpt lat="46.71914" lon="-1.90248">
        <ele>6</ele>
        <time>2018-01-15T14:49:07Z</time>
      </trkpt>
      <trkpt lat="46.719" lon="-1.90254">
        <ele>7</ele>
        <time>2018-01-15T14:50:07Z</time>
      </trkpt>
      <trkpt lat="46.71896" lon="-1.90256">
        <ele>7</ele>
        <time>2018-01-15T14:51:07Z</time>
      </trkpt>
      <trkpt lat="46.7189" lon="-1.9026">
        <ele>7</ele>
        <time>2018-01-15T14:52:07Z</time>
      </trkpt>
      <trkpt lat="46.71886" lon="-1.90263">
        <ele>7</ele>
        <time>2018-01-15T14:53:07Z</time>
      </trkpt>
      <trkpt lat="46.71883" lon="-1.90267">
        <ele>7</ele>
        <time>2018-01-15T14:54:07Z</time>
      </trkpt>
      <trkpt lat="46.71879" lon="-1.90274">
        <ele>7</ele>
        <time>2018-01-15T14:55:07Z</time>
      </trkpt>
      <trkpt lat="46.71876" lon="-1.90283">
        <ele>7</ele>
        <time>2018-01-15T14:56:07Z</time>
      </trkpt>
      <trkpt lat="46.71872" lon="-1.90301">
        <ele>6</ele>
        <time>2018-01-15T14:57:07Z</time>
      </trkpt>
      <trkpt lat="46.71869" lon="-1.90308">
        <ele>6</ele>
        <time>2018-01-15T14:58:07Z</time>
      </trkpt>
      <trkpt lat="46.71865" lon="-1.90316">
        <ele>6</ele>
        <time>2018-01-15T14:59:07Z</time>
      </trkpt>
      <trkpt lat="46.71839" lon="-1.90349">
        <ele>6</ele>
        <time>2018-01-15T15:00:07Z</time>
      </trkpt>
      <trkpt lat="46.7179" lon="-1.90406">
        <ele>6</ele>
        <time>2018-01-15T15:01:07Z</time>
      </trkpt>
      <trkpt lat="46.71783" lon="-1.90415">
        <ele>6</ele>
        <time>2018-01-15T15:02:07Z</time>
      </trkpt>
      <trkpt lat="46.71764" lon="-1.90437">
        <ele>7</ele>
        <time>2018-01-15T15:03:07Z</time>
      </trkpt>
      <trkpt lat="46.71729" lon="-1.90479">
        <ele>7</ele>
        <time>2018-01-15T15:04:07Z</time>
      </trkpt>
      <trkpt lat="46.71702" lon="-1.90512">
        <ele>8</ele>
        <time>2018-01-15T15:05:07Z</time>
      </trkpt>
      <trkpt lat="46.71687" lon="-1.9053">
        <ele>8</ele>
        <time>2018-01-15T15:06:07Z</time>
      </trkpt>
      <trkpt lat="46.71673" lon="-1.90547">
        <ele>8</ele>
        <time>2018-01-15T15:07:07Z</time>
      </trkpt>
      <trkpt lat="46.71651" lon="-1.90574">
        <ele>9</ele>
        <time>2018-01-15T15:08:07Z</time>
      </trkpt>
      <trkpt lat="46.71615" lon="-1.90615">
        <ele>9</ele>
        <time>2018-01-15T15:09:07Z</time>
      </trkpt>
      <trkpt lat="46.71615" lon="-1.90616">
        <ele>9</ele>
        <time>2018-01-15T15:10:07Z</time>
      </trkpt>
      <trkpt lat="46.7161" lon="-1.90622">
        <ele>9</ele>
        <time>2018-01-15T15:11:07Z</time>
      </trkpt>
      <trkpt lat="46.71589" lon="-1.90649">
        <ele>9</ele>
        <time>2018-01-15T15:12:07Z</time>
      </trkpt>
      <trkpt lat="46.71557" lon="-1.90688">
        <ele>10</ele>
        <time>2018-01-15T15:13:07Z</time>
      </trkpt>
      <trkpt lat="46.71554" lon="-1.90691">
        <ele>10</ele>
        <time>2018-01-15T15:14:07Z</time>
      </trkpt>
      <trkpt lat="46.71544" lon="-1.90706">
        <ele>10</ele>
        <time>2018-01-15T15:15:07Z</time>
      </trkpt>
      <trkpt lat="46.71545" lon="-1.90706">
        <ele>10</ele>
        <time>2018-01-15T15:16:07Z</time>
      </trkpt>
      <trkpt lat="46.71545" lon="-1.90707">
        <ele>10</ele>
        <time>2018-01-15T15:17:07Z</time>
      </trkpt>
      <trkpt lat="46.71545" lon="-1.90708">
        <ele>10</ele>
        <time>2018-01-15T15:18:07Z</time>
      </trkpt>
      <trkpt lat="46.71546" lon="-1.90708">
        <ele>10</ele>
        <time>2018-01-15T15:19:07Z</time>
      </trkpt>
      <trkpt lat="46.71546" lon="-1.90709">
        <ele>10</ele>
        <time>2018-01-15T15:20:07Z</time>
      </trkpt>
      <trkpt lat="46.71546" lon="-1.9071">
        <ele>10</ele>
        <time>2018-01-15T15:21:07Z</time>
      </trkpt>
      <trkpt lat="46.71546" lon="-1.90711">
        <ele>10</ele>
        <time>2018-01-15T15:22:07Z</time>
      </trkpt>
      <trkpt lat="46.71546" lon="-1.90712">
        <ele>10</ele>
        <time>2018-01-15T15:23:07Z</time>
      </trkpt>
      <trkpt lat="46.71546" lon="-1.90713">
        <ele>10</ele>
        <time>2018-01-15T15:24:07Z</time>
      </trkpt>
      <trkpt lat="46.71546" lon="-1.90714">
        <ele>10</ele>
        <time>2018-01-15T15:25:07Z</time>
      </trkpt>
      <trkpt lat="46.71546" lon="-1.90715">
        <ele>10</ele>
        <time>2018-01-15T15:26:07Z</time>
      </trkpt>
      <trkpt lat="46.71546" lon="-1.90716">
        <ele>10</ele>
        <time>2018-01-15T15:27:07Z</time>
      </trkpt>
      <trkpt lat="46.71546" lon="-1.90717">
        <ele>10</ele>
        <time>2018-01-15T15:28:07Z</time>
      </trkpt>
      <trkpt lat="46.71545" lon="-1.90717">
        <ele>10</ele>
        <time>2018-01-15T15:29:07Z</time>
      </trkpt>
      <trkpt lat="46.71545" lon="-1.90718">
        <ele>10</ele>
        <time>2018-01-15T15:30:07Z</time>
      </trkpt>
      <trkpt lat="46.71545" lon="-1.90719">
        <ele>10</ele>
        <time>2018-01-15T15:31:07Z</time>
      </trkpt>
      <trkpt lat="46.71544" lon="-1.90719">
        <ele>10</ele>
        <time>2018-01-15T15:32:07Z</time>
      </trkpt>
      <trkpt lat="46.71544" lon="-1.9072">
        <ele>10</ele>
        <time>2018-01-15T15:33:07Z</time>
      </trkpt>
      <trkpt lat="46.71543" lon="-1.9072">
        <ele>10</ele>
        <time>2018-01-15T15:34:07Z</time>
      </trkpt>
      <trkpt lat="46.71542" lon="-1.9072">
        <ele>10</ele>
        <time>2018-01-15T15:35:07Z</time>
      </trkpt>
      <trkpt lat="46.71541" lon="-1.9072">
        <ele>10</ele>
        <time>2018-01-15T15:36:07Z</time>
      </trkpt>
      <trkpt lat="46.71541" lon="-1.90721">
        <ele>10</ele>
        <time>2018-01-15T15:37:07Z</time>
      </trkpt>
      <trkpt lat="46.71541" lon="-1.9072">
        <ele>10</ele>
        <time>2018-01-15T15:38:07Z</time>
      </trkpt>
      <trkpt lat="46.7154" lon="-1.9072">
        <ele>10</ele>
        <time>2018-01-15T15:39:07Z</time>
      </trkpt>
      <trkpt lat="46.71539" lon="-1.9072">
        <ele>10</ele>
        <time>2018-01-15T15:40:07Z</time>
      </trkpt>
      <trkpt lat="46.71538" lon="-1.9072">
        <ele>10</ele>
        <time>2018-01-15T15:41:07Z</time>
      </trkpt>
      <trkpt lat="46.71538" lon="-1.90719">
        <ele>10</ele>
        <time>2018-01-15T15:42:07Z</time>
      </trkpt>
      <trkpt lat="46.71537" lon="-1.90719">
        <ele>10</ele>
        <time>2018-01-15T15:43:07Z</time>
      </trkpt>
      <trkpt lat="46.71537" lon="-1.90718">
        <ele>10</ele>
        <time>2018-01-15T15:44:07Z</time>
      </trkpt>
      <trkpt lat="46.71537" lon="-1.90717">
        <ele>10</ele>
        <time>2018-01-15T15:45:07Z</time>
      </trkpt>
      <trkpt lat="46.71504" lon="-1.90753">
        <ele>11</ele>
        <time>2018-01-15T15:46:07Z</time>
      </trkpt>
      <trkpt lat="46.71468" lon="-1.90796">
        <ele>11</ele>
        <time>2018-01-15T15:47:07Z</time>
      </trkpt>
      <trkpt lat="46.71449" lon="-1.90818">
        <ele>12</ele>
        <time>2018-01-15T15:48:07Z</time>
      </trkpt>
      <trkpt lat="46.71439" lon="-1.9083">
        <ele>12</ele>
        <time>2018-01-15T15:49:07Z</time>
      </trkpt>
      <trkpt lat="46.71414" lon="-1.90862">
        <ele>13</ele>
        <time>2018-01-15T15:50:07Z</time>
      </trkpt>
      <trkpt lat="46.71394" lon="-1.90886">
        <ele>13</ele>
        <time>2018-01-15T15:51:07Z</time>
      </trkpt>
      <trkpt lat="46.71377" lon="-1.90906">
        <ele>13</ele>
        <time>2018-01-15T15:52:07Z</time>
      </trkpt>
      <trkpt lat="46.71372" lon="-1.90912">
        <ele>13</ele>
        <time>2018-01-15T15:53:07Z</time>
      </trkpt>
      <trkpt lat="46.71354" lon="-1.90933">
        <ele>12</ele>
        <time>2018-01-15T15:54:07Z</time>
      </trkpt>
      <trkpt lat="46.71332" lon="-1.90962">
        <ele>12</ele>
        <time>2018-01-15T15:55:07Z</time>
      </trkpt>
      <trkpt lat="46.7131" lon="-1.90988">
        <ele>12</ele>
        <time>2018-01-15T15:56:07Z</time>
      </trkpt>
      <trkpt lat="46.713" lon="-1.91004">
        <ele>12</ele>
        <time>2018-01-15T15:57:07Z</time>
      </trkpt>
      <trkpt lat="46.71289" lon="-1.9102">
        <ele>12</ele>
        <time>2018-01-15T15:58:07Z</time>
      </trkpt>
      <trkpt lat="46.71277" lon="-1.9104">
        <ele>12</ele>
        <time>2018-01-15T15:59:07Z</time>
      </trkpt>
      <trkpt lat="46.71264" lon="-1.91064">
        <ele>12</ele>
        <time>2018-01-15T16:00:07Z</time>
      </trkpt>
      <trkpt lat="46.71255" lon="-1.91084">
        <ele>12</ele>
        <time>2018-01-15T16:01:07Z</time>
      </trkpt>
      <trkpt lat="46.71244" lon="-1.91108">
        <ele>12</ele>
        <time>2018-01-15T16:02:07Z</time>
      </trkpt>
      <trkpt lat="46.71231" lon="-1.91139">
        <ele>11</ele>
        <time>2018-01-15T16:03:07Z</time>
      </trkpt>
      <trkpt lat="46.71227" lon="-1.91147">
        <ele>11</ele>
        <time>2018-01-15T16:04:07Z</time>
      </trkpt>
      <trkpt lat="46.71216" lon="-1.91174">
        <ele>11</ele>
        <time>2018-01-15T16:05:07Z</time>
      </trkpt>
      <trkpt lat="46.712" lon="-1.9121">
        <ele>11</ele>
        <time>2018-01-15T16:06:07Z</time>
      </trkpt>
      <trkpt lat="46.71185" lon="-1.91246">
        <ele>11</ele>
        <time>2018-01-15T16:07:07Z</time>
      </trkpt>
      <trkpt lat="46.71175" lon="-1.91271">
        <ele>11</ele>
        <time>2018-01-15T16:08:07Z</time>
      </trkpt>
      <trkpt lat="46.71164" lon="-1.91298">
        <ele>11</ele>
        <time>2018-01-15T16:09:07Z</time>
      </trkpt>
      <trkpt lat="46.71152" lon="-1.91328">
        <ele>12</ele>
        <time>2018-01-15T16:10:07Z</time>
      </trkpt>
      <trkpt lat="46.7115" lon="-1.91334">
        <ele>12</ele>
        <time>2018-01-15T16:11:07Z</time>
      </trkpt>
      <trkpt lat="46.71148" lon="-1.91339">
        <ele>12</ele>
        <time>2018-01-15T16:12:07Z</time>
      </trkpt>
      <trkpt lat="46.71136" lon="-1.91372">
        <ele>12</ele>
        <time>2018-01-15T16:13:07Z</time>
      </trkpt>
      <trkpt lat="46.71122" lon="-1.91407">
        <ele>13</ele>
        <time>2018-01-15T16:14:07Z</time>
      </trkpt>
      <trkpt lat="46.71113" lon="-1.91429">
        <ele>14</ele>
        <time>2018-01-15T16:15:07Z</time>
      </trkpt>
      <trkpt lat="46.71106" lon="-1.91442">
        <ele>14</ele>
        <time>2018-01-15T16:16:07Z</time>
      </trkpt>
      <trkpt lat="46.71103" lon="-1.91449">
        <ele>14</ele>
        <time>2018-01-15T16:17:07Z</time>
      </trkpt>
      <trkpt lat="46.71102" lon="-1.91452">
        <ele>14</ele>
        <time>2018-01-15T16:18:07Z</time>
      </trkpt>
      <trkpt lat="46.71099" lon="-1.91459">
        <ele>14</ele>
        <time>2018-01-15T16:19:07Z</time>
      </trkpt>
      <trkpt lat="46.71097" lon="-1.91462">
        <ele>15</ele>
        <time>2018-01-15T16:20:07Z</time>
      </trkpt>
      <trkpt lat="46.71096" lon="-1.91463">
        <ele>15</ele>
        <time>2018-01-15T16:21:07Z</time>
      </trkpt>
      <trkpt lat="46.71095" lon="-1.91465">
        <ele>15</ele>
        <time>2018-01-15T16:22:07Z</time>
      </trkpt>
      <trkpt lat="46.71085" lon="-1.91481">
        <ele>15</ele>
        <time>2018-01-15T16:23:07Z</time>
      </trkpt>
      <trkpt lat="46.7107" lon="-1.91503">
        <ele>15</ele>
        <time>2018-01-15T16:24:07Z</time>
      </trkpt>
      <trkpt lat="46.71064" lon="-1.91509">
        <ele>15</ele>
        <time>2018-01-15T16:25:07Z</time>
      </trkpt>
      <trkpt lat="46.71054" lon="-1.91523">
        <ele>16</ele>
        <time>2018-01-15T16:26:07Z</time>
      </trkpt>
      <trkpt lat="46.71042" lon="-1.91539">
        <ele>16</ele>
        <time>2018-01-15T16:27:07Z</time>
      </trkpt>
      <trkpt lat="46.71022" lon="-1.91567">
        <ele>16</ele>
        <time>2018-01-15T16:28:07Z</time>
      </trkpt>
      <trkpt lat="46.7102" lon="-1.9157">
        <ele>17</ele>
        <time>2018-01-15T16:29:07Z</time>
      </trkpt>
      <trkpt lat="46.71018" lon="-1.91572">
        <ele>17</ele>
        <time>2018-01-15T16:30:07Z</time>
      </trkpt>
      <trkpt lat="46.70999" lon="-1.91598">
        <ele>17</ele>
        <time>2018-01-15T16:31:07Z</time>
      </trkpt>
      <trkpt lat="46.70971" lon="-1.91634">
        <ele>17</ele>
        <time>2018-01-15T16:32:07Z</time>
      </trkpt>
      <trkpt lat="46.70954" lon="-1.91659">
        <ele>18</ele>
        <time>2018-01-15T16:33:07Z</time>
      </trkpt>
      <trkpt lat="46.70951" lon="-1.91664">
        <ele>18</ele>
        <time>2018-01-15T16:34:07Z</time>
      </trkpt>
      <trkpt lat="46.70946" lon="-1.91669">
        <ele>18</ele>
        <time>2018-01-15T16:35:07Z</time>
      </trkpt>
      <trkpt lat="46.70932" lon="-1.91688">
        <ele>18</ele>
        <time>2018-01-15T16:36:07Z</time>
      </trkpt>
      <trkpt lat="46.70913" lon="-1.91714">
        <ele>18</ele>
        <time>2018-01-15T16:37:07Z</time>
      </trkpt>
      <trkpt lat="46.70894" lon="-1.91739">
        <ele>18</ele>
        <time>2018-01-15T16:38:07Z</time>
      </trkpt>
      <trkpt lat="46.70883" lon="-1.91753">
        <ele>18</ele>
        <time>2018-01-15T16:39:07Z</time>
      </trkpt>
      <trkpt lat="46.7087" lon="-1.91769">
        <ele>19</ele>
        <time>2018-01-15T16:40:07Z</time>
      </trkpt>
      <trkpt lat="46.7087" lon="-1.9177">
        <ele>19</ele>
        <time>2018-01-15T16:41:07Z</time>
      </trkpt>
      <trkpt lat="46.7087" lon="-1.91771">
        <ele>19</ele>
        <time>2018-01-15T16:42:07Z</time>
      </trkpt>
      <trkpt lat="46.70871" lon="-1.91771">
        <ele>19</ele>
        <time>2018-01-15T16:43:07Z</time>
      </trkpt>
      <trkpt lat="46.70871" lon="-1.91772">
        <ele>19</ele>
        <time>2018-01-15T16:44:07Z</time>
      </trkpt>
      <trkpt lat="46.70871" lon="-1.91773">
        <ele>19</ele>
        <time>2018-01-15T16:45:07Z</time>
      </trkpt>
      <trkpt lat="46.70871" lon="-1.91774">
        <ele>19</ele>
        <time>2018-01-15T16:46:07Z</time>
      </trkpt>
      <trkpt lat="46.70871" lon="-1.91775">
        <ele>19</ele>
        <time>2018-01-15T16:47:07Z</time>
      </trkpt>
      <trkpt lat="46.70871" lon="-1.91776">
        <ele>19</ele>
        <time>2018-01-15T16:48:07Z</time>
      </trkpt>
      <trkpt lat="46.70871" lon="-1.91777">
        <ele>19</ele>
        <time>2018-01-15T16:49:07Z</time>
      </trkpt>
      <trkpt lat="46.70871" lon="-1.91778">
        <ele>19</ele>
        <time>2018-01-15T16:50:07Z</time>
      </trkpt>
      <trkpt lat="46.70871" lon="-1.91779">
        <ele>19</ele>
        <time>2018-01-15T16:51:07Z</time>
      </trkpt>
      <trkpt lat="46.7087" lon="-1.91779">
        <ele>19</ele>
        <time>2018-01-15T16:52:07Z</time>
      </trkpt>
      <trkpt lat="46.7087" lon="-1.9178">
        <ele>19</ele>
        <time>2018-01-15T16:53:07Z</time>
      </trkpt>
      <trkpt lat="46.7087" lon="-1.91781">
        <ele>19</ele>
        <time>2018-01-15T16:54:07Z</time>
      </trkpt>
      <trkpt lat="46.7087" lon="-1.91782">
        <ele>19</ele>
        <time>2018-01-15T16:55:07Z</time>
      </trkpt>
      <trkpt lat="46.70869" lon="-1.91782">
        <ele>19</ele>
        <time>2018-01-15T16:56:07Z</time>
      </trkpt>
      <trkpt lat="46.70869" lon="-1.91783">
        <ele>19</ele>
        <time>2018-01-15T16:57:07Z</time>
      </trkpt>
      <trkpt lat="46.70868" lon="-1.91784">
        <ele>19</ele>
        <time>2018-01-15T16:58:07Z</time>
      </trkpt>
      <trkpt lat="46.70868" lon="-1.91785">
        <ele>19</ele>
        <time>2018-01-15T16:59:07Z</time>
      </trkpt>
      <trkpt lat="46.70867" lon="-1.91785">
        <ele>19</ele>
        <time>2018-01-15T17:00:07Z</time>
      </trkpt>
      <trkpt lat="46.70866" lon="-1.91786">
        <ele>19</ele>
        <time>2018-01-15T17:01:07Z</time>
      </trkpt>
      <trkpt lat="46.70865" lon="-1.91786">
        <ele>19</ele>
        <time>2018-01-15T17:02:07Z</time>
      </trkpt>
      <trkpt lat="46.70864" lon="-1.91786">
        <ele>19</ele>
        <time>2018-01-15T17:03:07Z</time>
      </trkpt>
      <trkpt lat="46.70864" lon="-1.91787">
        <ele>19</ele>
        <time>2018-01-15T17:04:07Z</time>
      </trkpt>
      <trkpt lat="46.70863" lon="-1.91787">
        <ele>19</ele>
        <time>2018-01-15T17:05:07Z</time>
      </trkpt>
      <trkpt lat="46.70862" lon="-1.91787">
        <ele>19</ele>
        <time>2018-01-15T17:06:07Z</time>
      </trkpt>
      <trkpt lat="46.70861" lon="-1.91787">
        <ele>19</ele>
        <time>2018-01-15T17:07:07Z</time>
      </trkpt>
      <trkpt lat="46.70861" lon="-1.91786">
        <ele>19</ele>
        <time>2018-01-15T17:08:07Z</time>
      </trkpt>
      <trkpt lat="46.7086" lon="-1.91786">
        <ele>19</ele>
        <time>2018-01-15T17:09:07Z</time>
      </trkpt>
      <trkpt lat="46.70859" lon="-1.91786">
        <ele>19</ele>
        <time>2018-01-15T17:10:07Z</time>
      </trkpt>
      <trkpt lat="46.70859" lon="-1.91785">
        <ele>19</ele>
        <time>2018-01-15T17:11:07Z</time>
      </trkpt>
      <trkpt lat="46.70858" lon="-1.91785">
        <ele>19</ele>
        <time>2018-01-15T17:12:07Z</time>
      </trkpt>
      <trkpt lat="46.70858" lon="-1.91784">
        <ele>19</ele>
        <time>2018-01-15T17:13:07Z</time>
      </trkpt>
      <trkpt lat="46.70836" lon="-1.9181">
        <ele>20</ele>
        <time>2018-01-15T17:14:07Z</time>
      </trkpt>
      <trkpt lat="46.70799" lon="-1.91849">
        <ele>20</ele>
        <time>2018-01-15T17:15:07Z</time>
      </trkpt>
      <trkpt lat="46.70793" lon="-1.91854">
        <ele>20</ele>
        <time>2018-01-15T17:16:07Z</time>
      </trkpt>
      <trkpt lat="46.70789" lon="-1.91861">
        <ele>19</ele>
        <time>2018-01-15T17:17:07Z</time>
      </trkpt>
      <trkpt lat="46.70758" lon="-1.91893">
        <ele>19</ele>
        <time>2018-01-15T17:18:07Z</time>
      </trkpt>
      <trkpt lat="46.7073" lon="-1.91923">
        <ele>18</ele>
        <time>2018-01-15T17:19:07Z</time>
      </trkpt>
      <trkpt lat="46.70726" lon="-1.91928">
        <ele>19</ele>
        <time>2018-01-15T17:20:07Z</time>
      </trkpt>
      <trkpt lat="46.70721" lon="-1.9193">
        <ele>19</ele>
        <time>2018-01-15T17:21:07Z</time>
      </trkpt>
      <trkpt lat="46.70684" lon="-1.91967">
        <ele>19</ele>
        <time>2018-01-15T17:22:07Z</time>
      </trkpt>
      <trkpt lat="46.70677" lon="-1.91974">
        <ele>19</ele>
        <time>2018-01-15T17:23:07Z</time>
      </trkpt>
      <trkpt lat="46.70671" lon="-1.91985">
        <ele>19</ele>
        <time>2018-01-15T17:24:07Z</time>
      </trkpt>
      <trkpt lat="46.70655" lon="-1.92006">
        <ele>19</ele>
        <time>2018-01-15T17:25:07Z</time>
      </trkpt>
      <trkpt lat="46.70655" lon="-1.92006">
        <ele>19</ele>
        <time>2018-01-15T17:26:07Z</time>
      </trkpt>
      <trkpt lat="46.70655" lon="-1.92007">
        <ele>19</ele>
        <time>2018-01-15T17:27:07Z</time>
      </trkpt>
      <trkpt lat="46.70655" lon="-1.92008">
        <ele>19</ele>
        <time>2018-01-15T17:28:07Z</time>
      </trkpt>
      <trkpt lat="46.70655" lon="-1.92009">
        <ele>19</ele>
        <time>2018-01-15T17:29:07Z</time>
      </trkpt>
      <trkpt lat="46.70655" lon="-1.9201">
        <ele>19</ele>
        <time>2018-01-15T17:30:07Z</time>
      </trkpt>
      <trkpt lat="46.70655" lon="-1.92011">
        <ele>19</ele>
        <time>2018-01-15T17:31:07Z</time>
      </trkpt>
      <trkpt lat="46.70655" lon="-1.92012">
        <ele>19</ele>
        <time>2018-01-15T17:32:07Z</time>
      </trkpt>
      <trkpt lat="46.70655" lon="-1.92013">
        <ele>19</ele>
        <time>2018-01-15T17:33:07Z</time>
      </trkpt>
      <trkpt lat="46.70655" lon="-1.92014">
        <ele>19</ele>
        <time>2018-01-15T17:34:07Z</time>
      </trkpt>
      <trkpt lat="46.70655" lon="-1.92015">
        <ele>19</ele>
        <time>2018-01-15T17:35:07Z</time>
      </trkpt>
      <trkpt lat="46.70654" lon="-1.92015">
        <ele>19</ele>
        <time>2018-01-15T17:36:07Z</time>
      </trkpt>
      <trkpt lat="46.70654" lon="-1.92016">
        <ele>19</ele>
        <time>2018-01-15T17:37:07Z</time>
      </trkpt>
      <trkpt lat="46.70654" lon="-1.92017">
        <ele>19</ele>
        <time>2018-01-15T17:38:07Z</time>
      </trkpt>
      <trkpt lat="46.70654" lon="-1.92018">
        <ele>19</ele>
        <time>2018-01-15T17:39:07Z</time>
      </trkpt>
      <trkpt lat="46.70653" lon="-1.92019">
        <ele>19</ele>
        <time>2018-01-15T17:40:07Z</time>
      </trkpt>
      <trkpt lat="46.70653" lon="-1.9202">
        <ele>19</ele>
        <time>2018-01-15T17:41:07Z</time>
      </trkpt>
      <trkpt lat="46.70652" lon="-1.92021">
        <ele>19</ele>
        <time>2018-01-15T17:42:07Z</time>
      </trkpt>
      <trkpt lat="46.70652" lon="-1.92022">
        <ele>19</ele>
        <time>2018-01-15T17:43:07Z</time>
      </trkpt>
      <trkpt lat="46.70651" lon="-1.92022">
        <ele>19</ele>
        <time>2018-01-15T17:44:07Z</time>
      </trkpt>
      <trkpt lat="46.70651" lon="-1.92023">
        <ele>19</ele>
        <time>2018-01-15T17:45:07Z</time>
      </trkpt>
      <trkpt lat="46.7065" lon="-1.92023">
        <ele>19</ele>
        <time>2018-01-15T17:46:07Z</time>
      </trkpt>
      <trkpt lat="46.70649" lon="-1.92024">
        <ele>19</ele>
        <time>2018-01-15T17:47:07Z</time>
      </trkpt>
      <trkpt lat="46.70644" lon="-1.92039">
        <ele>19</ele>
        <time>2018-01-15T17:48:07Z</time>
      </trkpt>
      <trkpt lat="46.70642" lon="-1.9205">
        <ele>19</ele>
        <time>2018-01-15T17:49:07Z</time>
      </trkpt>
      <trkpt lat="46.70642" lon="-1.92056">
        <ele>19</ele>
        <time>2018-01-15T17:50:07Z</time>
      </trkpt>
      <trkpt lat="46.7064" lon="-1.92095">
        <ele>20</ele>
        <time>2018-01-15T17:51:07Z</time>
      </trkpt>
      <trkpt lat="46.7064" lon="-1.92109">
        <ele>20</ele>
        <time>2018-01-15T17:52:07Z</time>
      </trkpt>
      <trkpt lat="46.70639" lon="-1.92134">
        <ele>19</ele>
        <time>2018-01-15T17:53:07Z</time>
      </trkpt>
      <trkpt lat="46.70637" lon="-1.92186">
        <ele>19</ele>
        <time>2018-01-15T17:54:07Z</time>
      </trkpt>
      <trkpt lat="46.70634" lon="-1.92221">
        <ele>19</ele>
        <time>2018-01-15T17:55:07Z</time>
      </trkpt>
      <trkpt lat="46.70628" lon="-1.92248">
        <ele>20</ele>
        <time>2018-01-15T17:56:07Z</time>
      </trkpt>
      <trkpt lat="46.70619" lon="-1.92271">
        <ele>19</ele>
        <time>2018-01-15T17:57:07Z</time>
      </trkpt>
      <trkpt lat="46.7061" lon="-1.92289">
        <ele>19</ele>
        <time>2018-01-15T17:58:07Z</time>
      </trkpt>
      <trkpt lat="46.70602" lon="-1.92304">
        <ele>18</ele>
        <time>2018-01-15T17:59:07Z</time>
      </trkpt>
      <trkpt lat="46.70586" lon="-1.92327">
        <ele>18</ele>
        <time>2018-01-15T18:00:07Z</time>
      </trkpt>
      <trkpt lat="46.70582" lon="-1.92333">
        <ele>18</ele>
        <time>2018-01-15T18:01:07Z</time>
      </trkpt>
      <trkpt lat="46.70571" lon="-1.92356">
        <ele>17</ele>
        <time>2018-01-15T18:02:07Z</time>
      </trkpt>
      <trkpt lat="46.70562" lon="-1.92377">
        <ele>17</ele>
        <time>2018-01-15T18:03:07Z</time>
      </trkpt>
      <trkpt lat="46.70559" lon="-1.92387">
        <ele>16</ele>
        <time>2018-01-15T18:04:07Z</time>
      </trkpt>
      <trkpt lat="46.70555" lon="-1.92398">
        <ele>16</ele>
        <time>2018-01-15T18:05:07Z</time>
      </trkpt>
      <trkpt lat="46.70552" lon="-1.92414">
        <ele>16</ele>
        <time>2018-01-15T18:06:07Z</time>
      </trkpt>
      <trkpt lat="46.70546" lon="-1.92441">
        <ele>15</ele>
        <time>2018-01-15T18:07:07Z</time>
      </trkpt>
      <trkpt lat="46.70541" lon="-1.92464">
        <ele>15</ele>
        <time>2018-01-15T18:08:07Z</time>
      </trkpt>
      <trkpt lat="46.7054" lon="-1.92472">
        <ele>15</ele>
        <time>2018-01-15T18:09:07Z</time>
      </trkpt>
      <trkpt lat="46.70535" lon="-1.92496">
        <ele>14</ele>
        <time>2018-01-15T18:10:07Z</time>
      </trkpt>
      <trkpt lat="46.70534" lon="-1.925">
        <ele>14</ele>
        <time>2018-01-15T18:11:07Z</time>
      </trkpt>
      <trkpt lat="46.70533" lon="-1.92502">
        <ele>14</ele>
        <time>2018-01-15T18:12:07Z</time>
      </trkpt>
      <trkpt lat="46.70527" lon="-1.92538">
        <ele>13</ele>
        <time>2018-01-15T18:13:07Z</time>
      </trkpt>
      <trkpt lat="46.70523" lon="-1.92561">
        <ele>12</ele>
        <time>2018-01-15T18:14:07Z</time>
      </trkpt>
      <trkpt lat="46.70524" lon="-1.92565">
        <ele>12</ele>
        <time>2018-01-15T18:15:07Z</time>
      </trkpt>
      <trkpt lat="46.70525" lon="-1.92575">
        <ele>12</ele>
        <time>2018-01-15T18:16:07Z</time>
      </trkpt>
      <trkpt lat="46.70525" lon="-1.92582">
        <ele>12</ele>
        <time>2018-01-15T18:17:07Z</time>
      </trkpt>
      <trkpt lat="46.70525" lon="-1.92582">
        <ele>12</ele>
        <time>2018-01-15T18:18:07Z</time>
      </trkpt>
      <trkpt lat="46.70529" lon="-1.92587">
        <ele>12</ele>
        <time>2018-01-15T18:19:07Z</time>
      </trkpt>
      <trkpt lat="46.7053" lon="-1.92592">
        <ele>12</ele>
        <time>2018-01-15T18:20:07Z</time>
      </trkpt>
      <trkpt lat="46.70531" lon="-1.92598">
        <ele>12</ele>
        <time>2018-01-15T18:21:07Z</time>
      </trkpt>
      <trkpt lat="46.7053" lon="-1.92602">
        <ele>12</ele>
        <time>2018-01-15T18:22:07Z</time>
      </trkpt>
      <trkpt lat="46.70528" lon="-1.92606">
        <ele>12</ele>
        <time>2018-01-15T18:23:07Z</time>
      </trkpt>
      <trkpt lat="46.70527" lon="-1.92607">
        <ele>12</ele>
        <time>2018-01-15T18:24:07Z</time>
      </trkpt>
      <trkpt lat="46.70525" lon="-1.92609">
        <ele>12</ele>
        <time>2018-01-15T18:25:07Z</time>
      </trkpt>
      <trkpt lat="46.70523" lon="-1.92609">
        <ele>11</ele>
        <time>2018-01-15T18:26:07Z</time>
      </trkpt>
      <trkpt lat="46.70512" lon="-1.92624">
        <ele>11</ele>
        <time>2018-01-15T18:27:07Z</time>
      </trkpt>
      <trkpt lat="46.70507" lon="-1.92632">
        <ele>11</ele>
        <time>2018-01-15T18:28:07Z</time>
      </trkpt>
      <trkpt lat="46.70504" lon="-1.92634">
        <ele>11</ele>
        <time>2018-01-15T18:29:07Z</time>
      </trkpt>
      <trkpt lat="46.70499" lon="-1.9265">
        <ele>11</ele>
        <time>2018-01-15T18:30:07Z</time>
      </trkpt>
      <trkpt lat="46.70496" lon="-1.9267">
        <ele>11</ele>
        <time>2018-01-15T18:31:07Z</time>
      </trkpt>
      <trkpt lat="46.70489" lon="-1.92701">
        <ele>10</ele>
        <time>2018-01-15T18:32:07Z</time>
      </trkpt>
      <trkpt lat="46.70484" lon="-1.9273">
        <ele>9</ele>
        <time>2018-01-15T18:33:07Z</time>
      </trkpt>
      <trkpt lat="46.70482" lon="-1.92747">
        <ele>8</ele>
        <time>2018-01-15T18:34:07Z</time>
      </trkpt>
      <trkpt lat="46.70478" lon="-1.92796">
        <ele>8</ele>
        <time>2018-01-15T18:35:07Z</time>
      </trkpt>
      <trkpt lat="46.70475" lon="-1.92841">
        <ele>8</ele>
        <time>2018-01-15T18:36:07Z</time>
      </trkpt>
      <trkpt lat="46.70472" lon="-1.92898">
        <ele>8</ele>
        <time>2018-01-15T18:37:07Z</time>
      </trkpt>
      <trkpt lat="46.70468" lon="-1.92952">
        <ele>7</ele>
        <time>2018-01-15T18:38:07Z</time>
      </trkpt>
      <trkpt lat="46.70465" lon="-1.93009">
        <ele>6</ele>
        <time>2018-01-15T18:39:07Z</time>
      </trkpt>
      <trkpt lat="46.70462" lon="-1.93045">
        <ele>6</ele>
        <time>2018-01-15T18:40:07Z</time>
      </trkpt>
      <trkpt lat="46.70458" lon="-1.93108">
        <ele>5</ele>
        <time>2018-01-15T18:41:07Z</time>
      </trkpt>
      <trkpt lat="46.70455" lon="-1.93156">
        <ele>5</ele>
        <time>2018-01-15T18:42:07Z</time>
      </trkpt>
      <trkpt lat="46.70452" lon="-1.93209">
        <ele>4</ele>
        <time>2018-01-15T18:43:07Z</time>
      </trkpt>
      <trkpt lat="46.70449" lon="-1.93254">
        <ele>3</ele>
        <time>2018-01-15T18:44:07Z</time>
      </trkpt>
      <trkpt lat="46.70449" lon="-1.93267">
        <ele>3</ele>
        <time>2018-01-15T18:45:07Z</time>
      </trkpt>
      <trkpt lat="46.70449" lon="-1.93267">
        <ele>3</ele>
        <time>2018-01-15T18:46:07Z</time>
      </trkpt>
      <trkpt lat="46.70439" lon="-1.93265">
        <ele>3</ele>
        <time>2018-01-15T18:47:07Z</time>
      </trkpt>
      <trkpt lat="46.70429" lon="-1.93262">
        <ele>3</ele>
        <time>2018-01-15T18:48:07Z</time>
      </trkpt>
      <trkpt lat="46.70419" lon="-1.93258">
        <ele>3</ele>
        <time>2018-01-15T18:49:07Z</time>
      </trkpt>
      <trkpt lat="46.70398" lon="-1.93249">
        <ele>3</ele>
        <time>2018-01-15T18:50:07Z</time>
      </trkpt>
      <trkpt lat="46.70362" lon="-1.9324">
        <ele>2</ele>
        <time>2018-01-15T18:51:07Z</time>
      </trkpt>
      <trkpt lat="46.70328" lon="-1.93232">
        <ele>2</ele>
        <time>2018-01-15T18:52:07Z</time>
      </trkpt>
      <trkpt lat="46.70304" lon="-1.9323">
        <ele>2</ele>
        <time>2018-01-15T18:53:07Z</time>
      </trkpt>
      <trkpt lat="46.70304" lon="-1.9323">
        <ele>2</ele>
        <time>2018-01-15T18:54:07Z</time>
      </trkpt>
      <trkpt lat="46.70295" lon="-1.93245">
        <ele>2</ele>
        <time>2018-01-15T18:55:07Z</time>
      </trkpt>
      <trkpt lat="46.70288" lon="-1.93253">
        <ele>2</ele>
        <time>2018-01-15T18:56:07Z</time>
      </trkpt>
      <trkpt lat="46.7028" lon="-1.9326">
        <ele>2</ele>
        <time>2018-01-15T18:57:07Z</time>
      </trkpt>
      <trkpt lat="46.70276" lon="-1.93263">
        <ele>2</ele>
        <time>2018-01-15T18:58:07Z</time>
      </trkpt>
      <trkpt lat="46.70263" lon="-1.93271">
        <ele>2</ele>
        <time>2018-01-15T18:59:07Z</time>
      </trkpt>
      <trkpt lat="46.70251" lon="-1.9328">
        <ele>2</ele>
        <time>2018-01-15T19:00:07Z</time>
      </trkpt>
      <trkpt lat="46.70239" lon="-1.93295">
        <ele>2</ele>
        <time>2018-01-15T19:01:07Z</time>
      </trkpt>
      <trkpt lat="46.70224" lon="-1.9332">
        <ele>1</ele>
        <time>2018-01-15T19:02:07Z</time>
      </trkpt>
      <trkpt lat="46.70216" lon="-1.93332">
        <ele>1</ele>
        <time>2018-01-15T19:03:07Z</time>
      </trkpt>
      <trkpt lat="46.70211" lon="-1.9334">
        <ele>1</ele>
        <time>2018-01-15T19:04:07Z</time>
      </trkpt>
      <trkpt lat="46.70205" lon="-1.93347">
        <ele>1</ele>
        <time>2018-01-15T19:05:07Z</time>
      </trkpt>
      <trkpt lat="46.70194" lon="-1.93356">
        <ele>1</ele>
        <time>2018-01-15T19:06:07Z</time>
      </trkpt>
      <trkpt lat="46.70181" lon="-1.93366">
        <ele>2</ele>
        <time>2018-01-15T19:07:07Z</time>
      </trkpt>
      <trkpt lat="46.70173" lon="-1.93372">
        <ele>1</ele>
        <time>2018-01-15T19:08:07Z</time>
      </trkpt>
      <trkpt lat="46.7017" lon="-1.93374">
        <ele>1</ele>
        <time>2018-01-15T19:09:07Z</time>
      </trkpt>
      <trkpt lat="46.70166" lon="-1.9338">
        <ele>1</ele>
        <time>2018-01-15T19:10:07Z</time>
      </trkpt>
      <trkpt lat="46.70161" lon="-1.93382">
        <ele>1</ele>
        <time>2018-01-15T19:11:07Z</time>
      </trkpt>
      <trkpt lat="46.70152" lon="-1.93386">
        <ele>1</ele>
        <time>2018-01-15T19:12:07Z</time>
      </trkpt>
      <trkpt lat="46.70141" lon="-1.93391">
        <ele>1</ele>
        <time>2018-01-15T19:13:07Z</time>
      </trkpt>
      <trkpt lat="46.70141" lon="-1.93391">
        <ele>1</ele>
        <time>2018-01-15T19:14:07Z</time>
      </trkpt>
      <trkpt lat="46.70141" lon="-1.93393">
        <ele>1</ele>
        <time>2018-01-15T19:15:07Z</time>
      </trkpt>
      <trkpt lat="46.70141" lon="-1.93394">
        <ele>1</ele>
        <time>2018-01-15T19:16:07Z</time>
      </trkpt>
      <trkpt lat="46.70141" lon="-1.93395">
        <ele>1</ele>
        <time>2018-01-15T19:17:07Z</time>
      </trkpt>
      <trkpt lat="46.7014" lon="-1.93396">
        <ele>1</ele>
        <time>2018-01-15T19:18:07Z</time>
      </trkpt>
      <trkpt lat="46.7014" lon="-1.93397">
        <ele>1</ele>
        <time>2018-01-15T19:19:07Z</time>
      </trkpt>
      <trkpt lat="46.7014" lon="-1.93398">
        <ele>1</ele>
        <time>2018-01-15T19:20:07Z</time>
      </trkpt>
      <trkpt lat="46.70139" lon="-1.93399">
        <ele>1</ele>
        <time>2018-01-15T19:21:07Z</time>
      </trkpt>
      <trkpt lat="46.70139" lon="-1.93401">
        <ele>1</ele>
        <time>2018-01-15T19:22:07Z</time>
      </trkpt>
      <trkpt lat="46.70138" lon="-1.93402">
        <ele>1</ele>
        <time>2018-01-15T19:23:07Z</time>
      </trkpt>
      <trkpt lat="46.70138" lon="-1.93403">
        <ele>1</ele>
        <time>2018-01-15T19:24:07Z</time>
      </trkpt>
      <trkpt lat="46.70137" lon="-1.93403">
        <ele>1</ele>
        <time>2018-01-15T19:25:07Z</time>
      </trkpt>
      <trkpt lat="46.70136" lon="-1.93404">
        <ele>1</ele>
        <time>2018-01-15T19:26:07Z</time>
      </trkpt>
      <trkpt lat="46.70136" lon="-1.93405">
        <ele>1</ele>
        <time>2018-01-15T19:27:07Z</time>
      </trkpt>
      <trkpt lat="46.70135" lon="-1.93406">
        <ele>1</ele>
        <time>2018-01-15T19:28:07Z</time>
      </trkpt>
      <trkpt lat="46.70134" lon="-1.93406">
        <ele>1</ele>
        <time>2018-01-15T19:29:07Z</time>
      </trkpt>
      <trkpt lat="46.70133" lon="-1.93407">
        <ele>1</ele>
        <time>2018-01-15T19:30:07Z</time>
      </trkpt>
      <trkpt lat="46.70132" lon="-1.93408">
        <ele>1</ele>
        <time>2018-01-15T19:31:07Z</time>
      </trkpt>
      <trkpt lat="46.70131" lon="-1.93408">
        <ele>1</ele>
        <time>2018-01-15T19:32:07Z</time>
      </trkpt>
      <trkpt lat="46.7013" lon="-1.93409">
        <ele>1</ele>
        <time>2018-01-15T19:33:07Z</time>
      </trkpt>
      <trkpt lat="46.70129" lon="-1.93409">
        <ele>1</ele>
        <time>2018-01-15T19:34:07Z</time>
      </trkpt>
      <trkpt lat="46.70128" lon="-1.93409">
        <ele>1</ele>
        <time>2018-01-15T19:35:07Z</time>
      </trkpt>
      <trkpt lat="46.70127" lon="-1.93409">
        <ele>1</ele>
        <time>2018-01-15T19:36:07Z</time>
      </trkpt>
      <trkpt lat="46.70126" lon="-1.93409">
        <ele>1</ele>
        <time>2018-01-15T19:37:07Z</time>
      </trkpt>
      <trkpt lat="46.70125" lon="-1.93409">
        <ele>1</ele>
        <time>2018-01-15T19:38:07Z</time>
      </trkpt>
      <trkpt lat="46.70124" lon="-1.93408">
        <ele>2</ele>
        <time>2018-01-15T19:39:07Z</time>
      </trkpt>
      <trkpt lat="46.70123" lon="-1.93408">
        <ele>2</ele>
        <time>2018-01-15T19:40:07Z</time>
      </trkpt>
      <trkpt lat="46.70122" lon="-1.93407">
        <ele>2</ele>
        <time>2018-01-15T19:41:07Z</time>
      </trkpt>
      <trkpt lat="46.70121" lon="-1.93407">
        <ele>2</ele>
        <time>2018-01-15T19:42:07Z</time>
      </trkpt>
      <trkpt lat="46.7012" lon="-1.93406">
        <ele>2</ele>
        <time>2018-01-15T19:43:07Z</time>
      </trkpt>
      <trkpt lat="46.7012" lon="-1.93405">
        <ele>2</ele>
        <time>2018-01-15T19:44:07Z</time>
      </trkpt>
      <trkpt lat="46.70119" lon="-1.93405">
        <ele>2</ele>
        <time>2018-01-15T19:45:07Z</time>
      </trkpt>
      <trkpt lat="46.70107" lon="-1.93404">
        <ele>2</ele>
        <time>2018-01-15T19:46:07Z</time>
      </trkpt>
      <trkpt lat="46.701" lon="-1.93405">
        <ele>2</ele>
        <time>2018-01-15T19:47:07Z</time>
      </trkpt>
      <trkpt lat="46.70092" lon="-1.93406">
        <ele>2</ele>
        <time>2018-01-15T19:48:07Z</time>
      </trkpt>
      <trkpt lat="46.70088" lon="-1.93406">
        <ele>2</ele>
        <time>2018-01-15T19:49:07Z</time>
      </trkpt>
      <trkpt lat="46.70085" lon="-1.93405">
        <ele>2</ele>
        <time>2018-01-15T19:50:07Z</time>
      </trkpt>
      <trkpt lat="46.70083" lon="-1.93405">
        <ele>2</ele>
        <time>2018-01-15T19:51:07Z</time>
      </trkpt>
      <trkpt lat="46.70062" lon="-1.93405">
        <ele>2</ele>
        <time>2018-01-15T19:52:07Z</time>
      </trkpt>
      <trkpt lat="46.70062" lon="-1.93406">
        <ele>2</ele>
        <time>2018-01-15T19:53:07Z</time>
      </trkpt>
      <trkpt lat="46.70062" lon="-1.93407">
        <ele>2</ele>
        <time>2018-01-15T19:54:07Z</time>
      </trkpt>
      <trkpt lat="46.70062" lon="-1.93408">
        <ele>2</ele>
        <time>2018-01-15T19:55:07Z</time>
      </trkpt>
      <trkpt lat="46.70062" lon="-1.93409">
        <ele>2</ele>
        <time>2018-01-15T19:56:07Z</time>
      </trkpt>
      <trkpt lat="46.70062" lon="-1.9341">
        <ele>2</ele>
        <time>2018-01-15T19:57:07Z</time>
      </trkpt>
      <trkpt lat="46.70061" lon="-1.9341">
        <ele>2</ele>
        <time>2018-01-15T19:58:07Z</time>
      </trkpt>
      <trkpt lat="46.70061" lon="-1.93411">
        <ele>2</ele>
        <time>2018-01-15T19:59:07Z</time>
      </trkpt>
      <trkpt lat="46.7006" lon="-1.93411">
        <ele>2</ele>
        <time>2018-01-15T20:00:07Z</time>
      </trkpt>
      <trkpt lat="46.7006" lon="-1.93412">
        <ele>2</ele>
        <time>2018-01-15T20:01:07Z</time>
      </trkpt>
      <trkpt lat="46.70059" lon="-1.93412">
        <ele>2</ele>
        <time>2018-01-15T20:02:07Z</time>
      </trkpt>
      <trkpt lat="46.70059" lon="-1.93413">
        <ele>2</ele>
        <time>2018-01-15T20:03:07Z</time>
      </trkpt>
      <trkpt lat="46.70058" lon="-1.93413">
        <ele>2</ele>
        <time>2018-01-15T20:04:07Z</time>
      </trkpt>
      <trkpt lat="46.70057" lon="-1.93413">
        <ele>2</ele>
        <time>2018-01-15T20:05:07Z</time>
      </trkpt>
      <trkpt lat="46.70056" lon="-1.93413">
        <ele>2</ele>
        <time>2018-01-15T20:06:07Z</time>
      </trkpt>
      <trkpt lat="46.70055" lon="-1.93413">
        <ele>2</ele>
        <time>2018-01-15T20:07:07Z</time>
      </trkpt>
      <trkpt lat="46.70055" lon="-1.93412">
        <ele>2</ele>
        <time>2018-01-15T20:08:07Z</time>
      </trkpt>
      <trkpt lat="46.70054" lon="-1.93412">
        <ele>2</ele>
        <time>2018-01-15T20:09:07Z</time>
      </trkpt>
      <trkpt lat="46.70054" lon="-1.93411">
        <ele>2</ele>
        <time>2018-01-15T20:10:07Z</time>
      </trkpt>
      <trkpt lat="46.70053" lon="-1.93411">
        <ele>2</ele>
        <time>2018-01-15T20:11:07Z</time>
      </trkpt>
      <trkpt lat="46.70053" lon="-1.9341">
        <ele>2</ele>
        <time>2018-01-15T20:12:07Z</time>
      </trkpt>
      <trkpt lat="46.70053" lon="-1.93409">
        <ele>2</ele>
        <time>2018-01-15T20:13:07Z</time>
      </trkpt>
      <trkpt lat="46.70052" lon="-1.93409">
        <ele>2</ele>
        <time>2018-01-15T20:14:07Z</time>
      </trkpt>
      <trkpt lat="46.70052" lon="-1.93408">
        <ele>2</ele>
        <time>2018-01-15T20:15:07Z</time>
      </trkpt>
      <trkpt lat="46.70052" lon="-1.93407">
        <ele>2</ele>
        <time>2018-01-15T20:16:07Z</time>
      </trkpt>
      <trkpt lat="46.70052" lon="-1.93406">
        <ele>2</ele>
        <time>2018-01-15T20:17:07Z</time>
      </trkpt>
      <trkpt lat="46.70052" lon="-1.93405">
        <ele>2</ele>
        <time>2018-01-15T20:18:07Z</time>
      </trkpt>
      <trkpt lat="46.70046" lon="-1.93402">
        <ele>2</ele>
        <time>2018-01-15T20:19:07Z</time>
      </trkpt>
      <trkpt lat="46.70043" lon="-1.93401">
        <ele>2</ele>
        <time>2018-01-15T20:20:07Z</time>
      </trkpt>
      <trkpt lat="46.70041" lon="-1.934">
        <ele>2</ele>
        <time>2018-01-15T20:21:07Z</time>
      </trkpt>
      <trkpt lat="46.70038" lon="-1.93398">
        <ele>2</ele>
        <time>2018-01-15T20:22:07Z</time>
      </trkpt>
      <trkpt lat="46.70036" lon="-1.93397">
        <ele>2</ele>
        <time>2018-01-15T20:23:07Z</time>
      </trkpt>
      <trkpt lat="46.70033" lon="-1.93394">
        <ele>2</ele>
        <time>2018-01-15T20:24:07Z</time>
      </trkpt>
      <trkpt lat="46.7003" lon="-1.93391">
        <ele>3</ele>
        <time>2018-01-15T20:25:07Z</time>
      </trkpt>
      <trkpt lat="46.70028" lon="-1.93388">
        <ele>3</ele>
        <time>2018-01-15T20:26:07Z</time>
      </trkpt>
      <trkpt lat="46.70025" lon="-1.93386">
        <ele>3</ele>
        <time>2018-01-15T20:27:07Z</time>
      </trkpt>
      <trkpt lat="46.70023" lon="-1.93384">
        <ele>3</ele>
        <time>2018-01-15T20:28:07Z</time>
      </trkpt>
      <trkpt lat="46.7002" lon="-1.93382">
        <ele>3</ele>
        <time>2018-01-15T20:29:07Z</time>
      </trkpt>
      <trkpt lat="46.70015" lon="-1.9338">
        <ele>3</ele>
        <time>2018-01-15T20:30:07Z</time>
      </trkpt>
      <trkpt lat="46.70002" lon="-1.93375">
        <ele>3</ele>
        <time>2018-01-15T20:31:07Z</time>
      </trkpt>
      <trkpt lat="46.69987" lon="-1.93369">
        <ele>3</ele>
        <time>2018-01-15T20:32:07Z</time>
      </trkpt>
      <trkpt lat="46.69982" lon="-1.93367">
        <ele>3</ele>
        <time>2018-01-15T20:33:07Z</time>
      </trkpt>
      <trkpt lat="46.69979" lon="-1.93366">
        <ele>3</ele>
        <time>2018-01-15T20:34:07Z</time>
      </trkpt>
      <trkpt lat="46.69978" lon="-1.93366">
        <ele>3</ele>
        <time>2018-01-15T20:35:07Z</time>
      </trkpt>
      <trkpt lat="46.69976" lon="-1.93367">
        <ele>4</ele>
        <time>2018-01-15T20:36:07Z</time>
      </trkpt>
      <trkpt lat="46.69973" lon="-1.93367">
        <ele>4</ele>
        <time>2018-01-15T20:37:07Z</time>
      </trkpt>
      <trkpt lat="46.69969" lon="-1.9337">
        <ele>4</ele>
        <time>2018-01-15T20:38:07Z</time>
      </trkpt>
      <trkpt lat="46.69963" lon="-1.93373">
        <ele>4</ele>
        <time>2018-01-15T20:39:07Z</time>
      </trkpt>
      <trkpt lat="46.69958" lon="-1.93375">
        <ele>4</ele>
        <time>2018-01-15T20:40:07Z</time>
      </trkpt>
      <trkpt lat="46.69953" lon="-1.93377">
        <ele>4</ele>
        <time>2018-01-15T20:41:07Z</time>
      </trkpt>
      <trkpt lat="46.69949" lon="-1.93379">
        <ele>4</ele>
        <time>2018-01-15T20:42:07Z</time>
      </trkpt>
      <trkpt lat="46.69944" lon="-1.93381">
        <ele>4</ele>
        <time>2018-01-15T20:43:07Z</time>
      </trkpt>
      <trkpt lat="46.69935" lon="-1.93382">
        <ele>4</ele>
        <time>2018-01-15T20:44:07Z</time>
      </trkpt>
      <trkpt lat="46.69925" lon="-1.93383">
        <ele>4</ele>
        <time>2018-01-15T20:45:07Z</time>
      </trkpt>
      <trkpt lat="46.69922" lon="-1.93383">
        <ele>4</ele>
        <time>2018-01-15T20:46:07Z</time>
      </trkpt>
      <trkpt lat="46.69915" lon="-1.93383">
        <ele>4</ele>
        <time>2018-01-15T20:47:07Z</time>
      </trkpt>
      <trkpt lat="46.69915" lon="-1.93383">
        <ele>4</ele>
        <time>2018-01-15T20:48:07Z</time>
      </trkpt>
      <trkpt lat="46.69915" lon="-1.93384">
        <ele>4</ele>
        <time>2018-01-15T20:49:07Z</time>
      </trkpt>
      <trkpt lat="46.69913" lon="-1.93385">
        <ele>4</ele>
        <time>2018-01-15T20:50:07Z</time>
      </trkpt>
      <trkpt lat="46.69912" lon="-1.93386">
        <ele>4</ele>
        <time>2018-01-15T20:51:07Z</time>
      </trkpt>
      <trkpt lat="46.69911" lon="-1.93386">
        <ele>4</ele>
        <time>2018-01-15T20:52:07Z</time>
      </trkpt>
      <trkpt lat="46.69909" lon="-1.93385">
        <ele>4</ele>
        <time>2018-01-15T20:53:07Z</time>
      </trkpt>
      <trkpt lat="46.69908" lon="-1.93383">
        <ele>4</ele>
        <time>2018-01-15T20:54:07Z</time>
      </trkpt>
      <trkpt lat="46.69907" lon="-1.93379">
        <ele>5</ele>
        <time>2018-01-15T20:55:07Z</time>
      </trkpt>
      <trkpt lat="46.69908" lon="-1.93377">
        <ele>5</ele>
        <time>2018-01-15T20:56:07Z</time>
      </trkpt>
      <trkpt lat="46.69908" lon="-1.93376">
        <ele>5</ele>
        <time>2018-01-15T20:57:07Z</time>
      </trkpt>
      <trkpt lat="46.69909" lon="-1.93375">
        <ele>5</ele>
        <time>2018-01-15T20:58:07Z</time>
      </trkpt>
      <trkpt lat="46.69911" lon="-1.93375">
        <ele>5</ele>
        <time>2018-01-15T20:59:07Z</time>
      </trkpt>
    </trkseg>
  </trk>
</gpx>